<?xml version='1.0' encoding='UTF-8'?><gpx version="1.1" creator="JPX - https://github.com/jenetics/jpx" xmlns="http://www.topografix.com/GPX/1/1"><trk><trkseg><trkpt lat="44.8779464" lon="8.8892261"><ele>221.14285714285714</ele><time>2026-04-08T13:15:23.047Z</time></trkpt><trkpt lat="44.8779739" lon="8.8893116"><ele>220.2857142857143</ele><time>2026-04-08T13:15:31.077Z</time></trkpt><trkpt lat="44.8778944" lon="8.8893202"><ele>219.42857142857144</ele><time>2026-04-08T13:15:46.046Z</time></trkpt><trkpt lat="44.8778343" lon="8.8893518"><ele>218.57142857142856</ele><time>2026-04-08T13:15:52.046Z</time></trkpt><trkpt lat="44.8778392" lon="8.8894419"><ele>217.71428571428572</ele><time>2026-04-08T13:16:05.047Z</time></trkpt><trkpt lat="44.8778909" lon="8.8893794"><ele>216.85714285714286</ele><time>2026-04-08T13:16:42.046Z</time></trkpt><trkpt lat="44.8778375" lon="8.8894337"><ele>216.0</ele><time>2026-04-08T13:16:56.045Z</time></trkpt><trkpt lat="44.8777806" lon="8.8895004"><ele>216.0</ele><time>2026-04-08T13:16:59.046Z</time></trkpt><trkpt lat="44.8778159" lon="8.8895862"><ele>216.0</ele><time>2026-04-08T13:18:48.121Z</time></trkpt><trkpt lat="44.8779402" lon="8.8895944"><ele>216.0</ele><time>2026-04-08T13:19:14.101Z</time></trkpt><trkpt lat="44.8779048" lon="8.8896698"><ele>216.0</ele><time>2026-04-08T13:23:46.08Z</time></trkpt><trkpt lat="44.8779437" lon="8.8897446"><ele>216.0</ele><time>2026-04-08T13:23:57.096Z</time></trkpt><trkpt lat="44.8780213" lon="8.8898046"><ele>216.0</ele><time>2026-04-08T13:24:49.051Z</time></trkpt><trkpt lat="44.8779689" lon="8.8897489"><ele>216.0</ele><time>2026-04-08T13:27:07.044Z</time></trkpt><trkpt lat="44.8779049" lon="8.8898032"><ele>216.0</ele><time>2026-04-08T13:27:13.092Z</time></trkpt><trkpt lat="44.8778499" lon="8.8898513"><ele>216.0</ele><time>2026-04-08T13:27:23.045Z</time></trkpt><trkpt lat="44.8779" lon="8.8899317"><ele>216.0</ele><time>2026-04-08T13:33:07.044Z</time></trkpt><trkpt lat="44.877955" lon="8.889975"><ele>216.0</ele><time>2026-04-08T13:33:14.043Z</time></trkpt><trkpt lat="44.8780167" lon="8.8900283"><ele>216.0</ele><time>2026-04-08T13:34:17.043Z</time></trkpt><trkpt lat="44.8780183" lon="8.8901333"><ele>216.0</ele><time>2026-04-08T13:34:24.042Z</time></trkpt><trkpt lat="44.8779767" lon="8.8902233"><ele>214.60000000000002</ele><time>2026-04-08T13:34:26.043Z</time></trkpt><trkpt lat="44.877925" lon="8.8903117"><ele>213.20000000000002</ele><time>2026-04-08T13:34:28.043Z</time></trkpt><trkpt lat="44.87787" lon="8.890415"><ele>211.8</ele><time>2026-04-08T13:34:30.043Z</time></trkpt><trkpt lat="44.8778183" lon="8.8905233"><ele>210.39999999999998</ele><time>2026-04-08T13:34:32.042Z</time></trkpt><trkpt lat="44.8777433" lon="8.8906233"><ele>209.0</ele><time>2026-04-08T13:34:34.042Z</time></trkpt><trkpt lat="44.877645" lon="8.890735"><ele>207.00000000000003</ele><time>2026-04-08T13:34:36.042Z</time></trkpt><trkpt lat="44.8775833" lon="8.8907967"><ele>205.0</ele><time>2026-04-08T13:34:37.043Z</time></trkpt><trkpt lat="44.877525" lon="8.8908517"><ele>203.0</ele><time>2026-04-08T13:34:38.043Z</time></trkpt><trkpt lat="44.8774683" lon="8.8909033"><ele>201.0</ele><time>2026-04-08T13:34:39.043Z</time></trkpt><trkpt lat="44.8773983" lon="8.890945"><ele>199.00000000000003</ele><time>2026-04-08T13:34:40.042Z</time></trkpt><trkpt lat="44.87732" lon="8.8909733"><ele>197.0</ele><time>2026-04-08T13:34:41.042Z</time></trkpt><trkpt lat="44.8772233" lon="8.890985"><ele>195.0</ele><time>2026-04-08T13:34:42.043Z</time></trkpt><trkpt lat="44.8771133" lon="8.8909883"><ele>193.0</ele><time>2026-04-08T13:34:43.042Z</time></trkpt><trkpt lat="44.87699" lon="8.8909817"><ele>191.0</ele><time>2026-04-08T13:34:44.042Z</time></trkpt><trkpt lat="44.876865" lon="8.8909733"><ele>189.0</ele><time>2026-04-08T13:34:45.043Z</time></trkpt><trkpt lat="44.8767283" lon="8.890955"><ele>188.25</ele><time>2026-04-08T13:34:46.042Z</time></trkpt><trkpt lat="44.876595" lon="8.8909217"><ele>187.5</ele><time>2026-04-08T13:34:47.043Z</time></trkpt><trkpt lat="44.87646" lon="8.8908667"><ele>186.75</ele><time>2026-04-08T13:34:48.042Z</time></trkpt><trkpt lat="44.87632" lon="8.89079"><ele>186.0</ele><time>2026-04-08T13:34:49.042Z</time></trkpt><trkpt lat="44.8761867" lon="8.8907067"><ele>186.0</ele><time>2026-04-08T13:34:50.042Z</time></trkpt><trkpt lat="44.876045" lon="8.8906117"><ele>186.0</ele><time>2026-04-08T13:34:51.042Z</time></trkpt><trkpt lat="44.8759033" lon="8.89052"><ele>186.0</ele><time>2026-04-08T13:34:52.042Z</time></trkpt><trkpt lat="44.8757583" lon="8.890425"><ele>182.0</ele><time>2026-04-08T13:34:53.042Z</time></trkpt><trkpt lat="44.875615" lon="8.8903367"><ele>178.0</ele><time>2026-04-08T13:34:54.042Z</time></trkpt><trkpt lat="44.8754817" lon="8.8902467"><ele>174.0</ele><time>2026-04-08T13:34:55.043Z</time></trkpt><trkpt lat="44.8753533" lon="8.89014"><ele>172.75</ele><time>2026-04-08T13:34:56.043Z</time></trkpt><trkpt lat="44.87522" lon="8.8900317"><ele>171.5</ele><time>2026-04-08T13:34:57.043Z</time></trkpt><trkpt lat="44.8750917" lon="8.8899233"><ele>170.25</ele><time>2026-04-08T13:34:58.042Z</time></trkpt><trkpt lat="44.8749683" lon="8.8898167"><ele>169.0</ele><time>2026-04-08T13:34:59.042Z</time></trkpt><trkpt lat="44.8748383" lon="8.8897183"><ele>169.0</ele><time>2026-04-08T13:35:00.042Z</time></trkpt><trkpt lat="44.87471" lon="8.8896133"><ele>169.0</ele><time>2026-04-08T13:35:01.042Z</time></trkpt><trkpt lat="44.874595" lon="8.88949"><ele>169.0</ele><time>2026-04-08T13:35:02.043Z</time></trkpt><trkpt lat="44.8744933" lon="8.8893517"><ele>169.0</ele><time>2026-04-08T13:35:03.042Z</time></trkpt><trkpt lat="44.8744" lon="8.8892083"><ele>170.5</ele><time>2026-04-08T13:35:04.043Z</time></trkpt><trkpt lat="44.8743133" lon="8.8890667"><ele>172.0</ele><time>2026-04-08T13:35:05.043Z</time></trkpt><trkpt lat="44.8742217" lon="8.88894"><ele>173.5</ele><time>2026-04-08T13:35:06.043Z</time></trkpt><trkpt lat="44.87413" lon="8.8888167"><ele>175.0</ele><time>2026-04-08T13:35:07.042Z</time></trkpt><trkpt lat="44.8740433" lon="8.88869"><ele>172.75</ele><time>2026-04-08T13:35:08.043Z</time></trkpt><trkpt lat="44.8739683" lon="8.88856"><ele>170.5</ele><time>2026-04-08T13:35:09.043Z</time></trkpt><trkpt lat="44.8738983" lon="8.8884267"><ele>168.25</ele><time>2026-04-08T13:35:10.042Z</time></trkpt><trkpt lat="44.8738383" lon="8.8882817"><ele>166.0</ele><time>2026-04-08T13:35:11.043Z</time></trkpt><trkpt lat="44.8737883" lon="8.8881333"><ele>166.0</ele><time>2026-04-08T13:35:12.042Z</time></trkpt><trkpt lat="44.8737383" lon="8.8879833"><ele>166.0</ele><time>2026-04-08T13:35:13.043Z</time></trkpt><trkpt lat="44.8736867" lon="8.8878383"><ele>166.0</ele><time>2026-04-08T13:35:14.043Z</time></trkpt><trkpt lat="44.8736267" lon="8.887705"><ele>166.0</ele><time>2026-04-08T13:35:15.042Z</time></trkpt><trkpt lat="44.8735633" lon="8.8875917"><ele>166.0</ele><time>2026-04-08T13:35:16.043Z</time></trkpt><trkpt lat="44.87349" lon="8.8875167"><ele>164.0</ele><time>2026-04-08T13:35:17.042Z</time></trkpt><trkpt lat="44.873405" lon="8.8874817"><ele>162.0</ele><time>2026-04-08T13:35:18.042Z</time></trkpt><trkpt lat="44.8733167" lon="8.8874833"><ele>160.0</ele><time>2026-04-08T13:35:19.043Z</time></trkpt><trkpt lat="44.8732317" lon="8.8874967"><ele>158.0</ele><time>2026-04-08T13:35:20.042Z</time></trkpt><trkpt lat="44.8731483" lon="8.8875217"><ele>156.0</ele><time>2026-04-08T13:35:21.042Z</time></trkpt><trkpt lat="44.873065" lon="8.8875633"><ele>154.0</ele><time>2026-04-08T13:35:22.042Z</time></trkpt><trkpt lat="44.8729867" lon="8.8876217"><ele>153.8</ele><time>2026-04-08T13:35:23.042Z</time></trkpt><trkpt lat="44.8729133" lon="8.887695"><ele>153.60000000000002</ele><time>2026-04-08T13:35:24.043Z</time></trkpt><trkpt lat="44.8728483" lon="8.887785"><ele>153.4</ele><time>2026-04-08T13:35:25.042Z</time></trkpt><trkpt lat="44.8727933" lon="8.887895"><ele>153.20000000000002</ele><time>2026-04-08T13:35:26.042Z</time></trkpt><trkpt lat="44.872745" lon="8.8880167"><ele>153.0</ele><time>2026-04-08T13:35:27.042Z</time></trkpt><trkpt lat="44.8726933" lon="8.88816"><ele>153.0</ele><time>2026-04-08T13:35:28.042Z</time></trkpt><trkpt lat="44.872635" lon="8.8883167"><ele>153.0</ele><time>2026-04-08T13:35:29.043Z</time></trkpt><trkpt lat="44.8725783" lon="8.8884733"><ele>153.0</ele><time>2026-04-08T13:35:30.042Z</time></trkpt><trkpt lat="44.8725233" lon="8.8886283"><ele>153.0</ele><time>2026-04-08T13:35:31.042Z</time></trkpt><trkpt lat="44.8724767" lon="8.8887617"><ele>153.33333333333334</ele><time>2026-04-08T13:35:32.042Z</time></trkpt><trkpt lat="44.87243" lon="8.8888717"><ele>153.66666666666666</ele><time>2026-04-08T13:35:33.043Z</time></trkpt><trkpt lat="44.8723883" lon="8.8889767"><ele>154.0</ele><time>2026-04-08T13:35:34.042Z</time></trkpt><trkpt lat="44.8723517" lon="8.8890867"><ele>154.33333333333331</ele><time>2026-04-08T13:35:35.042Z</time></trkpt><trkpt lat="44.87232" lon="8.8892117"><ele>154.66666666666666</ele><time>2026-04-08T13:35:36.043Z</time></trkpt><trkpt lat="44.8722883" lon="8.889335"><ele>155.0</ele><time>2026-04-08T13:35:37.042Z</time></trkpt><trkpt lat="44.8722583" lon="8.8894467"><ele>155.0</ele><time>2026-04-08T13:35:38.042Z</time></trkpt><trkpt lat="44.8722267" lon="8.8895517"><ele>155.0</ele><time>2026-04-08T13:35:39.043Z</time></trkpt><trkpt lat="44.8721817" lon="8.8896467"><ele>155.0</ele><time>2026-04-08T13:35:40.042Z</time></trkpt><trkpt lat="44.8720833" lon="8.8897183"><ele>155.0</ele><time>2026-04-08T13:35:41.042Z</time></trkpt><trkpt lat="44.8719733" lon="8.8898067"><ele>155.0</ele><time>2026-04-08T13:35:42.042Z</time></trkpt><trkpt lat="44.8718783" lon="8.8898933"><ele>155.0</ele><time>2026-04-08T13:35:43.042Z</time></trkpt><trkpt lat="44.8718" lon="8.8900117"><ele>155.0</ele><time>2026-04-08T13:35:44.042Z</time></trkpt><trkpt lat="44.8717367" lon="8.8901883"><ele>155.0</ele><time>2026-04-08T13:35:45.042Z</time></trkpt><trkpt lat="44.8716717" lon="8.8903783"><ele>155.0</ele><time>2026-04-08T13:35:46.043Z</time></trkpt><trkpt lat="44.871605" lon="8.8905733"><ele>156.0</ele><time>2026-04-08T13:35:47.042Z</time></trkpt><trkpt lat="44.871545" lon="8.89076"><ele>157.0</ele><time>2026-04-08T13:35:48.042Z</time></trkpt><trkpt lat="44.8714983" lon="8.8909333"><ele>158.0</ele><time>2026-04-08T13:35:49.042Z</time></trkpt><trkpt lat="44.87144" lon="8.8910983"><ele>159.0</ele><time>2026-04-08T13:35:50.042Z</time></trkpt><trkpt lat="44.871375" lon="8.8912433"><ele>159.0</ele><time>2026-04-08T13:35:51.043Z</time></trkpt><trkpt lat="44.8712983" lon="8.8913817"><ele>159.0</ele><time>2026-04-08T13:35:52.043Z</time></trkpt><trkpt lat="44.871215" lon="8.8915283"><ele>159.0</ele><time>2026-04-08T13:35:53.042Z</time></trkpt><trkpt lat="44.8711467" lon="8.8916733"><ele>159.0</ele><time>2026-04-08T13:35:54.042Z</time></trkpt><trkpt lat="44.8710817" lon="8.8918133"><ele>159.5</ele><time>2026-04-08T13:35:55.042Z</time></trkpt><trkpt lat="44.8710133" lon="8.89195"><ele>160.0</ele><time>2026-04-08T13:35:56.042Z</time></trkpt><trkpt lat="44.87094" lon="8.8921067"><ele>160.5</ele><time>2026-04-08T13:35:57.042Z</time></trkpt><trkpt lat="44.87087" lon="8.8922767"><ele>161.0</ele><time>2026-04-08T13:35:58.042Z</time></trkpt><trkpt lat="44.8708033" lon="8.89246"><ele>161.5</ele><time>2026-04-08T13:35:59.043Z</time></trkpt><trkpt lat="44.8707533" lon="8.8926367"><ele>162.0</ele><time>2026-04-08T13:36:00.042Z</time></trkpt><trkpt lat="44.8707033" lon="8.8928033"><ele>162.5</ele><time>2026-04-08T13:36:01.042Z</time></trkpt><trkpt lat="44.8706533" lon="8.89296"><ele>163.0</ele><time>2026-04-08T13:36:02.043Z</time></trkpt><trkpt lat="44.8706133" lon="8.8931117"><ele>163.0</ele><time>2026-04-08T13:36:03.043Z</time></trkpt><trkpt lat="44.87057" lon="8.8932517"><ele>163.0</ele><time>2026-04-08T13:36:04.042Z</time></trkpt><trkpt lat="44.87053" lon="8.8933883"><ele>163.0</ele><time>2026-04-08T13:36:05.042Z</time></trkpt><trkpt lat="44.8704883" lon="8.8935083"><ele>163.0</ele><time>2026-04-08T13:36:06.042Z</time></trkpt><trkpt lat="44.8704517" lon="8.893615"><ele>163.0</ele><time>2026-04-08T13:36:07.043Z</time></trkpt><trkpt lat="44.870425" lon="8.89372"><ele>163.33333333333334</ele><time>2026-04-08T13:36:08.042Z</time></trkpt><trkpt lat="44.8704" lon="8.8938167"><ele>163.66666666666669</ele><time>2026-04-08T13:36:09.042Z</time></trkpt><trkpt lat="44.870355" lon="8.8939717"><ele>164.0</ele><time>2026-04-08T13:36:11.042Z</time></trkpt><trkpt lat="44.8703283" lon="8.8940533"><ele>164.33333333333334</ele><time>2026-04-08T13:36:12.042Z</time></trkpt><trkpt lat="44.8703033" lon="8.8941383"><ele>164.66666666666666</ele><time>2026-04-08T13:36:13.043Z</time></trkpt><trkpt lat="44.8702683" lon="8.8942333"><ele>165.0</ele><time>2026-04-08T13:36:14.042Z</time></trkpt><trkpt lat="44.8702433" lon="8.894345"><ele>165.6</ele><time>2026-04-08T13:36:15.042Z</time></trkpt><trkpt lat="44.8702167" lon="8.8944617"><ele>166.2</ele><time>2026-04-08T13:36:16.042Z</time></trkpt><trkpt lat="44.8701967" lon="8.894565"><ele>166.8</ele><time>2026-04-08T13:36:17.042Z</time></trkpt><trkpt lat="44.8701817" lon="8.89466"><ele>167.4</ele><time>2026-04-08T13:36:18.043Z</time></trkpt><trkpt lat="44.870175" lon="8.8948267"><ele>168.0</ele><time>2026-04-08T13:36:20.042Z</time></trkpt><trkpt lat="44.8701567" lon="8.89499"><ele>168.2</ele><time>2026-04-08T13:36:22.042Z</time></trkpt><trkpt lat="44.8700717" lon="8.8951"><ele>168.4</ele><time>2026-04-08T13:36:24.042Z</time></trkpt><trkpt lat="44.8699667" lon="8.8951233"><ele>168.6</ele><time>2026-04-08T13:36:26.042Z</time></trkpt><trkpt lat="44.869885" lon="8.8951083"><ele>168.79999999999998</ele><time>2026-04-08T13:36:27.043Z</time></trkpt><trkpt lat="44.869805" lon="8.8951017"><ele>169.0</ele><time>2026-04-08T13:36:28.042Z</time></trkpt><trkpt lat="44.8696867" lon="8.8951183"><ele>169.0</ele><time>2026-04-08T13:36:30.043Z</time></trkpt><trkpt lat="44.8696067" lon="8.8951917"><ele>169.0</ele><time>2026-04-08T13:36:32.042Z</time></trkpt><trkpt lat="44.8695817" lon="8.8953067"><ele>169.0</ele><time>2026-04-08T13:36:34.043Z</time></trkpt><trkpt lat="44.8695917" lon="8.8954033"><ele>169.0</ele><time>2026-04-08T13:38:42.042Z</time></trkpt><trkpt lat="44.8695917" lon="8.89555"><ele>169.0</ele><time>2026-04-08T13:38:44.041Z</time></trkpt><trkpt lat="44.8695883" lon="8.8956683"><ele>169.0</ele><time>2026-04-08T13:38:46.041Z</time></trkpt><trkpt lat="44.8695883" lon="8.8958417"><ele>169.5</ele><time>2026-04-08T13:38:48.041Z</time></trkpt><trkpt lat="44.8695883" lon="8.895945"><ele>170.0</ele><time>2026-04-08T13:38:49.041Z</time></trkpt><trkpt lat="44.8695833" lon="8.8960517"><ele>170.5</ele><time>2026-04-08T13:38:50.041Z</time></trkpt><trkpt lat="44.869575" lon="8.8961683"><ele>171.0</ele><time>2026-04-08T13:38:51.041Z</time></trkpt><trkpt lat="44.8695533" lon="8.8962883"><ele>171.5</ele><time>2026-04-08T13:38:52.042Z</time></trkpt><trkpt lat="44.86954" lon="8.89641"><ele>172.0</ele><time>2026-04-08T13:38:53.042Z</time></trkpt><trkpt lat="44.86952" lon="8.8965333"><ele>172.0</ele><time>2026-04-08T13:38:54.041Z</time></trkpt><trkpt lat="44.8694983" lon="8.8966667"><ele>172.0</ele><time>2026-04-08T13:38:55.041Z</time></trkpt><trkpt lat="44.8694717" lon="8.8968"><ele>172.0</ele><time>2026-04-08T13:38:56.042Z</time></trkpt><trkpt lat="44.8694433" lon="8.89693"><ele>172.0</ele><time>2026-04-08T13:38:57.042Z</time></trkpt><trkpt lat="44.869415" lon="8.89706"><ele>172.0</ele><time>2026-04-08T13:38:58.042Z</time></trkpt><trkpt lat="44.8693767" lon="8.897185"><ele>173.2</ele><time>2026-04-08T13:38:59.041Z</time></trkpt><trkpt lat="44.8693317" lon="8.89731"><ele>174.39999999999998</ele><time>2026-04-08T13:39:00.041Z</time></trkpt><trkpt lat="44.8692833" lon="8.897435"><ele>175.60000000000002</ele><time>2026-04-08T13:39:01.042Z</time></trkpt><trkpt lat="44.8692333" lon="8.8975667"><ele>176.8</ele><time>2026-04-08T13:39:02.041Z</time></trkpt><trkpt lat="44.8691833" lon="8.897705"><ele>178.0</ele><time>2026-04-08T13:39:03.042Z</time></trkpt><trkpt lat="44.86913" lon="8.8978433"><ele>181.2</ele><time>2026-04-08T13:39:04.041Z</time></trkpt><trkpt lat="44.869075" lon="8.897985"><ele>184.4</ele><time>2026-04-08T13:39:05.042Z</time></trkpt><trkpt lat="44.8690267" lon="8.8981283"><ele>187.6</ele><time>2026-04-08T13:39:06.042Z</time></trkpt><trkpt lat="44.8689733" lon="8.898265"><ele>190.79999999999998</ele><time>2026-04-08T13:39:07.041Z</time></trkpt><trkpt lat="44.86893" lon="8.8983983"><ele>194.0</ele><time>2026-04-08T13:39:08.042Z</time></trkpt><trkpt lat="44.8688817" lon="8.8985283"><ele>194.2</ele><time>2026-04-08T13:39:09.042Z</time></trkpt><trkpt lat="44.8688417" lon="8.89866"><ele>194.39999999999998</ele><time>2026-04-08T13:39:10.042Z</time></trkpt><trkpt lat="44.8688083" lon="8.8987967"><ele>194.6</ele><time>2026-04-08T13:39:11.041Z</time></trkpt><trkpt lat="44.8687783" lon="8.898935"><ele>194.8</ele><time>2026-04-08T13:39:12.042Z</time></trkpt><trkpt lat="44.86875" lon="8.89906"><ele>195.0</ele><time>2026-04-08T13:39:13.042Z</time></trkpt><trkpt lat="44.8687233" lon="8.8991917"><ele>195.6</ele><time>2026-04-08T13:39:14.041Z</time></trkpt><trkpt lat="44.8687017" lon="8.899325"><ele>196.2</ele><time>2026-04-08T13:39:15.042Z</time></trkpt><trkpt lat="44.868675" lon="8.8994583"><ele>196.8</ele><time>2026-04-08T13:39:16.042Z</time></trkpt><trkpt lat="44.86865" lon="8.89959"><ele>197.4</ele><time>2026-04-08T13:39:17.041Z</time></trkpt><trkpt lat="44.8686267" lon="8.8997233"><ele>198.0</ele><time>2026-04-08T13:39:18.042Z</time></trkpt><trkpt lat="44.8685933" lon="8.8998483"><ele>198.0</ele><time>2026-04-08T13:39:19.042Z</time></trkpt><trkpt lat="44.8685667" lon="8.89997"><ele>198.0</ele><time>2026-04-08T13:39:20.041Z</time></trkpt><trkpt lat="44.8685367" lon="8.9000933"><ele>198.0</ele><time>2026-04-08T13:39:21.042Z</time></trkpt><trkpt lat="44.86851" lon="8.9002133"><ele>198.0</ele><time>2026-04-08T13:39:22.041Z</time></trkpt><trkpt lat="44.8684767" lon="8.9003383"><ele>198.0</ele><time>2026-04-08T13:39:23.042Z</time></trkpt><trkpt lat="44.868445" lon="8.9004467"><ele>200.0</ele><time>2026-04-08T13:39:24.041Z</time></trkpt><trkpt lat="44.8684133" lon="8.9005567"><ele>202.0</ele><time>2026-04-08T13:39:25.041Z</time></trkpt><trkpt lat="44.8683833" lon="8.9006717"><ele>204.0</ele><time>2026-04-08T13:39:26.041Z</time></trkpt><trkpt lat="44.8683483" lon="8.90079"><ele>206.0</ele><time>2026-04-08T13:39:27.041Z</time></trkpt><trkpt lat="44.8683183" lon="8.9008967"><ele>208.0</ele><time>2026-04-08T13:39:28.042Z</time></trkpt><trkpt lat="44.8682867" lon="8.90101"><ele>210.0</ele><time>2026-04-08T13:39:29.041Z</time></trkpt><trkpt lat="44.8682533" lon="8.901095"><ele>210.0</ele><time>2026-04-08T13:39:30.042Z</time></trkpt><trkpt lat="44.868215" lon="8.90118"><ele>210.0</ele><time>2026-04-08T13:39:31.041Z</time></trkpt><trkpt lat="44.8681683" lon="8.9012767"><ele>210.0</ele><time>2026-04-08T13:39:32.041Z</time></trkpt><trkpt lat="44.8681167" lon="8.9013817"><ele>210.0</ele><time>2026-04-08T13:39:33.042Z</time></trkpt><trkpt lat="44.8680617" lon="8.901485"><ele>210.0</ele><time>2026-04-08T13:39:34.041Z</time></trkpt><trkpt lat="44.8680117" lon="8.9015767"><ele>210.0</ele><time>2026-04-08T13:39:35.041Z</time></trkpt><trkpt lat="44.8679617" lon="8.90167"><ele>210.0</ele><time>2026-04-08T13:39:36.041Z</time></trkpt><trkpt lat="44.86792" lon="8.9017533"><ele>210.0</ele><time>2026-04-08T13:39:37.041Z</time></trkpt><trkpt lat="44.867875" lon="8.9018433"><ele>210.0</ele><time>2026-04-08T13:39:38.042Z</time></trkpt><trkpt lat="44.8678267" lon="8.9019433"><ele>210.0</ele><time>2026-04-08T13:39:39.041Z</time></trkpt><trkpt lat="44.8677817" lon="8.90205"><ele>210.0</ele><time>2026-04-08T13:39:40.041Z</time></trkpt><trkpt lat="44.8677333" lon="8.902165"><ele>210.0</ele><time>2026-04-08T13:39:41.042Z</time></trkpt><trkpt lat="44.8676867" lon="8.9022867"><ele>210.0</ele><time>2026-04-08T13:39:42.041Z</time></trkpt><trkpt lat="44.8676467" lon="8.9024133"><ele>210.0</ele><time>2026-04-08T13:39:43.042Z</time></trkpt><trkpt lat="44.8676167" lon="8.902545"><ele>210.0</ele><time>2026-04-08T13:39:44.041Z</time></trkpt><trkpt lat="44.8675933" lon="8.90269"><ele>210.0</ele><time>2026-04-08T13:39:45.041Z</time></trkpt><trkpt lat="44.867575" lon="8.902845"><ele>210.0</ele><time>2026-04-08T13:39:46.041Z</time></trkpt><trkpt lat="44.8675483" lon="8.9030033"><ele>211.83333333333334</ele><time>2026-04-08T13:39:47.042Z</time></trkpt><trkpt lat="44.8675233" lon="8.9031367"><ele>213.66666666666669</ele><time>2026-04-08T13:39:48.041Z</time></trkpt><trkpt lat="44.867495" lon="8.90324"><ele>215.5</ele><time>2026-04-08T13:39:49.042Z</time></trkpt><trkpt lat="44.8674717" lon="8.903335"><ele>217.33333333333334</ele><time>2026-04-08T13:39:50.041Z</time></trkpt><trkpt lat="44.86745" lon="8.9034283"><ele>219.16666666666669</ele><time>2026-04-08T13:39:51.041Z</time></trkpt><trkpt lat="44.867425" lon="8.9035167"><ele>221.0</ele><time>2026-04-08T13:39:52.041Z</time></trkpt><trkpt lat="44.867375" lon="8.9036533"><ele>221.0</ele><time>2026-04-08T13:39:54.042Z</time></trkpt><trkpt lat="44.8673283" lon="8.903835"><ele>221.00000000000003</ele><time>2026-04-08T13:39:56.041Z</time></trkpt><trkpt lat="44.8672967" lon="8.90395"><ele>221.00000000000003</ele><time>2026-04-08T13:39:57.042Z</time></trkpt><trkpt lat="44.86726" lon="8.9040833"><ele>221.0</ele><time>2026-04-08T13:39:58.041Z</time></trkpt><trkpt lat="44.867225" lon="8.904235"><ele>221.0</ele><time>2026-04-08T13:39:59.041Z</time></trkpt><trkpt lat="44.8671933" lon="8.9043917"><ele>222.25</ele><time>2026-04-08T13:40:00.042Z</time></trkpt><trkpt lat="44.8671583" lon="8.9045483"><ele>223.5</ele><time>2026-04-08T13:40:01.042Z</time></trkpt><trkpt lat="44.8671283" lon="8.9046983"><ele>224.75</ele><time>2026-04-08T13:40:02.042Z</time></trkpt><trkpt lat="44.8671" lon="8.90485"><ele>226.0</ele><time>2026-04-08T13:40:03.041Z</time></trkpt><trkpt lat="44.8670683" lon="8.905015"><ele>227.25</ele><time>2026-04-08T13:40:04.041Z</time></trkpt><trkpt lat="44.86704" lon="8.9051783"><ele>228.5</ele><time>2026-04-08T13:40:05.042Z</time></trkpt><trkpt lat="44.8670067" lon="8.9053483"><ele>229.75</ele><time>2026-04-08T13:40:06.041Z</time></trkpt><trkpt lat="44.866955" lon="8.9055117"><ele>231.0</ele><time>2026-04-08T13:40:07.042Z</time></trkpt><trkpt lat="44.8669" lon="8.90567"><ele>231.0</ele><time>2026-04-08T13:40:08.042Z</time></trkpt><trkpt lat="44.8668383" lon="8.9058283"><ele>231.0</ele><time>2026-04-08T13:40:09.041Z</time></trkpt><trkpt lat="44.866765" lon="8.9059867"><ele>231.0</ele><time>2026-04-08T13:40:10.042Z</time></trkpt><trkpt lat="44.86669" lon="8.9061433"><ele>231.0</ele><time>2026-04-08T13:40:11.042Z</time></trkpt><trkpt lat="44.8666317" lon="8.9063033"><ele>233.5</ele><time>2026-04-08T13:40:12.041Z</time></trkpt><trkpt lat="44.8666067" lon="8.90647"><ele>236.0</ele><time>2026-04-08T13:40:13.042Z</time></trkpt><trkpt lat="44.8666" lon="8.9066483"><ele>238.5</ele><time>2026-04-08T13:40:14.041Z</time></trkpt><trkpt lat="44.8666133" lon="8.9068283"><ele>241.0</ele><time>2026-04-08T13:40:15.042Z</time></trkpt><trkpt lat="44.86665" lon="8.907015"><ele>240.0</ele><time>2026-04-08T13:40:16.041Z</time></trkpt><trkpt lat="44.86671" lon="8.9072017"><ele>239.0</ele><time>2026-04-08T13:40:17.042Z</time></trkpt><trkpt lat="44.8667833" lon="8.9073883"><ele>238.0</ele><time>2026-04-08T13:40:18.041Z</time></trkpt><trkpt lat="44.8668683" lon="8.9075717"><ele>239.75</ele><time>2026-04-08T13:40:19.041Z</time></trkpt><trkpt lat="44.8669383" lon="8.90775"><ele>241.5</ele><time>2026-04-08T13:40:20.042Z</time></trkpt><trkpt lat="44.86701" lon="8.90792"><ele>243.25</ele><time>2026-04-08T13:40:21.042Z</time></trkpt><trkpt lat="44.867075" lon="8.908085"><ele>245.0</ele><time>2026-04-08T13:40:22.041Z</time></trkpt><trkpt lat="44.8671267" lon="8.90823"><ele>245.0</ele><time>2026-04-08T13:40:23.042Z</time></trkpt><trkpt lat="44.8671667" lon="8.9083533"><ele>245.0</ele><time>2026-04-08T13:40:24.041Z</time></trkpt><trkpt lat="44.8672" lon="8.90845"><ele>245.0</ele><time>2026-04-08T13:40:25.041Z</time></trkpt><trkpt lat="44.8672267" lon="8.9085933"><ele>245.0</ele><time>2026-04-08T13:40:27.042Z</time></trkpt><trkpt lat="44.8671733" lon="8.908705"><ele>245.0</ele><time>2026-04-08T13:40:34.041Z</time></trkpt><trkpt lat="44.8670533" lon="8.90868"><ele>246.75</ele><time>2026-04-08T13:40:36.04Z</time></trkpt><trkpt lat="44.8669683" lon="8.9086583"><ele>248.5</ele><time>2026-04-08T13:40:37.041Z</time></trkpt><trkpt lat="44.8668583" lon="8.9086283"><ele>250.25</ele><time>2026-04-08T13:40:38.04Z</time></trkpt><trkpt lat="44.8667" lon="8.9085917"><ele>252.0</ele><time>2026-04-08T13:40:39.04Z</time></trkpt><trkpt lat="44.866525" lon="8.9085417"><ele>254.33333333333331</ele><time>2026-04-08T13:40:40.04Z</time></trkpt><trkpt lat="44.8663517" lon="8.9084983"><ele>256.66666666666663</ele><time>2026-04-08T13:40:41.041Z</time></trkpt><trkpt lat="44.8661967" lon="8.90846"><ele>259.0</ele><time>2026-04-08T13:40:42.04Z</time></trkpt><trkpt lat="44.8660517" lon="8.9084367"><ele>261.5</ele><time>2026-04-08T13:40:43.041Z</time></trkpt><trkpt lat="44.865935" lon="8.908425"><ele>264.0</ele><time>2026-04-08T13:40:44.04Z</time></trkpt><trkpt lat="44.865825" lon="8.90843"><ele>266.5</ele><time>2026-04-08T13:40:45.04Z</time></trkpt><trkpt lat="44.865705" lon="8.9084517"><ele>269.0</ele><time>2026-04-08T13:40:46.041Z</time></trkpt><trkpt lat="44.865585" lon="8.90849"><ele>269.0</ele><time>2026-04-08T13:40:47.04Z</time></trkpt><trkpt lat="44.8654633" lon="8.9085433"><ele>269.0</ele><time>2026-04-08T13:40:48.04Z</time></trkpt><trkpt lat="44.8653467" lon="8.9085967"><ele>269.0</ele><time>2026-04-08T13:40:49.041Z</time></trkpt><trkpt lat="44.8652433" lon="8.90867"><ele>269.0</ele><time>2026-04-08T13:40:50.04Z</time></trkpt><trkpt lat="44.8651433" lon="8.9087717"><ele>269.0</ele><time>2026-04-08T13:40:51.04Z</time></trkpt><trkpt lat="44.86503" lon="8.9089"><ele>269.0</ele><time>2026-04-08T13:40:52.04Z</time></trkpt><trkpt lat="44.8648867" lon="8.909045"><ele>269.0</ele><time>2026-04-08T13:40:53.04Z</time></trkpt><trkpt lat="44.8647433" lon="8.9091933"><ele>272.6666666666667</ele><time>2026-04-08T13:40:54.041Z</time></trkpt><trkpt lat="44.8645917" lon="8.9093517"><ele>276.3333333333333</ele><time>2026-04-08T13:40:55.04Z</time></trkpt><trkpt lat="44.8644533" lon="8.9095167"><ele>280.0</ele><time>2026-04-08T13:40:56.041Z</time></trkpt><trkpt lat="44.8643133" lon="8.9096733"><ele>279.0</ele><time>2026-04-08T13:40:57.04Z</time></trkpt><trkpt lat="44.8641867" lon="8.9098183"><ele>278.0</ele><time>2026-04-08T13:40:58.041Z</time></trkpt><trkpt lat="44.8640717" lon="8.9099483"><ele>277.0</ele><time>2026-04-08T13:40:59.041Z</time></trkpt><trkpt lat="44.8639533" lon="8.9100717"><ele>279.75</ele><time>2026-04-08T13:41:00.041Z</time></trkpt><trkpt lat="44.8638367" lon="8.9101933"><ele>282.5</ele><time>2026-04-08T13:41:01.041Z</time></trkpt><trkpt lat="44.86373" lon="8.9103133"><ele>285.25</ele><time>2026-04-08T13:41:02.04Z</time></trkpt><trkpt lat="44.8636267" lon="8.9104367"><ele>288.0</ele><time>2026-04-08T13:41:03.04Z</time></trkpt><trkpt lat="44.8635167" lon="8.9105533"><ele>288.0</ele><time>2026-04-08T13:41:04.04Z</time></trkpt><trkpt lat="44.863425" lon="8.910675"><ele>288.0</ele><time>2026-04-08T13:41:05.04Z</time></trkpt><trkpt lat="44.8633417" lon="8.9108133"><ele>288.0</ele><time>2026-04-08T13:41:06.041Z</time></trkpt><trkpt lat="44.863265" lon="8.9109683"><ele>288.0</ele><time>2026-04-08T13:41:07.041Z</time></trkpt><trkpt lat="44.8632167" lon="8.9111433"><ele>291.0</ele><time>2026-04-08T13:41:08.04Z</time></trkpt><trkpt lat="44.86319" lon="8.9113133"><ele>294.0</ele><time>2026-04-08T13:41:09.04Z</time></trkpt><trkpt lat="44.8631833" lon="8.911475"><ele>297.0</ele><time>2026-04-08T13:41:10.041Z</time></trkpt><trkpt lat="44.8632067" lon="8.9116317"><ele>300.0</ele><time>2026-04-08T13:41:11.041Z</time></trkpt><trkpt lat="44.8632467" lon="8.9117833"><ele>300.75</ele><time>2026-04-08T13:41:12.041Z</time></trkpt><trkpt lat="44.8632983" lon="8.9119317"><ele>301.5</ele><time>2026-04-08T13:41:13.04Z</time></trkpt><trkpt lat="44.8633533" lon="8.9120867"><ele>302.25</ele><time>2026-04-08T13:41:14.04Z</time></trkpt><trkpt lat="44.8634033" lon="8.912245"><ele>303.0</ele><time>2026-04-08T13:41:15.04Z</time></trkpt><trkpt lat="44.8634333" lon="8.9124083"><ele>302.5</ele><time>2026-04-08T13:41:16.041Z</time></trkpt><trkpt lat="44.8634483" lon="8.9125783"><ele>302.0</ele><time>2026-04-08T13:41:17.04Z</time></trkpt><trkpt lat="44.86344" lon="8.9127583"><ele>301.5</ele><time>2026-04-08T13:41:18.041Z</time></trkpt><trkpt lat="44.8634117" lon="8.9129333"><ele>301.0</ele><time>2026-04-08T13:41:19.04Z</time></trkpt><trkpt lat="44.86336" lon="8.913105"><ele>301.0</ele><time>2026-04-08T13:41:20.041Z</time></trkpt><trkpt lat="44.8632917" lon="8.9132783"><ele>301.0</ele><time>2026-04-08T13:41:21.04Z</time></trkpt><trkpt lat="44.8632" lon="8.9134483"><ele>301.0</ele><time>2026-04-08T13:41:22.04Z</time></trkpt><trkpt lat="44.8630983" lon="8.91362"><ele>298.0</ele><time>2026-04-08T13:41:23.041Z</time></trkpt><trkpt lat="44.8629933" lon="8.9137933"><ele>295.0</ele><time>2026-04-08T13:41:24.04Z</time></trkpt><trkpt lat="44.8628967" lon="8.9139817"><ele>292.0</ele><time>2026-04-08T13:41:25.04Z</time></trkpt><trkpt lat="44.8628017" lon="8.9141717"><ele>291.0</ele><time>2026-04-08T13:41:26.041Z</time></trkpt><trkpt lat="44.862715" lon="8.9143467"><ele>290.0</ele><time>2026-04-08T13:41:27.04Z</time></trkpt><trkpt lat="44.8626383" lon="8.9145133"><ele>289.0</ele><time>2026-04-08T13:41:28.04Z</time></trkpt><trkpt lat="44.8625617" lon="8.9146833"><ele>288.0</ele><time>2026-04-08T13:41:29.04Z</time></trkpt><trkpt lat="44.8624733" lon="8.91485"><ele>293.75</ele><time>2026-04-08T13:41:30.041Z</time></trkpt><trkpt lat="44.8623683" lon="8.9149983"><ele>299.5</ele><time>2026-04-08T13:41:31.04Z</time></trkpt><trkpt lat="44.8622683" lon="8.915125"><ele>305.25</ele><time>2026-04-08T13:41:32.04Z</time></trkpt><trkpt lat="44.8621583" lon="8.9152267"><ele>311.0</ele><time>2026-04-08T13:41:33.04Z</time></trkpt><trkpt lat="44.86204" lon="8.9153317"><ele>311.0</ele><time>2026-04-08T13:41:34.041Z</time></trkpt><trkpt lat="44.8619167" lon="8.9154"><ele>311.0</ele><time>2026-04-08T13:41:35.04Z</time></trkpt><trkpt lat="44.8617933" lon="8.9154517"><ele>311.0</ele><time>2026-04-08T13:41:36.04Z</time></trkpt><trkpt lat="44.861665" lon="8.9154717"><ele>311.0</ele><time>2026-04-08T13:41:37.041Z</time></trkpt><trkpt lat="44.8615317" lon="8.9154617"><ele>312.0</ele><time>2026-04-08T13:41:38.041Z</time></trkpt><trkpt lat="44.8614067" lon="8.9154217"><ele>313.0</ele><time>2026-04-08T13:41:39.04Z</time></trkpt><trkpt lat="44.8612817" lon="8.915365"><ele>314.0</ele><time>2026-04-08T13:41:40.041Z</time></trkpt><trkpt lat="44.8611617" lon="8.9152917"><ele>315.0</ele><time>2026-04-08T13:41:41.04Z</time></trkpt><trkpt lat="44.8610367" lon="8.9151967"><ele>312.6666666666667</ele><time>2026-04-08T13:41:42.041Z</time></trkpt><trkpt lat="44.8609167" lon="8.9150633"><ele>310.33333333333337</ele><time>2026-04-08T13:41:43.04Z</time></trkpt><trkpt lat="44.8608017" lon="8.914925"><ele>308.0</ele><time>2026-04-08T13:41:44.04Z</time></trkpt><trkpt lat="44.8606883" lon="8.9147833"><ele>308.0</ele><time>2026-04-08T13:41:45.041Z</time></trkpt><trkpt lat="44.8605717" lon="8.9146283"><ele>308.0</ele><time>2026-04-08T13:41:46.04Z</time></trkpt><trkpt lat="44.86046" lon="8.9144817"><ele>308.0</ele><time>2026-04-08T13:41:47.04Z</time></trkpt><trkpt lat="44.8603467" lon="8.9143467"><ele>308.0</ele><time>2026-04-08T13:41:48.04Z</time></trkpt><trkpt lat="44.8602317" lon="8.91422"><ele>308.0</ele><time>2026-04-08T13:41:49.04Z</time></trkpt><trkpt lat="44.8601183" lon="8.9141133"><ele>308.0</ele><time>2026-04-08T13:41:50.04Z</time></trkpt><trkpt lat="44.8599817" lon="8.914045"><ele>308.0</ele><time>2026-04-08T13:41:51.04Z</time></trkpt><trkpt lat="44.8598233" lon="8.9140233"><ele>308.0</ele><time>2026-04-08T13:41:52.041Z</time></trkpt><trkpt lat="44.8596617" lon="8.9140433"><ele>308.0</ele><time>2026-04-08T13:41:53.04Z</time></trkpt><trkpt lat="44.8595" lon="8.914055"><ele>308.0</ele><time>2026-04-08T13:41:54.041Z</time></trkpt><trkpt lat="44.8593433" lon="8.9140717"><ele>308.0</ele><time>2026-04-08T13:41:55.041Z</time></trkpt><trkpt lat="44.8592" lon="8.91409"><ele>308.0</ele><time>2026-04-08T13:41:56.04Z</time></trkpt><trkpt lat="44.8590617" lon="8.914115"><ele>308.0</ele><time>2026-04-08T13:41:57.04Z</time></trkpt><trkpt lat="44.8589333" lon="8.9141583"><ele>308.0</ele><time>2026-04-08T13:41:58.04Z</time></trkpt><trkpt lat="44.8588133" lon="8.9142233"><ele>308.5</ele><time>2026-04-08T13:41:59.04Z</time></trkpt><trkpt lat="44.8586967" lon="8.9143133"><ele>309.0</ele><time>2026-04-08T13:42:00.041Z</time></trkpt><trkpt lat="44.8585833" lon="8.914415"><ele>309.5</ele><time>2026-04-08T13:42:01.04Z</time></trkpt><trkpt lat="44.8584717" lon="8.9145233"><ele>310.0</ele><time>2026-04-08T13:42:02.04Z</time></trkpt><trkpt lat="44.858355" lon="8.9146617"><ele>310.0</ele><time>2026-04-08T13:42:03.04Z</time></trkpt><trkpt lat="44.85824" lon="8.9148067"><ele>310.0</ele><time>2026-04-08T13:42:04.04Z</time></trkpt><trkpt lat="44.8581383" lon="8.914945"><ele>310.0</ele><time>2026-04-08T13:42:05.04Z</time></trkpt><trkpt lat="44.85804" lon="8.9151017"><ele>310.0</ele><time>2026-04-08T13:42:06.041Z</time></trkpt><trkpt lat="44.8579533" lon="8.91527"><ele>313.0</ele><time>2026-04-08T13:42:07.04Z</time></trkpt><trkpt lat="44.8578667" lon="8.915455"><ele>316.0</ele><time>2026-04-08T13:42:08.04Z</time></trkpt><trkpt lat="44.8577817" lon="8.9156583"><ele>319.0</ele><time>2026-04-08T13:42:09.04Z</time></trkpt><trkpt lat="44.8576917" lon="8.915865"><ele>311.0</ele><time>2026-04-08T13:42:10.04Z</time></trkpt><trkpt lat="44.8576167" lon="8.9160783"><ele>303.0</ele><time>2026-04-08T13:42:11.04Z</time></trkpt><trkpt lat="44.8575417" lon="8.9163"><ele>295.0</ele><time>2026-04-08T13:42:12.04Z</time></trkpt><trkpt lat="44.8574667" lon="8.91652"><ele>293.3333333333333</ele><time>2026-04-08T13:42:13.04Z</time></trkpt><trkpt lat="44.8573983" lon="8.9167367"><ele>291.6666666666667</ele><time>2026-04-08T13:42:14.041Z</time></trkpt><trkpt lat="44.85732" lon="8.916955"><ele>290.0</ele><time>2026-04-08T13:42:15.04Z</time></trkpt><trkpt lat="44.8572417" lon="8.91718"><ele>290.0</ele><time>2026-04-08T13:42:16.04Z</time></trkpt><trkpt lat="44.8571617" lon="8.9174033"><ele>290.0</ele><time>2026-04-08T13:42:17.041Z</time></trkpt><trkpt lat="44.8570817" lon="8.917615"><ele>290.0</ele><time>2026-04-08T13:42:18.04Z</time></trkpt><trkpt lat="44.857" lon="8.9178133"><ele>289.0</ele><time>2026-04-08T13:42:19.04Z</time></trkpt><trkpt lat="44.856915" lon="8.9179983"><ele>288.0</ele><time>2026-04-08T13:42:20.041Z</time></trkpt><trkpt lat="44.85682" lon="8.9181717"><ele>287.0</ele><time>2026-04-08T13:42:21.04Z</time></trkpt><trkpt lat="44.8567083" lon="8.918345"><ele>284.0</ele><time>2026-04-08T13:42:22.04Z</time></trkpt><trkpt lat="44.856595" lon="8.918515"><ele>281.0</ele><time>2026-04-08T13:42:23.041Z</time></trkpt><trkpt lat="44.85649" lon="8.9186883"><ele>278.0</ele><time>2026-04-08T13:42:24.04Z</time></trkpt><trkpt lat="44.8563817" lon="8.9188617"><ele>278.0</ele><time>2026-04-08T13:42:25.041Z</time></trkpt><trkpt lat="44.8562783" lon="8.9190233"><ele>278.0</ele><time>2026-04-08T13:42:26.04Z</time></trkpt><trkpt lat="44.85618" lon="8.9191867"><ele>278.0</ele><time>2026-04-08T13:42:27.041Z</time></trkpt><trkpt lat="44.8560517" lon="8.9193317"><ele>277.0</ele><time>2026-04-08T13:42:28.04Z</time></trkpt><trkpt lat="44.85591" lon="8.9194783"><ele>276.0</ele><time>2026-04-08T13:42:29.04Z</time></trkpt><trkpt lat="44.8557717" lon="8.91964"><ele>275.0</ele><time>2026-04-08T13:42:30.041Z</time></trkpt><trkpt lat="44.85562" lon="8.9198133"><ele>275.0</ele><time>2026-04-08T13:42:31.04Z</time></trkpt><trkpt lat="44.85548" lon="8.9199817"><ele>275.0</ele><time>2026-04-08T13:42:32.041Z</time></trkpt><trkpt lat="44.8553317" lon="8.9201467"><ele>275.0</ele><time>2026-04-08T13:42:33.04Z</time></trkpt><trkpt lat="44.855185" lon="8.9203217"><ele>272.33333333333337</ele><time>2026-04-08T13:42:34.04Z</time></trkpt><trkpt lat="44.8550483" lon="8.920485"><ele>269.6666666666667</ele><time>2026-04-08T13:42:35.04Z</time></trkpt><trkpt lat="44.8549083" lon="8.920655"><ele>267.0</ele><time>2026-04-08T13:42:36.04Z</time></trkpt><trkpt lat="44.85477" lon="8.9208183"><ele>263.6666666666667</ele><time>2026-04-08T13:42:37.04Z</time></trkpt><trkpt lat="44.8546383" lon="8.9209733"><ele>260.33333333333337</ele><time>2026-04-08T13:42:38.041Z</time></trkpt><trkpt lat="44.8545033" lon="8.9211317"><ele>257.0</ele><time>2026-04-08T13:42:39.04Z</time></trkpt><trkpt lat="44.8543733" lon="8.92129"><ele>260.33333333333337</ele><time>2026-04-08T13:42:40.041Z</time></trkpt><trkpt lat="44.8542417" lon="8.9214367"><ele>263.6666666666667</ele><time>2026-04-08T13:42:41.04Z</time></trkpt><trkpt lat="44.8541" lon="8.921575"><ele>267.0</ele><time>2026-04-08T13:42:42.041Z</time></trkpt><trkpt lat="44.8539533" lon="8.9217083"><ele>262.6666666666667</ele><time>2026-04-08T13:42:43.04Z</time></trkpt><trkpt lat="44.8538017" lon="8.921835"><ele>258.33333333333337</ele><time>2026-04-08T13:42:44.04Z</time></trkpt><trkpt lat="44.8536483" lon="8.9219633"><ele>254.0</ele><time>2026-04-08T13:42:45.041Z</time></trkpt><trkpt lat="44.85349" lon="8.9220967"><ele>255.33333333333334</ele><time>2026-04-08T13:42:46.04Z</time></trkpt><trkpt lat="44.8533317" lon="8.9222283"><ele>256.6666666666667</ele><time>2026-04-08T13:42:47.04Z</time></trkpt><trkpt lat="44.8531683" lon="8.9223617"><ele>258.0</ele><time>2026-04-08T13:42:48.04Z</time></trkpt><trkpt lat="44.85302" lon="8.9224933"><ele>254.66666666666669</ele><time>2026-04-08T13:42:49.04Z</time></trkpt><trkpt lat="44.852885" lon="8.922625"><ele>251.33333333333334</ele><time>2026-04-08T13:42:50.04Z</time></trkpt><trkpt lat="44.8527633" lon="8.9227717"><ele>248.0</ele><time>2026-04-08T13:42:51.041Z</time></trkpt><trkpt lat="44.8526467" lon="8.9229267"><ele>250.33333333333334</ele><time>2026-04-08T13:42:52.04Z</time></trkpt><trkpt lat="44.8525333" lon="8.9230967"><ele>252.66666666666669</ele><time>2026-04-08T13:42:53.041Z</time></trkpt><trkpt lat="44.8524233" lon="8.923255"><ele>255.0</ele><time>2026-04-08T13:42:54.041Z</time></trkpt><trkpt lat="44.85232" lon="8.9234033"><ele>255.0</ele><time>2026-04-08T13:42:55.04Z</time></trkpt><trkpt lat="44.852225" lon="8.923535"><ele>255.0</ele><time>2026-04-08T13:42:56.04Z</time></trkpt><trkpt lat="44.8521417" lon="8.9236467"><ele>255.0</ele><time>2026-04-08T13:42:57.04Z</time></trkpt><trkpt lat="44.8520733" lon="8.9237383"><ele>255.0</ele><time>2026-04-08T13:42:58.041Z</time></trkpt><trkpt lat="44.8520183" lon="8.9237967"><ele>255.0</ele><time>2026-04-08T13:42:59.04Z</time></trkpt><trkpt lat="44.851955" lon="8.9238667"><ele>255.0</ele><time>2026-04-08T13:43:01.041Z</time></trkpt><trkpt lat="44.8518883" lon="8.9239033"><ele>255.0</ele><time>2026-04-08T13:43:29.04Z</time></trkpt><trkpt lat="44.8518633" lon="8.9239867"><ele>255.0</ele><time>2026-04-08T13:43:31.041Z</time></trkpt><trkpt lat="44.8517767" lon="8.9241"><ele>255.0</ele><time>2026-04-08T13:43:33.04Z</time></trkpt><trkpt lat="44.8517167" lon="8.9241617"><ele>255.0</ele><time>2026-04-08T13:43:34.041Z</time></trkpt><trkpt lat="44.851665" lon="8.9242317"><ele>255.0</ele><time>2026-04-08T13:43:35.04Z</time></trkpt><trkpt lat="44.8516117" lon="8.9243033"><ele>255.66666666666666</ele><time>2026-04-08T13:43:36.041Z</time></trkpt><trkpt lat="44.8515583" lon="8.9243683"><ele>256.3333333333333</ele><time>2026-04-08T13:43:37.04Z</time></trkpt><trkpt lat="44.8515083" lon="8.9244417"><ele>257.0</ele><time>2026-04-08T13:43:38.04Z</time></trkpt><trkpt lat="44.8514583" lon="8.924525"><ele>257.66666666666663</ele><time>2026-04-08T13:43:39.04Z</time></trkpt><trkpt lat="44.8514067" lon="8.924615"><ele>258.3333333333333</ele><time>2026-04-08T13:43:40.04Z</time></trkpt><trkpt lat="44.8513517" lon="8.9247183"><ele>259.0</ele><time>2026-04-08T13:43:41.04Z</time></trkpt><trkpt lat="44.8512917" lon="8.9248283"><ele>259.0</ele><time>2026-04-08T13:43:42.04Z</time></trkpt><trkpt lat="44.85123" lon="8.9249483"><ele>259.0</ele><time>2026-04-08T13:43:43.041Z</time></trkpt><trkpt lat="44.8511717" lon="8.925075"><ele>259.0</ele><time>2026-04-08T13:43:44.041Z</time></trkpt><trkpt lat="44.8511067" lon="8.9252117"><ele>259.0</ele><time>2026-04-08T13:43:45.04Z</time></trkpt><trkpt lat="44.851035" lon="8.9253617"><ele>257.3333333333333</ele><time>2026-04-08T13:43:46.041Z</time></trkpt><trkpt lat="44.8509483" lon="8.9255367"><ele>255.66666666666669</ele><time>2026-04-08T13:43:47.039Z</time></trkpt><trkpt lat="44.85086" lon="8.9257067"><ele>254.0</ele><time>2026-04-08T13:43:48.039Z</time></trkpt><trkpt lat="44.8507683" lon="8.9258867"><ele>253.0</ele><time>2026-04-08T13:43:49.04Z</time></trkpt><trkpt lat="44.8506783" lon="8.926065"><ele>252.0</ele><time>2026-04-08T13:43:50.039Z</time></trkpt><trkpt lat="44.8505833" lon="8.9262517"><ele>251.0</ele><time>2026-04-08T13:43:51.039Z</time></trkpt><trkpt lat="44.8504867" lon="8.926445"><ele>251.0</ele><time>2026-04-08T13:43:52.04Z</time></trkpt><trkpt lat="44.8503917" lon="8.92664"><ele>251.0</ele><time>2026-04-08T13:43:53.039Z</time></trkpt><trkpt lat="44.8502983" lon="8.9268283"><ele>251.0</ele><time>2026-04-08T13:43:54.039Z</time></trkpt><trkpt lat="44.8502067" lon="8.927015"><ele>251.33333333333334</ele><time>2026-04-08T13:43:55.039Z</time></trkpt><trkpt lat="44.8501217" lon="8.927195"><ele>251.66666666666669</ele><time>2026-04-08T13:43:56.039Z</time></trkpt><trkpt lat="44.850035" lon="8.9273767"><ele>252.0</ele><time>2026-04-08T13:43:57.04Z</time></trkpt><trkpt lat="44.84995" lon="8.9275483"><ele>250.25</ele><time>2026-04-08T13:43:58.04Z</time></trkpt><trkpt lat="44.8498583" lon="8.9277167"><ele>248.5</ele><time>2026-04-08T13:43:59.039Z</time></trkpt><trkpt lat="44.8497717" lon="8.9278767"><ele>246.75</ele><time>2026-04-08T13:44:00.039Z</time></trkpt><trkpt lat="44.84968" lon="8.92803"><ele>245.0</ele><time>2026-04-08T13:44:01.039Z</time></trkpt><trkpt lat="44.8495933" lon="8.9281917"><ele>245.0</ele><time>2026-04-08T13:44:02.039Z</time></trkpt><trkpt lat="44.8495017" lon="8.9283567"><ele>245.0</ele><time>2026-04-08T13:44:03.04Z</time></trkpt><trkpt lat="44.849405" lon="8.9285183"><ele>245.0</ele><time>2026-04-08T13:44:04.04Z</time></trkpt><trkpt lat="44.8493117" lon="8.9286833"><ele>245.0</ele><time>2026-04-08T13:44:05.039Z</time></trkpt><trkpt lat="44.849215" lon="8.9288383"><ele>243.33333333333334</ele><time>2026-04-08T13:44:06.04Z</time></trkpt><trkpt lat="44.84911" lon="8.9289833"><ele>241.66666666666669</ele><time>2026-04-08T13:44:07.04Z</time></trkpt><trkpt lat="44.8489883" lon="8.929115"><ele>240.0</ele><time>2026-04-08T13:44:08.04Z</time></trkpt><trkpt lat="44.8488483" lon="8.9292283"><ele>238.66666666666669</ele><time>2026-04-08T13:44:09.04Z</time></trkpt><trkpt lat="44.8486733" lon="8.929315"><ele>237.33333333333334</ele><time>2026-04-08T13:44:10.039Z</time></trkpt><trkpt lat="44.8484717" lon="8.9294017"><ele>236.0</ele><time>2026-04-08T13:44:11.04Z</time></trkpt><trkpt lat="44.8482483" lon="8.9294967"><ele>236.0</ele><time>2026-04-08T13:44:12.039Z</time></trkpt><trkpt lat="44.84803" lon="8.9295983"><ele>236.0</ele><time>2026-04-08T13:44:13.039Z</time></trkpt><trkpt lat="44.8478283" lon="8.9297067"><ele>236.0</ele><time>2026-04-08T13:44:14.04Z</time></trkpt><trkpt lat="44.84763" lon="8.9298133"><ele>236.0</ele><time>2026-04-08T13:44:15.039Z</time></trkpt><trkpt lat="44.8474417" lon="8.92992"><ele>236.0</ele><time>2026-04-08T13:44:16.039Z</time></trkpt><trkpt lat="44.8472583" lon="8.93002"><ele>236.0</ele><time>2026-04-08T13:44:17.039Z</time></trkpt><trkpt lat="44.847085" lon="8.93012"><ele>236.0</ele><time>2026-04-08T13:44:18.039Z</time></trkpt><trkpt lat="44.8469183" lon="8.9302167"><ele>236.0</ele><time>2026-04-08T13:44:19.04Z</time></trkpt><trkpt lat="44.8467517" lon="8.93032"><ele>236.0</ele><time>2026-04-08T13:44:20.039Z</time></trkpt><trkpt lat="44.8465883" lon="8.9304167"><ele>234.33333333333334</ele><time>2026-04-08T13:44:21.039Z</time></trkpt><trkpt lat="44.8464233" lon="8.9305183"><ele>232.66666666666669</ele><time>2026-04-08T13:44:22.039Z</time></trkpt><trkpt lat="44.8462667" lon="8.9306333"><ele>231.0</ele><time>2026-04-08T13:44:23.039Z</time></trkpt><trkpt lat="44.8461167" lon="8.9307617"><ele>229.66666666666669</ele><time>2026-04-08T13:44:24.039Z</time></trkpt><trkpt lat="44.845965" lon="8.9308917"><ele>228.33333333333334</ele><time>2026-04-08T13:44:25.04Z</time></trkpt><trkpt lat="44.84582" lon="8.9310167"><ele>227.0</ele><time>2026-04-08T13:44:26.04Z</time></trkpt><trkpt lat="44.8456717" lon="8.931145"><ele>227.0</ele><time>2026-04-08T13:44:27.039Z</time></trkpt><trkpt lat="44.84553" lon="8.93126"><ele>227.0</ele><time>2026-04-08T13:44:28.04Z</time></trkpt><trkpt lat="44.845395" lon="8.9313583"><ele>227.0</ele><time>2026-04-08T13:44:29.04Z</time></trkpt><trkpt lat="44.84527" lon="8.9314483"><ele>227.0</ele><time>2026-04-08T13:44:30.04Z</time></trkpt><trkpt lat="44.8451517" lon="8.93152"><ele>227.0</ele><time>2026-04-08T13:44:31.039Z</time></trkpt><trkpt lat="44.8450367" lon="8.9315817"><ele>227.0</ele><time>2026-04-08T13:44:32.04Z</time></trkpt><trkpt lat="44.8449167" lon="8.9316517"><ele>227.0</ele><time>2026-04-08T13:44:33.04Z</time></trkpt><trkpt lat="44.8447967" lon="8.9317233"><ele>229.66666666666669</ele><time>2026-04-08T13:44:34.04Z</time></trkpt><trkpt lat="44.844675" lon="8.9317967"><ele>232.33333333333331</ele><time>2026-04-08T13:44:35.039Z</time></trkpt><trkpt lat="44.8444567" lon="8.931925"><ele>235.0</ele><time>2026-04-08T13:44:37.039Z</time></trkpt><trkpt lat="44.8443633" lon="8.9319817"><ele>234.99999999999997</ele><time>2026-04-08T13:44:38.039Z</time></trkpt><trkpt lat="44.8442917" lon="8.932025"><ele>235.0</ele><time>2026-04-08T13:44:39.04Z</time></trkpt><trkpt lat="44.8441967" lon="8.9320033"><ele>235.0</ele><time>2026-04-08T13:44:41.039Z</time></trkpt><trkpt lat="44.8441483" lon="8.931945"><ele>235.0</ele><time>2026-04-08T13:44:42.04Z</time></trkpt><trkpt lat="44.8440883" lon="8.931865"><ele>234.99999999999997</ele><time>2026-04-08T13:44:43.039Z</time></trkpt><trkpt lat="44.8440317" lon="8.9317767"><ele>235.0</ele><time>2026-04-08T13:44:44.04Z</time></trkpt><trkpt lat="44.8439767" lon="8.9317033"><ele>235.0</ele><time>2026-04-08T13:44:45.039Z</time></trkpt><trkpt lat="44.8439217" lon="8.9316033"><ele>235.0</ele><time>2026-04-08T13:44:47.04Z</time></trkpt><trkpt lat="44.8438583" lon="8.9314933"><ele>235.0</ele><time>2026-04-08T13:44:49.039Z</time></trkpt><trkpt lat="44.8437983" lon="8.9314217"><ele>235.0</ele><time>2026-04-08T13:44:50.039Z</time></trkpt><trkpt lat="44.8437183" lon="8.9313483"><ele>235.0</ele><time>2026-04-08T13:44:51.04Z</time></trkpt><trkpt lat="44.8436283" lon="8.9312667"><ele>235.0</ele><time>2026-04-08T13:44:52.04Z</time></trkpt><trkpt lat="44.8435283" lon="8.9311667"><ele>235.0</ele><time>2026-04-08T13:44:53.039Z</time></trkpt><trkpt lat="44.843425" lon="8.93106"><ele>235.0</ele><time>2026-04-08T13:44:54.04Z</time></trkpt><trkpt lat="44.84332" lon="8.930955"><ele>235.0</ele><time>2026-04-08T13:44:55.04Z</time></trkpt><trkpt lat="44.84321" lon="8.930845"><ele>235.25</ele><time>2026-04-08T13:44:56.039Z</time></trkpt><trkpt lat="44.843105" lon="8.9307267"><ele>235.5</ele><time>2026-04-08T13:44:57.039Z</time></trkpt><trkpt lat="44.842995" lon="8.9306133"><ele>235.75</ele><time>2026-04-08T13:44:58.04Z</time></trkpt><trkpt lat="44.8428783" lon="8.9304967"><ele>236.0</ele><time>2026-04-08T13:44:59.039Z</time></trkpt><trkpt lat="44.842755" lon="8.9303783"><ele>236.0</ele><time>2026-04-08T13:45:00.04Z</time></trkpt><trkpt lat="44.8426417" lon="8.9302617"><ele>236.0</ele><time>2026-04-08T13:45:01.039Z</time></trkpt><trkpt lat="44.8425333" lon="8.9301633"><ele>236.0</ele><time>2026-04-08T13:45:02.039Z</time></trkpt><trkpt lat="44.8424367" lon="8.9300917"><ele>236.0</ele><time>2026-04-08T13:45:03.039Z</time></trkpt><trkpt lat="44.8423517" lon="8.9300417"><ele>237.00000000000003</ele><time>2026-04-08T13:45:04.039Z</time></trkpt><trkpt lat="44.8422733" lon="8.930015"><ele>238.0</ele><time>2026-04-08T13:45:05.039Z</time></trkpt><trkpt lat="44.8422067" lon="8.929995"><ele>239.0</ele><time>2026-04-08T13:45:06.04Z</time></trkpt><trkpt lat="44.8421117" lon="8.9300167"><ele>240.0</ele><time>2026-04-08T13:45:13.04Z</time></trkpt><trkpt lat="44.8420817" lon="8.9301333"><ele>241.00000000000003</ele><time>2026-04-08T13:45:15.039Z</time></trkpt><trkpt lat="44.842055" lon="8.9302933"><ele>242.0</ele><time>2026-04-08T13:45:17.039Z</time></trkpt><trkpt lat="44.8420333" lon="8.9303833"><ele>242.66666666666669</ele><time>2026-04-08T13:45:18.039Z</time></trkpt><trkpt lat="44.842" lon="8.9305367"><ele>243.33333333333334</ele><time>2026-04-08T13:45:20.039Z</time></trkpt><trkpt lat="44.8419633" lon="8.9306167"><ele>244.0</ele><time>2026-04-08T13:45:22.04Z</time></trkpt><trkpt lat="44.8418967" lon="8.9306317"><ele>244.66666666666669</ele><time>2026-04-08T13:45:24.04Z</time></trkpt><trkpt lat="44.84177" lon="8.930625"><ele>245.33333333333334</ele><time>2026-04-08T13:45:26.039Z</time></trkpt><trkpt lat="44.8417067" lon="8.93062"><ele>246.0</ele><time>2026-04-08T13:45:27.039Z</time></trkpt><trkpt lat="44.8416" lon="8.9306183"><ele>246.0</ele><time>2026-04-08T13:45:29.039Z</time></trkpt><trkpt lat="44.8414983" lon="8.9306083"><ele>246.00000000000003</ele><time>2026-04-08T13:45:31.039Z</time></trkpt><trkpt lat="44.8413817" lon="8.9305867"><ele>246.00000000000003</ele><time>2026-04-08T13:45:33.039Z</time></trkpt><trkpt lat="44.841305" lon="8.9305733"><ele>246.0</ele><time>2026-04-08T13:45:34.04Z</time></trkpt><trkpt lat="44.8412167" lon="8.930555"><ele>246.0</ele><time>2026-04-08T13:45:35.04Z</time></trkpt><trkpt lat="44.8411217" lon="8.9305333"><ele>246.0</ele><time>2026-04-08T13:45:36.04Z</time></trkpt><trkpt lat="44.841015" lon="8.9304933"><ele>246.0</ele><time>2026-04-08T13:45:37.04Z</time></trkpt><trkpt lat="44.8408983" lon="8.93045"><ele>246.0</ele><time>2026-04-08T13:45:38.04Z</time></trkpt><trkpt lat="44.84077" lon="8.9303967"><ele>246.0</ele><time>2026-04-08T13:45:39.039Z</time></trkpt><trkpt lat="44.840645" lon="8.9303267"><ele>241.33333333333331</ele><time>2026-04-08T13:45:40.039Z</time></trkpt><trkpt lat="44.8405083" lon="8.930275"><ele>236.66666666666666</ele><time>2026-04-08T13:45:41.039Z</time></trkpt><trkpt lat="44.8403633" lon="8.9302267"><ele>232.0</ele><time>2026-04-08T13:45:42.04Z</time></trkpt><trkpt lat="44.8402017" lon="8.9301767"><ele>228.0</ele><time>2026-04-08T13:45:43.04Z</time></trkpt><trkpt lat="44.8400383" lon="8.9301333"><ele>224.0</ele><time>2026-04-08T13:45:44.04Z</time></trkpt><trkpt lat="44.8398633" lon="8.93008"><ele>220.0</ele><time>2026-04-08T13:45:45.04Z</time></trkpt><trkpt lat="44.8396783" lon="8.9300217"><ele>219.33333333333331</ele><time>2026-04-08T13:45:46.039Z</time></trkpt><trkpt lat="44.8395083" lon="8.9299633"><ele>218.66666666666669</ele><time>2026-04-08T13:45:47.039Z</time></trkpt><trkpt lat="44.8393433" lon="8.9299033"><ele>218.0</ele><time>2026-04-08T13:45:48.04Z</time></trkpt><trkpt lat="44.839175" lon="8.9298417"><ele>214.5</ele><time>2026-04-08T13:45:49.039Z</time></trkpt><trkpt lat="44.83902" lon="8.929775"><ele>211.0</ele><time>2026-04-08T13:45:50.039Z</time></trkpt><trkpt lat="44.838885" lon="8.929715"><ele>207.5</ele><time>2026-04-08T13:45:51.04Z</time></trkpt><trkpt lat="44.83877" lon="8.92967"><ele>204.0</ele><time>2026-04-08T13:45:52.04Z</time></trkpt><trkpt lat="44.83866" lon="8.929625"><ele>204.0</ele><time>2026-04-08T13:45:53.039Z</time></trkpt><trkpt lat="44.83855" lon="8.9295767"><ele>204.0</ele><time>2026-04-08T13:45:54.039Z</time></trkpt><trkpt lat="44.8384333" lon="8.92953"><ele>204.0</ele><time>2026-04-08T13:45:55.039Z</time></trkpt><trkpt lat="44.8383233" lon="8.9294817"><ele>204.0</ele><time>2026-04-08T13:45:56.039Z</time></trkpt><trkpt lat="44.8382133" lon="8.9294317"><ele>202.5</ele><time>2026-04-08T13:45:57.039Z</time></trkpt><trkpt lat="44.8380917" lon="8.9293783"><ele>201.0</ele><time>2026-04-08T13:45:58.039Z</time></trkpt><trkpt lat="44.837965" lon="8.9293283"><ele>199.5</ele><time>2026-04-08T13:45:59.04Z</time></trkpt><trkpt lat="44.83784" lon="8.9292767"><ele>198.0</ele><time>2026-04-08T13:46:00.039Z</time></trkpt><trkpt lat="44.8377317" lon="8.9292283"><ele>197.2</ele><time>2026-04-08T13:46:01.04Z</time></trkpt><trkpt lat="44.8376317" lon="8.9291883"><ele>196.4</ele><time>2026-04-08T13:46:02.039Z</time></trkpt><trkpt lat="44.8375483" lon="8.9291417"><ele>195.6</ele><time>2026-04-08T13:46:03.039Z</time></trkpt><trkpt lat="44.837475" lon="8.9290917"><ele>194.79999999999998</ele><time>2026-04-08T13:46:04.039Z</time></trkpt><trkpt lat="44.8374" lon="8.92902"><ele>194.0</ele><time>2026-04-08T13:46:06.04Z</time></trkpt><trkpt lat="44.837355" lon="8.9288717"><ele>194.0</ele><time>2026-04-08T13:46:42.039Z</time></trkpt><trkpt lat="44.8373317" lon="8.92874"><ele>194.0</ele><time>2026-04-08T13:46:43.039Z</time></trkpt><trkpt lat="44.8372983" lon="8.928605"><ele>194.0</ele><time>2026-04-08T13:46:44.04Z</time></trkpt><trkpt lat="44.8372633" lon="8.9284367"><ele>194.0</ele><time>2026-04-08T13:46:45.039Z</time></trkpt><trkpt lat="44.837225" lon="8.9282433"><ele>194.0</ele><time>2026-04-08T13:46:46.039Z</time></trkpt><trkpt lat="44.8372017" lon="8.9280367"><ele>194.0</ele><time>2026-04-08T13:46:47.039Z</time></trkpt><trkpt lat="44.8371867" lon="8.9278533"><ele>194.0</ele><time>2026-04-08T13:46:48.039Z</time></trkpt><trkpt lat="44.8371733" lon="8.9276917"><ele>194.0</ele><time>2026-04-08T13:46:49.039Z</time></trkpt><trkpt lat="44.8371583" lon="8.9275233"><ele>193.79999999999998</ele><time>2026-04-08T13:46:50.039Z</time></trkpt><trkpt lat="44.837145" lon="8.9273733"><ele>193.6</ele><time>2026-04-08T13:46:51.04Z</time></trkpt><trkpt lat="44.8371233" lon="8.92723"><ele>193.4</ele><time>2026-04-08T13:46:52.039Z</time></trkpt><trkpt lat="44.837095" lon="8.9270717"><ele>193.2</ele><time>2026-04-08T13:46:53.04Z</time></trkpt><trkpt lat="44.8370733" lon="8.9269183"><ele>193.0</ele><time>2026-04-08T13:46:54.039Z</time></trkpt><trkpt lat="44.837065" lon="8.9267767"><ele>192.5</ele><time>2026-04-08T13:46:55.039Z</time></trkpt><trkpt lat="44.8370767" lon="8.9266117"><ele>192.0</ele><time>2026-04-08T13:46:56.039Z</time></trkpt><trkpt lat="44.8370933" lon="8.9264233"><ele>191.5</ele><time>2026-04-08T13:46:57.039Z</time></trkpt><trkpt lat="44.8371033" lon="8.9262417"><ele>191.0</ele><time>2026-04-08T13:46:58.039Z</time></trkpt><trkpt lat="44.8371067" lon="8.9260883"><ele>191.0</ele><time>2026-04-08T13:46:59.04Z</time></trkpt><trkpt lat="44.8371183" lon="8.92594"><ele>191.0</ele><time>2026-04-08T13:47:00.039Z</time></trkpt><trkpt lat="44.8371317" lon="8.9258217"><ele>191.0</ele><time>2026-04-08T13:47:01.039Z</time></trkpt><trkpt lat="44.8371383" lon="8.92571"><ele>191.0</ele><time>2026-04-08T13:47:02.039Z</time></trkpt><trkpt lat="44.83713" lon="8.925615"><ele>191.0</ele><time>2026-04-08T13:47:03.039Z</time></trkpt><trkpt lat="44.8371117" lon="8.92551"><ele>191.0</ele><time>2026-04-08T13:47:04.038Z</time></trkpt><trkpt lat="44.8370933" lon="8.925395"><ele>190.66666666666666</ele><time>2026-04-08T13:47:05.039Z</time></trkpt><trkpt lat="44.8370767" lon="8.9252967"><ele>190.33333333333331</ele><time>2026-04-08T13:47:06.038Z</time></trkpt><trkpt lat="44.8370633" lon="8.9251617"><ele>190.0</ele><time>2026-04-08T13:47:08.039Z</time></trkpt><trkpt lat="44.83706" lon="8.9250383"><ele>189.66666666666666</ele><time>2026-04-08T13:47:11.039Z</time></trkpt><trkpt lat="44.837055" lon="8.9248967"><ele>189.33333333333334</ele><time>2026-04-08T13:47:13.039Z</time></trkpt><trkpt lat="44.83705" lon="8.9247917"><ele>189.0</ele><time>2026-04-08T13:47:14.038Z</time></trkpt><trkpt lat="44.837045" lon="8.924685"><ele>188.79999999999998</ele><time>2026-04-08T13:47:15.038Z</time></trkpt><trkpt lat="44.837045" lon="8.9245683"><ele>188.6</ele><time>2026-04-08T13:47:16.039Z</time></trkpt><trkpt lat="44.8370367" lon="8.924445"><ele>188.4</ele><time>2026-04-08T13:47:17.038Z</time></trkpt><trkpt lat="44.8370283" lon="8.9243067"><ele>188.2</ele><time>2026-04-08T13:47:18.038Z</time></trkpt><trkpt lat="44.8370233" lon="8.9241617"><ele>188.0</ele><time>2026-04-08T13:47:19.038Z</time></trkpt><trkpt lat="44.8370133" lon="8.9240267"><ele>188.0</ele><time>2026-04-08T13:47:20.038Z</time></trkpt><trkpt lat="44.837005" lon="8.9239"><ele>188.0</ele><time>2026-04-08T13:47:21.038Z</time></trkpt><trkpt lat="44.8369867" lon="8.923785"><ele>188.0</ele><time>2026-04-08T13:47:22.038Z</time></trkpt><trkpt lat="44.8369633" lon="8.9236767"><ele>188.0</ele><time>2026-04-08T13:47:23.039Z</time></trkpt><trkpt lat="44.8369317" lon="8.9235733"><ele>188.0</ele><time>2026-04-08T13:47:24.039Z</time></trkpt><trkpt lat="44.83689" lon="8.9234783"><ele>188.0</ele><time>2026-04-08T13:47:25.038Z</time></trkpt><trkpt lat="44.83683" lon="8.9233833"><ele>188.33333333333331</ele><time>2026-04-08T13:47:26.039Z</time></trkpt><trkpt lat="44.8367767" lon="8.9232917"><ele>188.66666666666666</ele><time>2026-04-08T13:47:27.039Z</time></trkpt><trkpt lat="44.8367283" lon="8.923215"><ele>189.0</ele><time>2026-04-08T13:47:28.039Z</time></trkpt><trkpt lat="44.8366833" lon="8.9231367"><ele>189.33333333333334</ele><time>2026-04-08T13:47:29.039Z</time></trkpt><trkpt lat="44.8366367" lon="8.9230533"><ele>189.66666666666669</ele><time>2026-04-08T13:47:30.038Z</time></trkpt><trkpt lat="44.83659" lon="8.9229683"><ele>190.0</ele><time>2026-04-08T13:47:31.039Z</time></trkpt><trkpt lat="44.83655" lon="8.9228733"><ele>190.0</ele><time>2026-04-08T13:47:32.038Z</time></trkpt><trkpt lat="44.8365133" lon="8.9227667"><ele>190.0</ele><time>2026-04-08T13:47:33.039Z</time></trkpt><trkpt lat="44.8364683" lon="8.9226617"><ele>190.0</ele><time>2026-04-08T13:47:34.038Z</time></trkpt><trkpt lat="44.8364267" lon="8.92256"><ele>190.0</ele><time>2026-04-08T13:47:35.038Z</time></trkpt><trkpt lat="44.8363733" lon="8.922465"><ele>190.0</ele><time>2026-04-08T13:47:36.038Z</time></trkpt><trkpt lat="44.8363233" lon="8.922375"><ele>190.0</ele><time>2026-04-08T13:47:37.039Z</time></trkpt><trkpt lat="44.8362783" lon="8.9222883"><ele>191.33333333333334</ele><time>2026-04-08T13:47:38.038Z</time></trkpt><trkpt lat="44.83623" lon="8.9222"><ele>192.66666666666669</ele><time>2026-04-08T13:47:39.038Z</time></trkpt><trkpt lat="44.836175" lon="8.9221167"><ele>194.0</ele><time>2026-04-08T13:47:40.038Z</time></trkpt><trkpt lat="44.8361067" lon="8.9220333"><ele>195.33333333333334</ele><time>2026-04-08T13:47:41.038Z</time></trkpt><trkpt lat="44.8360333" lon="8.9219567"><ele>196.66666666666666</ele><time>2026-04-08T13:47:42.038Z</time></trkpt><trkpt lat="44.835975" lon="8.9219033"><ele>198.0</ele><time>2026-04-08T13:47:43.039Z</time></trkpt><trkpt lat="44.8358917" lon="8.9218317"><ele>199.60000000000002</ele><time>2026-04-08T13:47:45.038Z</time></trkpt><trkpt lat="44.8358" lon="8.9217567"><ele>201.20000000000002</ele><time>2026-04-08T13:47:47.039Z</time></trkpt><trkpt lat="44.8356933" lon="8.9216567"><ele>202.8</ele><time>2026-04-08T13:47:49.038Z</time></trkpt><trkpt lat="44.8356417" lon="8.9215983"><ele>204.4</ele><time>2026-04-08T13:47:50.038Z</time></trkpt><trkpt lat="44.83558" lon="8.9215283"><ele>206.0</ele><time>2026-04-08T13:47:51.039Z</time></trkpt><trkpt lat="44.8355317" lon="8.9214567"><ele>207.16666666666669</ele><time>2026-04-08T13:47:52.039Z</time></trkpt><trkpt lat="44.83549" lon="8.92138"><ele>208.33333333333334</ele><time>2026-04-08T13:47:53.039Z</time></trkpt><trkpt lat="44.8354233" lon="8.921245"><ele>209.5</ele><time>2026-04-08T13:47:55.038Z</time></trkpt><trkpt lat="44.8353533" lon="8.9211167"><ele>210.66666666666669</ele><time>2026-04-08T13:47:57.038Z</time></trkpt><trkpt lat="44.835315" lon="8.92104"><ele>211.83333333333334</ele><time>2026-04-08T13:47:58.038Z</time></trkpt><trkpt lat="44.8352783" lon="8.92096"><ele>213.0</ele><time>2026-04-08T13:47:59.038Z</time></trkpt><trkpt lat="44.8352417" lon="8.9208767"><ele>213.33333333333334</ele><time>2026-04-08T13:48:00.039Z</time></trkpt><trkpt lat="44.8351783" lon="8.920745"><ele>213.66666666666669</ele><time>2026-04-08T13:48:02.038Z</time></trkpt><trkpt lat="44.835115" lon="8.9206167"><ele>214.0</ele><time>2026-04-08T13:48:04.039Z</time></trkpt><trkpt lat="44.83508" lon="8.920535"><ele>214.33333333333334</ele><time>2026-04-08T13:48:05.038Z</time></trkpt><trkpt lat="44.8350467" lon="8.9204483"><ele>214.66666666666669</ele><time>2026-04-08T13:48:06.038Z</time></trkpt><trkpt lat="44.8350083" lon="8.92035"><ele>215.0</ele><time>2026-04-08T13:48:07.038Z</time></trkpt><trkpt lat="44.8349717" lon="8.920255"><ele>216.33333333333334</ele><time>2026-04-08T13:48:08.039Z</time></trkpt><trkpt lat="44.834935" lon="8.92015"><ele>217.66666666666669</ele><time>2026-04-08T13:48:09.038Z</time></trkpt><trkpt lat="44.8348967" lon="8.9200483"><ele>219.0</ele><time>2026-04-08T13:48:10.038Z</time></trkpt><trkpt lat="44.8348617" lon="8.91995"><ele>220.33333333333331</ele><time>2026-04-08T13:48:11.038Z</time></trkpt><trkpt lat="44.8348217" lon="8.9198383"><ele>221.66666666666666</ele><time>2026-04-08T13:48:12.038Z</time></trkpt><trkpt lat="44.8347733" lon="8.91972"><ele>223.0</ele><time>2026-04-08T13:48:13.039Z</time></trkpt><trkpt lat="44.8347283" lon="8.919595"><ele>224.60000000000002</ele><time>2026-04-08T13:48:14.038Z</time></trkpt><trkpt lat="44.83467" lon="8.91945"><ele>226.20000000000002</ele><time>2026-04-08T13:48:15.039Z</time></trkpt><trkpt lat="44.83462" lon="8.9193017"><ele>227.8</ele><time>2026-04-08T13:48:16.039Z</time></trkpt><trkpt lat="44.83457" lon="8.9191617"><ele>229.4</ele><time>2026-04-08T13:48:17.039Z</time></trkpt><trkpt lat="44.8345283" lon="8.9190417"><ele>231.0</ele><time>2026-04-08T13:48:18.039Z</time></trkpt><trkpt lat="44.8344917" lon="8.9189417"><ele>232.0</ele><time>2026-04-08T13:48:19.038Z</time></trkpt><trkpt lat="44.8344517" lon="8.91881"><ele>233.00000000000003</ele><time>2026-04-08T13:48:21.038Z</time></trkpt><trkpt lat="44.8343817" lon="8.9187433"><ele>234.00000000000003</ele><time>2026-04-08T13:49:26.039Z</time></trkpt><trkpt lat="44.834295" lon="8.9187533"><ele>235.0</ele><time>2026-04-08T13:49:28.039Z</time></trkpt><trkpt lat="44.8341767" lon="8.9187583"><ele>236.0</ele><time>2026-04-08T13:49:30.039Z</time></trkpt><trkpt lat="44.834105" lon="8.9187583"><ele>236.50000000000003</ele><time>2026-04-08T13:49:31.039Z</time></trkpt><trkpt lat="44.8340267" lon="8.91876"><ele>237.0</ele><time>2026-04-08T13:49:32.038Z</time></trkpt><trkpt lat="44.83394" lon="8.9187617"><ele>237.5</ele><time>2026-04-08T13:49:33.038Z</time></trkpt><trkpt lat="44.83385" lon="8.918765"><ele>238.0</ele><time>2026-04-08T13:49:34.039Z</time></trkpt><trkpt lat="44.8337567" lon="8.91877"><ele>238.50000000000003</ele><time>2026-04-08T13:49:35.038Z</time></trkpt><trkpt lat="44.83366" lon="8.918775"><ele>239.0</ele><time>2026-04-08T13:49:36.039Z</time></trkpt><trkpt lat="44.8335633" lon="8.918785"><ele>238.0</ele><time>2026-04-08T13:49:37.038Z</time></trkpt><trkpt lat="44.8334667" lon="8.91879"><ele>236.99999999999997</ele><time>2026-04-08T13:49:38.039Z</time></trkpt><trkpt lat="44.8333667" lon="8.9187917"><ele>235.99999999999997</ele><time>2026-04-08T13:49:39.038Z</time></trkpt><trkpt lat="44.8332667" lon="8.9187967"><ele>235.0</ele><time>2026-04-08T13:49:40.038Z</time></trkpt><trkpt lat="44.833175" lon="8.9188083"><ele>234.0</ele><time>2026-04-08T13:49:41.038Z</time></trkpt><trkpt lat="44.8330983" lon="8.9188133"><ele>234.0</ele><time>2026-04-08T13:49:42.038Z</time></trkpt><trkpt lat="44.83303" lon="8.9188383"><ele>234.00000000000003</ele><time>2026-04-08T13:49:43.038Z</time></trkpt><trkpt lat="44.8329717" lon="8.9188767"><ele>234.0</ele><time>2026-04-08T13:49:44.038Z</time></trkpt><trkpt lat="44.8329167" lon="8.91892"><ele>234.0</ele><time>2026-04-08T13:49:45.038Z</time></trkpt><trkpt lat="44.832855" lon="8.9189733"><ele>234.00000000000003</ele><time>2026-04-08T13:49:46.039Z</time></trkpt><trkpt lat="44.8327933" lon="8.9190167"><ele>234.0</ele><time>2026-04-08T13:49:47.038Z</time></trkpt><trkpt lat="44.83273" lon="8.91907"><ele>234.0</ele><time>2026-04-08T13:49:48.038Z</time></trkpt><trkpt lat="44.832655" lon="8.9191383"><ele>234.39999999999998</ele><time>2026-04-08T13:49:49.038Z</time></trkpt><trkpt lat="44.832585" lon="8.9192117"><ele>234.79999999999998</ele><time>2026-04-08T13:49:50.038Z</time></trkpt><trkpt lat="44.832505" lon="8.91929"><ele>235.20000000000002</ele><time>2026-04-08T13:49:51.039Z</time></trkpt><trkpt lat="44.8324317" lon="8.9193667"><ele>235.60000000000002</ele><time>2026-04-08T13:49:52.038Z</time></trkpt><trkpt lat="44.8323517" lon="8.9194467"><ele>236.0</ele><time>2026-04-08T13:49:53.039Z</time></trkpt><trkpt lat="44.83227" lon="8.9195367"><ele>235.0</ele><time>2026-04-08T13:49:54.039Z</time></trkpt><trkpt lat="44.8321833" lon="8.9196333"><ele>234.00000000000003</ele><time>2026-04-08T13:49:55.039Z</time></trkpt><trkpt lat="44.8321033" lon="8.9197267"><ele>233.00000000000003</ele><time>2026-04-08T13:49:56.039Z</time></trkpt><trkpt lat="44.83202" lon="8.9198183"><ele>232.0</ele><time>2026-04-08T13:49:57.038Z</time></trkpt><trkpt lat="44.8319333" lon="8.9199017"><ele>231.0</ele><time>2026-04-08T13:49:58.039Z</time></trkpt><trkpt lat="44.83185" lon="8.91997"><ele>231.16666666666666</ele><time>2026-04-08T13:49:59.038Z</time></trkpt><trkpt lat="44.831785" lon="8.92003"><ele>231.33333333333331</ele><time>2026-04-08T13:50:00.038Z</time></trkpt><trkpt lat="44.8317233" lon="8.92009"><ele>231.5</ele><time>2026-04-08T13:50:01.039Z</time></trkpt><trkpt lat="44.8316433" lon="8.9201583"><ele>231.66666666666666</ele><time>2026-04-08T13:50:02.038Z</time></trkpt><trkpt lat="44.8315683" lon="8.9202333"><ele>231.83333333333331</ele><time>2026-04-08T13:50:03.038Z</time></trkpt><trkpt lat="44.83149" lon="8.92032"><ele>232.0</ele><time>2026-04-08T13:50:04.038Z</time></trkpt><trkpt lat="44.83142" lon="8.9204133"><ele>231.2</ele><time>2026-04-08T13:50:05.039Z</time></trkpt><trkpt lat="44.831355" lon="8.9204983"><ele>230.39999999999998</ele><time>2026-04-08T13:50:06.039Z</time></trkpt><trkpt lat="44.8312833" lon="8.9205917"><ele>229.60000000000002</ele><time>2026-04-08T13:50:07.038Z</time></trkpt><trkpt lat="44.8312117" lon="8.9206917"><ele>228.8</ele><time>2026-04-08T13:50:08.039Z</time></trkpt><trkpt lat="44.8311367" lon="8.9207983"><ele>228.0</ele><time>2026-04-08T13:50:09.038Z</time></trkpt><trkpt lat="44.8310633" lon="8.92091"><ele>228.2</ele><time>2026-04-08T13:50:10.038Z</time></trkpt><trkpt lat="44.830985" lon="8.92103"><ele>228.4</ele><time>2026-04-08T13:50:11.038Z</time></trkpt><trkpt lat="44.83091" lon="8.9211383"><ele>228.59999999999997</ele><time>2026-04-08T13:50:12.038Z</time></trkpt><trkpt lat="44.8308483" lon="8.92123"><ele>228.79999999999998</ele><time>2026-04-08T13:50:13.038Z</time></trkpt><trkpt lat="44.8307817" lon="8.92134"><ele>229.0</ele><time>2026-04-08T13:50:14.039Z</time></trkpt><trkpt lat="44.8306967" lon="8.9214433"><ele>229.0</ele><time>2026-04-08T13:50:15.039Z</time></trkpt><trkpt lat="44.8306167" lon="8.92154"><ele>229.0</ele><time>2026-04-08T13:50:16.039Z</time></trkpt><trkpt lat="44.8305317" lon="8.9216533"><ele>229.0</ele><time>2026-04-08T13:50:17.039Z</time></trkpt><trkpt lat="44.83045" lon="8.9217717"><ele>229.0</ele><time>2026-04-08T13:50:18.039Z</time></trkpt><trkpt lat="44.8303633" lon="8.92188"><ele>229.2</ele><time>2026-04-08T13:50:19.039Z</time></trkpt><trkpt lat="44.8302833" lon="8.9219667"><ele>229.39999999999998</ele><time>2026-04-08T13:50:20.038Z</time></trkpt><trkpt lat="44.8302117" lon="8.92205"><ele>229.6</ele><time>2026-04-08T13:50:21.039Z</time></trkpt><trkpt lat="44.83014" lon="8.9221317"><ele>229.8</ele><time>2026-04-08T13:50:22.038Z</time></trkpt><trkpt lat="44.8300617" lon="8.9222333"><ele>230.0</ele><time>2026-04-08T13:50:23.038Z</time></trkpt><trkpt lat="44.8299883" lon="8.9223383"><ele>230.0</ele><time>2026-04-08T13:50:24.039Z</time></trkpt><trkpt lat="44.8299117" lon="8.92245"><ele>230.0</ele><time>2026-04-08T13:50:25.039Z</time></trkpt><trkpt lat="44.82983" lon="8.9225583"><ele>230.0</ele><time>2026-04-08T13:50:26.038Z</time></trkpt><trkpt lat="44.829755" lon="8.9226633"><ele>230.0</ele><time>2026-04-08T13:50:27.038Z</time></trkpt><trkpt lat="44.82968" lon="8.92276"><ele>230.0</ele><time>2026-04-08T13:50:28.039Z</time></trkpt><trkpt lat="44.82961" lon="8.9228617"><ele>230.0</ele><time>2026-04-08T13:50:29.039Z</time></trkpt><trkpt lat="44.82954" lon="8.922965"><ele>230.0</ele><time>2026-04-08T13:50:30.039Z</time></trkpt><trkpt lat="44.829465" lon="8.92308"><ele>230.0</ele><time>2026-04-08T13:50:31.038Z</time></trkpt><trkpt lat="44.8293917" lon="8.923195"><ele>230.0</ele><time>2026-04-08T13:50:32.038Z</time></trkpt><trkpt lat="44.82931" lon="8.92333"><ele>230.0</ele><time>2026-04-08T13:50:33.039Z</time></trkpt><trkpt lat="44.8292267" lon="8.9234617"><ele>230.0</ele><time>2026-04-08T13:50:34.038Z</time></trkpt><trkpt lat="44.8291483" lon="8.923585"><ele>230.0</ele><time>2026-04-08T13:50:35.037Z</time></trkpt><trkpt lat="44.8290717" lon="8.9237133"><ele>230.0</ele><time>2026-04-08T13:50:36.038Z</time></trkpt><trkpt lat="44.8289967" lon="8.923835"><ele>230.0</ele><time>2026-04-08T13:50:37.037Z</time></trkpt><trkpt lat="44.8289317" lon="8.9239583"><ele>230.00000000000003</ele><time>2026-04-08T13:50:38.037Z</time></trkpt><trkpt lat="44.828865" lon="8.92406"><ele>230.0</ele><time>2026-04-08T13:50:39.037Z</time></trkpt><trkpt lat="44.8287983" lon="8.9241567"><ele>230.0</ele><time>2026-04-08T13:50:40.038Z</time></trkpt><trkpt lat="44.82874" lon="8.9242517"><ele>230.0</ele><time>2026-04-08T13:50:41.037Z</time></trkpt><trkpt lat="44.8286883" lon="8.9243433"><ele>230.00000000000003</ele><time>2026-04-08T13:50:42.037Z</time></trkpt><trkpt lat="44.8286433" lon="8.92443"><ele>230.0</ele><time>2026-04-08T13:50:43.037Z</time></trkpt><trkpt lat="44.8286067" lon="8.9245133"><ele>230.66666666666669</ele><time>2026-04-08T13:50:44.037Z</time></trkpt><trkpt lat="44.8285533" lon="8.9246017"><ele>231.33333333333334</ele><time>2026-04-08T13:50:45.038Z</time></trkpt><trkpt lat="44.8284967" lon="8.9246833"><ele>232.0</ele><time>2026-04-08T13:50:46.038Z</time></trkpt><trkpt lat="44.8284333" lon="8.9247667"><ele>232.66666666666669</ele><time>2026-04-08T13:50:47.038Z</time></trkpt><trkpt lat="44.8283733" lon="8.924855"><ele>233.33333333333334</ele><time>2026-04-08T13:50:48.038Z</time></trkpt><trkpt lat="44.828315" lon="8.9249467"><ele>234.0</ele><time>2026-04-08T13:50:49.038Z</time></trkpt><trkpt lat="44.82826" lon="8.9250383"><ele>233.66666666666666</ele><time>2026-04-08T13:50:50.037Z</time></trkpt><trkpt lat="44.8282067" lon="8.92512"><ele>233.33333333333331</ele><time>2026-04-08T13:50:51.037Z</time></trkpt><trkpt lat="44.8281633" lon="8.9251967"><ele>233.0</ele><time>2026-04-08T13:50:52.038Z</time></trkpt><trkpt lat="44.8281133" lon="8.9252833"><ele>232.66666666666666</ele><time>2026-04-08T13:50:53.037Z</time></trkpt><trkpt lat="44.8280567" lon="8.9253883"><ele>232.33333333333331</ele><time>2026-04-08T13:50:54.037Z</time></trkpt><trkpt lat="44.8279817" lon="8.9255117"><ele>232.0</ele><time>2026-04-08T13:50:55.038Z</time></trkpt><trkpt lat="44.8278967" lon="8.925635"><ele>232.0</ele><time>2026-04-08T13:50:56.037Z</time></trkpt><trkpt lat="44.827805" lon="8.9257583"><ele>232.0</ele><time>2026-04-08T13:50:57.038Z</time></trkpt><trkpt lat="44.8277183" lon="8.9258933"><ele>232.0</ele><time>2026-04-08T13:50:58.038Z</time></trkpt><trkpt lat="44.82764" lon="8.9260367"><ele>232.0</ele><time>2026-04-08T13:50:59.037Z</time></trkpt><trkpt lat="44.8275717" lon="8.9261933"><ele>234.25</ele><time>2026-04-08T13:51:00.037Z</time></trkpt><trkpt lat="44.8275183" lon="8.9263483"><ele>236.5</ele><time>2026-04-08T13:51:01.037Z</time></trkpt><trkpt lat="44.8274783" lon="8.9265083"><ele>238.75</ele><time>2026-04-08T13:51:02.037Z</time></trkpt><trkpt lat="44.827435" lon="8.9266667"><ele>241.0</ele><time>2026-04-08T13:51:03.037Z</time></trkpt><trkpt lat="44.8273917" lon="8.9268283"><ele>242.0</ele><time>2026-04-08T13:51:04.038Z</time></trkpt><trkpt lat="44.8273517" lon="8.9269917"><ele>243.0</ele><time>2026-04-08T13:51:05.038Z</time></trkpt><trkpt lat="44.8273117" lon="8.9271633"><ele>244.0</ele><time>2026-04-08T13:51:06.037Z</time></trkpt><trkpt lat="44.8272733" lon="8.927335"><ele>245.0</ele><time>2026-04-08T13:51:07.037Z</time></trkpt><trkpt lat="44.8272367" lon="8.927505"><ele>245.75</ele><time>2026-04-08T13:51:08.038Z</time></trkpt><trkpt lat="44.8271933" lon="8.9276817"><ele>246.5</ele><time>2026-04-08T13:51:09.037Z</time></trkpt><trkpt lat="44.827155" lon="8.9278583"><ele>247.25</ele><time>2026-04-08T13:51:10.037Z</time></trkpt><trkpt lat="44.8271183" lon="8.9280183"><ele>248.0</ele><time>2026-04-08T13:51:11.037Z</time></trkpt><trkpt lat="44.8270883" lon="8.9281583"><ele>248.0</ele><time>2026-04-08T13:51:12.037Z</time></trkpt><trkpt lat="44.82706" lon="8.928295"><ele>248.0</ele><time>2026-04-08T13:51:13.037Z</time></trkpt><trkpt lat="44.8270333" lon="8.9284383"><ele>248.0</ele><time>2026-04-08T13:51:14.038Z</time></trkpt><trkpt lat="44.8270017" lon="8.9285883"><ele>248.0</ele><time>2026-04-08T13:51:15.038Z</time></trkpt><trkpt lat="44.8269733" lon="8.9287317"><ele>248.0</ele><time>2026-04-08T13:51:16.038Z</time></trkpt><trkpt lat="44.826945" lon="8.92887"><ele>249.0</ele><time>2026-04-08T13:51:17.038Z</time></trkpt><trkpt lat="44.82692" lon="8.929005"><ele>250.0</ele><time>2026-04-08T13:51:18.037Z</time></trkpt><trkpt lat="44.8268967" lon="8.9291467"><ele>251.0</ele><time>2026-04-08T13:51:19.038Z</time></trkpt><trkpt lat="44.826875" lon="8.9292833"><ele>252.0</ele><time>2026-04-08T13:51:20.038Z</time></trkpt><trkpt lat="44.8268517" lon="8.929405"><ele>253.0</ele><time>2026-04-08T13:51:21.037Z</time></trkpt><trkpt lat="44.8268383" lon="8.9295383"><ele>253.4</ele><time>2026-04-08T13:51:22.037Z</time></trkpt><trkpt lat="44.826835" lon="8.9296733"><ele>253.8</ele><time>2026-04-08T13:51:23.037Z</time></trkpt><trkpt lat="44.826835" lon="8.9298083"><ele>254.2</ele><time>2026-04-08T13:51:24.037Z</time></trkpt><trkpt lat="44.82684" lon="8.9299517"><ele>254.6</ele><time>2026-04-08T13:51:25.037Z</time></trkpt><trkpt lat="44.8268367" lon="8.9300983"><ele>255.0</ele><time>2026-04-08T13:51:26.038Z</time></trkpt><trkpt lat="44.8268533" lon="8.9302483"><ele>256.2</ele><time>2026-04-08T13:51:27.038Z</time></trkpt><trkpt lat="44.82687" lon="8.9304067"><ele>257.4</ele><time>2026-04-08T13:51:28.037Z</time></trkpt><trkpt lat="44.82689" lon="8.9305617"><ele>258.6</ele><time>2026-04-08T13:51:29.037Z</time></trkpt><trkpt lat="44.8269117" lon="8.9307067"><ele>259.8</ele><time>2026-04-08T13:51:30.037Z</time></trkpt><trkpt lat="44.8269333" lon="8.9308583"><ele>261.0</ele><time>2026-04-08T13:51:31.038Z</time></trkpt><trkpt lat="44.8269567" lon="8.931005"><ele>262.0</ele><time>2026-04-08T13:51:32.038Z</time></trkpt><trkpt lat="44.8269783" lon="8.93115"><ele>263.0</ele><time>2026-04-08T13:51:33.037Z</time></trkpt><trkpt lat="44.827" lon="8.9312767"><ele>264.0</ele><time>2026-04-08T13:51:34.037Z</time></trkpt><trkpt lat="44.8270233" lon="8.9314033"><ele>265.0</ele><time>2026-04-08T13:51:35.037Z</time></trkpt><trkpt lat="44.8270467" lon="8.93153"><ele>266.0</ele><time>2026-04-08T13:51:36.038Z</time></trkpt><trkpt lat="44.8270783" lon="8.931655"><ele>266.8</ele><time>2026-04-08T13:51:37.037Z</time></trkpt><trkpt lat="44.8271133" lon="8.9317917"><ele>267.6</ele><time>2026-04-08T13:51:38.038Z</time></trkpt><trkpt lat="44.827145" lon="8.9319267"><ele>268.4</ele><time>2026-04-08T13:51:39.038Z</time></trkpt><trkpt lat="44.82718" lon="8.9320717"><ele>269.2</ele><time>2026-04-08T13:51:40.038Z</time></trkpt><trkpt lat="44.8272183" lon="8.9322117"><ele>270.0</ele><time>2026-04-08T13:51:41.037Z</time></trkpt><trkpt lat="44.8272617" lon="8.9323533"><ele>270.0</ele><time>2026-04-08T13:51:42.037Z</time></trkpt><trkpt lat="44.8273" lon="8.9324933"><ele>270.0</ele><time>2026-04-08T13:51:43.038Z</time></trkpt><trkpt lat="44.8273367" lon="8.9326417"><ele>270.0</ele><time>2026-04-08T13:51:44.037Z</time></trkpt><trkpt lat="44.827375" lon="8.93279"><ele>270.0</ele><time>2026-04-08T13:51:45.037Z</time></trkpt><trkpt lat="44.82742" lon="8.9329333"><ele>270.0</ele><time>2026-04-08T13:51:46.037Z</time></trkpt><trkpt lat="44.827455" lon="8.9330733"><ele>270.6666666666667</ele><time>2026-04-08T13:51:47.037Z</time></trkpt><trkpt lat="44.8275" lon="8.9331867"><ele>271.3333333333333</ele><time>2026-04-08T13:51:48.037Z</time></trkpt><trkpt lat="44.8275383" lon="8.9332767"><ele>272.0</ele><time>2026-04-08T13:51:49.038Z</time></trkpt><trkpt lat="44.8275883" lon="8.9334183"><ele>272.66666666666663</ele><time>2026-04-08T13:51:51.038Z</time></trkpt><trkpt lat="44.8275717" lon="8.933515"><ele>273.3333333333333</ele><time>2026-04-08T13:51:53.037Z</time></trkpt><trkpt lat="44.8274967" lon="8.9336083"><ele>274.0</ele><time>2026-04-08T13:51:55.037Z</time></trkpt><trkpt lat="44.8274433" lon="8.9336783"><ele>274.0</ele><time>2026-04-08T13:51:56.037Z</time></trkpt><trkpt lat="44.8273817" lon="8.9337583"><ele>274.0</ele><time>2026-04-08T13:51:57.038Z</time></trkpt><trkpt lat="44.82732" lon="8.9338667"><ele>274.0</ele><time>2026-04-08T13:51:58.037Z</time></trkpt><trkpt lat="44.8272617" lon="8.93396"><ele>274.0</ele><time>2026-04-08T13:51:59.037Z</time></trkpt><trkpt lat="44.8272" lon="8.9340483"><ele>274.0</ele><time>2026-04-08T13:52:00.037Z</time></trkpt><trkpt lat="44.82712" lon="8.9341467"><ele>272.4</ele><time>2026-04-08T13:52:01.038Z</time></trkpt><trkpt lat="44.8270333" lon="8.934245"><ele>270.79999999999995</ele><time>2026-04-08T13:52:02.038Z</time></trkpt><trkpt lat="44.8269517" lon="8.934335"><ele>269.20000000000005</ele><time>2026-04-08T13:52:03.038Z</time></trkpt><trkpt lat="44.826875" lon="8.9344233"><ele>267.6</ele><time>2026-04-08T13:52:04.037Z</time></trkpt><trkpt lat="44.8268" lon="8.93451"><ele>266.0</ele><time>2026-04-08T13:52:05.037Z</time></trkpt><trkpt lat="44.8267167" lon="8.9345767"><ele>263.6</ele><time>2026-04-08T13:52:06.037Z</time></trkpt><trkpt lat="44.8266317" lon="8.93463"><ele>261.20000000000005</ele><time>2026-04-08T13:52:07.037Z</time></trkpt><trkpt lat="44.8265383" lon="8.9346767"><ele>258.79999999999995</ele><time>2026-04-08T13:52:08.037Z</time></trkpt><trkpt lat="44.8264433" lon="8.9347267"><ele>256.4</ele><time>2026-04-08T13:52:09.037Z</time></trkpt><trkpt lat="44.8263517" lon="8.9347733"><ele>254.0</ele><time>2026-04-08T13:52:10.037Z</time></trkpt><trkpt lat="44.82625" lon="8.9348167"><ele>254.0</ele><time>2026-04-08T13:52:11.038Z</time></trkpt><trkpt lat="44.8261517" lon="8.9348633"><ele>254.0</ele><time>2026-04-08T13:52:12.037Z</time></trkpt><trkpt lat="44.8260517" lon="8.9349083"><ele>254.0</ele><time>2026-04-08T13:52:13.037Z</time></trkpt><trkpt lat="44.82594" lon="8.9349567"><ele>254.0</ele><time>2026-04-08T13:52:14.037Z</time></trkpt><trkpt lat="44.8258183" lon="8.9350133"><ele>248.5</ele><time>2026-04-08T13:52:15.038Z</time></trkpt><trkpt lat="44.825695" lon="8.9350733"><ele>243.0</ele><time>2026-04-08T13:52:16.037Z</time></trkpt><trkpt lat="44.8255733" lon="8.9351367"><ele>237.5</ele><time>2026-04-08T13:52:17.037Z</time></trkpt><trkpt lat="44.82545" lon="8.9351983"><ele>232.0</ele><time>2026-04-08T13:52:18.037Z</time></trkpt><trkpt lat="44.8253317" lon="8.9352533"><ele>232.0</ele><time>2026-04-08T13:52:19.037Z</time></trkpt><trkpt lat="44.8252133" lon="8.9353017"><ele>232.0</ele><time>2026-04-08T13:52:20.037Z</time></trkpt><trkpt lat="44.8250983" lon="8.935335"><ele>232.0</ele><time>2026-04-08T13:52:21.038Z</time></trkpt><trkpt lat="44.824975" lon="8.9353683"><ele>232.0</ele><time>2026-04-08T13:52:22.037Z</time></trkpt><trkpt lat="44.8248433" lon="8.9353883"><ele>230.0</ele><time>2026-04-08T13:52:23.038Z</time></trkpt><trkpt lat="44.8247167" lon="8.93541"><ele>228.0</ele><time>2026-04-08T13:52:24.037Z</time></trkpt><trkpt lat="44.82459" lon="8.9354283"><ele>226.0</ele><time>2026-04-08T13:52:25.037Z</time></trkpt><trkpt lat="44.8244733" lon="8.9354483"><ele>224.0</ele><time>2026-04-08T13:52:26.038Z</time></trkpt><trkpt lat="44.82435" lon="8.9354633"><ele>222.25</ele><time>2026-04-08T13:52:27.037Z</time></trkpt><trkpt lat="44.8242317" lon="8.9354767"><ele>220.5</ele><time>2026-04-08T13:52:28.038Z</time></trkpt><trkpt lat="44.8240883" lon="8.9354883"><ele>218.75</ele><time>2026-04-08T13:52:29.038Z</time></trkpt><trkpt lat="44.8239567" lon="8.9355"><ele>217.0</ele><time>2026-04-08T13:52:30.037Z</time></trkpt><trkpt lat="44.8238317" lon="8.9355167"><ele>217.0</ele><time>2026-04-08T13:52:31.037Z</time></trkpt><trkpt lat="44.823705" lon="8.935535"><ele>217.0</ele><time>2026-04-08T13:52:32.037Z</time></trkpt><trkpt lat="44.82358" lon="8.9355533"><ele>217.0</ele><time>2026-04-08T13:52:33.037Z</time></trkpt><trkpt lat="44.8234683" lon="8.9355667"><ele>217.0</ele><time>2026-04-08T13:52:34.037Z</time></trkpt><trkpt lat="44.82337" lon="8.93558"><ele>215.83333333333331</ele><time>2026-04-08T13:52:35.037Z</time></trkpt><trkpt lat="44.823285" lon="8.9355917"><ele>214.66666666666666</ele><time>2026-04-08T13:52:36.038Z</time></trkpt><trkpt lat="44.823215" lon="8.9356033"><ele>213.5</ele><time>2026-04-08T13:52:37.038Z</time></trkpt><trkpt lat="44.8231333" lon="8.93559"><ele>212.33333333333331</ele><time>2026-04-08T13:52:39.037Z</time></trkpt><trkpt lat="44.8231167" lon="8.9356767"><ele>211.16666666666666</ele><time>2026-04-08T13:53:11.038Z</time></trkpt><trkpt lat="44.8231517" lon="8.9358317"><ele>210.0</ele><time>2026-04-08T13:53:13.037Z</time></trkpt><trkpt lat="44.823175" lon="8.9359467"><ele>210.0</ele><time>2026-04-08T13:53:14.037Z</time></trkpt><trkpt lat="44.8232033" lon="8.9360833"><ele>210.0</ele><time>2026-04-08T13:53:15.037Z</time></trkpt><trkpt lat="44.8232367" lon="8.93623"><ele>210.0</ele><time>2026-04-08T13:53:16.037Z</time></trkpt><trkpt lat="44.8232667" lon="8.93638"><ele>210.0</ele><time>2026-04-08T13:53:17.037Z</time></trkpt><trkpt lat="44.8232767" lon="8.93651"><ele>210.0</ele><time>2026-04-08T13:53:18.037Z</time></trkpt><trkpt lat="44.8232867" lon="8.936635"><ele>210.6</ele><time>2026-04-08T13:53:19.037Z</time></trkpt><trkpt lat="44.82329" lon="8.9367567"><ele>211.2</ele><time>2026-04-08T13:53:20.037Z</time></trkpt><trkpt lat="44.8232967" lon="8.936875"><ele>211.8</ele><time>2026-04-08T13:53:21.038Z</time></trkpt><trkpt lat="44.823305" lon="8.9369933"><ele>212.4</ele><time>2026-04-08T13:53:22.037Z</time></trkpt><trkpt lat="44.823305" lon="8.9371333"><ele>213.0</ele><time>2026-04-08T13:53:23.038Z</time></trkpt><trkpt lat="44.8233033" lon="8.937285"><ele>213.0</ele><time>2026-04-08T13:53:24.037Z</time></trkpt><trkpt lat="44.823295" lon="8.93746"><ele>213.0</ele><time>2026-04-08T13:53:25.037Z</time></trkpt><trkpt lat="44.8232967" lon="8.9376117"><ele>213.0</ele><time>2026-04-08T13:53:26.037Z</time></trkpt><trkpt lat="44.8233" lon="8.9377433"><ele>213.0</ele><time>2026-04-08T13:53:27.038Z</time></trkpt><trkpt lat="44.823305" lon="8.937855"><ele>213.0</ele><time>2026-04-08T13:53:28.038Z</time></trkpt><trkpt lat="44.82332" lon="8.937975"><ele>213.83333333333334</ele><time>2026-04-08T13:53:29.038Z</time></trkpt><trkpt lat="44.82335" lon="8.9380817"><ele>214.66666666666669</ele><time>2026-04-08T13:53:30.038Z</time></trkpt><trkpt lat="44.8233883" lon="8.938185"><ele>215.5</ele><time>2026-04-08T13:53:31.038Z</time></trkpt><trkpt lat="44.8234283" lon="8.938295"><ele>216.33333333333334</ele><time>2026-04-08T13:53:32.038Z</time></trkpt><trkpt lat="44.823445" lon="8.9383833"><ele>217.16666666666669</ele><time>2026-04-08T13:53:33.037Z</time></trkpt><trkpt lat="44.823465" lon="8.9385117"><ele>218.0</ele><time>2026-04-08T13:53:35.038Z</time></trkpt><trkpt lat="44.8234583" lon="8.93866"><ele>218.0</ele><time>2026-04-08T13:53:37.038Z</time></trkpt><trkpt lat="44.82344" lon="8.9387517"><ele>218.0</ele><time>2026-04-08T13:53:38.038Z</time></trkpt><trkpt lat="44.8234233" lon="8.938845"><ele>218.0</ele><time>2026-04-08T13:53:39.037Z</time></trkpt><trkpt lat="44.8234033" lon="8.9389367"><ele>218.0</ele><time>2026-04-08T13:53:40.038Z</time></trkpt><trkpt lat="44.8233833" lon="8.9390383"><ele>218.0</ele><time>2026-04-08T13:53:41.038Z</time></trkpt><trkpt lat="44.823365" lon="8.93914"><ele>218.0</ele><time>2026-04-08T13:53:42.037Z</time></trkpt><trkpt lat="44.82335" lon="8.9392517"><ele>218.0</ele><time>2026-04-08T13:53:43.037Z</time></trkpt><trkpt lat="44.823325" lon="8.93937"><ele>218.0</ele><time>2026-04-08T13:53:44.037Z</time></trkpt><trkpt lat="44.82331" lon="8.93952"><ele>218.0</ele><time>2026-04-08T13:53:45.037Z</time></trkpt><trkpt lat="44.8232867" lon="8.939655"><ele>218.0</ele><time>2026-04-08T13:53:46.037Z</time></trkpt><trkpt lat="44.823265" lon="8.93977"><ele>218.0</ele><time>2026-04-08T13:53:47.038Z</time></trkpt><trkpt lat="44.8232417" lon="8.9398633"><ele>218.0</ele><time>2026-04-08T13:53:48.037Z</time></trkpt><trkpt lat="44.8232117" lon="8.9400183"><ele>218.50000000000003</ele><time>2026-04-08T13:53:50.037Z</time></trkpt><trkpt lat="44.8232233" lon="8.9401283"><ele>219.0</ele><time>2026-04-08T13:53:53.037Z</time></trkpt><trkpt lat="44.8232567" lon="8.9402117"><ele>219.5</ele><time>2026-04-08T13:53:56.038Z</time></trkpt><trkpt lat="44.823305" lon="8.9403433"><ele>220.0</ele><time>2026-04-08T13:54:02.037Z</time></trkpt><trkpt lat="44.8233483" lon="8.9404533"><ele>220.50000000000003</ele><time>2026-04-08T13:54:03.037Z</time></trkpt><trkpt lat="44.8233867" lon="8.94056"><ele>221.0</ele><time>2026-04-08T13:54:04.037Z</time></trkpt><trkpt lat="44.8234217" lon="8.94065"><ele>221.0</ele><time>2026-04-08T13:54:05.037Z</time></trkpt><trkpt lat="44.8234583" lon="8.9407383"><ele>221.00000000000003</ele><time>2026-04-08T13:54:06.036Z</time></trkpt><trkpt lat="44.8235367" lon="8.940865"><ele>221.00000000000003</ele><time>2026-04-08T13:54:08.036Z</time></trkpt><trkpt lat="44.823615" lon="8.940935"><ele>221.0</ele><time>2026-04-08T13:54:10.037Z</time></trkpt><trkpt lat="44.823705" lon="8.9410167"><ele>221.0</ele><time>2026-04-08T13:54:12.037Z</time></trkpt><trkpt lat="44.8237617" lon="8.9410767"><ele>220.83333333333334</ele><time>2026-04-08T13:54:13.037Z</time></trkpt><trkpt lat="44.8238167" lon="8.94113"><ele>220.66666666666669</ele><time>2026-04-08T13:54:14.036Z</time></trkpt><trkpt lat="44.8239" lon="8.9412367"><ele>220.5</ele><time>2026-04-08T13:54:16.036Z</time></trkpt><trkpt lat="44.82399" lon="8.94134"><ele>220.33333333333331</ele><time>2026-04-08T13:54:18.036Z</time></trkpt><trkpt lat="44.82405" lon="8.9414"><ele>220.16666666666666</ele><time>2026-04-08T13:54:19.037Z</time></trkpt><trkpt lat="44.824105" lon="8.9414583"><ele>220.0</ele><time>2026-04-08T13:54:20.036Z</time></trkpt><trkpt lat="44.8242083" lon="8.9415633"><ele>219.99999999999997</ele><time>2026-04-08T13:54:22.036Z</time></trkpt><trkpt lat="44.8242667" lon="8.9416217"><ele>220.0</ele><time>2026-04-08T13:54:23.037Z</time></trkpt><trkpt lat="44.8243433" lon="8.9417"><ele>220.0</ele><time>2026-04-08T13:54:25.037Z</time></trkpt><trkpt lat="44.82431" lon="8.9416083"><ele>220.0</ele><time>2026-04-08T13:54:51.036Z</time></trkpt><trkpt lat="44.8242267" lon="8.9415867"><ele>219.99999999999997</ele><time>2026-04-08T13:54:54.036Z</time></trkpt><trkpt lat="44.8241383" lon="8.94151"><ele>220.0</ele><time>2026-04-08T13:54:56.036Z</time></trkpt><trkpt lat="44.8240483" lon="8.9414183"><ele>219.99999999999997</ele><time>2026-04-08T13:54:58.037Z</time></trkpt><trkpt lat="44.8239633" lon="8.9413083"><ele>220.0</ele><time>2026-04-08T13:55:00.036Z</time></trkpt><trkpt lat="44.8239133" lon="8.941245"><ele>220.0</ele><time>2026-04-08T13:55:01.036Z</time></trkpt><trkpt lat="44.8238583" lon="8.94119"><ele>220.0</ele><time>2026-04-08T13:55:02.036Z</time></trkpt><trkpt lat="44.823805" lon="8.9411333"><ele>219.99999999999997</ele><time>2026-04-08T13:55:03.036Z</time></trkpt><trkpt lat="44.823745" lon="8.941075"><ele>220.0</ele><time>2026-04-08T13:55:04.036Z</time></trkpt><trkpt lat="44.82368" lon="8.9410117"><ele>219.99999999999997</ele><time>2026-04-08T13:55:05.037Z</time></trkpt><trkpt lat="44.823625" lon="8.9409633"><ele>220.0</ele><time>2026-04-08T13:55:06.036Z</time></trkpt><trkpt lat="44.8235733" lon="8.9409083"><ele>220.0</ele><time>2026-04-08T13:55:07.036Z</time></trkpt><trkpt lat="44.8235233" lon="8.9408483"><ele>220.0</ele><time>2026-04-08T13:55:08.037Z</time></trkpt><trkpt lat="44.823475" lon="8.9407817"><ele>220.0</ele><time>2026-04-08T13:55:09.037Z</time></trkpt><trkpt lat="44.82344" lon="8.940695"><ele>219.99999999999997</ele><time>2026-04-08T13:55:10.036Z</time></trkpt><trkpt lat="44.823405" lon="8.940605"><ele>220.0</ele><time>2026-04-08T13:55:11.036Z</time></trkpt><trkpt lat="44.8233683" lon="8.940495"><ele>220.2</ele><time>2026-04-08T13:55:12.036Z</time></trkpt><trkpt lat="44.82333" lon="8.9403883"><ele>220.4</ele><time>2026-04-08T13:55:13.036Z</time></trkpt><trkpt lat="44.8232917" lon="8.9402967"><ele>220.60000000000002</ele><time>2026-04-08T13:55:14.036Z</time></trkpt><trkpt lat="44.8232567" lon="8.9402183"><ele>220.8</ele><time>2026-04-08T13:55:15.037Z</time></trkpt><trkpt lat="44.8232133" lon="8.9400667"><ele>221.0</ele><time>2026-04-08T13:55:17.036Z</time></trkpt><trkpt lat="44.82322" lon="8.939905"><ele>221.00000000000003</ele><time>2026-04-08T13:55:19.036Z</time></trkpt><trkpt lat="44.8232417" lon="8.9398067"><ele>221.0</ele><time>2026-04-08T13:55:20.037Z</time></trkpt><trkpt lat="44.8232633" lon="8.9396883"><ele>221.0</ele><time>2026-04-08T13:55:21.036Z</time></trkpt><trkpt lat="44.8232883" lon="8.9395533"><ele>221.0</ele><time>2026-04-08T13:55:22.036Z</time></trkpt><trkpt lat="44.82331" lon="8.9394217"><ele>221.00000000000003</ele><time>2026-04-08T13:55:23.037Z</time></trkpt><trkpt lat="44.8233333" lon="8.939305"><ele>221.0</ele><time>2026-04-08T13:55:24.036Z</time></trkpt><trkpt lat="44.8233483" lon="8.9391917"><ele>221.00000000000003</ele><time>2026-04-08T13:55:25.037Z</time></trkpt><trkpt lat="44.8233583" lon="8.9390833"><ele>221.0</ele><time>2026-04-08T13:55:26.036Z</time></trkpt><trkpt lat="44.8233717" lon="8.9389733"><ele>221.0</ele><time>2026-04-08T13:55:27.037Z</time></trkpt><trkpt lat="44.8233933" lon="8.938865"><ele>221.0</ele><time>2026-04-08T13:55:28.037Z</time></trkpt><trkpt lat="44.8234117" lon="8.938745"><ele>221.00000000000003</ele><time>2026-04-08T13:55:29.037Z</time></trkpt><trkpt lat="44.8234317" lon="8.9386317"><ele>221.0</ele><time>2026-04-08T13:55:30.037Z</time></trkpt><trkpt lat="44.8234433" lon="8.9385333"><ele>220.4</ele><time>2026-04-08T13:55:31.037Z</time></trkpt><trkpt lat="44.82342" lon="8.9383567"><ele>219.8</ele><time>2026-04-08T13:55:33.036Z</time></trkpt><trkpt lat="44.8233917" lon="8.9382683"><ele>219.20000000000002</ele><time>2026-04-08T13:55:34.037Z</time></trkpt><trkpt lat="44.8233667" lon="8.9381817"><ele>218.60000000000002</ele><time>2026-04-08T13:55:35.036Z</time></trkpt><trkpt lat="44.8233167" lon="8.9380467"><ele>218.0</ele><time>2026-04-08T13:55:37.036Z</time></trkpt><trkpt lat="44.823295" lon="8.937885"><ele>218.00000000000003</ele><time>2026-04-08T13:55:39.036Z</time></trkpt><trkpt lat="44.823295" lon="8.9377883"><ele>218.0</ele><time>2026-04-08T13:55:40.036Z</time></trkpt><trkpt lat="44.823295" lon="8.9376967"><ele>218.0</ele><time>2026-04-08T13:55:41.036Z</time></trkpt><trkpt lat="44.823295" lon="8.9376017"><ele>218.0</ele><time>2026-04-08T13:55:42.036Z</time></trkpt><trkpt lat="44.8232933" lon="8.9374883"><ele>218.00000000000003</ele><time>2026-04-08T13:55:43.036Z</time></trkpt><trkpt lat="44.8232933" lon="8.937365"><ele>218.0</ele><time>2026-04-08T13:55:44.037Z</time></trkpt><trkpt lat="44.8233" lon="8.9372383"><ele>217.16666666666669</ele><time>2026-04-08T13:55:45.036Z</time></trkpt><trkpt lat="44.8232983" lon="8.9371033"><ele>216.33333333333334</ele><time>2026-04-08T13:55:46.036Z</time></trkpt><trkpt lat="44.823295" lon="8.936995"><ele>215.5</ele><time>2026-04-08T13:55:47.036Z</time></trkpt><trkpt lat="44.8232967" lon="8.9369033"><ele>214.66666666666669</ele><time>2026-04-08T13:55:48.036Z</time></trkpt><trkpt lat="44.8232967" lon="8.9368133"><ele>213.83333333333334</ele><time>2026-04-08T13:55:49.037Z</time></trkpt><trkpt lat="44.8232917" lon="8.9367017"><ele>213.0</ele><time>2026-04-08T13:55:50.036Z</time></trkpt><trkpt lat="44.823285" lon="8.9365867"><ele>212.4</ele><time>2026-04-08T13:55:51.036Z</time></trkpt><trkpt lat="44.823275" lon="8.936465"><ele>211.8</ele><time>2026-04-08T13:55:52.036Z</time></trkpt><trkpt lat="44.8232583" lon="8.9363417"><ele>211.2</ele><time>2026-04-08T13:55:53.037Z</time></trkpt><trkpt lat="44.8232333" lon="8.9362117"><ele>210.6</ele><time>2026-04-08T13:55:54.036Z</time></trkpt><trkpt lat="44.8232017" lon="8.9360683"><ele>210.0</ele><time>2026-04-08T13:55:55.036Z</time></trkpt><trkpt lat="44.8231717" lon="8.9359283"><ele>209.4</ele><time>2026-04-08T13:55:56.037Z</time></trkpt><trkpt lat="44.8231517" lon="8.9357917"><ele>208.8</ele><time>2026-04-08T13:55:57.036Z</time></trkpt><trkpt lat="44.823125" lon="8.93568"><ele>208.2</ele><time>2026-04-08T13:55:58.036Z</time></trkpt><trkpt lat="44.8230967" lon="8.9355583"><ele>207.6</ele><time>2026-04-08T13:55:59.036Z</time></trkpt><trkpt lat="44.8230783" lon="8.93544"><ele>207.0</ele><time>2026-04-08T13:56:00.037Z</time></trkpt><trkpt lat="44.8230667" lon="8.9353"><ele>207.0</ele><time>2026-04-08T13:56:01.037Z</time></trkpt><trkpt lat="44.82305" lon="8.935145"><ele>207.0</ele><time>2026-04-08T13:56:02.036Z</time></trkpt><trkpt lat="44.8230383" lon="8.9349867"><ele>207.0</ele><time>2026-04-08T13:56:03.036Z</time></trkpt><trkpt lat="44.8230283" lon="8.9348233"><ele>207.0</ele><time>2026-04-08T13:56:04.037Z</time></trkpt><trkpt lat="44.82302" lon="8.934655"><ele>207.25</ele><time>2026-04-08T13:56:05.036Z</time></trkpt><trkpt lat="44.8230133" lon="8.9344833"><ele>207.5</ele><time>2026-04-08T13:56:06.036Z</time></trkpt><trkpt lat="44.8230017" lon="8.9342967"><ele>207.75</ele><time>2026-04-08T13:56:07.036Z</time></trkpt><trkpt lat="44.8229917" lon="8.9341117"><ele>208.0</ele><time>2026-04-08T13:56:08.036Z</time></trkpt><trkpt lat="44.8229867" lon="8.9339367"><ele>207.60000000000002</ele><time>2026-04-08T13:56:09.037Z</time></trkpt><trkpt lat="44.8229817" lon="8.93378"><ele>207.20000000000002</ele><time>2026-04-08T13:56:10.037Z</time></trkpt><trkpt lat="44.8229783" lon="8.93363"><ele>206.8</ele><time>2026-04-08T13:56:11.036Z</time></trkpt><trkpt lat="44.8229683" lon="8.9334767"><ele>206.4</ele><time>2026-04-08T13:56:12.037Z</time></trkpt><trkpt lat="44.8229617" lon="8.9333133"><ele>206.0</ele><time>2026-04-08T13:56:13.037Z</time></trkpt><trkpt lat="44.8229517" lon="8.9331417"><ele>206.0</ele><time>2026-04-08T13:56:14.036Z</time></trkpt><trkpt lat="44.8229467" lon="8.93297"><ele>206.0</ele><time>2026-04-08T13:56:15.036Z</time></trkpt><trkpt lat="44.8229367" lon="8.9328033"><ele>206.0</ele><time>2026-04-08T13:56:16.037Z</time></trkpt><trkpt lat="44.822935" lon="8.9326567"><ele>206.0</ele><time>2026-04-08T13:56:17.036Z</time></trkpt><trkpt lat="44.822935" lon="8.93251"><ele>206.0</ele><time>2026-04-08T13:56:18.036Z</time></trkpt><trkpt lat="44.8229183" lon="8.9323683"><ele>206.0</ele><time>2026-04-08T13:56:19.036Z</time></trkpt><trkpt lat="44.82289" lon="8.9322217"><ele>206.0</ele><time>2026-04-08T13:56:20.036Z</time></trkpt><trkpt lat="44.8228467" lon="8.93208"><ele>206.0</ele><time>2026-04-08T13:56:21.037Z</time></trkpt><trkpt lat="44.8227967" lon="8.931935"><ele>206.0</ele><time>2026-04-08T13:56:22.036Z</time></trkpt><trkpt lat="44.8227433" lon="8.931785"><ele>206.0</ele><time>2026-04-08T13:56:23.036Z</time></trkpt><trkpt lat="44.8226917" lon="8.9316233"><ele>206.0</ele><time>2026-04-08T13:56:24.037Z</time></trkpt><trkpt lat="44.8226533" lon="8.9314533"><ele>206.0</ele><time>2026-04-08T13:56:25.036Z</time></trkpt><trkpt lat="44.822615" lon="8.93129"><ele>206.0</ele><time>2026-04-08T13:56:26.037Z</time></trkpt><trkpt lat="44.8225833" lon="8.9311683"><ele>206.0</ele><time>2026-04-08T13:56:27.037Z</time></trkpt><trkpt lat="44.8225533" lon="8.9310767"><ele>206.0</ele><time>2026-04-08T13:56:28.037Z</time></trkpt><trkpt lat="44.822455" lon="8.930935"><ele>206.0</ele><time>2026-04-08T13:56:30.037Z</time></trkpt><trkpt lat="44.8223867" lon="8.9308683"><ele>206.0</ele><time>2026-04-08T13:56:31.036Z</time></trkpt><trkpt lat="44.822305" lon="8.930785"><ele>206.0</ele><time>2026-04-08T13:56:32.036Z</time></trkpt><trkpt lat="44.82222" lon="8.9306967"><ele>206.0</ele><time>2026-04-08T13:56:33.036Z</time></trkpt><trkpt lat="44.82213" lon="8.9306217"><ele>206.0</ele><time>2026-04-08T13:56:34.037Z</time></trkpt><trkpt lat="44.822035" lon="8.9305467"><ele>206.0</ele><time>2026-04-08T13:56:35.036Z</time></trkpt><trkpt lat="44.821935" lon="8.9304767"><ele>206.0</ele><time>2026-04-08T13:56:36.037Z</time></trkpt><trkpt lat="44.8218333" lon="8.9304083"><ele>206.0</ele><time>2026-04-08T13:56:37.037Z</time></trkpt><trkpt lat="44.821735" lon="8.9303367"><ele>205.66666666666669</ele><time>2026-04-08T13:56:38.036Z</time></trkpt><trkpt lat="44.8216483" lon="8.9302733"><ele>205.33333333333334</ele><time>2026-04-08T13:56:39.036Z</time></trkpt><trkpt lat="44.8215683" lon="8.9302083"><ele>205.0</ele><time>2026-04-08T13:56:40.036Z</time></trkpt><trkpt lat="44.8215" lon="8.9301367"><ele>204.66666666666669</ele><time>2026-04-08T13:56:41.037Z</time></trkpt><trkpt lat="44.8214367" lon="8.9300533"><ele>204.33333333333334</ele><time>2026-04-08T13:56:42.036Z</time></trkpt><trkpt lat="44.82139" lon="8.92995"><ele>204.0</ele><time>2026-04-08T13:56:43.037Z</time></trkpt><trkpt lat="44.8213433" lon="8.9298283"><ele>204.0</ele><time>2026-04-08T13:56:44.036Z</time></trkpt><trkpt lat="44.821305" lon="8.9296917"><ele>204.0</ele><time>2026-04-08T13:56:45.036Z</time></trkpt><trkpt lat="44.8212617" lon="8.9295417"><ele>204.0</ele><time>2026-04-08T13:56:46.037Z</time></trkpt><trkpt lat="44.8212133" lon="8.9294"><ele>204.0</ele><time>2026-04-08T13:56:47.037Z</time></trkpt><trkpt lat="44.821155" lon="8.9292783"><ele>204.0</ele><time>2026-04-08T13:56:48.036Z</time></trkpt><trkpt lat="44.8210817" lon="8.9291683"><ele>204.2</ele><time>2026-04-08T13:56:49.037Z</time></trkpt><trkpt lat="44.8209917" lon="8.9290817"><ele>204.39999999999998</ele><time>2026-04-08T13:56:50.036Z</time></trkpt><trkpt lat="44.8208883" lon="8.9290083"><ele>204.6</ele><time>2026-04-08T13:56:51.036Z</time></trkpt><trkpt lat="44.82078" lon="8.928955"><ele>204.8</ele><time>2026-04-08T13:56:52.036Z</time></trkpt><trkpt lat="44.8206917" lon="8.928915"><ele>205.0</ele><time>2026-04-08T13:56:53.036Z</time></trkpt><trkpt lat="44.8206133" lon="8.9289133"><ele>204.99999999999997</ele><time>2026-04-08T13:56:54.036Z</time></trkpt><trkpt lat="44.8205433" lon="8.9289533"><ele>205.0</ele><time>2026-04-08T13:56:55.037Z</time></trkpt><trkpt lat="44.8204833" lon="8.9290167"><ele>205.0</ele><time>2026-04-08T13:56:56.036Z</time></trkpt><trkpt lat="44.8204117" lon="8.9291517"><ele>205.0</ele><time>2026-04-08T13:56:58.036Z</time></trkpt><trkpt lat="44.82034" lon="8.9292033"><ele>204.99999999999997</ele><time>2026-04-08T13:57:00.036Z</time></trkpt><trkpt lat="44.8202683" lon="8.9291817"><ele>205.0</ele><time>2026-04-08T13:57:02.037Z</time></trkpt><trkpt lat="44.8201567" lon="8.9290617"><ele>206.83333333333331</ele><time>2026-04-08T13:57:04.036Z</time></trkpt><trkpt lat="44.8200917" lon="8.9289717"><ele>208.66666666666666</ele><time>2026-04-08T13:57:05.037Z</time></trkpt><trkpt lat="44.8200267" lon="8.928895"><ele>210.5</ele><time>2026-04-08T13:57:06.036Z</time></trkpt><trkpt lat="44.8199683" lon="8.9288317"><ele>212.33333333333331</ele><time>2026-04-08T13:57:07.036Z</time></trkpt><trkpt lat="44.8198733" lon="8.928735"><ele>214.16666666666666</ele><time>2026-04-08T13:57:09.036Z</time></trkpt><trkpt lat="44.81982" lon="8.9286783"><ele>216.0</ele><time>2026-04-08T13:57:10.036Z</time></trkpt><trkpt lat="44.8197567" lon="8.9286133"><ele>216.0</ele><time>2026-04-08T13:57:11.036Z</time></trkpt><trkpt lat="44.8196883" lon="8.9285367"><ele>216.00000000000003</ele><time>2026-04-08T13:57:12.037Z</time></trkpt><trkpt lat="44.8196167" lon="8.928455"><ele>216.00000000000003</ele><time>2026-04-08T13:57:13.036Z</time></trkpt><trkpt lat="44.8195467" lon="8.928355"><ele>216.0</ele><time>2026-04-08T13:57:14.036Z</time></trkpt><trkpt lat="44.8194867" lon="8.9282367"><ele>216.0</ele><time>2026-04-08T13:57:15.037Z</time></trkpt><trkpt lat="44.8194317" lon="8.92812"><ele>216.4</ele><time>2026-04-08T13:57:16.036Z</time></trkpt><trkpt lat="44.81938" lon="8.9280283"><ele>216.8</ele><time>2026-04-08T13:57:17.037Z</time></trkpt><trkpt lat="44.81933" lon="8.927955"><ele>217.20000000000002</ele><time>2026-04-08T13:57:18.037Z</time></trkpt><trkpt lat="44.81928" lon="8.9278783"><ele>217.60000000000002</ele><time>2026-04-08T13:57:19.037Z</time></trkpt><trkpt lat="44.81918" lon="8.9277917"><ele>218.0</ele><time>2026-04-08T13:57:21.036Z</time></trkpt><trkpt lat="44.8190567" lon="8.92783"><ele>220.50000000000003</ele><time>2026-04-08T13:57:23.036Z</time></trkpt><trkpt lat="44.8190067" lon="8.9279033"><ele>223.0</ele><time>2026-04-08T13:57:24.036Z</time></trkpt><trkpt lat="44.818965" lon="8.9279883"><ele>225.5</ele><time>2026-04-08T13:57:25.036Z</time></trkpt><trkpt lat="44.8189267" lon="8.928085"><ele>228.0</ele><time>2026-04-08T13:57:26.036Z</time></trkpt><trkpt lat="44.8188917" lon="8.928195"><ele>230.50000000000003</ele><time>2026-04-08T13:57:27.037Z</time></trkpt><trkpt lat="44.8188667" lon="8.9283233"><ele>233.0</ele><time>2026-04-08T13:57:28.037Z</time></trkpt><trkpt lat="44.8188467" lon="8.92845"><ele>233.00000000000003</ele><time>2026-04-08T13:57:29.037Z</time></trkpt><trkpt lat="44.8188283" lon="8.928565"><ele>233.0</ele><time>2026-04-08T13:57:30.036Z</time></trkpt><trkpt lat="44.81881" lon="8.92866"><ele>233.0</ele><time>2026-04-08T13:57:31.037Z</time></trkpt><trkpt lat="44.8188067" lon="8.9287567"><ele>233.0</ele><time>2026-04-08T13:57:32.037Z</time></trkpt><trkpt lat="44.8188017" lon="8.9288533"><ele>233.00000000000003</ele><time>2026-04-08T13:57:33.035Z</time></trkpt><trkpt lat="44.8187917" lon="8.928955"><ele>233.0</ele><time>2026-04-08T13:57:34.036Z</time></trkpt><trkpt lat="44.8187467" lon="8.9290933"><ele>233.00000000000003</ele><time>2026-04-08T13:57:36.035Z</time></trkpt><trkpt lat="44.818645" lon="8.9291283"><ele>233.0</ele><time>2026-04-08T13:57:38.035Z</time></trkpt><trkpt lat="44.8185733" lon="8.9291117"><ele>233.0</ele><time>2026-04-08T13:57:39.035Z</time></trkpt><trkpt lat="44.8184883" lon="8.929075"><ele>233.0</ele><time>2026-04-08T13:57:40.035Z</time></trkpt><trkpt lat="44.818405" lon="8.929035"><ele>233.00000000000003</ele><time>2026-04-08T13:57:41.035Z</time></trkpt><trkpt lat="44.8183317" lon="8.929005"><ele>233.0</ele><time>2026-04-08T13:57:42.035Z</time></trkpt><trkpt lat="44.8182467" lon="8.92896"><ele>236.2</ele><time>2026-04-08T13:57:44.036Z</time></trkpt><trkpt lat="44.8181833" lon="8.9289633"><ele>239.4</ele><time>2026-04-08T13:57:46.035Z</time></trkpt><trkpt lat="44.818055" lon="8.9290117"><ele>242.59999999999997</ele><time>2026-04-08T13:57:48.035Z</time></trkpt><trkpt lat="44.8179683" lon="8.9290583"><ele>245.79999999999998</ele><time>2026-04-08T13:57:49.036Z</time></trkpt><trkpt lat="44.81787" lon="8.9291133"><ele>249.0</ele><time>2026-04-08T13:57:50.035Z</time></trkpt><trkpt lat="44.8177667" lon="8.929185"><ele>246.0</ele><time>2026-04-08T13:57:51.035Z</time></trkpt><trkpt lat="44.8176633" lon="8.9292667"><ele>243.0</ele><time>2026-04-08T13:57:52.035Z</time></trkpt><trkpt lat="44.8175633" lon="8.9293583"><ele>240.0</ele><time>2026-04-08T13:57:53.036Z</time></trkpt><trkpt lat="44.8174633" lon="8.92946"><ele>237.0</ele><time>2026-04-08T13:57:54.035Z</time></trkpt><trkpt lat="44.817365" lon="8.9295667"><ele>237.0</ele><time>2026-04-08T13:57:55.035Z</time></trkpt><trkpt lat="44.8172767" lon="8.92968"><ele>237.0</ele><time>2026-04-08T13:57:56.036Z</time></trkpt><trkpt lat="44.817195" lon="8.9298033"><ele>237.0</ele><time>2026-04-08T13:57:57.035Z</time></trkpt><trkpt lat="44.8171167" lon="8.92992"><ele>237.0</ele><time>2026-04-08T13:57:58.035Z</time></trkpt><trkpt lat="44.81704" lon="8.9300367"><ele>235.5</ele><time>2026-04-08T13:57:59.035Z</time></trkpt><trkpt lat="44.8169567" lon="8.930135"><ele>234.0</ele><time>2026-04-08T13:58:00.036Z</time></trkpt><trkpt lat="44.8168667" lon="8.9302167"><ele>232.5</ele><time>2026-04-08T13:58:01.035Z</time></trkpt><trkpt lat="44.8167633" lon="8.9302983"><ele>231.0</ele><time>2026-04-08T13:58:02.036Z</time></trkpt><trkpt lat="44.8166517" lon="8.9303617"><ele>231.0</ele><time>2026-04-08T13:58:03.035Z</time></trkpt><trkpt lat="44.8165333" lon="8.9304133"><ele>231.0</ele><time>2026-04-08T13:58:04.035Z</time></trkpt><trkpt lat="44.8164117" lon="8.9304567"><ele>231.0</ele><time>2026-04-08T13:58:05.036Z</time></trkpt><trkpt lat="44.8162967" lon="8.9305"><ele>231.0</ele><time>2026-04-08T13:58:06.035Z</time></trkpt><trkpt lat="44.8161733" lon="8.93056"><ele>231.0</ele><time>2026-04-08T13:58:07.036Z</time></trkpt><trkpt lat="44.8160583" lon="8.9306433"><ele>231.0</ele><time>2026-04-08T13:58:08.036Z</time></trkpt><trkpt lat="44.815955" lon="8.9307517"><ele>231.0</ele><time>2026-04-08T13:58:09.036Z</time></trkpt><trkpt lat="44.8158567" lon="8.9308683"><ele>231.0</ele><time>2026-04-08T13:58:10.036Z</time></trkpt><trkpt lat="44.815765" lon="8.9309883"><ele>228.75</ele><time>2026-04-08T13:58:11.036Z</time></trkpt><trkpt lat="44.8156783" lon="8.931115"><ele>226.5</ele><time>2026-04-08T13:58:12.035Z</time></trkpt><trkpt lat="44.8155917" lon="8.9312517"><ele>224.25</ele><time>2026-04-08T13:58:13.036Z</time></trkpt><trkpt lat="44.8155017" lon="8.9314017"><ele>222.0</ele><time>2026-04-08T13:58:14.035Z</time></trkpt><trkpt lat="44.81541" lon="8.93156"><ele>222.0</ele><time>2026-04-08T13:58:15.035Z</time></trkpt><trkpt lat="44.8153283" lon="8.9317167"><ele>222.0</ele><time>2026-04-08T13:58:16.035Z</time></trkpt><trkpt lat="44.81525" lon="8.9318767"><ele>222.0</ele><time>2026-04-08T13:58:17.035Z</time></trkpt><trkpt lat="44.8151767" lon="8.9320333"><ele>222.0</ele><time>2026-04-08T13:58:18.036Z</time></trkpt><trkpt lat="44.8151033" lon="8.9321883"><ele>221.0</ele><time>2026-04-08T13:58:19.035Z</time></trkpt><trkpt lat="44.8150417" lon="8.9323517"><ele>220.0</ele><time>2026-04-08T13:58:20.036Z</time></trkpt><trkpt lat="44.814995" lon="8.9325117"><ele>219.0</ele><time>2026-04-08T13:58:21.036Z</time></trkpt><trkpt lat="44.8149667" lon="8.932655"><ele>218.0</ele><time>2026-04-08T13:58:22.036Z</time></trkpt><trkpt lat="44.814955" lon="8.9327983"><ele>218.0</ele><time>2026-04-08T13:58:23.036Z</time></trkpt><trkpt lat="44.8149567" lon="8.9329333"><ele>218.0</ele><time>2026-04-08T13:58:24.036Z</time></trkpt><trkpt lat="44.81496" lon="8.9330633"><ele>218.0</ele><time>2026-04-08T13:58:25.036Z</time></trkpt><trkpt lat="44.8149483" lon="8.9331867"><ele>218.0</ele><time>2026-04-08T13:58:26.035Z</time></trkpt><trkpt lat="44.8149317" lon="8.9333167"><ele>218.0</ele><time>2026-04-08T13:58:27.035Z</time></trkpt><trkpt lat="44.814915" lon="8.9334667"><ele>219.0</ele><time>2026-04-08T13:58:28.036Z</time></trkpt><trkpt lat="44.814895" lon="8.9336317"><ele>220.0</ele><time>2026-04-08T13:58:29.035Z</time></trkpt><trkpt lat="44.814875" lon="8.9338067"><ele>221.0</ele><time>2026-04-08T13:58:30.035Z</time></trkpt><trkpt lat="44.8148483" lon="8.93397"><ele>222.0</ele><time>2026-04-08T13:58:31.036Z</time></trkpt><trkpt lat="44.814815" lon="8.9341283"><ele>223.0</ele><time>2026-04-08T13:58:32.035Z</time></trkpt><trkpt lat="44.8147633" lon="8.93428"><ele>224.0</ele><time>2026-04-08T13:58:33.035Z</time></trkpt><trkpt lat="44.8146817" lon="8.9344133"><ele>225.0</ele><time>2026-04-08T13:58:34.035Z</time></trkpt><trkpt lat="44.8145883" lon="8.9345483"><ele>226.0</ele><time>2026-04-08T13:58:35.035Z</time></trkpt><trkpt lat="44.8144967" lon="8.9346933"><ele>226.0</ele><time>2026-04-08T13:58:36.035Z</time></trkpt><trkpt lat="44.8144067" lon="8.9348383"><ele>226.0</ele><time>2026-04-08T13:58:37.035Z</time></trkpt><trkpt lat="44.8143133" lon="8.93498"><ele>226.0</ele><time>2026-04-08T13:58:38.035Z</time></trkpt><trkpt lat="44.814225" lon="8.9351217"><ele>226.0</ele><time>2026-04-08T13:58:39.035Z</time></trkpt><trkpt lat="44.81414" lon="8.9352683"><ele>226.5</ele><time>2026-04-08T13:58:40.036Z</time></trkpt><trkpt lat="44.8140683" lon="8.9354267"><ele>227.0</ele><time>2026-04-08T13:58:41.036Z</time></trkpt><trkpt lat="44.814005" lon="8.9356017"><ele>227.5</ele><time>2026-04-08T13:58:42.035Z</time></trkpt><trkpt lat="44.8139567" lon="8.9357833"><ele>228.0</ele><time>2026-04-08T13:58:43.035Z</time></trkpt><trkpt lat="44.8139133" lon="8.9359733"><ele>228.0</ele><time>2026-04-08T13:58:44.035Z</time></trkpt><trkpt lat="44.8138767" lon="8.9361733"><ele>228.0</ele><time>2026-04-08T13:58:45.036Z</time></trkpt><trkpt lat="44.813835" lon="8.9363783"><ele>228.0</ele><time>2026-04-08T13:58:46.036Z</time></trkpt><trkpt lat="44.8138" lon="8.93658"><ele>228.0</ele><time>2026-04-08T13:58:47.035Z</time></trkpt><trkpt lat="44.81377" lon="8.9367867"><ele>228.66666666666669</ele><time>2026-04-08T13:58:48.035Z</time></trkpt><trkpt lat="44.8137483" lon="8.9369967"><ele>229.33333333333334</ele><time>2026-04-08T13:58:49.035Z</time></trkpt><trkpt lat="44.81373" lon="8.9372117"><ele>230.0</ele><time>2026-04-08T13:58:50.035Z</time></trkpt><trkpt lat="44.8137017" lon="8.9374283"><ele>231.0</ele><time>2026-04-08T13:58:51.035Z</time></trkpt><trkpt lat="44.81366" lon="8.93765"><ele>232.0</ele><time>2026-04-08T13:58:52.035Z</time></trkpt><trkpt lat="44.8136017" lon="8.9378683"><ele>233.0</ele><time>2026-04-08T13:58:53.035Z</time></trkpt><trkpt lat="44.8135467" lon="8.9380683"><ele>233.0</ele><time>2026-04-08T13:58:54.036Z</time></trkpt><trkpt lat="44.813495" lon="8.93826"><ele>233.0</ele><time>2026-04-08T13:58:55.035Z</time></trkpt><trkpt lat="44.8134483" lon="8.93842"><ele>233.0</ele><time>2026-04-08T13:58:56.036Z</time></trkpt><trkpt lat="44.813385" lon="8.9385633"><ele>233.0</ele><time>2026-04-08T13:58:57.035Z</time></trkpt><trkpt lat="44.81331" lon="8.9386833"><ele>232.2</ele><time>2026-04-08T13:58:58.035Z</time></trkpt><trkpt lat="44.8132267" lon="8.9387817"><ele>231.4</ele><time>2026-04-08T13:58:59.035Z</time></trkpt><trkpt lat="44.8131417" lon="8.9388533"><ele>230.59999999999997</ele><time>2026-04-08T13:59:00.036Z</time></trkpt><trkpt lat="44.8130617" lon="8.9389283"><ele>229.79999999999998</ele><time>2026-04-08T13:59:01.035Z</time></trkpt><trkpt lat="44.8129933" lon="8.9390033"><ele>229.0</ele><time>2026-04-08T13:59:02.035Z</time></trkpt><trkpt lat="44.812945" lon="8.9390917"><ele>228.99999999999997</ele><time>2026-04-08T13:59:03.035Z</time></trkpt><trkpt lat="44.8129267" lon="8.9391767"><ele>229.0</ele><time>2026-04-08T13:59:04.036Z</time></trkpt><trkpt lat="44.8129667" lon="8.9393433"><ele>229.0</ele><time>2026-04-08T13:59:06.035Z</time></trkpt><trkpt lat="44.813025" lon="8.9394183"><ele>229.0</ele><time>2026-04-08T13:59:07.035Z</time></trkpt><trkpt lat="44.8130967" lon="8.9394917"><ele>228.99999999999997</ele><time>2026-04-08T13:59:08.035Z</time></trkpt><trkpt lat="44.81317" lon="8.939575"><ele>229.0</ele><time>2026-04-08T13:59:09.036Z</time></trkpt><trkpt lat="44.8132467" lon="8.9396617"><ele>229.6</ele><time>2026-04-08T13:59:10.036Z</time></trkpt><trkpt lat="44.8133167" lon="8.9397533"><ele>230.2</ele><time>2026-04-08T13:59:11.036Z</time></trkpt><trkpt lat="44.8133783" lon="8.9398567"><ele>230.79999999999998</ele><time>2026-04-08T13:59:12.035Z</time></trkpt><trkpt lat="44.8134267" lon="8.939985"><ele>231.39999999999998</ele><time>2026-04-08T13:59:13.036Z</time></trkpt><trkpt lat="44.8134667" lon="8.9401167"><ele>232.0</ele><time>2026-04-08T13:59:14.035Z</time></trkpt><trkpt lat="44.8134883" lon="8.9402617"><ele>232.6</ele><time>2026-04-08T13:59:15.035Z</time></trkpt><trkpt lat="44.8134967" lon="8.940415"><ele>233.2</ele><time>2026-04-08T13:59:16.035Z</time></trkpt><trkpt lat="44.8135" lon="8.9405717"><ele>233.8</ele><time>2026-04-08T13:59:17.035Z</time></trkpt><trkpt lat="44.8134867" lon="8.9407283"><ele>234.4</ele><time>2026-04-08T13:59:18.036Z</time></trkpt><trkpt lat="44.81345" lon="8.9408567"><ele>235.0</ele><time>2026-04-08T13:59:19.035Z</time></trkpt><trkpt lat="44.8133917" lon="8.94097"><ele>235.8</ele><time>2026-04-08T13:59:20.035Z</time></trkpt><trkpt lat="44.8133267" lon="8.9410733"><ele>236.6</ele><time>2026-04-08T13:59:21.036Z</time></trkpt><trkpt lat="44.8132617" lon="8.9411917"><ele>237.39999999999998</ele><time>2026-04-08T13:59:22.035Z</time></trkpt><trkpt lat="44.81321" lon="8.941325"><ele>238.2</ele><time>2026-04-08T13:59:23.035Z</time></trkpt><trkpt lat="44.8131983" lon="8.9414517"><ele>239.0</ele><time>2026-04-08T13:59:24.035Z</time></trkpt><trkpt lat="44.8132317" lon="8.941565"><ele>239.0</ele><time>2026-04-08T13:59:25.036Z</time></trkpt><trkpt lat="44.81327" lon="8.941675"><ele>238.99999999999997</ele><time>2026-04-08T13:59:26.035Z</time></trkpt><trkpt lat="44.8133017" lon="8.9417867"><ele>238.99999999999997</ele><time>2026-04-08T13:59:27.036Z</time></trkpt><trkpt lat="44.8133033" lon="8.941915"><ele>239.0</ele><time>2026-04-08T13:59:28.036Z</time></trkpt><trkpt lat="44.8132867" lon="8.9420583"><ele>239.0</ele><time>2026-04-08T13:59:29.035Z</time></trkpt><trkpt lat="44.8132517" lon="8.9422017"><ele>240.5</ele><time>2026-04-08T13:59:30.036Z</time></trkpt><trkpt lat="44.8132117" lon="8.9423483"><ele>242.0</ele><time>2026-04-08T13:59:31.035Z</time></trkpt><trkpt lat="44.813165" lon="8.9424833"><ele>243.5</ele><time>2026-04-08T13:59:32.035Z</time></trkpt><trkpt lat="44.8130933" lon="8.94261"><ele>245.0</ele><time>2026-04-08T13:59:33.035Z</time></trkpt><trkpt lat="44.8130033" lon="8.9427367"><ele>246.25</ele><time>2026-04-08T13:59:34.035Z</time></trkpt><trkpt lat="44.8129167" lon="8.9428683"><ele>247.5</ele><time>2026-04-08T13:59:35.035Z</time></trkpt><trkpt lat="44.8128233" lon="8.943005"><ele>248.75</ele><time>2026-04-08T13:59:36.035Z</time></trkpt><trkpt lat="44.812735" lon="8.9431367"><ele>250.0</ele><time>2026-04-08T13:59:37.036Z</time></trkpt><trkpt lat="44.8126417" lon="8.94326"><ele>253.0</ele><time>2026-04-08T13:59:38.035Z</time></trkpt><trkpt lat="44.8125333" lon="8.943385"><ele>256.0</ele><time>2026-04-08T13:59:39.035Z</time></trkpt><trkpt lat="44.812425" lon="8.943505"><ele>259.0</ele><time>2026-04-08T13:59:40.035Z</time></trkpt><trkpt lat="44.812315" lon="8.9436217"><ele>262.0</ele><time>2026-04-08T13:59:41.036Z</time></trkpt><trkpt lat="44.812205" lon="8.9437333"><ele>262.0</ele><time>2026-04-08T13:59:42.036Z</time></trkpt><trkpt lat="44.81211" lon="8.9438483"><ele>262.0</ele><time>2026-04-08T13:59:43.035Z</time></trkpt><trkpt lat="44.8120183" lon="8.943955"><ele>262.0</ele><time>2026-04-08T13:59:44.035Z</time></trkpt><trkpt lat="44.81193" lon="8.9440583"><ele>262.0</ele><time>2026-04-08T13:59:45.035Z</time></trkpt><trkpt lat="44.811855" lon="8.944145"><ele>263.8333333333333</ele><time>2026-04-08T13:59:46.035Z</time></trkpt><trkpt lat="44.8117933" lon="8.9442317"><ele>265.66666666666663</ele><time>2026-04-08T13:59:47.035Z</time></trkpt><trkpt lat="44.8117617" lon="8.9443217"><ele>267.5</ele><time>2026-04-08T13:59:48.035Z</time></trkpt><trkpt lat="44.8117967" lon="8.9444883"><ele>269.3333333333333</ele><time>2026-04-08T13:59:50.035Z</time></trkpt><trkpt lat="44.81186" lon="8.9445483"><ele>271.1666666666667</ele><time>2026-04-08T13:59:51.035Z</time></trkpt><trkpt lat="44.8119383" lon="8.944575"><ele>273.0</ele><time>2026-04-08T13:59:52.036Z</time></trkpt><trkpt lat="44.8120217" lon="8.9445883"><ele>273.1666666666667</ele><time>2026-04-08T13:59:53.036Z</time></trkpt><trkpt lat="44.8121083" lon="8.9446033"><ele>273.3333333333333</ele><time>2026-04-08T13:59:54.035Z</time></trkpt><trkpt lat="44.8121917" lon="8.94462"><ele>273.5</ele><time>2026-04-08T13:59:55.036Z</time></trkpt><trkpt lat="44.8122667" lon="8.9446417"><ele>273.66666666666663</ele><time>2026-04-08T13:59:56.036Z</time></trkpt><trkpt lat="44.81233" lon="8.9446733"><ele>273.8333333333333</ele><time>2026-04-08T13:59:57.035Z</time></trkpt><trkpt lat="44.812405" lon="8.94479"><ele>274.0</ele><time>2026-04-08T13:59:59.035Z</time></trkpt><trkpt lat="44.812345" lon="8.9449283"><ele>274.0</ele><time>2026-04-08T14:00:01.035Z</time></trkpt><trkpt lat="44.81227" lon="8.944985"><ele>274.0</ele><time>2026-04-08T14:00:02.035Z</time></trkpt><trkpt lat="44.812175" lon="8.9450283"><ele>274.0</ele><time>2026-04-08T14:00:03.035Z</time></trkpt><trkpt lat="44.8120617" lon="8.9450717"><ele>274.0</ele><time>2026-04-08T14:00:04.036Z</time></trkpt><trkpt lat="44.8119467" lon="8.9451183"><ele>274.0</ele><time>2026-04-08T14:00:05.036Z</time></trkpt><trkpt lat="44.8118233" lon="8.9451683"><ele>277.0</ele><time>2026-04-08T14:00:06.035Z</time></trkpt><trkpt lat="44.8117183" lon="8.9452167"><ele>280.0</ele><time>2026-04-08T14:00:07.035Z</time></trkpt><trkpt lat="44.81163" lon="8.9452667"><ele>283.0</ele><time>2026-04-08T14:00:08.035Z</time></trkpt><trkpt lat="44.811555" lon="8.9453217"><ele>286.0</ele><time>2026-04-08T14:00:09.036Z</time></trkpt><trkpt lat="44.8114983" lon="8.94539"><ele>289.0</ele><time>2026-04-08T14:00:10.036Z</time></trkpt><trkpt lat="44.8114883" lon="8.9455367"><ele>289.0</ele><time>2026-04-08T14:00:12.035Z</time></trkpt><trkpt lat="44.811575" lon="8.9456033"><ele>289.0</ele><time>2026-04-08T14:00:14.036Z</time></trkpt><trkpt lat="44.8116367" lon="8.945585"><ele>289.0</ele><time>2026-04-08T14:00:15.036Z</time></trkpt><trkpt lat="44.8117033" lon="8.9455517"><ele>289.0</ele><time>2026-04-08T14:00:16.036Z</time></trkpt><trkpt lat="44.811775" lon="8.9455133"><ele>289.0</ele><time>2026-04-08T14:00:17.035Z</time></trkpt><trkpt lat="44.8118533" lon="8.9454733"><ele>289.0</ele><time>2026-04-08T14:00:18.035Z</time></trkpt><trkpt lat="44.8119367" lon="8.9454467"><ele>289.59999999999997</ele><time>2026-04-08T14:00:19.035Z</time></trkpt><trkpt lat="44.8120267" lon="8.945435"><ele>290.2</ele><time>2026-04-08T14:00:20.035Z</time></trkpt><trkpt lat="44.8121233" lon="8.9454417"><ele>290.79999999999995</ele><time>2026-04-08T14:00:21.036Z</time></trkpt><trkpt lat="44.81223" lon="8.94547"><ele>291.4</ele><time>2026-04-08T14:00:22.035Z</time></trkpt><trkpt lat="44.81234" lon="8.9455117"><ele>292.0</ele><time>2026-04-08T14:00:23.035Z</time></trkpt><trkpt lat="44.812455" lon="8.9455667"><ele>292.0</ele><time>2026-04-08T14:00:24.035Z</time></trkpt><trkpt lat="44.8125683" lon="8.9456233"><ele>292.0</ele><time>2026-04-08T14:00:25.035Z</time></trkpt><trkpt lat="44.8126617" lon="8.9456833"><ele>292.0</ele><time>2026-04-08T14:00:26.036Z</time></trkpt><trkpt lat="44.8127517" lon="8.9457517"><ele>292.0</ele><time>2026-04-08T14:00:27.036Z</time></trkpt><trkpt lat="44.812825" lon="8.9458217"><ele>292.0</ele><time>2026-04-08T14:00:28.036Z</time></trkpt><trkpt lat="44.812875" lon="8.9458983"><ele>293.6</ele><time>2026-04-08T14:00:29.035Z</time></trkpt><trkpt lat="44.8128617" lon="8.9460517"><ele>295.2</ele><time>2026-04-08T14:00:31.035Z</time></trkpt><trkpt lat="44.8128083" lon="8.9461017"><ele>296.8</ele><time>2026-04-08T14:00:32.035Z</time></trkpt><trkpt lat="44.8126783" lon="8.9460917"><ele>298.4</ele><time>2026-04-08T14:00:34.036Z</time></trkpt><trkpt lat="44.8125983" lon="8.9460433"><ele>300.0</ele><time>2026-04-08T14:00:35.036Z</time></trkpt><trkpt lat="44.8125167" lon="8.9460033"><ele>301.6</ele><time>2026-04-08T14:00:36.035Z</time></trkpt><trkpt lat="44.8124233" lon="8.9459883"><ele>303.2</ele><time>2026-04-08T14:00:37.036Z</time></trkpt><trkpt lat="44.812325" lon="8.9459967"><ele>304.8</ele><time>2026-04-08T14:00:38.036Z</time></trkpt><trkpt lat="44.8122183" lon="8.9460217"><ele>306.4</ele><time>2026-04-08T14:00:39.036Z</time></trkpt><trkpt lat="44.8121067" lon="8.946055"><ele>308.0</ele><time>2026-04-08T14:00:40.036Z</time></trkpt><trkpt lat="44.812005" lon="8.9460967"><ele>308.0</ele><time>2026-04-08T14:00:41.036Z</time></trkpt><trkpt lat="44.811915" lon="8.946145"><ele>308.0</ele><time>2026-04-08T14:00:42.035Z</time></trkpt><trkpt lat="44.811835" lon="8.9462117"><ele>308.0</ele><time>2026-04-08T14:00:43.035Z</time></trkpt><trkpt lat="44.8117783" lon="8.9463"><ele>308.0</ele><time>2026-04-08T14:00:44.036Z</time></trkpt><trkpt lat="44.8117267" lon="8.9464217"><ele>308.0</ele><time>2026-04-08T14:00:45.036Z</time></trkpt><trkpt lat="44.8116883" lon="8.9465567"><ele>307.8</ele><time>2026-04-08T14:00:46.036Z</time></trkpt><trkpt lat="44.8116483" lon="8.946695"><ele>307.6</ele><time>2026-04-08T14:00:47.035Z</time></trkpt><trkpt lat="44.8115967" lon="8.94684"><ele>307.4</ele><time>2026-04-08T14:00:48.035Z</time></trkpt><trkpt lat="44.8115267" lon="8.946955"><ele>307.2</ele><time>2026-04-08T14:00:49.035Z</time></trkpt><trkpt lat="44.8114333" lon="8.9470567"><ele>307.0</ele><time>2026-04-08T14:00:50.036Z</time></trkpt><trkpt lat="44.8113317" lon="8.947145"><ele>308.6</ele><time>2026-04-08T14:00:51.035Z</time></trkpt><trkpt lat="44.8112367" lon="8.94723"><ele>310.2</ele><time>2026-04-08T14:00:52.035Z</time></trkpt><trkpt lat="44.8111467" lon="8.94731"><ele>311.8</ele><time>2026-04-08T14:00:53.035Z</time></trkpt><trkpt lat="44.811055" lon="8.9473917"><ele>313.4</ele><time>2026-04-08T14:00:54.035Z</time></trkpt><trkpt lat="44.81097" lon="8.9475067"><ele>315.0</ele><time>2026-04-08T14:00:55.035Z</time></trkpt><trkpt lat="44.8108933" lon="8.94762"><ele>315.4</ele><time>2026-04-08T14:00:56.036Z</time></trkpt><trkpt lat="44.81083" lon="8.94773"><ele>315.8</ele><time>2026-04-08T14:00:57.036Z</time></trkpt><trkpt lat="44.8107683" lon="8.9478267"><ele>316.2</ele><time>2026-04-08T14:00:58.035Z</time></trkpt><trkpt lat="44.8106933" lon="8.9479017"><ele>316.6</ele><time>2026-04-08T14:00:59.035Z</time></trkpt><trkpt lat="44.8106033" lon="8.9479617"><ele>317.0</ele><time>2026-04-08T14:01:00.034Z</time></trkpt><trkpt lat="44.8105133" lon="8.9480233"><ele>317.0</ele><time>2026-04-08T14:01:01.035Z</time></trkpt><trkpt lat="44.8104217" lon="8.9480767"><ele>317.0</ele><time>2026-04-08T14:01:02.035Z</time></trkpt><trkpt lat="44.8103283" lon="8.9481233"><ele>317.0</ele><time>2026-04-08T14:01:03.034Z</time></trkpt><trkpt lat="44.8102417" lon="8.9481817"><ele>317.0</ele><time>2026-04-08T14:01:04.034Z</time></trkpt><trkpt lat="44.81016" lon="8.9482483"><ele>317.0</ele><time>2026-04-08T14:01:05.034Z</time></trkpt><trkpt lat="44.8100783" lon="8.9483233"><ele>316.2</ele><time>2026-04-08T14:01:06.034Z</time></trkpt><trkpt lat="44.8099983" lon="8.9484017"><ele>315.4</ele><time>2026-04-08T14:01:07.034Z</time></trkpt><trkpt lat="44.8099267" lon="8.94847"><ele>314.6</ele><time>2026-04-08T14:01:08.034Z</time></trkpt><trkpt lat="44.8098433" lon="8.9485483"><ele>313.8</ele><time>2026-04-08T14:01:09.035Z</time></trkpt><trkpt lat="44.809755" lon="8.948635"><ele>313.0</ele><time>2026-04-08T14:01:10.035Z</time></trkpt><trkpt lat="44.8096733" lon="8.94873"><ele>313.0</ele><time>2026-04-08T14:01:11.035Z</time></trkpt><trkpt lat="44.80959" lon="8.94881"><ele>313.0</ele><time>2026-04-08T14:01:12.035Z</time></trkpt><trkpt lat="44.8095067" lon="8.948865"><ele>313.0</ele><time>2026-04-08T14:01:13.034Z</time></trkpt><trkpt lat="44.809425" lon="8.9489133"><ele>313.0</ele><time>2026-04-08T14:01:14.034Z</time></trkpt><trkpt lat="44.8093467" lon="8.9489383"><ele>313.0</ele><time>2026-04-08T14:01:15.034Z</time></trkpt><trkpt lat="44.8092833" lon="8.9489467"><ele>313.0</ele><time>2026-04-08T14:01:16.034Z</time></trkpt><trkpt lat="44.8091717" lon="8.9489967"><ele>313.4</ele><time>2026-04-08T14:01:18.034Z</time></trkpt><trkpt lat="44.809105" lon="8.9490383"><ele>313.8</ele><time>2026-04-08T14:01:19.034Z</time></trkpt><trkpt lat="44.8090317" lon="8.949105"><ele>314.2</ele><time>2026-04-08T14:01:20.034Z</time></trkpt><trkpt lat="44.80895" lon="8.9491933"><ele>314.6</ele><time>2026-04-08T14:01:21.034Z</time></trkpt><trkpt lat="44.8088617" lon="8.949295"><ele>315.0</ele><time>2026-04-08T14:01:22.035Z</time></trkpt><trkpt lat="44.80878" lon="8.9493983"><ele>315.0</ele><time>2026-04-08T14:01:23.034Z</time></trkpt><trkpt lat="44.8086917" lon="8.949515"><ele>315.0</ele><time>2026-04-08T14:01:24.034Z</time></trkpt><trkpt lat="44.8085917" lon="8.94962"><ele>315.0</ele><time>2026-04-08T14:01:25.035Z</time></trkpt><trkpt lat="44.8085117" lon="8.9497233"><ele>315.0</ele><time>2026-04-08T14:01:26.035Z</time></trkpt><trkpt lat="44.8084317" lon="8.94983"><ele>317.75</ele><time>2026-04-08T14:01:27.034Z</time></trkpt><trkpt lat="44.808345" lon="8.94995"><ele>320.5</ele><time>2026-04-08T14:01:28.035Z</time></trkpt><trkpt lat="44.808265" lon="8.95006"><ele>323.25</ele><time>2026-04-08T14:01:29.035Z</time></trkpt><trkpt lat="44.8081783" lon="8.9501817"><ele>326.0</ele><time>2026-04-08T14:01:30.034Z</time></trkpt><trkpt lat="44.8080967" lon="8.9503017"><ele>326.0</ele><time>2026-04-08T14:01:31.034Z</time></trkpt><trkpt lat="44.8080217" lon="8.9504233"><ele>326.0</ele><time>2026-04-08T14:01:32.035Z</time></trkpt><trkpt lat="44.8079517" lon="8.95055"><ele>326.0</ele><time>2026-04-08T14:01:33.034Z</time></trkpt><trkpt lat="44.807885" lon="8.9506733"><ele>326.0</ele><time>2026-04-08T14:01:34.035Z</time></trkpt><trkpt lat="44.8078183" lon="8.9507917"><ele>326.0</ele><time>2026-04-08T14:01:35.035Z</time></trkpt><trkpt lat="44.8077367" lon="8.9509083"><ele>327.8</ele><time>2026-04-08T14:01:36.035Z</time></trkpt><trkpt lat="44.8076583" lon="8.95103"><ele>329.6</ele><time>2026-04-08T14:01:37.034Z</time></trkpt><trkpt lat="44.8075833" lon="8.95115"><ele>331.4</ele><time>2026-04-08T14:01:38.035Z</time></trkpt><trkpt lat="44.8075233" lon="8.9512717"><ele>333.2</ele><time>2026-04-08T14:01:39.034Z</time></trkpt><trkpt lat="44.8074733" lon="8.951395"><ele>335.0</ele><time>2026-04-08T14:01:40.035Z</time></trkpt><trkpt lat="44.8074233" lon="8.951525"><ele>335.0</ele><time>2026-04-08T14:01:41.035Z</time></trkpt><trkpt lat="44.8073683" lon="8.9516583"><ele>335.0</ele><time>2026-04-08T14:01:42.034Z</time></trkpt><trkpt lat="44.807305" lon="8.95179"><ele>335.0</ele><time>2026-04-08T14:01:43.035Z</time></trkpt><trkpt lat="44.80723" lon="8.9519167"><ele>335.0</ele><time>2026-04-08T14:01:44.035Z</time></trkpt><trkpt lat="44.8071417" lon="8.95205"><ele>334.5</ele><time>2026-04-08T14:01:45.035Z</time></trkpt><trkpt lat="44.8070533" lon="8.9521767"><ele>334.0</ele><time>2026-04-08T14:01:46.035Z</time></trkpt><trkpt lat="44.80695" lon="8.952295"><ele>333.5</ele><time>2026-04-08T14:01:47.035Z</time></trkpt><trkpt lat="44.806855" lon="8.95242"><ele>333.0</ele><time>2026-04-08T14:01:48.034Z</time></trkpt><trkpt lat="44.8067583" lon="8.9525183"><ele>329.5</ele><time>2026-04-08T14:01:49.034Z</time></trkpt><trkpt lat="44.8066633" lon="8.9525933"><ele>326.0</ele><time>2026-04-08T14:01:50.034Z</time></trkpt><trkpt lat="44.806565" lon="8.9526683"><ele>322.5</ele><time>2026-04-08T14:01:51.035Z</time></trkpt><trkpt lat="44.8064617" lon="8.9527517"><ele>319.0</ele><time>2026-04-08T14:01:52.034Z</time></trkpt><trkpt lat="44.8063617" lon="8.9528533"><ele>319.0</ele><time>2026-04-08T14:01:53.034Z</time></trkpt><trkpt lat="44.80627" lon="8.9529717"><ele>319.0</ele><time>2026-04-08T14:01:54.035Z</time></trkpt><trkpt lat="44.8061867" lon="8.9530967"><ele>319.0</ele><time>2026-04-08T14:01:55.035Z</time></trkpt><trkpt lat="44.806105" lon="8.95323"><ele>319.0</ele><time>2026-04-08T14:01:56.035Z</time></trkpt><trkpt lat="44.8060233" lon="8.953355"><ele>321.75</ele><time>2026-04-08T14:01:57.035Z</time></trkpt><trkpt lat="44.8059167" lon="8.9534983"><ele>324.5</ele><time>2026-04-08T14:01:58.035Z</time></trkpt><trkpt lat="44.8058017" lon="8.953625"><ele>327.25</ele><time>2026-04-08T14:01:59.034Z</time></trkpt><trkpt lat="44.8057033" lon="8.9537383"><ele>330.0</ele><time>2026-04-08T14:02:00.034Z</time></trkpt><trkpt lat="44.8056183" lon="8.953825"><ele>330.0</ele><time>2026-04-08T14:02:01.035Z</time></trkpt><trkpt lat="44.8055383" lon="8.9539"><ele>330.0</ele><time>2026-04-08T14:02:02.035Z</time></trkpt><trkpt lat="44.805455" lon="8.9539533"><ele>330.0</ele><time>2026-04-08T14:02:03.034Z</time></trkpt><trkpt lat="44.8053617" lon="8.9539833"><ele>330.0</ele><time>2026-04-08T14:02:04.034Z</time></trkpt><trkpt lat="44.8052483" lon="8.9539983"><ele>330.0</ele><time>2026-04-08T14:02:05.034Z</time></trkpt><trkpt lat="44.8051367" lon="8.95401"><ele>330.4</ele><time>2026-04-08T14:02:06.035Z</time></trkpt><trkpt lat="44.8050433" lon="8.9540267"><ele>330.8</ele><time>2026-04-08T14:02:07.035Z</time></trkpt><trkpt lat="44.8049583" lon="8.95406"><ele>331.20000000000005</ele><time>2026-04-08T14:02:08.035Z</time></trkpt><trkpt lat="44.8048667" lon="8.954125"><ele>331.6</ele><time>2026-04-08T14:02:09.035Z</time></trkpt><trkpt lat="44.8047717" lon="8.9542083"><ele>332.0</ele><time>2026-04-08T14:02:10.035Z</time></trkpt><trkpt lat="44.8046817" lon="8.9542983"><ele>332.0</ele><time>2026-04-08T14:02:11.035Z</time></trkpt><trkpt lat="44.8045833" lon="8.9543783"><ele>332.0</ele><time>2026-04-08T14:02:12.034Z</time></trkpt><trkpt lat="44.8044717" lon="8.9544517"><ele>332.0</ele><time>2026-04-08T14:02:13.034Z</time></trkpt><trkpt lat="44.8043583" lon="8.95453"><ele>332.0</ele><time>2026-04-08T14:02:14.035Z</time></trkpt><trkpt lat="44.8042583" lon="8.954605"><ele>333.0</ele><time>2026-04-08T14:02:15.034Z</time></trkpt><trkpt lat="44.8041667" lon="8.9546867"><ele>334.0</ele><time>2026-04-08T14:02:16.034Z</time></trkpt><trkpt lat="44.8040717" lon="8.9547883"><ele>335.0</ele><time>2026-04-08T14:02:17.035Z</time></trkpt><trkpt lat="44.8039883" lon="8.9549067"><ele>336.0</ele><time>2026-04-08T14:02:18.035Z</time></trkpt><trkpt lat="44.8039067" lon="8.95504"><ele>336.0</ele><time>2026-04-08T14:02:19.035Z</time></trkpt><trkpt lat="44.8038233" lon="8.955185"><ele>336.0</ele><time>2026-04-08T14:02:20.034Z</time></trkpt><trkpt lat="44.803735" lon="8.95534"><ele>336.0</ele><time>2026-04-08T14:02:21.034Z</time></trkpt><trkpt lat="44.803645" lon="8.95549"><ele>336.0</ele><time>2026-04-08T14:02:22.035Z</time></trkpt><trkpt lat="44.8035567" lon="8.95564"><ele>337.0</ele><time>2026-04-08T14:02:23.034Z</time></trkpt><trkpt lat="44.8034733" lon="8.9557733"><ele>338.0</ele><time>2026-04-08T14:02:24.035Z</time></trkpt><trkpt lat="44.8033817" lon="8.9558783"><ele>339.0</ele><time>2026-04-08T14:02:25.034Z</time></trkpt><trkpt lat="44.8032833" lon="8.9559583"><ele>340.0</ele><time>2026-04-08T14:02:26.035Z</time></trkpt><trkpt lat="44.8031667" lon="8.9560283"><ele>340.0</ele><time>2026-04-08T14:02:27.034Z</time></trkpt><trkpt lat="44.80304" lon="8.9560717"><ele>340.0</ele><time>2026-04-08T14:02:28.035Z</time></trkpt><trkpt lat="44.8028983" lon="8.9561083"><ele>340.0</ele><time>2026-04-08T14:02:29.035Z</time></trkpt><trkpt lat="44.8027767" lon="8.9561333"><ele>340.0</ele><time>2026-04-08T14:02:30.034Z</time></trkpt><trkpt lat="44.80268" lon="8.9561667"><ele>343.8</ele><time>2026-04-08T14:02:31.034Z</time></trkpt><trkpt lat="44.8025917" lon="8.9562117"><ele>347.6</ele><time>2026-04-08T14:02:32.034Z</time></trkpt><trkpt lat="44.802515" lon="8.9562767"><ele>351.4</ele><time>2026-04-08T14:02:33.034Z</time></trkpt><trkpt lat="44.8024417" lon="8.9563717"><ele>355.2</ele><time>2026-04-08T14:02:34.035Z</time></trkpt><trkpt lat="44.80236" lon="8.9564683"><ele>359.0</ele><time>2026-04-08T14:02:35.034Z</time></trkpt><trkpt lat="44.8022717" lon="8.9565533"><ele>359.0</ele><time>2026-04-08T14:02:36.035Z</time></trkpt><trkpt lat="44.802175" lon="8.95662"><ele>359.0</ele><time>2026-04-08T14:02:37.034Z</time></trkpt><trkpt lat="44.8020717" lon="8.9566683"><ele>359.0</ele><time>2026-04-08T14:02:38.035Z</time></trkpt><trkpt lat="44.801965" lon="8.9567"><ele>359.0</ele><time>2026-04-08T14:02:39.034Z</time></trkpt><trkpt lat="44.8018567" lon="8.9567183"><ele>359.0</ele><time>2026-04-08T14:02:40.034Z</time></trkpt><trkpt lat="44.8017383" lon="8.9567267"><ele>361.2</ele><time>2026-04-08T14:02:41.034Z</time></trkpt><trkpt lat="44.8016233" lon="8.9567317"><ele>363.4</ele><time>2026-04-08T14:02:42.034Z</time></trkpt><trkpt lat="44.8015033" lon="8.9567417"><ele>365.6</ele><time>2026-04-08T14:02:43.035Z</time></trkpt><trkpt lat="44.8013883" lon="8.9567467"><ele>367.8</ele><time>2026-04-08T14:02:44.035Z</time></trkpt><trkpt lat="44.80129" lon="8.9567517"><ele>370.0</ele><time>2026-04-08T14:02:45.035Z</time></trkpt><trkpt lat="44.8012" lon="8.9567617"><ele>370.0</ele><time>2026-04-08T14:02:46.034Z</time></trkpt><trkpt lat="44.8011283" lon="8.9567783"><ele>370.0</ele><time>2026-04-08T14:02:47.034Z</time></trkpt><trkpt lat="44.8010217" lon="8.9568367"><ele>370.0</ele><time>2026-04-08T14:02:49.035Z</time></trkpt><trkpt lat="44.800945" lon="8.95691"><ele>370.0</ele><time>2026-04-08T14:02:51.035Z</time></trkpt><trkpt lat="44.8008667" lon="8.9570167"><ele>370.0</ele><time>2026-04-08T14:02:53.035Z</time></trkpt><trkpt lat="44.80078" lon="8.95713"><ele>372.5</ele><time>2026-04-08T14:02:55.034Z</time></trkpt><trkpt lat="44.80069" lon="8.95722"><ele>375.0</ele><time>2026-04-08T14:02:57.034Z</time></trkpt><trkpt lat="44.8006233" lon="8.9572833"><ele>377.5</ele><time>2026-04-08T14:02:59.034Z</time></trkpt><trkpt lat="44.80054" lon="8.9573367"><ele>380.0</ele><time>2026-04-08T14:03:01.034Z</time></trkpt><trkpt lat="44.8004683" lon="8.9573817"><ele>382.50000000000006</ele><time>2026-04-08T14:03:03.035Z</time></trkpt><trkpt lat="44.80041" lon="8.9574533"><ele>385.0</ele><time>2026-04-08T14:03:06.034Z</time></trkpt><trkpt lat="44.8004233" lon="8.957545"><ele>385.0</ele><time>2026-04-08T14:03:10.035Z</time></trkpt><trkpt lat="44.80051" lon="8.9575133"><ele>385.0</ele><time>2026-04-08T14:03:15.035Z</time></trkpt><trkpt lat="44.8005967" lon="8.9574883"><ele>385.0</ele><time>2026-04-08T14:03:17.034Z</time></trkpt><trkpt lat="44.8007133" lon="8.95747"><ele>385.0</ele><time>2026-04-08T14:03:19.034Z</time></trkpt><trkpt lat="44.800795" lon="8.9575033"><ele>385.0</ele><time>2026-04-08T14:03:21.034Z</time></trkpt><trkpt lat="44.8008117" lon="8.9576117"><ele>385.00000000000006</ele><time>2026-04-08T14:03:24.035Z</time></trkpt><trkpt lat="44.8007517" lon="8.95767"><ele>385.0</ele><time>2026-04-08T14:03:26.034Z</time></trkpt><trkpt lat="44.8006267" lon="8.9577083"><ele>385.0</ele><time>2026-04-08T14:03:28.034Z</time></trkpt><trkpt lat="44.8005533" lon="8.9577333"><ele>385.0</ele><time>2026-04-08T14:03:29.034Z</time></trkpt><trkpt lat="44.80047" lon="8.95776"><ele>385.00000000000006</ele><time>2026-04-08T14:03:30.035Z</time></trkpt><trkpt lat="44.8004" lon="8.9577833"><ele>385.0</ele><time>2026-04-08T14:03:31.035Z</time></trkpt><trkpt lat="44.80033" lon="8.95782"><ele>385.00000000000006</ele><time>2026-04-08T14:03:32.034Z</time></trkpt><trkpt lat="44.8002667" lon="8.9578633"><ele>385.0</ele><time>2026-04-08T14:03:33.034Z</time></trkpt><trkpt lat="44.80021" lon="8.9579267"><ele>385.0</ele><time>2026-04-08T14:03:34.034Z</time></trkpt><trkpt lat="44.8001483" lon="8.9579933"><ele>385.0</ele><time>2026-04-08T14:03:35.034Z</time></trkpt><trkpt lat="44.800085" lon="8.9580717"><ele>385.00000000000006</ele><time>2026-04-08T14:03:36.035Z</time></trkpt><trkpt lat="44.8000217" lon="8.9581467"><ele>385.0</ele><time>2026-04-08T14:03:37.035Z</time></trkpt><trkpt lat="44.7999583" lon="8.958235"><ele>389.4</ele><time>2026-04-08T14:03:38.034Z</time></trkpt><trkpt lat="44.7998967" lon="8.9583283"><ele>393.8</ele><time>2026-04-08T14:03:39.035Z</time></trkpt><trkpt lat="44.7998333" lon="8.9584383"><ele>398.20000000000005</ele><time>2026-04-08T14:03:40.034Z</time></trkpt><trkpt lat="44.7997667" lon="8.9585767"><ele>402.6</ele><time>2026-04-08T14:03:41.035Z</time></trkpt><trkpt lat="44.7996983" lon="8.9587283"><ele>407.0</ele><time>2026-04-08T14:03:42.034Z</time></trkpt><trkpt lat="44.7996333" lon="8.9588867"><ele>407.20000000000005</ele><time>2026-04-08T14:03:43.035Z</time></trkpt><trkpt lat="44.7995783" lon="8.9590167"><ele>407.4</ele><time>2026-04-08T14:03:44.034Z</time></trkpt><trkpt lat="44.7995317" lon="8.9591283"><ele>407.6</ele><time>2026-04-08T14:03:45.034Z</time></trkpt><trkpt lat="44.799475" lon="8.9592267"><ele>407.79999999999995</ele><time>2026-04-08T14:03:46.035Z</time></trkpt><trkpt lat="44.7994083" lon="8.9593167"><ele>408.0</ele><time>2026-04-08T14:03:47.034Z</time></trkpt><trkpt lat="44.7993333" lon="8.9594033"><ele>411.75</ele><time>2026-04-08T14:03:48.035Z</time></trkpt><trkpt lat="44.7992433" lon="8.9594783"><ele>415.5</ele><time>2026-04-08T14:03:49.035Z</time></trkpt><trkpt lat="44.7991383" lon="8.9595533"><ele>419.25</ele><time>2026-04-08T14:03:50.034Z</time></trkpt><trkpt lat="44.7990317" lon="8.9596367"><ele>423.0</ele><time>2026-04-08T14:03:51.034Z</time></trkpt><trkpt lat="44.7989333" lon="8.9597283"><ele>423.0</ele><time>2026-04-08T14:03:52.035Z</time></trkpt><trkpt lat="44.79884" lon="8.9598217"><ele>423.0</ele><time>2026-04-08T14:03:53.035Z</time></trkpt><trkpt lat="44.79874" lon="8.9599183"><ele>423.0</ele><time>2026-04-08T14:03:54.034Z</time></trkpt><trkpt lat="44.798635" lon="8.96"><ele>423.0</ele><time>2026-04-08T14:03:55.034Z</time></trkpt><trkpt lat="44.7985217" lon="8.960075"><ele>420.4</ele><time>2026-04-08T14:03:56.035Z</time></trkpt><trkpt lat="44.7984167" lon="8.960145"><ele>417.79999999999995</ele><time>2026-04-08T14:03:57.034Z</time></trkpt><trkpt lat="44.7983217" lon="8.9602033"><ele>415.2</ele><time>2026-04-08T14:03:58.035Z</time></trkpt><trkpt lat="44.7982283" lon="8.9602517"><ele>412.6</ele><time>2026-04-08T14:03:59.034Z</time></trkpt><trkpt lat="44.7981433" lon="8.9602817"><ele>410.0</ele><time>2026-04-08T14:04:00.034Z</time></trkpt><trkpt lat="44.7980567" lon="8.9602983"><ele>410.0</ele><time>2026-04-08T14:04:01.034Z</time></trkpt><trkpt lat="44.7979633" lon="8.9602933"><ele>410.0</ele><time>2026-04-08T14:04:02.034Z</time></trkpt><trkpt lat="44.79786" lon="8.96026"><ele>410.0</ele><time>2026-04-08T14:04:03.034Z</time></trkpt><trkpt lat="44.797745" lon="8.9601983"><ele>410.0</ele><time>2026-04-08T14:04:04.035Z</time></trkpt><trkpt lat="44.7976283" lon="8.96012"><ele>411.2</ele><time>2026-04-08T14:04:05.034Z</time></trkpt><trkpt lat="44.79753" lon="8.9600483"><ele>412.4</ele><time>2026-04-08T14:04:06.034Z</time></trkpt><trkpt lat="44.7974417" lon="8.95999"><ele>413.6</ele><time>2026-04-08T14:04:07.035Z</time></trkpt><trkpt lat="44.7973433" lon="8.9599417"><ele>414.8</ele><time>2026-04-08T14:04:08.034Z</time></trkpt><trkpt lat="44.797235" lon="8.9599083"><ele>416.0</ele><time>2026-04-08T14:04:09.034Z</time></trkpt><trkpt lat="44.7971083" lon="8.9598783"><ele>420.5</ele><time>2026-04-08T14:04:10.035Z</time></trkpt><trkpt lat="44.7969817" lon="8.959835"><ele>425.0</ele><time>2026-04-08T14:04:11.034Z</time></trkpt><trkpt lat="44.79686" lon="8.9597817"><ele>429.5</ele><time>2026-04-08T14:04:12.034Z</time></trkpt><trkpt lat="44.7967367" lon="8.95971"><ele>434.0</ele><time>2026-04-08T14:04:13.035Z</time></trkpt><trkpt lat="44.7966133" lon="8.9596317"><ele>434.5</ele><time>2026-04-08T14:04:14.034Z</time></trkpt><trkpt lat="44.7965033" lon="8.9595683"><ele>435.0</ele><time>2026-04-08T14:04:15.034Z</time></trkpt><trkpt lat="44.7963933" lon="8.959515"><ele>435.5</ele><time>2026-04-08T14:04:16.034Z</time></trkpt><trkpt lat="44.7962733" lon="8.95948"><ele>436.0</ele><time>2026-04-08T14:04:17.035Z</time></trkpt><trkpt lat="44.796135" lon="8.959455"><ele>436.0</ele><time>2026-04-08T14:04:18.034Z</time></trkpt><trkpt lat="44.796005" lon="8.9594367"><ele>436.0</ele><time>2026-04-08T14:04:19.034Z</time></trkpt><trkpt lat="44.795885" lon="8.9594133"><ele>436.0</ele><time>2026-04-08T14:04:20.034Z</time></trkpt><trkpt lat="44.7957733" lon="8.9593767"><ele>436.0</ele><time>2026-04-08T14:04:21.035Z</time></trkpt><trkpt lat="44.795675" lon="8.9593533"><ele>438.20000000000005</ele><time>2026-04-08T14:04:22.034Z</time></trkpt><trkpt lat="44.795585" lon="8.9593467"><ele>440.40000000000003</ele><time>2026-04-08T14:04:23.035Z</time></trkpt><trkpt lat="44.7955033" lon="8.9593633"><ele>442.6</ele><time>2026-04-08T14:04:24.035Z</time></trkpt><trkpt lat="44.7954033" lon="8.9594117"><ele>444.8</ele><time>2026-04-08T14:04:25.034Z</time></trkpt><trkpt lat="44.7952817" lon="8.9594833"><ele>447.0</ele><time>2026-04-08T14:04:26.035Z</time></trkpt><trkpt lat="44.7951617" lon="8.9595433"><ele>449.0</ele><time>2026-04-08T14:04:27.033Z</time></trkpt><trkpt lat="44.7950567" lon="8.9595833"><ele>451.00000000000006</ele><time>2026-04-08T14:04:28.034Z</time></trkpt><trkpt lat="44.79495" lon="8.9596133"><ele>453.00000000000006</ele><time>2026-04-08T14:04:29.034Z</time></trkpt><trkpt lat="44.794845" lon="8.9596183"><ele>455.0</ele><time>2026-04-08T14:04:30.033Z</time></trkpt><trkpt lat="44.7947283" lon="8.9595967"><ele>457.0</ele><time>2026-04-08T14:04:31.034Z</time></trkpt><trkpt lat="44.7946083" lon="8.9595567"><ele>457.0</ele><time>2026-04-08T14:04:32.033Z</time></trkpt><trkpt lat="44.79448" lon="8.959495"><ele>457.0</ele><time>2026-04-08T14:04:33.034Z</time></trkpt><trkpt lat="44.7943517" lon="8.9594233"><ele>457.0</ele><time>2026-04-08T14:04:34.033Z</time></trkpt><trkpt lat="44.79424" lon="8.95936"><ele>457.0</ele><time>2026-04-08T14:04:35.034Z</time></trkpt><trkpt lat="44.7941267" lon="8.9593083"><ele>456.75</ele><time>2026-04-08T14:04:36.033Z</time></trkpt><trkpt lat="44.7940267" lon="8.9592467"><ele>456.5</ele><time>2026-04-08T14:04:37.034Z</time></trkpt><trkpt lat="44.79393" lon="8.9591683"><ele>456.25</ele><time>2026-04-08T14:04:38.033Z</time></trkpt><trkpt lat="44.7938183" lon="8.959065"><ele>456.0</ele><time>2026-04-08T14:04:39.033Z</time></trkpt><trkpt lat="44.7937067" lon="8.9589583"><ele>456.0</ele><time>2026-04-08T14:04:40.033Z</time></trkpt><trkpt lat="44.793585" lon="8.9588517"><ele>456.0</ele><time>2026-04-08T14:04:41.033Z</time></trkpt><trkpt lat="44.7934767" lon="8.958755"><ele>456.0</ele><time>2026-04-08T14:04:42.034Z</time></trkpt><trkpt lat="44.79337" lon="8.9586683"><ele>456.0</ele><time>2026-04-08T14:04:43.033Z</time></trkpt><trkpt lat="44.793275" lon="8.9585933"><ele>457.8</ele><time>2026-04-08T14:04:44.033Z</time></trkpt><trkpt lat="44.7931667" lon="8.9585167"><ele>459.6</ele><time>2026-04-08T14:04:45.034Z</time></trkpt><trkpt lat="44.7930583" lon="8.9584567"><ele>461.4</ele><time>2026-04-08T14:04:46.033Z</time></trkpt><trkpt lat="44.7929617" lon="8.9584217"><ele>463.2</ele><time>2026-04-08T14:04:47.033Z</time></trkpt><trkpt lat="44.79286" lon="8.9583967"><ele>465.0</ele><time>2026-04-08T14:04:48.034Z</time></trkpt><trkpt lat="44.79274" lon="8.9583817"><ele>463.6</ele><time>2026-04-08T14:04:49.034Z</time></trkpt><trkpt lat="44.7926233" lon="8.9583833"><ele>462.2</ele><time>2026-04-08T14:04:50.033Z</time></trkpt><trkpt lat="44.79251" lon="8.9583883"><ele>460.79999999999995</ele><time>2026-04-08T14:04:51.034Z</time></trkpt><trkpt lat="44.792405" lon="8.9584033"><ele>459.4</ele><time>2026-04-08T14:04:52.033Z</time></trkpt><trkpt lat="44.7923" lon="8.9584267"><ele>458.0</ele><time>2026-04-08T14:04:53.033Z</time></trkpt><trkpt lat="44.7921933" lon="8.95845"><ele>458.0</ele><time>2026-04-08T14:04:54.033Z</time></trkpt><trkpt lat="44.7920867" lon="8.9584717"><ele>458.0</ele><time>2026-04-08T14:04:55.033Z</time></trkpt><trkpt lat="44.7919717" lon="8.9584783"><ele>458.0</ele><time>2026-04-08T14:04:56.034Z</time></trkpt><trkpt lat="44.7918517" lon="8.958475"><ele>458.0</ele><time>2026-04-08T14:04:57.034Z</time></trkpt><trkpt lat="44.7917367" lon="8.958475"><ele>460.75</ele><time>2026-04-08T14:04:58.033Z</time></trkpt><trkpt lat="44.7916133" lon="8.9584733"><ele>463.5</ele><time>2026-04-08T14:04:59.033Z</time></trkpt><trkpt lat="44.7914833" lon="8.95847"><ele>466.25</ele><time>2026-04-08T14:05:00.033Z</time></trkpt><trkpt lat="44.7913483" lon="8.9584733"><ele>469.0</ele><time>2026-04-08T14:05:01.033Z</time></trkpt><trkpt lat="44.7912333" lon="8.9584767"><ele>469.0</ele><time>2026-04-08T14:05:02.033Z</time></trkpt><trkpt lat="44.7911267" lon="8.95847"><ele>469.0</ele><time>2026-04-08T14:05:03.034Z</time></trkpt><trkpt lat="44.791025" lon="8.9584617"><ele>469.0</ele><time>2026-04-08T14:05:04.033Z</time></trkpt><trkpt lat="44.7909283" lon="8.9584433"><ele>469.0</ele><time>2026-04-08T14:05:05.034Z</time></trkpt><trkpt lat="44.79084" lon="8.95842"><ele>469.0</ele><time>2026-04-08T14:05:06.033Z</time></trkpt><trkpt lat="44.79075" lon="8.958385"><ele>472.2</ele><time>2026-04-08T14:05:07.033Z</time></trkpt><trkpt lat="44.790665" lon="8.9583333"><ele>475.4</ele><time>2026-04-08T14:05:08.034Z</time></trkpt><trkpt lat="44.7905833" lon="8.9582817"><ele>478.6</ele><time>2026-04-08T14:05:09.033Z</time></trkpt><trkpt lat="44.7905033" lon="8.9582233"><ele>481.8</ele><time>2026-04-08T14:05:10.033Z</time></trkpt><trkpt lat="44.7904317" lon="8.9581733"><ele>485.0</ele><time>2026-04-08T14:05:11.033Z</time></trkpt><trkpt lat="44.79033" lon="8.9581267"><ele>485.0</ele><time>2026-04-08T14:05:13.033Z</time></trkpt><trkpt lat="44.79024" lon="8.958155"><ele>485.0</ele><time>2026-04-08T14:05:15.034Z</time></trkpt><trkpt lat="44.79018" lon="8.9582733"><ele>485.0</ele><time>2026-04-08T14:05:17.033Z</time></trkpt><trkpt lat="44.7901567" lon="8.9583767"><ele>485.0</ele><time>2026-04-08T14:05:18.033Z</time></trkpt><trkpt lat="44.790145" lon="8.9585083"><ele>485.0</ele><time>2026-04-08T14:05:19.034Z</time></trkpt><trkpt lat="44.7901367" lon="8.95865"><ele>486.7142857142858</ele><time>2026-04-08T14:05:20.033Z</time></trkpt><trkpt lat="44.7901317" lon="8.9587817"><ele>488.42857142857144</ele><time>2026-04-08T14:05:21.034Z</time></trkpt><trkpt lat="44.7901167" lon="8.9588767"><ele>490.14285714285717</ele><time>2026-04-08T14:05:22.033Z</time></trkpt><trkpt lat="44.79008" lon="8.958955"><ele>491.8571428571429</ele><time>2026-04-08T14:05:23.033Z</time></trkpt><trkpt lat="44.7900383" lon="8.959025"><ele>493.57142857142856</ele><time>2026-04-08T14:05:24.033Z</time></trkpt><trkpt lat="44.7899917" lon="8.9590867"><ele>495.2857142857143</ele><time>2026-04-08T14:05:25.033Z</time></trkpt><trkpt lat="44.789965" lon="8.9591867"><ele>497.0</ele><time>2026-04-08T14:05:27.033Z</time></trkpt><trkpt lat="44.7900083" lon="8.9592683"><ele>498.3333333333333</ele><time>2026-04-08T14:05:29.034Z</time></trkpt><trkpt lat="44.790035" lon="8.9593583"><ele>499.66666666666663</ele><time>2026-04-08T14:05:31.034Z</time></trkpt><trkpt lat="44.79006" lon="8.95944"><ele>501.0</ele><time>2026-04-08T14:05:33.034Z</time></trkpt><trkpt lat="44.7900833" lon="8.9595667"><ele>502.33333333333337</ele><time>2026-04-08T14:05:35.033Z</time></trkpt><trkpt lat="44.7900917" lon="8.9597033"><ele>503.6666666666667</ele><time>2026-04-08T14:05:37.033Z</time></trkpt><trkpt lat="44.7900967" lon="8.9598117"><ele>505.0</ele><time>2026-04-08T14:05:39.034Z</time></trkpt><trkpt lat="44.7901217" lon="8.9599117"><ele>504.83333333333337</ele><time>2026-04-08T14:05:41.033Z</time></trkpt><trkpt lat="44.7901767" lon="8.9600017"><ele>504.6666666666667</ele><time>2026-04-08T14:05:43.033Z</time></trkpt><trkpt lat="44.79023" lon="8.9601117"><ele>504.5</ele><time>2026-04-08T14:05:45.033Z</time></trkpt><trkpt lat="44.79025" lon="8.9602617"><ele>504.33333333333337</ele><time>2026-04-08T14:05:47.034Z</time></trkpt><trkpt lat="44.7902489" lon="8.9603649"><ele>504.1666666666667</ele><time>2026-04-08T14:05:49.033Z</time></trkpt><trkpt lat="44.7902483" lon="8.9604619"><ele>504.0</ele><time>2026-04-08T14:05:51.033Z</time></trkpt><trkpt lat="44.7902429" lon="8.9606492"><ele>506.8333333333333</ele><time>2026-04-08T14:05:53.034Z</time></trkpt><trkpt lat="44.7902443" lon="8.9607528"><ele>509.66666666666663</ele><time>2026-04-08T14:05:54.033Z</time></trkpt><trkpt lat="44.7902492" lon="8.9608531"><ele>512.5</ele><time>2026-04-08T14:05:55.034Z</time></trkpt><trkpt lat="44.7902537" lon="8.9609606"><ele>515.3333333333333</ele><time>2026-04-08T14:05:56.033Z</time></trkpt><trkpt lat="44.7902539" lon="8.9610733"><ele>518.1666666666666</ele><time>2026-04-08T14:05:57.033Z</time></trkpt><trkpt lat="44.7902569" lon="8.9611905"><ele>521.0</ele><time>2026-04-08T14:05:58.033Z</time></trkpt><trkpt lat="44.7902541" lon="8.9613047"><ele>522.5</ele><time>2026-04-08T14:05:59.033Z</time></trkpt><trkpt lat="44.7902458" lon="8.9614161"><ele>524.0</ele><time>2026-04-08T14:06:00.034Z</time></trkpt><trkpt lat="44.7902301" lon="8.9615267"><ele>525.5</ele><time>2026-04-08T14:06:01.033Z</time></trkpt><trkpt lat="44.79021" lon="8.9616266"><ele>527.0</ele><time>2026-04-08T14:06:02.033Z</time></trkpt><trkpt lat="44.790194" lon="8.9617258"><ele>528.5</ele><time>2026-04-08T14:06:03.033Z</time></trkpt><trkpt lat="44.7901782" lon="8.9618155"><ele>530.0</ele><time>2026-04-08T14:06:04.034Z</time></trkpt><trkpt lat="44.7901806" lon="8.9619828"><ele>530.2857142857142</ele><time>2026-04-08T14:06:06.033Z</time></trkpt><trkpt lat="44.790194" lon="8.9620801"><ele>530.5714285714286</ele><time>2026-04-08T14:06:07.033Z</time></trkpt><trkpt lat="44.7902101" lon="8.9621816"><ele>530.8571428571429</ele><time>2026-04-08T14:06:08.033Z</time></trkpt><trkpt lat="44.7902218" lon="8.9622809"><ele>531.1428571428571</ele><time>2026-04-08T14:06:09.034Z</time></trkpt><trkpt lat="44.790235" lon="8.9623867"><ele>531.4285714285714</ele><time>2026-04-08T14:06:10.033Z</time></trkpt><trkpt lat="44.790235" lon="8.96249"><ele>531.7142857142857</ele><time>2026-04-08T14:06:11.034Z</time></trkpt><trkpt lat="44.790225" lon="8.9625983"><ele>532.0</ele><time>2026-04-08T14:06:12.033Z</time></trkpt><trkpt lat="44.7902083" lon="8.962685"><ele>537.0</ele><time>2026-04-08T14:06:13.033Z</time></trkpt><trkpt lat="44.7901517" lon="8.9628333"><ele>542.0</ele><time>2026-04-08T14:06:15.034Z</time></trkpt><trkpt lat="44.7900683" lon="8.9629683"><ele>547.0</ele><time>2026-04-08T14:06:17.034Z</time></trkpt><trkpt lat="44.7900033" lon="8.9630483"><ele>552.0</ele><time>2026-04-08T14:06:18.033Z</time></trkpt><trkpt lat="44.7899233" lon="8.9631283"><ele>557.0</ele><time>2026-04-08T14:06:19.034Z</time></trkpt><trkpt lat="44.7898483" lon="8.9631867"><ele>557.0</ele><time>2026-04-08T14:06:20.033Z</time></trkpt><trkpt lat="44.789785" lon="8.9632283"><ele>557.0</ele><time>2026-04-08T14:06:21.033Z</time></trkpt><trkpt lat="44.789725" lon="8.9632583"><ele>557.0</ele><time>2026-04-08T14:06:22.034Z</time></trkpt><trkpt lat="44.789615" lon="8.963345"><ele>557.0</ele><time>2026-04-08T14:06:24.033Z</time></trkpt><trkpt lat="44.78956" lon="8.9634067"><ele>557.0</ele><time>2026-04-08T14:06:25.034Z</time></trkpt><trkpt lat="44.789505" lon="8.9634833"><ele>557.0</ele><time>2026-04-08T14:06:26.034Z</time></trkpt><trkpt lat="44.7894417" lon="8.9635683"><ele>558.8333333333333</ele><time>2026-04-08T14:06:27.033Z</time></trkpt><trkpt lat="44.789365" lon="8.9636617"><ele>560.6666666666666</ele><time>2026-04-08T14:06:28.033Z</time></trkpt><trkpt lat="44.7892967" lon="8.9637383"><ele>562.5</ele><time>2026-04-08T14:06:29.033Z</time></trkpt><trkpt lat="44.7892317" lon="8.9638067"><ele>564.3333333333334</ele><time>2026-04-08T14:06:30.034Z</time></trkpt><trkpt lat="44.7891667" lon="8.9638567"><ele>566.1666666666667</ele><time>2026-04-08T14:06:31.034Z</time></trkpt><trkpt lat="44.7890967" lon="8.963895"><ele>568.0</ele><time>2026-04-08T14:06:32.034Z</time></trkpt><trkpt lat="44.78903" lon="8.9639333"><ele>568.1666666666667</ele><time>2026-04-08T14:06:33.033Z</time></trkpt><trkpt lat="44.7889633" lon="8.9640017"><ele>568.3333333333334</ele><time>2026-04-08T14:06:34.033Z</time></trkpt><trkpt lat="44.7888933" lon="8.964075"><ele>568.5</ele><time>2026-04-08T14:06:35.034Z</time></trkpt><trkpt lat="44.7888217" lon="8.9641483"><ele>568.6666666666666</ele><time>2026-04-08T14:06:36.034Z</time></trkpt><trkpt lat="44.78875" lon="8.9642217"><ele>568.8333333333333</ele><time>2026-04-08T14:06:37.034Z</time></trkpt><trkpt lat="44.7886767" lon="8.964275"><ele>569.0</ele><time>2026-04-08T14:06:38.033Z</time></trkpt><trkpt lat="44.7886033" lon="8.964305"><ele>570.2857142857143</ele><time>2026-04-08T14:06:39.033Z</time></trkpt><trkpt lat="44.7885317" lon="8.9643183"><ele>571.5714285714286</ele><time>2026-04-08T14:06:40.034Z</time></trkpt><trkpt lat="44.78847" lon="8.9643433"><ele>572.8571428571429</ele><time>2026-04-08T14:06:41.033Z</time></trkpt><trkpt lat="44.7884117" lon="8.9643917"><ele>574.1428571428571</ele><time>2026-04-08T14:06:42.034Z</time></trkpt><trkpt lat="44.788355" lon="8.9644467"><ele>575.4285714285714</ele><time>2026-04-08T14:06:43.034Z</time></trkpt><trkpt lat="44.788295" lon="8.9645067"><ele>576.7142857142858</ele><time>2026-04-08T14:06:44.034Z</time></trkpt><trkpt lat="44.7882267" lon="8.9645633"><ele>578.0</ele><time>2026-04-08T14:06:45.034Z</time></trkpt><trkpt lat="44.7881583" lon="8.9646067"><ele>580.0</ele><time>2026-04-08T14:06:46.034Z</time></trkpt><trkpt lat="44.7880817" lon="8.9646367"><ele>582.0</ele><time>2026-04-08T14:06:47.033Z</time></trkpt><trkpt lat="44.787995" lon="8.96464"><ele>584.0</ele><time>2026-04-08T14:06:48.033Z</time></trkpt><trkpt lat="44.7878933" lon="8.9646267"><ele>586.0</ele><time>2026-04-08T14:06:49.034Z</time></trkpt><trkpt lat="44.78778" lon="8.964605"><ele>588.0</ele><time>2026-04-08T14:06:50.033Z</time></trkpt><trkpt lat="44.78768" lon="8.964575"><ele>586.6666666666666</ele><time>2026-04-08T14:06:51.033Z</time></trkpt><trkpt lat="44.78758" lon="8.9645383"><ele>585.3333333333334</ele><time>2026-04-08T14:06:52.034Z</time></trkpt><trkpt lat="44.7874833" lon="8.9645017"><ele>584.0</ele><time>2026-04-08T14:06:53.033Z</time></trkpt><trkpt lat="44.7874083" lon="8.9644883"><ele>582.6666666666667</ele><time>2026-04-08T14:06:54.034Z</time></trkpt><trkpt lat="44.787345" lon="8.9644983"><ele>581.3333333333334</ele><time>2026-04-08T14:06:55.033Z</time></trkpt><trkpt lat="44.7872667" lon="8.964575"><ele>580.0</ele><time>2026-04-08T14:06:57.034Z</time></trkpt><trkpt lat="44.7872617" lon="8.9646917"><ele>580.0</ele><time>2026-04-08T14:06:59.033Z</time></trkpt><trkpt lat="44.7873117" lon="8.964825"><ele>580.0</ele><time>2026-04-08T14:07:01.033Z</time></trkpt><trkpt lat="44.7873783" lon="8.964955"><ele>580.0</ele><time>2026-04-08T14:07:03.033Z</time></trkpt><trkpt lat="44.7874417" lon="8.9650933"><ele>580.0</ele><time>2026-04-08T14:07:05.034Z</time></trkpt><trkpt lat="44.7874667" lon="8.965235"><ele>580.0</ele><time>2026-04-08T14:07:07.033Z</time></trkpt><trkpt lat="44.78743" lon="8.9653483"><ele>581.6666666666667</ele><time>2026-04-08T14:07:09.033Z</time></trkpt><trkpt lat="44.7873267" lon="8.9654267"><ele>583.3333333333334</ele><time>2026-04-08T14:07:11.033Z</time></trkpt><trkpt lat="44.7872633" lon="8.965445"><ele>585.0</ele><time>2026-04-08T14:07:12.033Z</time></trkpt><trkpt lat="44.787195" lon="8.9654333"><ele>586.6666666666666</ele><time>2026-04-08T14:07:13.034Z</time></trkpt><trkpt lat="44.787125" lon="8.9653983"><ele>588.3333333333333</ele><time>2026-04-08T14:07:14.034Z</time></trkpt><trkpt lat="44.787055" lon="8.9653467"><ele>590.0</ele><time>2026-04-08T14:07:15.033Z</time></trkpt><trkpt lat="44.7869833" lon="8.9652933"><ele>590.0</ele><time>2026-04-08T14:07:16.033Z</time></trkpt><trkpt lat="44.786915" lon="8.965245"><ele>590.0</ele><time>2026-04-08T14:07:17.033Z</time></trkpt><trkpt lat="44.7868413" lon="8.96521"><ele>590.0</ele><time>2026-04-08T14:07:18.033Z</time></trkpt><trkpt lat="44.786764" lon="8.9651845"><ele>590.0</ele><time>2026-04-08T14:07:19.034Z</time></trkpt><trkpt lat="44.7866856" lon="8.9651749"><ele>590.0</ele><time>2026-04-08T14:07:20.033Z</time></trkpt><trkpt lat="44.7866065" lon="8.9651819"><ele>590.0</ele><time>2026-04-08T14:07:21.033Z</time></trkpt><trkpt lat="44.7865249" lon="8.9652082"><ele>590.0</ele><time>2026-04-08T14:07:22.033Z</time></trkpt><trkpt lat="44.7864407" lon="8.9652562"><ele>590.0</ele><time>2026-04-08T14:07:23.034Z</time></trkpt><trkpt lat="44.786345" lon="8.9653191"><ele>590.0</ele><time>2026-04-08T14:07:24.034Z</time></trkpt><trkpt lat="44.7862486" lon="8.9653772"><ele>590.0</ele><time>2026-04-08T14:07:25.033Z</time></trkpt><trkpt lat="44.7861587" lon="8.9654317"><ele>590.0</ele><time>2026-04-08T14:07:26.034Z</time></trkpt><trkpt lat="44.7860695" lon="8.9655085"><ele>586.8</ele><time>2026-04-08T14:07:27.033Z</time></trkpt><trkpt lat="44.7859775" lon="8.9656007"><ele>583.6</ele><time>2026-04-08T14:07:28.033Z</time></trkpt><trkpt lat="44.785889" lon="8.9656936"><ele>580.4</ele><time>2026-04-08T14:07:29.033Z</time></trkpt><trkpt lat="44.7858095" lon="8.9657677"><ele>577.2</ele><time>2026-04-08T14:07:30.034Z</time></trkpt><trkpt lat="44.7857383" lon="8.9658119"><ele>574.0</ele><time>2026-04-08T14:07:31.033Z</time></trkpt><trkpt lat="44.7856624" lon="8.965837"><ele>574.0</ele><time>2026-04-08T14:07:32.034Z</time></trkpt><trkpt lat="44.7855691" lon="8.9658432"><ele>574.0</ele><time>2026-04-08T14:07:33.033Z</time></trkpt><trkpt lat="44.7854637" lon="8.9658454"><ele>574.0</ele><time>2026-04-08T14:07:34.033Z</time></trkpt><trkpt lat="44.7853472" lon="8.9658392"><ele>574.0</ele><time>2026-04-08T14:07:35.033Z</time></trkpt><trkpt lat="44.7852321" lon="8.965827"><ele>574.0</ele><time>2026-04-08T14:07:36.034Z</time></trkpt><trkpt lat="44.7851292" lon="8.9658153"><ele>574.8333333333334</ele><time>2026-04-08T14:07:37.034Z</time></trkpt><trkpt lat="44.785047" lon="8.9658116"><ele>575.6666666666667</ele><time>2026-04-08T14:07:38.033Z</time></trkpt><trkpt lat="44.784978" lon="8.9658146"><ele>576.5</ele><time>2026-04-08T14:07:39.034Z</time></trkpt><trkpt lat="44.7849154" lon="8.9658322"><ele>577.3333333333334</ele><time>2026-04-08T14:07:40.033Z</time></trkpt><trkpt lat="44.7848143" lon="8.9659291"><ele>578.1666666666666</ele><time>2026-04-08T14:07:42.033Z</time></trkpt><trkpt lat="44.7847784" lon="8.9660167"><ele>579.0</ele><time>2026-04-08T14:07:43.033Z</time></trkpt><trkpt lat="44.7847484" lon="8.9661344"><ele>579.0</ele><time>2026-04-08T14:07:44.034Z</time></trkpt><trkpt lat="44.7847176" lon="8.9662706"><ele>579.0</ele><time>2026-04-08T14:07:45.033Z</time></trkpt><trkpt lat="44.7846823" lon="8.9664064"><ele>579.0</ele><time>2026-04-08T14:07:46.033Z</time></trkpt><trkpt lat="44.7846505" lon="8.9665309"><ele>579.0</ele><time>2026-04-08T14:07:47.034Z</time></trkpt><trkpt lat="44.7846259" lon="8.9666561"><ele>579.0</ele><time>2026-04-08T14:07:48.033Z</time></trkpt><trkpt lat="44.7846186" lon="8.9668141"><ele>579.25</ele><time>2026-04-08T14:07:49.033Z</time></trkpt><trkpt lat="44.78463" lon="8.9669983"><ele>579.5</ele><time>2026-04-08T14:07:50.033Z</time></trkpt><trkpt lat="44.78463" lon="8.967165"><ele>579.75</ele><time>2026-04-08T14:07:51.033Z</time></trkpt><trkpt lat="44.78462" lon="8.9673183"><ele>580.0</ele><time>2026-04-08T14:07:52.034Z</time></trkpt><trkpt lat="44.7846083" lon="8.9674717"><ele>580.8</ele><time>2026-04-08T14:07:53.033Z</time></trkpt><trkpt lat="44.7845933" lon="8.967615"><ele>581.6</ele><time>2026-04-08T14:07:54.033Z</time></trkpt><trkpt lat="44.7845667" lon="8.9677517"><ele>582.4</ele><time>2026-04-08T14:07:55.033Z</time></trkpt><trkpt lat="44.7845217" lon="8.967875"><ele>583.2</ele><time>2026-04-08T14:07:56.034Z</time></trkpt><trkpt lat="44.7844617" lon="8.9679967"><ele>584.0</ele><time>2026-04-08T14:07:57.033Z</time></trkpt><trkpt lat="44.7844033" lon="8.9681233"><ele>580.4</ele><time>2026-04-08T14:07:58.033Z</time></trkpt><trkpt lat="44.784345" lon="8.9682333"><ele>576.8</ele><time>2026-04-08T14:07:59.033Z</time></trkpt><trkpt lat="44.784285" lon="8.9683017"><ele>573.2</ele><time>2026-04-08T14:08:00.033Z</time></trkpt><trkpt lat="44.7842217" lon="8.9683333"><ele>569.6</ele><time>2026-04-08T14:08:01.032Z</time></trkpt><trkpt lat="44.78413" lon="8.96841"><ele>566.0</ele><time>2026-04-08T14:08:02.033Z</time></trkpt><trkpt lat="44.784025" lon="8.9684733"><ele>566.0</ele><time>2026-04-08T14:08:03.033Z</time></trkpt><trkpt lat="44.7839183" lon="8.9685383"><ele>566.0</ele><time>2026-04-08T14:08:04.032Z</time></trkpt><trkpt lat="44.7837983" lon="8.968605"><ele>566.0</ele><time>2026-04-08T14:08:05.032Z</time></trkpt><trkpt lat="44.783675" lon="8.9686633"><ele>566.0</ele><time>2026-04-08T14:08:06.032Z</time></trkpt><trkpt lat="44.78355" lon="8.9687133"><ele>565.2</ele><time>2026-04-08T14:08:07.032Z</time></trkpt><trkpt lat="44.78342" lon="8.9687483"><ele>564.4000000000001</ele><time>2026-04-08T14:08:08.033Z</time></trkpt><trkpt lat="44.7832983" lon="8.9687667"><ele>563.6</ele><time>2026-04-08T14:08:09.032Z</time></trkpt><trkpt lat="44.7831933" lon="8.968775"><ele>562.8000000000001</ele><time>2026-04-08T14:08:10.033Z</time></trkpt><trkpt lat="44.7831067" lon="8.9687883"><ele>562.0</ele><time>2026-04-08T14:08:11.033Z</time></trkpt><trkpt lat="44.7830317" lon="8.9688167"><ele>562.0</ele><time>2026-04-08T14:08:12.032Z</time></trkpt><trkpt lat="44.7829683" lon="8.9688667"><ele>562.0</ele><time>2026-04-08T14:08:13.033Z</time></trkpt><trkpt lat="44.7829033" lon="8.968945"><ele>562.0</ele><time>2026-04-08T14:08:14.032Z</time></trkpt><trkpt lat="44.7828283" lon="8.969055"><ele>562.0</ele><time>2026-04-08T14:08:15.033Z</time></trkpt><trkpt lat="44.782745" lon="8.9691967"><ele>562.0</ele><time>2026-04-08T14:08:16.032Z</time></trkpt><trkpt lat="44.78267" lon="8.969345"><ele>562.4</ele><time>2026-04-08T14:08:17.032Z</time></trkpt><trkpt lat="44.7826167" lon="8.969485"><ele>562.8000000000001</ele><time>2026-04-08T14:08:18.032Z</time></trkpt><trkpt lat="44.7825567" lon="8.9696117"><ele>563.2</ele><time>2026-04-08T14:08:19.033Z</time></trkpt><trkpt lat="44.7825017" lon="8.9697217"><ele>563.6</ele><time>2026-04-08T14:08:20.032Z</time></trkpt><trkpt lat="44.7824683" lon="8.9698167"><ele>564.0</ele><time>2026-04-08T14:08:21.032Z</time></trkpt><trkpt lat="44.782445" lon="8.9699883"><ele>563.8571428571429</ele><time>2026-04-08T14:08:23.033Z</time></trkpt><trkpt lat="44.7824383" lon="8.9701517"><ele>563.7142857142857</ele><time>2026-04-08T14:08:25.032Z</time></trkpt><trkpt lat="44.7824367" lon="8.9702417"><ele>563.5714285714286</ele><time>2026-04-08T14:08:26.032Z</time></trkpt><trkpt lat="44.7824283" lon="8.97033"><ele>563.4285714285714</ele><time>2026-04-08T14:08:27.033Z</time></trkpt><trkpt lat="44.7824183" lon="8.9704217"><ele>563.2857142857143</ele><time>2026-04-08T14:08:28.032Z</time></trkpt><trkpt lat="44.7824017" lon="8.97051"><ele>563.1428571428571</ele><time>2026-04-08T14:08:29.033Z</time></trkpt><trkpt lat="44.7823933" lon="8.9706083"><ele>563.0</ele><time>2026-04-08T14:08:30.032Z</time></trkpt><trkpt lat="44.78239" lon="8.9707067"><ele>563.0</ele><time>2026-04-08T14:08:31.032Z</time></trkpt><trkpt lat="44.7823833" lon="8.9708217"><ele>563.0</ele><time>2026-04-08T14:08:32.032Z</time></trkpt><trkpt lat="44.78237" lon="8.9709433"><ele>563.0</ele><time>2026-04-08T14:08:33.032Z</time></trkpt><trkpt lat="44.7823533" lon="8.9710483"><ele>563.0</ele><time>2026-04-08T14:08:34.032Z</time></trkpt><trkpt lat="44.7823333" lon="8.971145"><ele>563.0</ele><time>2026-04-08T14:08:35.032Z</time></trkpt><trkpt lat="44.7822883" lon="8.971265"><ele>563.0</ele><time>2026-04-08T14:08:37.032Z</time></trkpt><trkpt lat="44.7822017" lon="8.97129"><ele>562.6666666666666</ele><time>2026-04-08T14:08:39.033Z</time></trkpt><trkpt lat="44.7821183" lon="8.9711767"><ele>562.3333333333333</ele><time>2026-04-08T14:08:41.033Z</time></trkpt><trkpt lat="44.7820833" lon="8.9710933"><ele>562.0</ele><time>2026-04-08T14:08:42.032Z</time></trkpt><trkpt lat="44.78204" lon="8.9710167"><ele>561.6666666666666</ele><time>2026-04-08T14:08:43.033Z</time></trkpt><trkpt lat="44.7819917" lon="8.970955"><ele>561.3333333333334</ele><time>2026-04-08T14:08:44.033Z</time></trkpt><trkpt lat="44.7818817" lon="8.9709"><ele>561.0</ele><time>2026-04-08T14:08:46.033Z</time></trkpt><trkpt lat="44.78179" lon="8.9709833"><ele>561.0</ele><time>2026-04-08T14:08:48.032Z</time></trkpt><trkpt lat="44.78179" lon="8.9711517"><ele>561.0</ele><time>2026-04-08T14:08:50.032Z</time></trkpt><trkpt lat="44.781825" lon="8.9712483"><ele>561.0</ele><time>2026-04-08T14:08:51.033Z</time></trkpt><trkpt lat="44.7818733" lon="8.9713467"><ele>561.0</ele><time>2026-04-08T14:08:52.032Z</time></trkpt><trkpt lat="44.7819167" lon="8.9714583"><ele>561.0</ele><time>2026-04-08T14:08:53.033Z</time></trkpt><trkpt lat="44.7819533" lon="8.9715833"><ele>560.5</ele><time>2026-04-08T14:08:54.032Z</time></trkpt><trkpt lat="44.78199" lon="8.9717033"><ele>560.0</ele><time>2026-04-08T14:08:55.033Z</time></trkpt><trkpt lat="44.7820117" lon="8.9718117"><ele>559.5</ele><time>2026-04-08T14:08:56.033Z</time></trkpt><trkpt lat="44.782015" lon="8.9719083"><ele>559.0</ele><time>2026-04-08T14:08:57.033Z</time></trkpt><trkpt lat="44.7820033" lon="8.972"><ele>558.5</ele><time>2026-04-08T14:08:58.032Z</time></trkpt><trkpt lat="44.7819267" lon="8.9721183"><ele>558.0</ele><time>2026-04-08T14:09:00.032Z</time></trkpt><trkpt lat="44.7818567" lon="8.9721417"><ele>559.4</ele><time>2026-04-08T14:09:01.033Z</time></trkpt><trkpt lat="44.7817767" lon="8.9721367"><ele>560.8</ele><time>2026-04-08T14:09:02.033Z</time></trkpt><trkpt lat="44.7816867" lon="8.972115"><ele>562.2</ele><time>2026-04-08T14:09:03.032Z</time></trkpt><trkpt lat="44.7815867" lon="8.9720833"><ele>563.6</ele><time>2026-04-08T14:09:04.032Z</time></trkpt><trkpt lat="44.7814883" lon="8.9720433"><ele>565.0</ele><time>2026-04-08T14:09:05.032Z</time></trkpt><trkpt lat="44.7813883" lon="8.9720017"><ele>565.0</ele><time>2026-04-08T14:09:06.032Z</time></trkpt><trkpt lat="44.7812883" lon="8.9719617"><ele>565.0</ele><time>2026-04-08T14:09:07.032Z</time></trkpt><trkpt lat="44.781195" lon="8.971925"><ele>565.0</ele><time>2026-04-08T14:09:08.032Z</time></trkpt><trkpt lat="44.7810967" lon="8.97189"><ele>565.0</ele><time>2026-04-08T14:09:09.033Z</time></trkpt><trkpt lat="44.780995" lon="8.97186"><ele>565.0</ele><time>2026-04-08T14:09:10.032Z</time></trkpt><trkpt lat="44.7808867" lon="8.9718383"><ele>565.8</ele><time>2026-04-08T14:09:11.033Z</time></trkpt><trkpt lat="44.7807767" lon="8.9718233"><ele>566.6</ele><time>2026-04-08T14:09:12.032Z</time></trkpt><trkpt lat="44.7806617" lon="8.9718133"><ele>567.4</ele><time>2026-04-08T14:09:13.032Z</time></trkpt><trkpt lat="44.780555" lon="8.9718133"><ele>568.2</ele><time>2026-04-08T14:09:14.032Z</time></trkpt><trkpt lat="44.7804567" lon="8.9718267"><ele>569.0</ele><time>2026-04-08T14:09:15.033Z</time></trkpt><trkpt lat="44.78037" lon="8.9718317"><ele>569.0</ele><time>2026-04-08T14:09:16.032Z</time></trkpt><trkpt lat="44.7802767" lon="8.9718183"><ele>569.0</ele><time>2026-04-08T14:09:17.032Z</time></trkpt><trkpt lat="44.78018" lon="8.9717933"><ele>569.0</ele><time>2026-04-08T14:09:18.033Z</time></trkpt><trkpt lat="44.7800817" lon="8.971755"><ele>569.0</ele><time>2026-04-08T14:09:19.033Z</time></trkpt><trkpt lat="44.779975" lon="8.9717117"><ele>569.0</ele><time>2026-04-08T14:09:20.032Z</time></trkpt><trkpt lat="44.7798733" lon="8.9716783"><ele>573.4</ele><time>2026-04-08T14:09:21.033Z</time></trkpt><trkpt lat="44.77977" lon="8.971655"><ele>577.8</ele><time>2026-04-08T14:09:22.033Z</time></trkpt><trkpt lat="44.779665" lon="8.9716383"><ele>582.2</ele><time>2026-04-08T14:09:23.032Z</time></trkpt><trkpt lat="44.7795667" lon="8.9716283"><ele>586.6</ele><time>2026-04-08T14:09:24.032Z</time></trkpt><trkpt lat="44.7794683" lon="8.97162"><ele>591.0</ele><time>2026-04-08T14:09:25.032Z</time></trkpt><trkpt lat="44.7793717" lon="8.9716117"><ele>590.6</ele><time>2026-04-08T14:09:26.032Z</time></trkpt><trkpt lat="44.779275" lon="8.971615"><ele>590.2</ele><time>2026-04-08T14:09:27.032Z</time></trkpt><trkpt lat="44.7791817" lon="8.9716433"><ele>589.8</ele><time>2026-04-08T14:09:28.032Z</time></trkpt><trkpt lat="44.779075" lon="8.9716883"><ele>589.4</ele><time>2026-04-08T14:09:29.032Z</time></trkpt><trkpt lat="44.77897" lon="8.97174"><ele>589.0</ele><time>2026-04-08T14:09:30.032Z</time></trkpt><trkpt lat="44.77886" lon="8.9717983"><ele>589.0</ele><time>2026-04-08T14:09:31.032Z</time></trkpt><trkpt lat="44.77875" lon="8.9718633"><ele>589.0</ele><time>2026-04-08T14:09:32.033Z</time></trkpt><trkpt lat="44.7786367" lon="8.9719283"><ele>589.0</ele><time>2026-04-08T14:09:33.032Z</time></trkpt><trkpt lat="44.7785217" lon="8.9719967"><ele>589.0</ele><time>2026-04-08T14:09:34.032Z</time></trkpt><trkpt lat="44.7784067" lon="8.9720567"><ele>589.0</ele><time>2026-04-08T14:09:35.032Z</time></trkpt><trkpt lat="44.778285" lon="8.972115"><ele>589.0</ele><time>2026-04-08T14:09:36.032Z</time></trkpt><trkpt lat="44.7781817" lon="8.9721733"><ele>589.0</ele><time>2026-04-08T14:09:37.032Z</time></trkpt><trkpt lat="44.7780783" lon="8.9722367"><ele>589.0</ele><time>2026-04-08T14:09:38.032Z</time></trkpt><trkpt lat="44.7779733" lon="8.9722967"><ele>589.0</ele><time>2026-04-08T14:09:39.032Z</time></trkpt><trkpt lat="44.7778683" lon="8.9723233"><ele>589.0</ele><time>2026-04-08T14:09:40.033Z</time></trkpt><trkpt lat="44.7777567" lon="8.9723083"><ele>589.0</ele><time>2026-04-08T14:09:41.032Z</time></trkpt><trkpt lat="44.77764" lon="8.972265"><ele>589.0</ele><time>2026-04-08T14:09:42.033Z</time></trkpt><trkpt lat="44.777525" lon="8.9722267"><ele>588.6</ele><time>2026-04-08T14:09:43.032Z</time></trkpt><trkpt lat="44.77742" lon="8.9722033"><ele>588.2</ele><time>2026-04-08T14:09:44.033Z</time></trkpt><trkpt lat="44.7773183" lon="8.972175"><ele>587.8000000000001</ele><time>2026-04-08T14:09:45.033Z</time></trkpt><trkpt lat="44.7772233" lon="8.972135"><ele>587.4</ele><time>2026-04-08T14:09:46.032Z</time></trkpt><trkpt lat="44.7771283" lon="8.97208"><ele>587.0</ele><time>2026-04-08T14:09:47.033Z</time></trkpt><trkpt lat="44.7770367" lon="8.9720067"><ele>587.0</ele><time>2026-04-08T14:09:48.032Z</time></trkpt><trkpt lat="44.776945" lon="8.97193"><ele>587.0</ele><time>2026-04-08T14:09:49.032Z</time></trkpt><trkpt lat="44.7768583" lon="8.9718583"><ele>587.0</ele><time>2026-04-08T14:09:50.033Z</time></trkpt><trkpt lat="44.7767817" lon="8.9717933"><ele>587.0</ele><time>2026-04-08T14:09:51.033Z</time></trkpt><trkpt lat="44.776715" lon="8.9717567"><ele>587.0</ele><time>2026-04-08T14:09:52.032Z</time></trkpt><trkpt lat="44.7766033" lon="8.9717717"><ele>585.5</ele><time>2026-04-08T14:09:54.033Z</time></trkpt><trkpt lat="44.7765283" lon="8.9719"><ele>584.0</ele><time>2026-04-08T14:09:56.032Z</time></trkpt><trkpt lat="44.7765233" lon="8.97201"><ele>582.5</ele><time>2026-04-08T14:09:57.033Z</time></trkpt><trkpt lat="44.7765333" lon="8.9721283"><ele>581.0</ele><time>2026-04-08T14:09:58.032Z</time></trkpt><trkpt lat="44.7765483" lon="8.9722467"><ele>579.5</ele><time>2026-04-08T14:09:59.033Z</time></trkpt><trkpt lat="44.7765483" lon="8.97236"><ele>578.0</ele><time>2026-04-08T14:10:00.033Z</time></trkpt><trkpt lat="44.776535" lon="8.9724717"><ele>574.5</ele><time>2026-04-08T14:10:01.033Z</time></trkpt><trkpt lat="44.7765083" lon="8.9725717"><ele>571.0</ele><time>2026-04-08T14:10:02.032Z</time></trkpt><trkpt lat="44.7764717" lon="8.9726533"><ele>567.5</ele><time>2026-04-08T14:10:03.032Z</time></trkpt><trkpt lat="44.7764133" lon="8.972725"><ele>564.0</ele><time>2026-04-08T14:10:04.033Z</time></trkpt><trkpt lat="44.7763367" lon="8.972775"><ele>560.5</ele><time>2026-04-08T14:10:05.032Z</time></trkpt><trkpt lat="44.7762367" lon="8.972805"><ele>557.0</ele><time>2026-04-08T14:10:06.032Z</time></trkpt><trkpt lat="44.7761183" lon="8.972825"><ele>555.4</ele><time>2026-04-08T14:10:07.032Z</time></trkpt><trkpt lat="44.7759983" lon="8.9728433"><ele>553.8000000000001</ele><time>2026-04-08T14:10:08.032Z</time></trkpt><trkpt lat="44.7758817" lon="8.972865"><ele>552.2</ele><time>2026-04-08T14:10:09.033Z</time></trkpt><trkpt lat="44.77577" lon="8.972885"><ele>550.6</ele><time>2026-04-08T14:10:10.032Z</time></trkpt><trkpt lat="44.7756733" lon="8.9728983"><ele>549.0</ele><time>2026-04-08T14:10:11.033Z</time></trkpt><trkpt lat="44.7755817" lon="8.9729183"><ele>549.0</ele><time>2026-04-08T14:10:12.032Z</time></trkpt><trkpt lat="44.7755117" lon="8.97295"><ele>549.0</ele><time>2026-04-08T14:10:13.033Z</time></trkpt><trkpt lat="44.7754533" lon="8.9729833"><ele>549.0</ele><time>2026-04-08T14:10:14.033Z</time></trkpt><trkpt lat="44.77537" lon="8.9730733"><ele>549.0</ele><time>2026-04-08T14:10:16.032Z</time></trkpt><trkpt lat="44.77532" lon="8.973155"><ele>549.0</ele><time>2026-04-08T14:10:18.032Z</time></trkpt><trkpt lat="44.7752717" lon="8.9732533"><ele>549.0</ele><time>2026-04-08T14:10:26.033Z</time></trkpt><trkpt lat="44.7752233" lon="8.9734"><ele>548.6</ele><time>2026-04-08T14:10:28.032Z</time></trkpt><trkpt lat="44.775175" lon="8.9735517"><ele>548.2</ele><time>2026-04-08T14:10:30.032Z</time></trkpt><trkpt lat="44.7751217" lon="8.9737217"><ele>547.8000000000001</ele><time>2026-04-08T14:10:32.032Z</time></trkpt><trkpt lat="44.7750917" lon="8.97383"><ele>547.4</ele><time>2026-04-08T14:10:33.032Z</time></trkpt><trkpt lat="44.7750517" lon="8.973955"><ele>547.0</ele><time>2026-04-08T14:10:34.032Z</time></trkpt><trkpt lat="44.7750133" lon="8.9740867"><ele>544.4</ele><time>2026-04-08T14:10:35.033Z</time></trkpt><trkpt lat="44.7749733" lon="8.9742217"><ele>541.8000000000001</ele><time>2026-04-08T14:10:36.033Z</time></trkpt><trkpt lat="44.7749317" lon="8.9743467"><ele>539.2</ele><time>2026-04-08T14:10:37.033Z</time></trkpt><trkpt lat="44.7748833" lon="8.9744617"><ele>536.6</ele><time>2026-04-08T14:10:38.033Z</time></trkpt><trkpt lat="44.774835" lon="8.97456"><ele>534.0</ele><time>2026-04-08T14:10:39.032Z</time></trkpt><trkpt lat="44.7747833" lon="8.9746583"><ele>534.0</ele><time>2026-04-08T14:10:40.033Z</time></trkpt><trkpt lat="44.7747317" lon="8.9747517"><ele>534.0</ele><time>2026-04-08T14:10:41.033Z</time></trkpt><trkpt lat="44.7746817" lon="8.9748467"><ele>534.0</ele><time>2026-04-08T14:10:42.032Z</time></trkpt><trkpt lat="44.7746267" lon="8.9749517"><ele>534.0</ele><time>2026-04-08T14:10:43.032Z</time></trkpt><trkpt lat="44.77457" lon="8.97505"><ele>534.0</ele><time>2026-04-08T14:10:44.032Z</time></trkpt><trkpt lat="44.774495" lon="8.9751367"><ele>534.0</ele><time>2026-04-08T14:10:45.032Z</time></trkpt><trkpt lat="44.77441" lon="8.975215"><ele>535.2</ele><time>2026-04-08T14:10:46.033Z</time></trkpt><trkpt lat="44.7743167" lon="8.9752917"><ele>536.4</ele><time>2026-04-08T14:10:47.033Z</time></trkpt><trkpt lat="44.7742267" lon="8.9753733"><ele>537.6</ele><time>2026-04-08T14:10:48.032Z</time></trkpt><trkpt lat="44.7741233" lon="8.9754633"><ele>538.8</ele><time>2026-04-08T14:10:49.033Z</time></trkpt><trkpt lat="44.7740317" lon="8.97555"><ele>540.0</ele><time>2026-04-08T14:10:50.033Z</time></trkpt><trkpt lat="44.7739433" lon="8.9756433"><ele>540.0</ele><time>2026-04-08T14:10:51.032Z</time></trkpt><trkpt lat="44.773855" lon="8.9757333"><ele>540.0</ele><time>2026-04-08T14:10:52.032Z</time></trkpt><trkpt lat="44.77378" lon="8.9758017"><ele>540.0</ele><time>2026-04-08T14:10:53.032Z</time></trkpt><trkpt lat="44.7737217" lon="8.975855"><ele>540.0</ele><time>2026-04-08T14:10:54.032Z</time></trkpt><trkpt lat="44.7736583" lon="8.9758917"><ele>540.0</ele><time>2026-04-08T14:10:55.032Z</time></trkpt><trkpt lat="44.7735833" lon="8.9759117"><ele>540.0</ele><time>2026-04-08T14:10:56.032Z</time></trkpt><trkpt lat="44.7735" lon="8.975895"><ele>542.0</ele><time>2026-04-08T14:10:57.033Z</time></trkpt><trkpt lat="44.773405" lon="8.97585"><ele>544.0</ele><time>2026-04-08T14:10:58.032Z</time></trkpt><trkpt lat="44.773305" lon="8.9757983"><ele>546.0</ele><time>2026-04-08T14:10:59.033Z</time></trkpt><trkpt lat="44.7732167" lon="8.9757517"><ele>548.0</ele><time>2026-04-08T14:11:00.032Z</time></trkpt><trkpt lat="44.77312" lon="8.9757333"><ele>550.0</ele><time>2026-04-08T14:11:01.033Z</time></trkpt><trkpt lat="44.773035" lon="8.9757267"><ele>550.0</ele><time>2026-04-08T14:11:02.033Z</time></trkpt><trkpt lat="44.7729583" lon="8.9757417"><ele>550.0</ele><time>2026-04-08T14:11:03.033Z</time></trkpt><trkpt lat="44.77288" lon="8.9757683"><ele>550.0</ele><time>2026-04-08T14:11:04.032Z</time></trkpt><trkpt lat="44.7728" lon="8.9758083"><ele>550.0</ele><time>2026-04-08T14:11:05.033Z</time></trkpt><trkpt lat="44.7727217" lon="8.9758633"><ele>550.0</ele><time>2026-04-08T14:11:06.033Z</time></trkpt><trkpt lat="44.7726433" lon="8.9759433"><ele>550.0</ele><time>2026-04-08T14:11:07.032Z</time></trkpt><trkpt lat="44.7725733" lon="8.9760333"><ele>547.6</ele><time>2026-04-08T14:11:08.033Z</time></trkpt><trkpt lat="44.7725083" lon="8.9761383"><ele>545.2</ele><time>2026-04-08T14:11:09.032Z</time></trkpt><trkpt lat="44.7724433" lon="8.976245"><ele>542.8</ele><time>2026-04-08T14:11:10.032Z</time></trkpt><trkpt lat="44.7723833" lon="8.9763517"><ele>540.4</ele><time>2026-04-08T14:11:11.032Z</time></trkpt><trkpt lat="44.7723167" lon="8.9764467"><ele>538.0</ele><time>2026-04-08T14:11:12.032Z</time></trkpt><trkpt lat="44.7722467" lon="8.9765317"><ele>538.0</ele><time>2026-04-08T14:11:13.032Z</time></trkpt><trkpt lat="44.7721717" lon="8.976595"><ele>538.0</ele><time>2026-04-08T14:11:14.032Z</time></trkpt><trkpt lat="44.7720783" lon="8.9766517"><ele>538.0</ele><time>2026-04-08T14:11:15.032Z</time></trkpt><trkpt lat="44.7719783" lon="8.9766867"><ele>538.0</ele><time>2026-04-08T14:11:16.032Z</time></trkpt><trkpt lat="44.7718717" lon="8.9767167"><ele>538.0</ele><time>2026-04-08T14:11:17.033Z</time></trkpt><trkpt lat="44.7717633" lon="8.9767517"><ele>536.25</ele><time>2026-04-08T14:11:18.033Z</time></trkpt><trkpt lat="44.7716517" lon="8.97679"><ele>534.5</ele><time>2026-04-08T14:11:19.032Z</time></trkpt><trkpt lat="44.7715367" lon="8.976835"><ele>532.75</ele><time>2026-04-08T14:11:20.032Z</time></trkpt><trkpt lat="44.7714167" lon="8.9768767"><ele>531.0</ele><time>2026-04-08T14:11:21.032Z</time></trkpt><trkpt lat="44.771295" lon="8.976915"><ele>531.0</ele><time>2026-04-08T14:11:22.032Z</time></trkpt><trkpt lat="44.771185" lon="8.976955"><ele>531.0</ele><time>2026-04-08T14:11:23.033Z</time></trkpt><trkpt lat="44.771085" lon="8.9770083"><ele>531.0</ele><time>2026-04-08T14:11:24.032Z</time></trkpt><trkpt lat="44.770995" lon="8.977085"><ele>531.0</ele><time>2026-04-08T14:11:25.032Z</time></trkpt><trkpt lat="44.77091" lon="8.9771833"><ele>531.0</ele><time>2026-04-08T14:11:26.033Z</time></trkpt><trkpt lat="44.770825" lon="8.9772917"><ele>531.25</ele><time>2026-04-08T14:11:27.033Z</time></trkpt><trkpt lat="44.7707383" lon="8.977415"><ele>531.5</ele><time>2026-04-08T14:11:28.033Z</time></trkpt><trkpt lat="44.7706533" lon="8.9775467"><ele>531.75</ele><time>2026-04-08T14:11:29.033Z</time></trkpt><trkpt lat="44.7705667" lon="8.97768"><ele>532.0</ele><time>2026-04-08T14:11:30.033Z</time></trkpt><trkpt lat="44.7704783" lon="8.9778133"><ele>532.0</ele><time>2026-04-08T14:11:31.032Z</time></trkpt><trkpt lat="44.7703833" lon="8.977955"><ele>532.0</ele><time>2026-04-08T14:11:32.032Z</time></trkpt><trkpt lat="44.770295" lon="8.9780917"><ele>532.0</ele><time>2026-04-08T14:11:33.033Z</time></trkpt><trkpt lat="44.770215" lon="8.97822"><ele>532.0</ele><time>2026-04-08T14:11:34.033Z</time></trkpt><trkpt lat="44.7701517" lon="8.9783433"><ele>535.0</ele><time>2026-04-08T14:11:35.033Z</time></trkpt><trkpt lat="44.7700967" lon="8.9784733"><ele>538.0</ele><time>2026-04-08T14:11:36.032Z</time></trkpt><trkpt lat="44.7700567" lon="8.978595"><ele>541.0</ele><time>2026-04-08T14:11:37.032Z</time></trkpt><trkpt lat="44.7700433" lon="8.9787383"><ele>544.0</ele><time>2026-04-08T14:11:38.032Z</time></trkpt><trkpt lat="44.770045" lon="8.978895"><ele>547.0</ele><time>2026-04-08T14:11:39.032Z</time></trkpt><trkpt lat="44.7700433" lon="8.9790583"><ele>545.75</ele><time>2026-04-08T14:11:40.031Z</time></trkpt><trkpt lat="44.77003" lon="8.9792267"><ele>544.5</ele><time>2026-04-08T14:11:41.031Z</time></trkpt><trkpt lat="44.770005" lon="8.9794"><ele>543.25</ele><time>2026-04-08T14:11:42.031Z</time></trkpt><trkpt lat="44.76997" lon="8.979575"><ele>542.0</ele><time>2026-04-08T14:11:43.031Z</time></trkpt><trkpt lat="44.7699333" lon="8.9797517"><ele>542.0</ele><time>2026-04-08T14:11:44.032Z</time></trkpt><trkpt lat="44.7698933" lon="8.9799233"><ele>542.0</ele><time>2026-04-08T14:11:45.032Z</time></trkpt><trkpt lat="44.769845" lon="8.9800817"><ele>542.0</ele><time>2026-04-08T14:11:46.031Z</time></trkpt><trkpt lat="44.7698" lon="8.980245"><ele>542.0</ele><time>2026-04-08T14:11:47.032Z</time></trkpt><trkpt lat="44.76976" lon="8.9804083"><ele>541.0</ele><time>2026-04-08T14:11:48.032Z</time></trkpt><trkpt lat="44.7697267" lon="8.9805733"><ele>540.0</ele><time>2026-04-08T14:11:49.031Z</time></trkpt><trkpt lat="44.7697083" lon="8.9807433"><ele>539.0</ele><time>2026-04-08T14:11:50.031Z</time></trkpt><trkpt lat="44.769705" lon="8.9809067"><ele>538.0</ele><time>2026-04-08T14:11:51.031Z</time></trkpt><trkpt lat="44.7697" lon="8.9810633"><ele>537.0</ele><time>2026-04-08T14:11:52.031Z</time></trkpt><trkpt lat="44.7696983" lon="8.9812017"><ele>536.0</ele><time>2026-04-08T14:11:53.032Z</time></trkpt><trkpt lat="44.7696783" lon="8.9813167"><ele>535.0</ele><time>2026-04-08T14:11:54.032Z</time></trkpt><trkpt lat="44.7696417" lon="8.9813967"><ele>534.0</ele><time>2026-04-08T14:11:55.031Z</time></trkpt><trkpt lat="44.7695817" lon="8.9814517"><ele>533.0</ele><time>2026-04-08T14:11:56.032Z</time></trkpt><trkpt lat="44.7694933" lon="8.9814683"><ele>532.0</ele><time>2026-04-08T14:11:57.032Z</time></trkpt><trkpt lat="44.7693883" lon="8.981455"><ele>535.8000000000001</ele><time>2026-04-08T14:11:58.032Z</time></trkpt><trkpt lat="44.7692833" lon="8.9814333"><ele>539.6</ele><time>2026-04-08T14:11:59.032Z</time></trkpt><trkpt lat="44.769175" lon="8.98142"><ele>543.4000000000001</ele><time>2026-04-08T14:12:00.031Z</time></trkpt><trkpt lat="44.7690733" lon="8.9814267"><ele>547.2</ele><time>2026-04-08T14:12:01.032Z</time></trkpt><trkpt lat="44.76899" lon="8.9814567"><ele>551.0</ele><time>2026-04-08T14:12:02.031Z</time></trkpt><trkpt lat="44.7689117" lon="8.9815133"><ele>551.0</ele><time>2026-04-08T14:12:03.032Z</time></trkpt><trkpt lat="44.7688483" lon="8.9816133"><ele>551.0</ele><time>2026-04-08T14:12:04.031Z</time></trkpt><trkpt lat="44.7687967" lon="8.9817317"><ele>551.0</ele><time>2026-04-08T14:12:05.032Z</time></trkpt><trkpt lat="44.7687433" lon="8.981855"><ele>551.0</ele><time>2026-04-08T14:12:06.032Z</time></trkpt><trkpt lat="44.7686933" lon="8.9819833"><ele>551.0</ele><time>2026-04-08T14:12:07.032Z</time></trkpt><trkpt lat="44.768635" lon="8.9820983"><ele>552.1666666666666</ele><time>2026-04-08T14:12:08.031Z</time></trkpt><trkpt lat="44.7685717" lon="8.98221"><ele>553.3333333333333</ele><time>2026-04-08T14:12:09.031Z</time></trkpt><trkpt lat="44.768515" lon="8.9822933"><ele>554.5</ele><time>2026-04-08T14:12:10.031Z</time></trkpt><trkpt lat="44.7684633" lon="8.9823717"><ele>555.6666666666666</ele><time>2026-04-08T14:12:11.031Z</time></trkpt><trkpt lat="44.7683933" lon="8.98244"><ele>556.8333333333334</ele><time>2026-04-08T14:12:12.031Z</time></trkpt><trkpt lat="44.7683017" lon="8.982485"><ele>558.0</ele><time>2026-04-08T14:12:13.031Z</time></trkpt><trkpt lat="44.7682133" lon="8.982535"><ele>553.4</ele><time>2026-04-08T14:12:14.031Z</time></trkpt><trkpt lat="44.7681267" lon="8.9826067"><ele>548.8</ele><time>2026-04-08T14:12:15.032Z</time></trkpt><trkpt lat="44.7680483" lon="8.9826917"><ele>544.2</ele><time>2026-04-08T14:12:16.031Z</time></trkpt><trkpt lat="44.7679717" lon="8.982775"><ele>539.6</ele><time>2026-04-08T14:12:17.031Z</time></trkpt><trkpt lat="44.767895" lon="8.9828433"><ele>535.0</ele><time>2026-04-08T14:12:18.031Z</time></trkpt><trkpt lat="44.7678133" lon="8.982905"><ele>535.0</ele><time>2026-04-08T14:12:19.032Z</time></trkpt><trkpt lat="44.767735" lon="8.982955"><ele>535.0</ele><time>2026-04-08T14:12:20.032Z</time></trkpt><trkpt lat="44.7676583" lon="8.982995"><ele>535.0</ele><time>2026-04-08T14:12:21.032Z</time></trkpt><trkpt lat="44.767585" lon="8.9830267"><ele>535.0</ele><time>2026-04-08T14:12:22.031Z</time></trkpt><trkpt lat="44.767515" lon="8.98306"><ele>535.0</ele><time>2026-04-08T14:12:23.031Z</time></trkpt><trkpt lat="44.767455" lon="8.9831067"><ele>535.0</ele><time>2026-04-08T14:12:24.031Z</time></trkpt><trkpt lat="44.76737" lon="8.98321"><ele>537.1666666666667</ele><time>2026-04-08T14:12:26.031Z</time></trkpt><trkpt lat="44.7673367" lon="8.983295"><ele>539.3333333333334</ele><time>2026-04-08T14:12:28.031Z</time></trkpt><trkpt lat="44.7673083" lon="8.983385"><ele>541.5</ele><time>2026-04-08T14:12:31.031Z</time></trkpt><trkpt lat="44.7672483" lon="8.9834833"><ele>543.6666666666666</ele><time>2026-04-08T14:12:33.032Z</time></trkpt><trkpt lat="44.76721" lon="8.9835633"><ele>545.8333333333333</ele><time>2026-04-08T14:12:34.032Z</time></trkpt><trkpt lat="44.7671633" lon="8.9836517"><ele>548.0</ele><time>2026-04-08T14:12:35.032Z</time></trkpt><trkpt lat="44.7671033" lon="8.9837867"><ele>548.0</ele><time>2026-04-08T14:12:37.032Z</time></trkpt><trkpt lat="44.7670617" lon="8.9839033"><ele>548.0</ele><time>2026-04-08T14:12:39.032Z</time></trkpt><trkpt lat="44.7670217" lon="8.9839983"><ele>548.0</ele><time>2026-04-08T14:12:42.032Z</time></trkpt><trkpt lat="44.7669867" lon="8.9840733"><ele>548.0</ele><time>2026-04-08T14:12:50.031Z</time></trkpt><trkpt lat="44.76697" lon="8.984165"><ele>548.0</ele><time>2026-04-08T14:12:54.031Z</time></trkpt><trkpt lat="44.766985" lon="8.984265"><ele>548.0</ele><time>2026-04-08T14:12:58.032Z</time></trkpt><trkpt lat="44.767005" lon="8.98439"><ele>547.4285714285714</ele><time>2026-04-08T14:13:01.031Z</time></trkpt><trkpt lat="44.76701" lon="8.9844917"><ele>546.8571428571429</ele><time>2026-04-08T14:13:04.032Z</time></trkpt><trkpt lat="44.767015" lon="8.9845883"><ele>546.2857142857142</ele><time>2026-04-08T14:13:07.032Z</time></trkpt><trkpt lat="44.7670133" lon="8.9846833"><ele>545.7142857142858</ele><time>2026-04-08T14:13:10.032Z</time></trkpt><trkpt lat="44.7670217" lon="8.984785"><ele>545.1428571428571</ele><time>2026-04-08T14:13:15.031Z</time></trkpt><trkpt lat="44.7670233" lon="8.9849017"><ele>544.5714285714286</ele><time>2026-04-08T14:13:17.031Z</time></trkpt><trkpt lat="44.7670133" lon="8.9850183"><ele>544.0</ele><time>2026-04-08T14:13:19.031Z</time></trkpt><trkpt lat="44.766975" lon="8.9851017"><ele>541.3333333333334</ele><time>2026-04-08T14:13:21.031Z</time></trkpt><trkpt lat="44.766915" lon="8.9851683"><ele>538.6666666666667</ele><time>2026-04-08T14:13:23.031Z</time></trkpt><trkpt lat="44.76687" lon="8.9852517"><ele>536.0</ele><time>2026-04-08T14:13:25.032Z</time></trkpt><trkpt lat="44.7668167" lon="8.985345"><ele>533.3333333333334</ele><time>2026-04-08T14:13:27.031Z</time></trkpt><trkpt lat="44.7667733" lon="8.98543"><ele>530.6666666666666</ele><time>2026-04-08T14:13:29.031Z</time></trkpt><trkpt lat="44.7667383" lon="8.9855433"><ele>528.0</ele><time>2026-04-08T14:13:31.032Z</time></trkpt><trkpt lat="44.766705" lon="8.9856467"><ele>527.6666666666666</ele><time>2026-04-08T14:13:33.032Z</time></trkpt><trkpt lat="44.7667017" lon="8.9857617"><ele>527.3333333333334</ele><time>2026-04-08T14:13:36.031Z</time></trkpt><trkpt lat="44.7667383" lon="8.9858567"><ele>527.0</ele><time>2026-04-08T14:13:39.031Z</time></trkpt><trkpt lat="44.7668183" lon="8.98593"><ele>526.6666666666667</ele><time>2026-04-08T14:13:42.031Z</time></trkpt><trkpt lat="44.7668867" lon="8.98599"><ele>526.3333333333334</ele><time>2026-04-08T14:13:44.031Z</time></trkpt><trkpt lat="44.7669767" lon="8.98607"><ele>526.0</ele><time>2026-04-08T14:13:46.031Z</time></trkpt><trkpt lat="44.7670533" lon="8.9861533"><ele>524.2</ele><time>2026-04-08T14:13:48.031Z</time></trkpt><trkpt lat="44.7671267" lon="8.98626"><ele>522.4000000000001</ele><time>2026-04-08T14:13:50.032Z</time></trkpt><trkpt lat="44.7672017" lon="8.9863867"><ele>520.6</ele><time>2026-04-08T14:13:52.031Z</time></trkpt><trkpt lat="44.7672717" lon="8.9865417"><ele>518.8000000000001</ele><time>2026-04-08T14:13:54.032Z</time></trkpt><trkpt lat="44.767315" lon="8.9866267"><ele>517.0</ele><time>2026-04-08T14:13:55.031Z</time></trkpt><trkpt lat="44.76735" lon="8.98671"><ele>516.3333333333334</ele><time>2026-04-08T14:13:56.031Z</time></trkpt><trkpt lat="44.7673833" lon="8.986795"><ele>515.6666666666667</ele><time>2026-04-08T14:13:57.031Z</time></trkpt><trkpt lat="44.7674167" lon="8.9868767"><ele>515.0</ele><time>2026-04-08T14:13:58.031Z</time></trkpt><trkpt lat="44.7674717" lon="8.987015"><ele>514.3333333333334</ele><time>2026-04-08T14:14:00.032Z</time></trkpt><trkpt lat="44.7674733" lon="8.9871833"><ele>513.6666666666666</ele><time>2026-04-08T14:14:02.031Z</time></trkpt><trkpt lat="44.7674567" lon="8.98729"><ele>513.0</ele><time>2026-04-08T14:14:03.032Z</time></trkpt><trkpt lat="44.7674417" lon="8.9873983"><ele>513.0</ele><time>2026-04-08T14:14:04.031Z</time></trkpt><trkpt lat="44.7674233" lon="8.9874883"><ele>513.0</ele><time>2026-04-08T14:14:05.031Z</time></trkpt><trkpt lat="44.767405" lon="8.987575"><ele>513.0</ele><time>2026-04-08T14:14:06.031Z</time></trkpt><trkpt lat="44.7673783" lon="8.98773"><ele>513.0</ele><time>2026-04-08T14:14:08.031Z</time></trkpt><trkpt lat="44.7673633" lon="8.98788"><ele>513.0</ele><time>2026-04-08T14:14:10.031Z</time></trkpt><trkpt lat="44.7673433" lon="8.98801"><ele>513.0</ele><time>2026-04-08T14:14:12.032Z</time></trkpt><trkpt lat="44.7673383" lon="8.9881317"><ele>510.59999999999997</ele><time>2026-04-08T14:14:14.032Z</time></trkpt><trkpt lat="44.7673367" lon="8.9882833"><ele>508.19999999999993</ele><time>2026-04-08T14:14:16.031Z</time></trkpt><trkpt lat="44.7673017" lon="8.988445"><ele>505.8</ele><time>2026-04-08T14:14:18.031Z</time></trkpt><trkpt lat="44.7672633" lon="8.9885917"><ele>503.4</ele><time>2026-04-08T14:14:20.032Z</time></trkpt><trkpt lat="44.767225" lon="8.9886717"><ele>501.0</ele><time>2026-04-08T14:14:22.031Z</time></trkpt><trkpt lat="44.7671617" lon="8.9887417"><ele>500.0</ele><time>2026-04-08T14:14:24.031Z</time></trkpt><trkpt lat="44.76708" lon="8.9888233"><ele>499.0</ele><time>2026-04-08T14:14:30.032Z</time></trkpt><trkpt lat="44.7670533" lon="8.988905"><ele>498.0</ele><time>2026-04-08T14:14:32.032Z</time></trkpt><trkpt lat="44.7670383" lon="8.9890217"><ele>497.0</ele><time>2026-04-08T14:14:34.032Z</time></trkpt><trkpt lat="44.76704" lon="8.9891283"><ele>496.0</ele><time>2026-04-08T14:14:36.032Z</time></trkpt><trkpt lat="44.767085" lon="8.9892417"><ele>495.0</ele><time>2026-04-08T14:14:38.032Z</time></trkpt><trkpt lat="44.7670783" lon="8.9893783"><ele>494.4</ele><time>2026-04-08T14:14:40.032Z</time></trkpt><trkpt lat="44.767045" lon="8.98952"><ele>493.8</ele><time>2026-04-08T14:14:42.031Z</time></trkpt><trkpt lat="44.767065" lon="8.98969"><ele>493.20000000000005</ele><time>2026-04-08T14:14:44.032Z</time></trkpt><trkpt lat="44.7670833" lon="8.98978"><ele>492.6</ele><time>2026-04-08T14:14:45.031Z</time></trkpt><trkpt lat="44.767095" lon="8.989875"><ele>492.0</ele><time>2026-04-08T14:14:46.031Z</time></trkpt><trkpt lat="44.7670817" lon="8.9900683"><ele>491.6</ele><time>2026-04-08T14:14:48.032Z</time></trkpt><trkpt lat="44.7670667" lon="8.990185"><ele>491.20000000000005</ele><time>2026-04-08T14:14:49.032Z</time></trkpt><trkpt lat="44.767065" lon="8.990305"><ele>490.8</ele><time>2026-04-08T14:14:50.031Z</time></trkpt><trkpt lat="44.7670533" lon="8.9904417"><ele>490.4</ele><time>2026-04-08T14:14:51.032Z</time></trkpt><trkpt lat="44.7670367" lon="8.99059"><ele>490.0</ele><time>2026-04-08T14:14:52.031Z</time></trkpt><trkpt lat="44.767005" lon="8.9907383"><ele>490.00000000000006</ele><time>2026-04-08T14:14:53.031Z</time></trkpt><trkpt lat="44.766965" lon="8.990875"><ele>490.0</ele><time>2026-04-08T14:14:54.031Z</time></trkpt><trkpt lat="44.7669283" lon="8.9910033"><ele>490.0</ele><time>2026-04-08T14:14:55.032Z</time></trkpt><trkpt lat="44.7668833" lon="8.9911083"><ele>490.0</ele><time>2026-04-08T14:14:56.031Z</time></trkpt><trkpt lat="44.7668467" lon="8.9912067"><ele>490.00000000000006</ele><time>2026-04-08T14:14:57.031Z</time></trkpt><trkpt lat="44.7668067" lon="8.9913033"><ele>490.0</ele><time>2026-04-08T14:14:58.032Z</time></trkpt><trkpt lat="44.7667617" lon="8.9914017"><ele>493.50000000000006</ele><time>2026-04-08T14:14:59.031Z</time></trkpt><trkpt lat="44.766725" lon="8.9915067"><ele>497.0</ele><time>2026-04-08T14:15:00.032Z</time></trkpt><trkpt lat="44.7666917" lon="8.9916167"><ele>500.5</ele><time>2026-04-08T14:15:01.031Z</time></trkpt><trkpt lat="44.7666667" lon="8.99173"><ele>504.0</ele><time>2026-04-08T14:15:02.031Z</time></trkpt><trkpt lat="44.766645" lon="8.9918317"><ele>507.50000000000006</ele><time>2026-04-08T14:15:03.031Z</time></trkpt><trkpt lat="44.7666183" lon="8.99193"><ele>511.0</ele><time>2026-04-08T14:15:04.032Z</time></trkpt><trkpt lat="44.766575" lon="8.9920283"><ele>510.8</ele><time>2026-04-08T14:15:05.031Z</time></trkpt><trkpt lat="44.7665233" lon="8.99213"><ele>510.6</ele><time>2026-04-08T14:15:06.032Z</time></trkpt><trkpt lat="44.76645" lon="8.9922367"><ele>510.4</ele><time>2026-04-08T14:15:07.031Z</time></trkpt><trkpt lat="44.7663583" lon="8.992355"><ele>510.2</ele><time>2026-04-08T14:15:08.031Z</time></trkpt><trkpt lat="44.76626" lon="8.9924483"><ele>510.0</ele><time>2026-04-08T14:15:09.031Z</time></trkpt><trkpt lat="44.76618" lon="8.9925183"><ele>510.0</ele><time>2026-04-08T14:15:10.032Z</time></trkpt><trkpt lat="44.7661167" lon="8.992585"><ele>510.0</ele><time>2026-04-08T14:15:11.031Z</time></trkpt><trkpt lat="44.7660583" lon="8.9926567"><ele>510.0</ele><time>2026-04-08T14:15:12.031Z</time></trkpt><trkpt lat="44.76602" lon="8.992745"><ele>510.0</ele><time>2026-04-08T14:15:13.031Z</time></trkpt><trkpt lat="44.7659983" lon="8.9928417"><ele>510.0</ele><time>2026-04-08T14:15:14.032Z</time></trkpt><trkpt lat="44.76596" lon="8.9929783"><ele>510.0</ele><time>2026-04-08T14:15:16.031Z</time></trkpt><trkpt lat="44.765935" lon="8.9930883"><ele>509.4</ele><time>2026-04-08T14:15:18.031Z</time></trkpt><trkpt lat="44.7659267" lon="8.9932233"><ele>508.8</ele><time>2026-04-08T14:15:20.031Z</time></trkpt><trkpt lat="44.7659517" lon="8.9933817"><ele>508.20000000000005</ele><time>2026-04-08T14:15:22.031Z</time></trkpt><trkpt lat="44.7659883" lon="8.9934633"><ele>507.6</ele><time>2026-04-08T14:15:23.032Z</time></trkpt><trkpt lat="44.7660367" lon="8.9935517"><ele>507.0</ele><time>2026-04-08T14:15:24.031Z</time></trkpt><trkpt lat="44.7660833" lon="8.9936633"><ele>506.20000000000005</ele><time>2026-04-08T14:15:25.031Z</time></trkpt><trkpt lat="44.7661233" lon="8.9937733"><ele>505.40000000000003</ele><time>2026-04-08T14:15:26.03Z</time></trkpt><trkpt lat="44.7661783" lon="8.9938667"><ele>504.59999999999997</ele><time>2026-04-08T14:15:27.03Z</time></trkpt><trkpt lat="44.7662383" lon="8.993965"><ele>503.79999999999995</ele><time>2026-04-08T14:15:28.031Z</time></trkpt><trkpt lat="44.7663033" lon="8.9940617"><ele>503.0</ele><time>2026-04-08T14:15:29.03Z</time></trkpt><trkpt lat="44.76637" lon="8.99417"><ele>502.2</ele><time>2026-04-08T14:15:30.03Z</time></trkpt><trkpt lat="44.766425" lon="8.9942717"><ele>501.4</ele><time>2026-04-08T14:15:31.031Z</time></trkpt><trkpt lat="44.76647" lon="8.9943567"><ele>500.59999999999997</ele><time>2026-04-08T14:15:32.03Z</time></trkpt><trkpt lat="44.7665167" lon="8.994485"><ele>499.79999999999995</ele><time>2026-04-08T14:15:34.031Z</time></trkpt><trkpt lat="44.7665333" lon="8.9945833"><ele>499.0</ele><time>2026-04-08T14:15:36.03Z</time></trkpt><trkpt lat="44.766585" lon="8.9947483"><ele>499.00000000000006</ele><time>2026-04-08T14:15:57.03Z</time></trkpt><trkpt lat="44.7666033" lon="8.9948483"><ele>499.0</ele><time>2026-04-08T14:16:05.031Z</time></trkpt><trkpt lat="44.7666233" lon="8.99496"><ele>499.0</ele><time>2026-04-08T14:16:08.03Z</time></trkpt><trkpt lat="44.7666567" lon="8.99509"><ele>499.0</ele><time>2026-04-08T14:16:11.03Z</time></trkpt><trkpt lat="44.7666967" lon="8.99525"><ele>499.00000000000006</ele><time>2026-04-08T14:16:13.031Z</time></trkpt><trkpt lat="44.7667167" lon="8.9953383"><ele>499.0</ele><time>2026-04-08T14:16:14.03Z</time></trkpt><trkpt lat="44.7667383" lon="8.995425"><ele>499.6</ele><time>2026-04-08T14:16:15.03Z</time></trkpt><trkpt lat="44.76679" lon="8.9955667"><ele>500.2</ele><time>2026-04-08T14:16:17.031Z</time></trkpt><trkpt lat="44.7668117" lon="8.9957233"><ele>500.80000000000007</ele><time>2026-04-08T14:16:19.031Z</time></trkpt><trkpt lat="44.76679" lon="8.9958517"><ele>501.40000000000003</ele><time>2026-04-08T14:16:21.031Z</time></trkpt><trkpt lat="44.766765" lon="8.995975"><ele>502.0</ele><time>2026-04-08T14:16:34.03Z</time></trkpt><trkpt lat="44.766715" lon="8.9961317"><ele>502.00000000000006</ele><time>2026-04-08T14:16:36.03Z</time></trkpt><trkpt lat="44.766685" lon="8.996225"><ele>502.0</ele><time>2026-04-08T14:16:37.03Z</time></trkpt><trkpt lat="44.7666417" lon="8.9963083"><ele>502.0</ele><time>2026-04-08T14:16:38.03Z</time></trkpt><trkpt lat="44.7665817" lon="8.9963883"><ele>502.0</ele><time>2026-04-08T14:16:39.03Z</time></trkpt><trkpt lat="44.766495" lon="8.9964717"><ele>502.00000000000006</ele><time>2026-04-08T14:16:40.03Z</time></trkpt><trkpt lat="44.7664117" lon="8.9965633"><ele>502.0</ele><time>2026-04-08T14:16:41.03Z</time></trkpt><trkpt lat="44.7663267" lon="8.996645"><ele>503.20000000000005</ele><time>2026-04-08T14:16:42.03Z</time></trkpt><trkpt lat="44.766245" lon="8.9967183"><ele>504.40000000000003</ele><time>2026-04-08T14:16:43.031Z</time></trkpt><trkpt lat="44.766165" lon="8.996795"><ele>505.59999999999997</ele><time>2026-04-08T14:16:44.03Z</time></trkpt><trkpt lat="44.766085" lon="8.9968667"><ele>506.79999999999995</ele><time>2026-04-08T14:16:45.03Z</time></trkpt><trkpt lat="44.7660133" lon="8.9969433"><ele>508.0</ele><time>2026-04-08T14:16:46.031Z</time></trkpt><trkpt lat="44.765945" lon="8.997005"><ele>508.00000000000006</ele><time>2026-04-08T14:16:47.031Z</time></trkpt><trkpt lat="44.7658683" lon="8.9970483"><ele>508.0</ele><time>2026-04-08T14:16:48.031Z</time></trkpt><trkpt lat="44.7657917" lon="8.9970917"><ele>508.0</ele><time>2026-04-08T14:16:49.03Z</time></trkpt><trkpt lat="44.765725" lon="8.99714"><ele>508.0</ele><time>2026-04-08T14:16:50.03Z</time></trkpt><trkpt lat="44.7656583" lon="8.9971933"><ele>508.00000000000006</ele><time>2026-04-08T14:16:51.03Z</time></trkpt><trkpt lat="44.7656017" lon="8.9972633"><ele>508.0</ele><time>2026-04-08T14:16:52.03Z</time></trkpt><trkpt lat="44.7655517" lon="8.997325"><ele>508.00000000000006</ele><time>2026-04-08T14:16:53.03Z</time></trkpt><trkpt lat="44.7655017" lon="8.9973833"><ele>508.0</ele><time>2026-04-08T14:16:54.03Z</time></trkpt><trkpt lat="44.7654417" lon="8.9974233"><ele>508.0</ele><time>2026-04-08T14:16:55.031Z</time></trkpt><trkpt lat="44.7653433" lon="8.9974983"><ele>508.0</ele><time>2026-04-08T14:16:57.03Z</time></trkpt><trkpt lat="44.7652933" lon="8.997615"><ele>508.00000000000006</ele><time>2026-04-08T14:16:59.031Z</time></trkpt><trkpt lat="44.7652533" lon="8.9977467"><ele>508.0</ele><time>2026-04-08T14:17:01.03Z</time></trkpt><trkpt lat="44.765195" lon="8.9978333"><ele>511.4</ele><time>2026-04-08T14:17:03.031Z</time></trkpt><trkpt lat="44.76514" lon="8.997925"><ele>514.8</ele><time>2026-04-08T14:17:12.03Z</time></trkpt><trkpt lat="44.7651017" lon="8.9980467"><ele>518.2</ele><time>2026-04-08T14:17:15.031Z</time></trkpt><trkpt lat="44.76506" lon="8.9981483"><ele>521.6</ele><time>2026-04-08T14:17:17.03Z</time></trkpt><trkpt lat="44.7650133" lon="8.998265"><ele>525.0</ele><time>2026-04-08T14:17:19.031Z</time></trkpt><trkpt lat="44.7649467" lon="8.9983633"><ele>525.0</ele><time>2026-04-08T14:17:21.03Z</time></trkpt><trkpt lat="44.764875" lon="8.99844"><ele>525.0</ele><time>2026-04-08T14:17:23.03Z</time></trkpt><trkpt lat="44.7648" lon="8.998515"><ele>525.0</ele><time>2026-04-08T14:17:25.03Z</time></trkpt><trkpt lat="44.764745" lon="8.9986133"><ele>525.0</ele><time>2026-04-08T14:17:27.03Z</time></trkpt><trkpt lat="44.7646733" lon="8.9987367"><ele>525.0</ele><time>2026-04-08T14:17:29.031Z</time></trkpt><trkpt lat="44.7646083" lon="8.9988767"><ele>525.0</ele><time>2026-04-08T14:17:31.03Z</time></trkpt><trkpt lat="44.7645733" lon="8.9989567"><ele>525.0</ele><time>2026-04-08T14:17:32.03Z</time></trkpt><trkpt lat="44.7645283" lon="8.999055"><ele>525.0</ele><time>2026-04-08T14:17:33.031Z</time></trkpt><trkpt lat="44.764485" lon="8.9991567"><ele>525.0</ele><time>2026-04-08T14:17:34.03Z</time></trkpt><trkpt lat="44.7644417" lon="8.999255"><ele>525.0</ele><time>2026-04-08T14:17:35.031Z</time></trkpt><trkpt lat="44.7644067" lon="8.9993467"><ele>525.0</ele><time>2026-04-08T14:17:36.03Z</time></trkpt><trkpt lat="44.7643517" lon="8.99947"><ele>523.8</ele><time>2026-04-08T14:17:38.031Z</time></trkpt><trkpt lat="44.764345" lon="8.99961"><ele>522.6</ele><time>2026-04-08T14:17:41.03Z</time></trkpt><trkpt lat="44.764345" lon="8.999785"><ele>521.4</ele><time>2026-04-08T14:17:43.03Z</time></trkpt><trkpt lat="44.76433" lon="8.9998783"><ele>520.2</ele><time>2026-04-08T14:17:44.031Z</time></trkpt><trkpt lat="44.76429" lon="9.0000117"><ele>519.0</ele><time>2026-04-08T14:17:46.03Z</time></trkpt><trkpt lat="44.7642067" lon="9.0000933"><ele>519.0</ele><time>2026-04-08T14:17:48.031Z</time></trkpt><trkpt lat="44.7641" lon="9.0001467"><ele>519.0</ele><time>2026-04-08T14:17:50.03Z</time></trkpt><trkpt lat="44.764035" lon="9.0002183"><ele>519.0</ele><time>2026-04-08T14:17:52.03Z</time></trkpt><trkpt lat="44.7639933" lon="9.0003067"><ele>519.0</ele><time>2026-04-08T14:17:54.03Z</time></trkpt><trkpt lat="44.7639283" lon="9.00042"><ele>519.0</ele><time>2026-04-08T14:17:56.03Z</time></trkpt><trkpt lat="44.7638717" lon="9.0004817"><ele>519.0</ele><time>2026-04-08T14:17:57.031Z</time></trkpt><trkpt lat="44.7638017" lon="9.0005417"><ele>519.0</ele><time>2026-04-08T14:17:58.03Z</time></trkpt><trkpt lat="44.7637417" lon="9.0006083"><ele>519.0</ele><time>2026-04-08T14:17:59.03Z</time></trkpt><trkpt lat="44.7636783" lon="9.0006717"><ele>519.0</ele><time>2026-04-08T14:18:00.03Z</time></trkpt><trkpt lat="44.76362" lon="9.00074"><ele>519.0</ele><time>2026-04-08T14:18:01.03Z</time></trkpt><trkpt lat="44.7635717" lon="9.000805"><ele>519.0</ele><time>2026-04-08T14:18:02.03Z</time></trkpt><trkpt lat="44.763495" lon="9.0009183"><ele>519.0</ele><time>2026-04-08T14:18:04.03Z</time></trkpt><trkpt lat="44.763425" lon="9.0010633"><ele>517.8</ele><time>2026-04-08T14:18:06.031Z</time></trkpt><trkpt lat="44.7633483" lon="9.0011983"><ele>516.5999999999999</ele><time>2026-04-08T14:18:08.03Z</time></trkpt><trkpt lat="44.7632933" lon="9.0012517"><ele>515.4</ele><time>2026-04-08T14:18:09.03Z</time></trkpt><trkpt lat="44.7632317" lon="9.0012967"><ele>514.1999999999999</ele><time>2026-04-08T14:18:10.03Z</time></trkpt><trkpt lat="44.7631517" lon="9.0013967"><ele>513.0</ele><time>2026-04-08T14:18:12.03Z</time></trkpt><trkpt lat="44.76311" lon="9.00151"><ele>513.0</ele><time>2026-04-08T14:18:14.031Z</time></trkpt><trkpt lat="44.7631017" lon="9.0016567"><ele>513.0</ele><time>2026-04-08T14:18:23.03Z</time></trkpt><trkpt lat="44.76315" lon="9.0017917"><ele>513.0</ele><time>2026-04-08T14:18:26.03Z</time></trkpt><trkpt lat="44.7631967" lon="9.00192"><ele>513.0</ele><time>2026-04-08T14:18:28.031Z</time></trkpt><trkpt lat="44.7632333" lon="9.0020467"><ele>513.0</ele><time>2026-04-08T14:18:30.031Z</time></trkpt><trkpt lat="44.7632117" lon="9.0021617"><ele>512.8</ele><time>2026-04-08T14:18:32.031Z</time></trkpt><trkpt lat="44.7631467" lon="9.0022767"><ele>512.5999999999999</ele><time>2026-04-08T14:18:34.031Z</time></trkpt><trkpt lat="44.7630617" lon="9.0023833"><ele>512.4000000000001</ele><time>2026-04-08T14:18:36.03Z</time></trkpt><trkpt lat="44.7629967" lon="9.0025267"><ele>512.2</ele><time>2026-04-08T14:18:38.03Z</time></trkpt><trkpt lat="44.7629433" lon="9.0026083"><ele>512.0</ele><time>2026-04-08T14:18:39.031Z</time></trkpt><trkpt lat="44.7628633" lon="9.0027383"><ele>509.99999999999994</ele><time>2026-04-08T14:18:41.03Z</time></trkpt><trkpt lat="44.7628233" lon="9.0029117"><ele>508.0</ele><time>2026-04-08T14:18:43.03Z</time></trkpt><trkpt lat="44.76281" lon="9.0030217"><ele>506.0</ele><time>2026-04-08T14:18:44.03Z</time></trkpt><trkpt lat="44.7628" lon="9.0031133"><ele>504.0</ele><time>2026-04-08T14:18:45.031Z</time></trkpt><trkpt lat="44.762805" lon="9.0032183"><ele>501.99999999999994</ele><time>2026-04-08T14:18:46.03Z</time></trkpt><trkpt lat="44.762805" lon="9.00333"><ele>500.0</ele><time>2026-04-08T14:18:47.03Z</time></trkpt><trkpt lat="44.762805" lon="9.0034317"><ele>501.66666666666663</ele><time>2026-04-08T14:18:48.031Z</time></trkpt><trkpt lat="44.762795" lon="9.00352"><ele>503.3333333333333</ele><time>2026-04-08T14:18:49.031Z</time></trkpt><trkpt lat="44.7627817" lon="9.0036617"><ele>505.0</ele><time>2026-04-08T14:18:51.03Z</time></trkpt><trkpt lat="44.7627867" lon="9.0038083"><ele>506.66666666666663</ele><time>2026-04-08T14:18:53.03Z</time></trkpt><trkpt lat="44.7627583" lon="9.0039283"><ele>508.3333333333333</ele><time>2026-04-08T14:18:55.031Z</time></trkpt><trkpt lat="44.7626967" lon="9.00402"><ele>510.0</ele><time>2026-04-08T14:18:57.03Z</time></trkpt><trkpt lat="44.7626183" lon="9.0041017"><ele>507.6666666666667</ele><time>2026-04-08T14:18:59.03Z</time></trkpt><trkpt lat="44.7625467" lon="9.00417"><ele>505.33333333333337</ele><time>2026-04-08T14:19:01.03Z</time></trkpt><trkpt lat="44.76252" lon="9.0042567"><ele>503.0</ele><time>2026-04-08T14:19:04.031Z</time></trkpt><trkpt lat="44.762525" lon="9.00435"><ele>500.6666666666667</ele><time>2026-04-08T14:19:06.03Z</time></trkpt><trkpt lat="44.7625267" lon="9.0045017"><ele>498.33333333333337</ele><time>2026-04-08T14:19:08.029Z</time></trkpt><trkpt lat="44.7625117" lon="9.0046333"><ele>496.0</ele><time>2026-04-08T14:19:10.029Z</time></trkpt><trkpt lat="44.762495" lon="9.004745"><ele>496.00000000000006</ele><time>2026-04-08T14:19:12.029Z</time></trkpt><trkpt lat="44.76248" lon="9.0048483"><ele>496.0</ele><time>2026-04-08T14:19:14.029Z</time></trkpt><trkpt lat="44.76248" lon="9.0049433"><ele>496.0</ele><time>2026-04-08T14:19:16.029Z</time></trkpt><trkpt lat="44.7625" lon="9.005065"><ele>496.0</ele><time>2026-04-08T14:19:20.029Z</time></trkpt><trkpt lat="44.7625133" lon="9.00518"><ele>496.00000000000006</ele><time>2026-04-08T14:19:22.029Z</time></trkpt><trkpt lat="44.7625233" lon="9.00535"><ele>496.0</ele><time>2026-04-08T14:19:24.029Z</time></trkpt><trkpt lat="44.76253" lon="9.00544"><ele>496.14285714285717</ele><time>2026-04-08T14:19:25.029Z</time></trkpt><trkpt lat="44.7625383" lon="9.0055283"><ele>496.28571428571433</ele><time>2026-04-08T14:19:26.029Z</time></trkpt><trkpt lat="44.762555" lon="9.0056333"><ele>496.42857142857144</ele><time>2026-04-08T14:19:27.029Z</time></trkpt><trkpt lat="44.7625717" lon="9.0057217"><ele>496.57142857142856</ele><time>2026-04-08T14:19:28.029Z</time></trkpt><trkpt lat="44.7625967" lon="9.00581"><ele>496.7142857142857</ele><time>2026-04-08T14:19:29.03Z</time></trkpt><trkpt lat="44.7626167" lon="9.0059083"><ele>496.8571428571429</ele><time>2026-04-08T14:19:30.029Z</time></trkpt><trkpt lat="44.7626383" lon="9.006015"><ele>497.0</ele><time>2026-04-08T14:19:31.029Z</time></trkpt><trkpt lat="44.7626333" lon="9.0061067"><ele>497.0</ele><time>2026-04-08T14:19:32.03Z</time></trkpt><trkpt lat="44.7625767" lon="9.0062317"><ele>497.00000000000006</ele><time>2026-04-08T14:19:34.029Z</time></trkpt><trkpt lat="44.7625333" lon="9.00635"><ele>497.00000000000006</ele><time>2026-04-08T14:19:36.029Z</time></trkpt><trkpt lat="44.762505" lon="9.006515"><ele>497.0</ele><time>2026-04-08T14:19:38.029Z</time></trkpt><trkpt lat="44.7624917" lon="9.0066817"><ele>497.0</ele><time>2026-04-08T14:19:40.029Z</time></trkpt><trkpt lat="44.7624867" lon="9.0067767"><ele>496.8333333333333</ele><time>2026-04-08T14:19:41.029Z</time></trkpt><trkpt lat="44.7624833" lon="9.0068817"><ele>496.66666666666663</ele><time>2026-04-08T14:19:42.03Z</time></trkpt><trkpt lat="44.76249" lon="9.0069867"><ele>496.5</ele><time>2026-04-08T14:19:43.03Z</time></trkpt><trkpt lat="44.7625" lon="9.0071167"><ele>496.33333333333337</ele><time>2026-04-08T14:19:45.029Z</time></trkpt><trkpt lat="44.762525" lon="9.0072433"><ele>496.1666666666667</ele><time>2026-04-08T14:19:48.029Z</time></trkpt><trkpt lat="44.7625383" lon="9.0073683"><ele>496.0</ele><time>2026-04-08T14:19:50.03Z</time></trkpt><trkpt lat="44.7625767" lon="9.0074767"><ele>495.4</ele><time>2026-04-08T14:19:52.029Z</time></trkpt><trkpt lat="44.762635" lon="9.007625"><ele>494.8</ele><time>2026-04-08T14:19:54.029Z</time></trkpt><trkpt lat="44.7627217" lon="9.0077217"><ele>494.19999999999993</ele><time>2026-04-08T14:19:56.029Z</time></trkpt><trkpt lat="44.762805" lon="9.0078033"><ele>493.59999999999997</ele><time>2026-04-08T14:19:58.03Z</time></trkpt><trkpt lat="44.7628867" lon="9.007845"><ele>493.0</ele><time>2026-04-08T14:20:00.029Z</time></trkpt><trkpt lat="44.7628917" lon="9.0079367"><ele>493.0</ele><time>2026-04-08T14:20:03.029Z</time></trkpt><trkpt lat="44.7628117" lon="9.00794"><ele>492.99999999999994</ele><time>2026-04-08T14:20:05.03Z</time></trkpt><trkpt lat="44.7627233" lon="9.007945"><ele>492.99999999999994</ele><time>2026-04-08T14:20:07.029Z</time></trkpt><trkpt lat="44.7626333" lon="9.0079583"><ele>493.0</ele><time>2026-04-08T14:20:09.029Z</time></trkpt><trkpt lat="44.7625267" lon="9.007975"><ele>493.0</ele><time>2026-04-08T14:20:11.029Z</time></trkpt><trkpt lat="44.762425" lon="9.0079433"><ele>493.0</ele><time>2026-04-08T14:20:13.029Z</time></trkpt><trkpt lat="44.7623383" lon="9.0078467"><ele>493.0</ele><time>2026-04-08T14:20:15.029Z</time></trkpt><trkpt lat="44.7622283" lon="9.007775"><ele>493.0</ele><time>2026-04-08T14:20:17.03Z</time></trkpt><trkpt lat="44.76211" lon="9.0077567"><ele>493.0</ele><time>2026-04-08T14:20:19.029Z</time></trkpt><trkpt lat="44.7620069" lon="9.0077469"><ele>493.0</ele><time>2026-04-08T14:20:21.029Z</time></trkpt><trkpt lat="44.7619367" lon="9.007715"><ele>492.99999999999994</ele><time>2026-04-08T14:20:24.03Z</time></trkpt><trkpt lat="44.7618633" lon="9.007705"><ele>492.99999999999994</ele><time>2026-04-08T14:20:27.029Z</time></trkpt><trkpt lat="44.7617733" lon="9.0077267"><ele>493.0</ele><time>2026-04-08T14:20:35.029Z</time></trkpt><trkpt lat="44.7616717" lon="9.0077767"><ele>493.0</ele><time>2026-04-08T14:20:44.03Z</time></trkpt><trkpt lat="44.7615117" lon="9.0078417"><ele>491.00000000000006</ele><time>2026-04-08T14:20:59.03Z</time></trkpt><trkpt lat="44.76145" lon="9.00787"><ele>489.0</ele><time>2026-04-08T14:21:04.03Z</time></trkpt><trkpt lat="44.7613867" lon="9.0078867"><ele>487.0</ele><time>2026-04-08T14:21:08.03Z</time></trkpt><trkpt lat="44.7612817" lon="9.0079217"><ele>485.0</ele><time>2026-04-08T14:21:18.029Z</time></trkpt><trkpt lat="44.7612" lon="9.0079733"><ele>483.00000000000006</ele><time>2026-04-08T14:21:21.029Z</time></trkpt><trkpt lat="44.7611267" lon="9.00806"><ele>481.0</ele><time>2026-04-08T14:21:24.03Z</time></trkpt><trkpt lat="44.7610733" lon="9.0081467"><ele>477.83333333333337</ele><time>2026-04-08T14:21:26.029Z</time></trkpt><trkpt lat="44.761005" lon="9.008195"><ele>474.6666666666667</ele><time>2026-04-08T14:21:28.029Z</time></trkpt><trkpt lat="44.760915" lon="9.008245"><ele>471.5</ele><time>2026-04-08T14:21:30.029Z</time></trkpt><trkpt lat="44.7608283" lon="9.0082833"><ele>468.33333333333337</ele><time>2026-04-08T14:21:32.03Z</time></trkpt><trkpt lat="44.760755" lon="9.0083417"><ele>465.1666666666667</ele><time>2026-04-08T14:21:34.03Z</time></trkpt><trkpt lat="44.760715" lon="9.008445"><ele>462.0</ele><time>2026-04-08T14:21:36.03Z</time></trkpt><trkpt lat="44.7606567" lon="9.0085617"><ele>462.0</ele><time>2026-04-08T14:21:38.03Z</time></trkpt><trkpt lat="44.7606433" lon="9.0086733"><ele>462.0</ele><time>2026-04-08T14:21:41.029Z</time></trkpt><trkpt lat="44.760605" lon="9.0087633"><ele>462.0</ele><time>2026-04-08T14:22:00.029Z</time></trkpt><trkpt lat="44.76064" lon="9.0086617"><ele>462.0</ele><time>2026-04-08T14:23:23.029Z</time></trkpt><trkpt lat="44.76067" lon="9.0085483"><ele>462.0</ele><time>2026-04-08T14:23:26.029Z</time></trkpt><trkpt lat="44.760715" lon="9.0084417"><ele>462.0</ele><time>2026-04-08T14:23:28.028Z</time></trkpt><trkpt lat="44.76076" lon="9.00835"><ele>460.57142857142856</ele><time>2026-04-08T14:23:30.029Z</time></trkpt><trkpt lat="44.7608217" lon="9.008305"><ele>459.1428571428571</ele><time>2026-04-08T14:23:32.028Z</time></trkpt><trkpt lat="44.7608783" lon="9.0082633"><ele>457.7142857142857</ele><time>2026-04-08T14:23:34.028Z</time></trkpt><trkpt lat="44.76095" lon="9.0082233"><ele>456.2857142857143</ele><time>2026-04-08T14:23:36.028Z</time></trkpt><trkpt lat="44.7610083" lon="9.008175"><ele>454.85714285714283</ele><time>2026-04-08T14:23:38.029Z</time></trkpt><trkpt lat="44.76106" lon="9.0081183"><ele>453.42857142857144</ele><time>2026-04-08T14:23:40.028Z</time></trkpt><trkpt lat="44.7611083" lon="9.008035"><ele>452.0</ele><time>2026-04-08T14:23:42.028Z</time></trkpt><trkpt lat="44.7611667" lon="9.0079617"><ele>457.8</ele><time>2026-04-08T14:23:44.029Z</time></trkpt><trkpt lat="44.7612267" lon="9.0079217"><ele>463.6</ele><time>2026-04-08T14:23:46.029Z</time></trkpt><trkpt lat="44.76131" lon="9.007885"><ele>469.40000000000003</ele><time>2026-04-08T14:23:49.028Z</time></trkpt><trkpt lat="44.7613783" lon="9.0078633"><ele>475.20000000000005</ele><time>2026-04-08T14:23:52.028Z</time></trkpt><trkpt lat="44.7615767" lon="9.0078067"><ele>481.0</ele><time>2026-04-08T14:24:25.028Z</time></trkpt><trkpt lat="44.76165" lon="9.0077867"><ele>481.00000000000006</ele><time>2026-04-08T14:24:29.028Z</time></trkpt><trkpt lat="44.7617333" lon="9.0077667"><ele>481.0</ele><time>2026-04-08T14:24:33.028Z</time></trkpt><trkpt lat="44.7618383" lon="9.00772"><ele>481.0</ele><time>2026-04-08T14:24:58.028Z</time></trkpt><trkpt lat="44.76192" lon="9.0077167"><ele>481.0</ele><time>2026-04-08T14:25:01.029Z</time></trkpt><trkpt lat="44.761985" lon="9.007725"><ele>481.00000000000006</ele><time>2026-04-08T14:25:24.029Z</time></trkpt><trkpt lat="44.7620517" lon="9.007755"><ele>481.0</ele><time>2026-04-08T14:25:27.029Z</time></trkpt><trkpt lat="44.7621383" lon="9.0077717"><ele>483.00000000000006</ele><time>2026-04-08T14:25:30.028Z</time></trkpt><trkpt lat="44.7622033" lon="9.0077833"><ele>485.0</ele><time>2026-04-08T14:25:32.029Z</time></trkpt><trkpt lat="44.7622883" lon="9.00783"><ele>487.0</ele><time>2026-04-08T14:25:35.028Z</time></trkpt><trkpt lat="44.7623667" lon="9.0078933"><ele>489.0</ele><time>2026-04-08T14:25:38.029Z</time></trkpt><trkpt lat="44.762445" lon="9.0079233"><ele>491.00000000000006</ele><time>2026-04-08T14:25:40.028Z</time></trkpt><trkpt lat="44.762535" lon="9.007935"><ele>493.0</ele><time>2026-04-08T14:25:42.029Z</time></trkpt><trkpt lat="44.76262" lon="9.0079383"><ele>490.59999999999997</ele><time>2026-04-08T14:25:44.028Z</time></trkpt><trkpt lat="44.7627117" lon="9.0079417"><ele>488.19999999999993</ele><time>2026-04-08T14:25:46.029Z</time></trkpt><trkpt lat="44.762805" lon="9.0079517"><ele>485.8</ele><time>2026-04-08T14:25:48.028Z</time></trkpt><trkpt lat="44.76289" lon="9.007935"><ele>483.4</ele><time>2026-04-08T14:25:50.028Z</time></trkpt><trkpt lat="44.7629867" lon="9.0079783"><ele>481.0</ele><time>2026-04-08T14:26:56.028Z</time></trkpt><trkpt lat="44.7630667" lon="9.0080267"><ele>481.00000000000006</ele><time>2026-04-08T14:29:11.028Z</time></trkpt><trkpt lat="44.7631417" lon="9.0080583"><ele>481.0</ele><time>2026-04-08T14:29:14.027Z</time></trkpt><trkpt lat="44.7632167" lon="9.008055"><ele>481.0</ele><time>2026-04-08T14:29:17.027Z</time></trkpt><trkpt lat="44.76331" lon="9.00806"><ele>481.0</ele><time>2026-04-08T14:29:20.027Z</time></trkpt><trkpt lat="44.763395" lon="9.008085"><ele>481.00000000000006</ele><time>2026-04-08T14:29:23.027Z</time></trkpt><trkpt lat="44.7634567" lon="9.0081267"><ele>481.0</ele><time>2026-04-08T14:29:26.027Z</time></trkpt><trkpt lat="44.76354" lon="9.0081867"><ele>480.33333333333337</ele><time>2026-04-08T14:29:29.028Z</time></trkpt><trkpt lat="44.7636067" lon="9.0082317"><ele>479.6666666666667</ele><time>2026-04-08T14:29:31.028Z</time></trkpt><trkpt lat="44.7636717" lon="9.0082583"><ele>479.0</ele><time>2026-04-08T14:29:33.027Z</time></trkpt><trkpt lat="44.7637533" lon="9.0082867"><ele>478.33333333333337</ele><time>2026-04-08T14:29:36.027Z</time></trkpt><trkpt lat="44.7638683" lon="9.00832"><ele>477.6666666666667</ele><time>2026-04-08T14:30:20.026Z</time></trkpt><trkpt lat="44.7639333" lon="9.0083283"><ele>477.0</ele><time>2026-04-08T14:30:22.026Z</time></trkpt><trkpt lat="44.7640117" lon="9.0083"><ele>475.1666666666667</ele><time>2026-04-08T14:30:25.026Z</time></trkpt><trkpt lat="44.7641033" lon="9.0082783"><ele>473.33333333333337</ele><time>2026-04-08T14:30:28.026Z</time></trkpt><trkpt lat="44.7641783" lon="9.00826"><ele>471.5</ele><time>2026-04-08T14:30:30.026Z</time></trkpt><trkpt lat="44.764255" lon="9.00823"><ele>469.6666666666667</ele><time>2026-04-08T14:30:32.026Z</time></trkpt><trkpt lat="44.7643267" lon="9.0082033"><ele>467.83333333333337</ele><time>2026-04-08T14:30:34.026Z</time></trkpt><trkpt lat="44.7644133" lon="9.008175"><ele>466.0</ele><time>2026-04-08T14:30:36.026Z</time></trkpt><trkpt lat="44.7644983" lon="9.0081417"><ele>464.33333333333337</ele><time>2026-04-08T14:30:38.026Z</time></trkpt><trkpt lat="44.7645767" lon="9.00812"><ele>462.6666666666667</ele><time>2026-04-08T14:30:40.026Z</time></trkpt><trkpt lat="44.7646533" lon="9.00809"><ele>461.0</ele><time>2026-04-08T14:30:43.026Z</time></trkpt><trkpt lat="44.764715" lon="9.0080717"><ele>459.33333333333337</ele><time>2026-04-08T14:30:45.026Z</time></trkpt><trkpt lat="44.76479" lon="9.00808"><ele>457.6666666666667</ele><time>2026-04-08T14:30:47.026Z</time></trkpt><trkpt lat="44.7648683" lon="9.008115"><ele>456.0</ele><time>2026-04-08T14:30:49.027Z</time></trkpt><trkpt lat="44.7649483" lon="9.0081717"><ele>456.0</ele><time>2026-04-08T14:30:51.027Z</time></trkpt><trkpt lat="44.7650083" lon="9.008225"><ele>455.99999999999994</ele><time>2026-04-08T14:30:53.026Z</time></trkpt><trkpt lat="44.7650667" lon="9.0082783"><ele>456.0</ele><time>2026-04-08T14:30:55.026Z</time></trkpt><trkpt lat="44.76512" lon="9.0083467"><ele>456.0</ele><time>2026-04-08T14:30:57.026Z</time></trkpt><trkpt lat="44.76519" lon="9.0083967"><ele>455.99999999999994</ele><time>2026-04-08T14:31:00.026Z</time></trkpt><trkpt lat="44.7652583" lon="9.0084117"><ele>456.0</ele><time>2026-04-08T14:31:03.026Z</time></trkpt><trkpt lat="44.765325" lon="9.0084333"><ele>456.0</ele><time>2026-04-08T14:31:05.026Z</time></trkpt><trkpt lat="44.7653817" lon="9.0084817"><ele>456.8333333333333</ele><time>2026-04-08T14:31:07.026Z</time></trkpt><trkpt lat="44.7654517" lon="9.008535"><ele>457.66666666666663</ele><time>2026-04-08T14:31:09.026Z</time></trkpt><trkpt lat="44.76552" lon="9.0085767"><ele>458.5</ele><time>2026-04-08T14:31:11.027Z</time></trkpt><trkpt lat="44.7656017" lon="9.0086267"><ele>459.3333333333333</ele><time>2026-04-08T14:31:13.027Z</time></trkpt><trkpt lat="44.7656517" lon="9.008685"><ele>460.16666666666663</ele><time>2026-04-08T14:31:15.026Z</time></trkpt><trkpt lat="44.7657217" lon="9.0087667"><ele>461.0</ele><time>2026-04-08T14:31:17.026Z</time></trkpt><trkpt lat="44.7658033" lon="9.0088533"><ele>460.99999999999994</ele><time>2026-04-08T14:31:19.027Z</time></trkpt><trkpt lat="44.7658767" lon="9.0089417"><ele>461.0</ele><time>2026-04-08T14:31:21.026Z</time></trkpt><trkpt lat="44.765945" lon="9.0090233"><ele>461.0</ele><time>2026-04-08T14:31:29.026Z</time></trkpt><trkpt lat="44.76601" lon="9.0091033"><ele>461.0</ele><time>2026-04-08T14:31:31.027Z</time></trkpt><trkpt lat="44.7660683" lon="9.00918"><ele>460.99999999999994</ele><time>2026-04-08T14:31:33.027Z</time></trkpt><trkpt lat="44.7661217" lon="9.0092633"><ele>461.0</ele><time>2026-04-08T14:31:35.026Z</time></trkpt><trkpt lat="44.7661517" lon="9.0093517"><ele>460.3333333333333</ele><time>2026-04-08T14:31:37.026Z</time></trkpt><trkpt lat="44.7662083" lon="9.0094467"><ele>459.66666666666663</ele><time>2026-04-08T14:31:40.027Z</time></trkpt><trkpt lat="44.7662833" lon="9.0095233"><ele>459.0</ele><time>2026-04-08T14:31:43.026Z</time></trkpt><trkpt lat="44.766355" lon="9.0095617"><ele>458.33333333333337</ele><time>2026-04-08T14:31:45.027Z</time></trkpt><trkpt lat="44.766425" lon="9.009595"><ele>457.6666666666667</ele><time>2026-04-08T14:31:47.027Z</time></trkpt><trkpt lat="44.7665167" lon="9.0096217"><ele>457.0</ele><time>2026-04-08T14:31:49.027Z</time></trkpt><trkpt lat="44.7666" lon="9.009665"><ele>457.00000000000006</ele><time>2026-04-08T14:31:51.026Z</time></trkpt><trkpt lat="44.7667083" lon="9.00971"><ele>457.0</ele><time>2026-04-08T14:32:13.027Z</time></trkpt><trkpt lat="44.7667983" lon="9.0097233"><ele>457.0</ele><time>2026-04-08T14:32:16.027Z</time></trkpt><trkpt lat="44.7668633" lon="9.0097283"><ele>457.0</ele><time>2026-04-08T14:32:18.026Z</time></trkpt><trkpt lat="44.7669433" lon="9.0097133"><ele>457.00000000000006</ele><time>2026-04-08T14:32:20.026Z</time></trkpt><trkpt lat="44.7670333" lon="9.009695"><ele>457.0</ele><time>2026-04-08T14:32:22.027Z</time></trkpt><trkpt lat="44.76712" lon="9.0096633"><ele>455.50000000000006</ele><time>2026-04-08T14:32:24.027Z</time></trkpt><trkpt lat="44.7671883" lon="9.0096517"><ele>454.0</ele><time>2026-04-08T14:32:26.026Z</time></trkpt><trkpt lat="44.7672933" lon="9.0096367"><ele>452.5</ele><time>2026-04-08T14:32:36.026Z</time></trkpt><trkpt lat="44.7673717" lon="9.0096567"><ele>451.0</ele><time>2026-04-08T14:32:39.027Z</time></trkpt><trkpt lat="44.76744" lon="9.0096933"><ele>449.50000000000006</ele><time>2026-04-08T14:32:42.027Z</time></trkpt><trkpt lat="44.76751" lon="9.0097233"><ele>448.0</ele><time>2026-04-08T14:32:46.027Z</time></trkpt><trkpt lat="44.76759" lon="9.0097467"><ele>448.00000000000006</ele><time>2026-04-08T14:32:49.026Z</time></trkpt><trkpt lat="44.7676667" lon="9.0097917"><ele>448.0</ele><time>2026-04-08T14:32:52.026Z</time></trkpt><trkpt lat="44.7677267" lon="9.0098333"><ele>448.0</ele><time>2026-04-08T14:32:54.025Z</time></trkpt><trkpt lat="44.76785" lon="9.00992"><ele>448.0</ele><time>2026-04-08T14:33:05.026Z</time></trkpt><trkpt lat="44.7679167" lon="9.0099733"><ele>448.00000000000006</ele><time>2026-04-08T14:33:08.025Z</time></trkpt><trkpt lat="44.7678567" lon="9.0099267"><ele>448.0</ele><time>2026-04-08T14:35:49.025Z</time></trkpt><trkpt lat="44.7677633" lon="9.0098533"><ele>448.00000000000006</ele><time>2026-04-08T14:36:04.025Z</time></trkpt><trkpt lat="44.7676883" lon="9.009795"><ele>448.0</ele><time>2026-04-08T14:36:07.025Z</time></trkpt><trkpt lat="44.7676117" lon="9.0097517"><ele>448.0</ele><time>2026-04-08T14:36:10.024Z</time></trkpt><trkpt lat="44.767545" lon="9.009745"><ele>448.0</ele><time>2026-04-08T14:36:12.025Z</time></trkpt><trkpt lat="44.7674767" lon="9.0097217"><ele>448.00000000000006</ele><time>2026-04-08T14:36:14.025Z</time></trkpt><trkpt lat="44.7673933" lon="9.009665"><ele>448.0</ele><time>2026-04-08T14:36:17.024Z</time></trkpt><trkpt lat="44.767325" lon="9.0096583"><ele>448.00000000000006</ele><time>2026-04-08T14:36:19.025Z</time></trkpt><trkpt lat="44.7672517" lon="9.0096717"><ele>448.0</ele><time>2026-04-08T14:36:23.024Z</time></trkpt><trkpt lat="44.7671817" lon="9.00969"><ele>448.0</ele><time>2026-04-08T14:36:26.024Z</time></trkpt><trkpt lat="44.7671167" lon="9.0096967"><ele>448.0</ele><time>2026-04-08T14:36:28.024Z</time></trkpt><trkpt lat="44.7670417" lon="9.0097267"><ele>448.00000000000006</ele><time>2026-04-08T14:36:30.024Z</time></trkpt><trkpt lat="44.7669417" lon="9.009745"><ele>448.0</ele><time>2026-04-08T14:36:32.024Z</time></trkpt><trkpt lat="44.7668533" lon="9.009745"><ele>449.50000000000006</ele><time>2026-04-08T14:36:34.024Z</time></trkpt><trkpt lat="44.7667617" lon="9.0097317"><ele>451.0</ele><time>2026-04-08T14:36:36.024Z</time></trkpt><trkpt lat="44.7666617" lon="9.0096917"><ele>452.5</ele><time>2026-04-08T14:36:50.024Z</time></trkpt><trkpt lat="44.7665883" lon="9.0096717"><ele>454.0</ele><time>2026-04-08T14:36:52.025Z</time></trkpt><trkpt lat="44.7665067" lon="9.0096483"><ele>455.50000000000006</ele><time>2026-04-08T14:36:54.024Z</time></trkpt><trkpt lat="44.766425" lon="9.0096167"><ele>457.0</ele><time>2026-04-08T14:36:56.025Z</time></trkpt><trkpt lat="44.7663333" lon="9.00956"><ele>457.00000000000006</ele><time>2026-04-08T14:36:58.025Z</time></trkpt><trkpt lat="44.76626" lon="9.00949"><ele>457.0</ele><time>2026-04-08T14:37:00.024Z</time></trkpt><trkpt lat="44.7662017" lon="9.009395"><ele>457.0</ele><time>2026-04-08T14:37:02.024Z</time></trkpt><trkpt lat="44.7661533" lon="9.0092783"><ele>457.0</ele><time>2026-04-08T14:37:05.025Z</time></trkpt><trkpt lat="44.7660967" lon="9.00921"><ele>457.00000000000006</ele><time>2026-04-08T14:37:07.024Z</time></trkpt><trkpt lat="44.7660233" lon="9.0091333"><ele>457.0</ele><time>2026-04-08T14:37:11.024Z</time></trkpt><trkpt lat="44.76596" lon="9.0090583"><ele>457.6666666666667</ele><time>2026-04-08T14:37:13.024Z</time></trkpt><trkpt lat="44.7658917" lon="9.0089733"><ele>458.33333333333337</ele><time>2026-04-08T14:37:16.025Z</time></trkpt><trkpt lat="44.7658367" lon="9.0089133"><ele>459.0</ele><time>2026-04-08T14:37:18.025Z</time></trkpt><trkpt lat="44.7657717" lon="9.008845"><ele>459.66666666666663</ele><time>2026-04-08T14:37:20.024Z</time></trkpt><trkpt lat="44.7657117" lon="9.0087717"><ele>460.3333333333333</ele><time>2026-04-08T14:37:22.025Z</time></trkpt><trkpt lat="44.76565" lon="9.0087133"><ele>461.0</ele><time>2026-04-08T14:37:24.024Z</time></trkpt><trkpt lat="44.765585" lon="9.0086767"><ele>460.99999999999994</ele><time>2026-04-08T14:37:26.024Z</time></trkpt><trkpt lat="44.7655217" lon="9.0086233"><ele>461.0</ele><time>2026-04-08T14:37:28.025Z</time></trkpt><trkpt lat="44.76546" lon="9.00856"><ele>461.0</ele><time>2026-04-08T14:37:30.025Z</time></trkpt><trkpt lat="44.7653883" lon="9.0085033"><ele>461.0</ele><time>2026-04-08T14:37:32.025Z</time></trkpt><trkpt lat="44.7653333" lon="9.00846"><ele>460.99999999999994</ele><time>2026-04-08T14:37:34.025Z</time></trkpt><trkpt lat="44.76526" lon="9.008445"><ele>461.0</ele><time>2026-04-08T14:37:36.024Z</time></trkpt><trkpt lat="44.76518" lon="9.008395"><ele>460.0</ele><time>2026-04-08T14:37:38.024Z</time></trkpt><trkpt lat="44.76511" lon="9.0083067"><ele>459.0</ele><time>2026-04-08T14:37:40.024Z</time></trkpt><trkpt lat="44.7650367" lon="9.008235"><ele>458.0</ele><time>2026-04-08T14:37:42.024Z</time></trkpt><trkpt lat="44.7649567" lon="9.0081717"><ele>457.0</ele><time>2026-04-08T14:37:44.024Z</time></trkpt><trkpt lat="44.7648783" lon="9.008125"><ele>456.0</ele><time>2026-04-08T14:37:46.025Z</time></trkpt><trkpt lat="44.764785" lon="9.0080983"><ele>456.0</ele><time>2026-04-08T14:37:48.024Z</time></trkpt><trkpt lat="44.7646917" lon="9.0081083"><ele>456.0</ele><time>2026-04-08T14:37:50.024Z</time></trkpt><trkpt lat="44.7646083" lon="9.0081383"><ele>456.0</ele><time>2026-04-08T14:37:52.024Z</time></trkpt><trkpt lat="44.764505" lon="9.0081817"><ele>456.0</ele><time>2026-04-08T14:37:54.024Z</time></trkpt><trkpt lat="44.7643933" lon="9.008225"><ele>456.0</ele><time>2026-04-08T14:37:56.024Z</time></trkpt><trkpt lat="44.7642817" lon="9.0082467"><ele>457.6666666666667</ele><time>2026-04-08T14:37:58.024Z</time></trkpt><trkpt lat="44.7641783" lon="9.008265"><ele>459.33333333333337</ele><time>2026-04-08T14:38:00.024Z</time></trkpt><trkpt lat="44.7640867" lon="9.0082817"><ele>461.0</ele><time>2026-04-08T14:38:02.025Z</time></trkpt><trkpt lat="44.764025" lon="9.0083033"><ele>462.6666666666667</ele><time>2026-04-08T14:38:04.025Z</time></trkpt><trkpt lat="44.7639467" lon="9.0083083"><ele>464.33333333333337</ele><time>2026-04-08T14:38:06.025Z</time></trkpt><trkpt lat="44.7638433" lon="9.0082933"><ele>466.0</ele><time>2026-04-08T14:38:08.024Z</time></trkpt><trkpt lat="44.7637333" lon="9.0082783"><ele>466.0</ele><time>2026-04-08T14:38:10.025Z</time></trkpt><trkpt lat="44.763625" lon="9.0082367"><ele>466.0</ele><time>2026-04-08T14:38:12.024Z</time></trkpt><trkpt lat="44.7635467" lon="9.00818"><ele>466.0</ele><time>2026-04-08T14:38:14.024Z</time></trkpt><trkpt lat="44.76348" lon="9.0081383"><ele>466.0</ele><time>2026-04-08T14:38:16.024Z</time></trkpt><trkpt lat="44.763395" lon="9.0081033"><ele>466.0</ele><time>2026-04-08T14:38:18.024Z</time></trkpt><trkpt lat="44.763295" lon="9.0080833"><ele>469.0</ele><time>2026-04-08T14:38:20.024Z</time></trkpt><trkpt lat="44.763195" lon="9.0080717"><ele>472.0</ele><time>2026-04-08T14:38:22.024Z</time></trkpt><trkpt lat="44.7630833" lon="9.008045"><ele>475.0</ele><time>2026-04-08T14:38:24.024Z</time></trkpt><trkpt lat="44.763015" lon="9.0080033"><ele>478.0</ele><time>2026-04-08T14:38:26.025Z</time></trkpt><trkpt lat="44.76297" lon="9.00792"><ele>481.0</ele><time>2026-04-08T14:38:29.025Z</time></trkpt><trkpt lat="44.762885" lon="9.0078833"><ele>481.00000000000006</ele><time>2026-04-08T14:41:29.024Z</time></trkpt><trkpt lat="44.7628117" lon="9.0078333"><ele>481.0</ele><time>2026-04-08T14:41:31.023Z</time></trkpt><trkpt lat="44.7627467" lon="9.00778"><ele>481.0</ele><time>2026-04-08T14:41:33.024Z</time></trkpt><trkpt lat="44.7626867" lon="9.007725"><ele>481.0</ele><time>2026-04-08T14:41:35.024Z</time></trkpt><trkpt lat="44.762635" lon="9.0076317"><ele>481.00000000000006</ele><time>2026-04-08T14:41:37.023Z</time></trkpt><trkpt lat="44.7625983" lon="9.0075367"><ele>481.0</ele><time>2026-04-08T14:41:39.023Z</time></trkpt><trkpt lat="44.76256" lon="9.0074467"><ele>483.50000000000006</ele><time>2026-04-08T14:41:42.024Z</time></trkpt><trkpt lat="44.7625367" lon="9.0073317"><ele>486.0</ele><time>2026-04-08T14:41:45.023Z</time></trkpt><trkpt lat="44.7625083" lon="9.0072267"><ele>488.5</ele><time>2026-04-08T14:41:48.024Z</time></trkpt><trkpt lat="44.7624917" lon="9.0071367"><ele>491.0</ele><time>2026-04-08T14:41:50.023Z</time></trkpt><trkpt lat="44.7624833" lon="9.0070333"><ele>493.50000000000006</ele><time>2026-04-08T14:41:52.024Z</time></trkpt><trkpt lat="44.7624833" lon="9.0069267"><ele>496.0</ele><time>2026-04-08T14:41:54.024Z</time></trkpt><trkpt lat="44.76248" lon="9.0068267"><ele>496.0</ele><time>2026-04-08T14:41:56.023Z</time></trkpt><trkpt lat="44.7624783" lon="9.0067367"><ele>496.00000000000006</ele><time>2026-04-08T14:41:58.023Z</time></trkpt><trkpt lat="44.7624867" lon="9.0066383"><ele>496.0</ele><time>2026-04-08T14:42:00.024Z</time></trkpt><trkpt lat="44.7624967" lon="9.0065267"><ele>496.0</ele><time>2026-04-08T14:42:02.024Z</time></trkpt><trkpt lat="44.7625133" lon="9.006405"><ele>496.00000000000006</ele><time>2026-04-08T14:42:04.023Z</time></trkpt><trkpt lat="44.7625333" lon="9.0063183"><ele>496.0</ele><time>2026-04-08T14:42:06.023Z</time></trkpt><trkpt lat="44.7625683" lon="9.0062317"><ele>496.0</ele><time>2026-04-08T14:42:08.024Z</time></trkpt><trkpt lat="44.7626017" lon="9.0061533"><ele>496.1666666666667</ele><time>2026-04-08T14:42:10.024Z</time></trkpt><trkpt lat="44.76262" lon="9.0060617"><ele>496.33333333333337</ele><time>2026-04-08T14:42:12.023Z</time></trkpt><trkpt lat="44.7626183" lon="9.005965"><ele>496.5</ele><time>2026-04-08T14:42:14.023Z</time></trkpt><trkpt lat="44.7626" lon="9.00587"><ele>496.66666666666663</ele><time>2026-04-08T14:42:16.024Z</time></trkpt><trkpt lat="44.762575" lon="9.0057467"><ele>496.8333333333333</ele><time>2026-04-08T14:42:19.023Z</time></trkpt><trkpt lat="44.76256" lon="9.0056467"><ele>497.0</ele><time>2026-04-08T14:42:21.024Z</time></trkpt><trkpt lat="44.7625467" lon="9.00553"><ele>496.8</ele><time>2026-04-08T14:42:23.023Z</time></trkpt><trkpt lat="44.76253" lon="9.00541"><ele>496.6</ele><time>2026-04-08T14:42:25.023Z</time></trkpt><trkpt lat="44.76252" lon="9.0052583"><ele>496.40000000000003</ele><time>2026-04-08T14:42:27.023Z</time></trkpt><trkpt lat="44.7625067" lon="9.0051067"><ele>496.20000000000005</ele><time>2026-04-08T14:42:29.024Z</time></trkpt><trkpt lat="44.7624833" lon="9.0049833"><ele>496.0</ele><time>2026-04-08T14:42:31.023Z</time></trkpt><trkpt lat="44.7624883" lon="9.0048533"><ele>496.0</ele><time>2026-04-08T14:42:33.023Z</time></trkpt><trkpt lat="44.7625117" lon="9.004705"><ele>496.0</ele><time>2026-04-08T14:42:35.022Z</time></trkpt><trkpt lat="44.76251" lon="9.0045217"><ele>496.0</ele><time>2026-04-08T14:42:37.022Z</time></trkpt><trkpt lat="44.762515" lon="9.0044283"><ele>496.0</ele><time>2026-04-08T14:42:38.023Z</time></trkpt><trkpt lat="44.76252" lon="9.00429"><ele>496.0</ele><time>2026-04-08T14:42:40.022Z</time></trkpt><trkpt lat="44.7625783" lon="9.004165"><ele>494.20000000000005</ele><time>2026-04-08T14:42:49.022Z</time></trkpt><trkpt lat="44.7626367" lon="9.0040767"><ele>492.40000000000003</ele><time>2026-04-08T14:42:51.022Z</time></trkpt><trkpt lat="44.7627067" lon="9.00394"><ele>490.6</ele><time>2026-04-08T14:42:53.023Z</time></trkpt><trkpt lat="44.7627617" lon="9.0037783"><ele>488.8</ele><time>2026-04-08T14:42:55.022Z</time></trkpt><trkpt lat="44.762795" lon="9.0036367"><ele>487.0</ele><time>2026-04-08T14:42:57.022Z</time></trkpt><trkpt lat="44.7628017" lon="9.0034883"><ele>490.25</ele><time>2026-04-08T14:42:59.022Z</time></trkpt><trkpt lat="44.762795" lon="9.0033233"><ele>493.5</ele><time>2026-04-08T14:43:01.023Z</time></trkpt><trkpt lat="44.7627867" lon="9.003155"><ele>496.75</ele><time>2026-04-08T14:43:03.022Z</time></trkpt><trkpt lat="44.7628" lon="9.002995"><ele>500.0</ele><time>2026-04-08T14:43:05.022Z</time></trkpt><trkpt lat="44.7628367" lon="9.00282"><ele>500.0</ele><time>2026-04-08T14:43:07.022Z</time></trkpt><trkpt lat="44.76287" lon="9.0027433"><ele>500.0</ele><time>2026-04-08T14:43:08.023Z</time></trkpt><trkpt lat="44.7629083" lon="9.0026667"><ele>500.0</ele><time>2026-04-08T14:43:09.022Z</time></trkpt><trkpt lat="44.7629467" lon="9.0025783"><ele>500.0</ele><time>2026-04-08T14:43:10.023Z</time></trkpt><trkpt lat="44.7629817" lon="9.002495"><ele>500.0</ele><time>2026-04-08T14:43:11.022Z</time></trkpt><trkpt lat="44.76303" lon="9.0024067"><ele>500.0</ele><time>2026-04-08T14:43:12.022Z</time></trkpt><trkpt lat="44.7630867" lon="9.0023383"><ele>500.0</ele><time>2026-04-08T14:43:13.022Z</time></trkpt><trkpt lat="44.7631717" lon="9.002225"><ele>502.4</ele><time>2026-04-08T14:43:15.022Z</time></trkpt><trkpt lat="44.7632033" lon="9.002135"><ele>504.8</ele><time>2026-04-08T14:43:17.023Z</time></trkpt><trkpt lat="44.7632" lon="9.00203"><ele>507.20000000000005</ele><time>2026-04-08T14:43:19.022Z</time></trkpt><trkpt lat="44.7631533" lon="9.0018933"><ele>509.6</ele><time>2026-04-08T14:43:21.022Z</time></trkpt><trkpt lat="44.76309" lon="9.00175"><ele>512.0</ele><time>2026-04-08T14:43:23.022Z</time></trkpt><trkpt lat="44.7630817" lon="9.0016"><ele>512.25</ele><time>2026-04-08T14:43:25.022Z</time></trkpt><trkpt lat="44.7631383" lon="9.00144"><ele>512.5</ele><time>2026-04-08T14:43:27.023Z</time></trkpt><trkpt lat="44.7632233" lon="9.0013267"><ele>512.75</ele><time>2026-04-08T14:43:29.022Z</time></trkpt><trkpt lat="44.76332" lon="9.00124"><ele>513.0</ele><time>2026-04-08T14:43:31.022Z</time></trkpt><trkpt lat="44.7633917" lon="9.0011017"><ele>513.0000000000001</ele><time>2026-04-08T14:43:33.023Z</time></trkpt><trkpt lat="44.76343" lon="9.0010233"><ele>513.0</ele><time>2026-04-08T14:43:34.023Z</time></trkpt><trkpt lat="44.7634683" lon="9.0009517"><ele>513.0</ele><time>2026-04-08T14:43:35.023Z</time></trkpt><trkpt lat="44.7635133" lon="9.0008767"><ele>513.0</ele><time>2026-04-08T14:43:36.023Z</time></trkpt><trkpt lat="44.76356" lon="9.0008033"><ele>513.0</ele><time>2026-04-08T14:43:37.023Z</time></trkpt><trkpt lat="44.7636167" lon="9.0007317"><ele>513.0000000000001</ele><time>2026-04-08T14:43:38.022Z</time></trkpt><trkpt lat="44.76368" lon="9.0006633"><ele>513.0</ele><time>2026-04-08T14:43:39.023Z</time></trkpt><trkpt lat="44.7637433" lon="9.000585"><ele>514.0</ele><time>2026-04-08T14:43:40.022Z</time></trkpt><trkpt lat="44.7638117" lon="9.0005167"><ele>515.0</ele><time>2026-04-08T14:43:41.023Z</time></trkpt><trkpt lat="44.763875" lon="9.000465"><ele>516.0</ele><time>2026-04-08T14:43:42.022Z</time></trkpt><trkpt lat="44.7639517" lon="9.00038"><ele>517.0</ele><time>2026-04-08T14:43:44.022Z</time></trkpt><trkpt lat="44.7640217" lon="9.0003567"><ele>518.0</ele><time>2026-04-08T14:44:02.023Z</time></trkpt><trkpt lat="44.7640917" lon="9.0003717"><ele>519.0</ele><time>2026-04-08T14:44:05.023Z</time></trkpt><trkpt lat="44.764175" lon="9.00036"><ele>519.0</ele><time>2026-04-08T14:44:07.023Z</time></trkpt><trkpt lat="44.76428" lon="9.0003217"><ele>519.0</ele><time>2026-04-08T14:44:09.022Z</time></trkpt><trkpt lat="44.7643683" lon="9.0002683"><ele>519.0</ele><time>2026-04-08T14:44:11.023Z</time></trkpt><trkpt lat="44.7644517" lon="9.0002217"><ele>519.0</ele><time>2026-04-08T14:44:13.022Z</time></trkpt><trkpt lat="44.7645283" lon="9.000185"><ele>519.0</ele><time>2026-04-08T14:44:15.023Z</time></trkpt><trkpt lat="44.764595" lon="9.0001467"><ele>519.0</ele><time>2026-04-08T14:44:18.023Z</time></trkpt><trkpt lat="44.764545" lon="9.0002467"><ele>519.0</ele><time>2026-04-08T14:44:53.022Z</time></trkpt><trkpt lat="44.7644567" lon="9.0002817"><ele>519.0</ele><time>2026-04-08T14:44:55.023Z</time></trkpt><trkpt lat="44.76436" lon="9.0003367"><ele>519.0</ele><time>2026-04-08T14:44:57.023Z</time></trkpt><trkpt lat="44.76425" lon="9.000375"><ele>519.0</ele><time>2026-04-08T14:44:59.023Z</time></trkpt><trkpt lat="44.7641267" lon="9.0003817"><ele>519.0</ele><time>2026-04-08T14:45:01.022Z</time></trkpt><trkpt lat="44.7640483" lon="9.0003567"><ele>519.0</ele><time>2026-04-08T14:45:03.022Z</time></trkpt><trkpt lat="44.76405" lon="9.000245"><ele>519.0</ele><time>2026-04-08T14:45:07.022Z</time></trkpt><trkpt lat="44.7641383" lon="9.0001583"><ele>519.0</ele><time>2026-04-08T14:45:09.022Z</time></trkpt><trkpt lat="44.7642" lon="9.000125"><ele>519.0</ele><time>2026-04-08T14:45:10.022Z</time></trkpt><trkpt lat="44.7642833" lon="9.00003"><ele>519.0</ele><time>2026-04-08T14:45:12.022Z</time></trkpt><trkpt lat="44.76432" lon="8.9999283"><ele>519.0</ele><time>2026-04-08T14:45:14.022Z</time></trkpt><trkpt lat="44.76433" lon="8.9998067"><ele>519.0</ele><time>2026-04-08T14:45:16.022Z</time></trkpt><trkpt lat="44.7643283" lon="8.999665"><ele>519.0</ele><time>2026-04-08T14:45:18.022Z</time></trkpt><trkpt lat="44.7643633" lon="8.99953"><ele>519.0</ele><time>2026-04-08T14:45:20.023Z</time></trkpt><trkpt lat="44.7643983" lon="8.9994483"><ele>519.0</ele><time>2026-04-08T14:45:21.023Z</time></trkpt><trkpt lat="44.7644333" lon="8.99936"><ele>519.0</ele><time>2026-04-08T14:45:22.022Z</time></trkpt><trkpt lat="44.7644767" lon="8.99927"><ele>519.0</ele><time>2026-04-08T14:45:23.023Z</time></trkpt><trkpt lat="44.7645167" lon="8.999165"><ele>520.0</ele><time>2026-04-08T14:45:24.022Z</time></trkpt><trkpt lat="44.764555" lon="8.9990467"><ele>521.0</ele><time>2026-04-08T14:45:25.023Z</time></trkpt><trkpt lat="44.7645967" lon="8.9989383"><ele>522.0</ele><time>2026-04-08T14:45:26.023Z</time></trkpt><trkpt lat="44.76464" lon="8.9988333"><ele>523.0</ele><time>2026-04-08T14:45:27.023Z</time></trkpt><trkpt lat="44.764675" lon="8.998735"><ele>524.0</ele><time>2026-04-08T14:45:28.023Z</time></trkpt><trkpt lat="44.7647067" lon="8.9986533"><ele>525.0</ele><time>2026-04-08T14:45:29.022Z</time></trkpt><trkpt lat="44.7647667" lon="8.9985367"><ele>525.0</ele><time>2026-04-08T14:45:31.022Z</time></trkpt><trkpt lat="44.7648617" lon="8.9984317"><ele>525.0</ele><time>2026-04-08T14:45:33.022Z</time></trkpt><trkpt lat="44.7649417" lon="8.9983167"><ele>525.0</ele><time>2026-04-08T14:45:35.023Z</time></trkpt><trkpt lat="44.7649983" lon="8.998185"><ele>525.0</ele><time>2026-04-08T14:45:37.022Z</time></trkpt><trkpt lat="44.7650317" lon="8.9980683"><ele>525.0</ele><time>2026-04-08T14:45:39.022Z</time></trkpt><trkpt lat="44.7650583" lon="8.997975"><ele>525.8</ele><time>2026-04-08T14:45:41.023Z</time></trkpt><trkpt lat="44.7651367" lon="8.9978783"><ele>526.6</ele><time>2026-04-08T14:45:44.023Z</time></trkpt><trkpt lat="44.7652017" lon="8.9977717"><ele>527.4</ele><time>2026-04-08T14:45:46.022Z</time></trkpt><trkpt lat="44.7652417" lon="8.9976217"><ele>528.2</ele><time>2026-04-08T14:45:48.023Z</time></trkpt><trkpt lat="44.7652983" lon="8.9975167"><ele>529.0</ele><time>2026-04-08T14:45:50.022Z</time></trkpt><trkpt lat="44.76538" lon="8.9974617"><ele>524.8</ele><time>2026-04-08T14:45:52.023Z</time></trkpt><trkpt lat="44.7654517" lon="8.9974233"><ele>520.5999999999999</ele><time>2026-04-08T14:45:54.023Z</time></trkpt><trkpt lat="44.7655133" lon="8.9973283"><ele>516.4</ele><time>2026-04-08T14:45:56.022Z</time></trkpt><trkpt lat="44.7655933" lon="8.997235"><ele>512.1999999999999</ele><time>2026-04-08T14:45:58.023Z</time></trkpt><trkpt lat="44.765695" lon="8.9971467"><ele>508.0</ele><time>2026-04-08T14:46:00.022Z</time></trkpt><trkpt lat="44.76581" lon="8.997075"><ele>508.00000000000006</ele><time>2026-04-08T14:46:02.022Z</time></trkpt><trkpt lat="44.76587" lon="8.99704"><ele>508.0</ele><time>2026-04-08T14:46:03.022Z</time></trkpt><trkpt lat="44.7659283" lon="8.9969933"><ele>508.0</ele><time>2026-04-08T14:46:04.022Z</time></trkpt><trkpt lat="44.765985" lon="8.9969383"><ele>508.0</ele><time>2026-04-08T14:46:05.022Z</time></trkpt><trkpt lat="44.76604" lon="8.9968867"><ele>508.00000000000006</ele><time>2026-04-08T14:46:06.022Z</time></trkpt><trkpt lat="44.7661467" lon="8.996785"><ele>508.0</ele><time>2026-04-08T14:46:08.021Z</time></trkpt><trkpt lat="44.7662083" lon="8.9967333"><ele>507.14285714285717</ele><time>2026-04-08T14:46:09.022Z</time></trkpt><trkpt lat="44.7662667" lon="8.9966833"><ele>506.2857142857142</ele><time>2026-04-08T14:46:10.021Z</time></trkpt><trkpt lat="44.7663167" lon="8.9966283"><ele>505.4285714285714</ele><time>2026-04-08T14:46:11.021Z</time></trkpt><trkpt lat="44.7663683" lon="8.9965633"><ele>504.57142857142856</ele><time>2026-04-08T14:46:12.021Z</time></trkpt><trkpt lat="44.7664283" lon="8.9964983"><ele>503.71428571428567</ele><time>2026-04-08T14:46:13.022Z</time></trkpt><trkpt lat="44.7664967" lon="8.996435"><ele>502.8571428571428</ele><time>2026-04-08T14:46:14.022Z</time></trkpt><trkpt lat="44.7665617" lon="8.996375"><ele>501.99999999999994</ele><time>2026-04-08T14:46:15.022Z</time></trkpt><trkpt lat="44.7666133" lon="8.9963133"><ele>502.0</ele><time>2026-04-08T14:46:16.022Z</time></trkpt><trkpt lat="44.766695" lon="8.99619"><ele>502.00000000000006</ele><time>2026-04-08T14:46:18.021Z</time></trkpt><trkpt lat="44.76673" lon="8.9961083"><ele>502.00000000000006</ele><time>2026-04-08T14:46:19.021Z</time></trkpt><trkpt lat="44.7667667" lon="8.9960117"><ele>502.0</ele><time>2026-04-08T14:46:20.021Z</time></trkpt><trkpt lat="44.7667933" lon="8.9959083"><ele>502.0</ele><time>2026-04-08T14:46:21.022Z</time></trkpt><trkpt lat="44.7668117" lon="8.99575"><ele>502.33333333333337</ele><time>2026-04-08T14:46:23.022Z</time></trkpt><trkpt lat="44.76677" lon="8.99559"><ele>502.6666666666667</ele><time>2026-04-08T14:46:25.022Z</time></trkpt><trkpt lat="44.76673" lon="8.9954867"><ele>503.0</ele><time>2026-04-08T14:46:26.021Z</time></trkpt><trkpt lat="44.7666967" lon="8.99538"><ele>503.33333333333337</ele><time>2026-04-08T14:46:27.021Z</time></trkpt><trkpt lat="44.7666717" lon="8.99527"><ele>503.6666666666667</ele><time>2026-04-08T14:46:28.022Z</time></trkpt><trkpt lat="44.7666533" lon="8.9951783"><ele>504.0</ele><time>2026-04-08T14:46:29.022Z</time></trkpt><trkpt lat="44.766625" lon="8.9950683"><ele>503.0</ele><time>2026-04-08T14:46:31.021Z</time></trkpt><trkpt lat="44.7665983" lon="8.9949517"><ele>502.0</ele><time>2026-04-08T14:46:34.021Z</time></trkpt><trkpt lat="44.766565" lon="8.9947833"><ele>501.0</ele><time>2026-04-08T14:46:55.021Z</time></trkpt><trkpt lat="44.7665417" lon="8.9946667"><ele>500.0</ele><time>2026-04-08T14:46:57.021Z</time></trkpt><trkpt lat="44.7665117" lon="8.9945283"><ele>499.0</ele><time>2026-04-08T14:46:59.021Z</time></trkpt><trkpt lat="44.7664467" lon="8.9943683"><ele>499.00000000000006</ele><time>2026-04-08T14:47:01.021Z</time></trkpt><trkpt lat="44.7664" lon="8.9942867"><ele>499.0</ele><time>2026-04-08T14:47:02.022Z</time></trkpt><trkpt lat="44.7663533" lon="8.9941983"><ele>499.0</ele><time>2026-04-08T14:47:03.021Z</time></trkpt><trkpt lat="44.7663033" lon="8.99411"><ele>499.0</ele><time>2026-04-08T14:47:04.021Z</time></trkpt><trkpt lat="44.7662483" lon="8.9940117"><ele>499.00000000000006</ele><time>2026-04-08T14:47:05.021Z</time></trkpt><trkpt lat="44.76619" lon="8.9939083"><ele>499.0</ele><time>2026-04-08T14:47:06.022Z</time></trkpt><trkpt lat="44.7661333" lon="8.9937983"><ele>499.6666666666667</ele><time>2026-04-08T14:47:07.022Z</time></trkpt><trkpt lat="44.766085" lon="8.9936933"><ele>500.33333333333337</ele><time>2026-04-08T14:47:08.021Z</time></trkpt><trkpt lat="44.7660317" lon="8.993595"><ele>501.0</ele><time>2026-04-08T14:47:09.022Z</time></trkpt><trkpt lat="44.7659783" lon="8.993515"><ele>501.66666666666663</ele><time>2026-04-08T14:47:10.022Z</time></trkpt><trkpt lat="44.76593" lon="8.9934317"><ele>502.3333333333333</ele><time>2026-04-08T14:47:11.021Z</time></trkpt><trkpt lat="44.7658983" lon="8.9933517"><ele>503.0</ele><time>2026-04-08T14:47:12.021Z</time></trkpt><trkpt lat="44.7658783" lon="8.9932567"><ele>503.79999999999995</ele><time>2026-04-08T14:47:13.022Z</time></trkpt><trkpt lat="44.7658983" lon="8.9930817"><ele>504.59999999999997</ele><time>2026-04-08T14:47:15.022Z</time></trkpt><trkpt lat="44.7659333" lon="8.9929883"><ele>505.40000000000003</ele><time>2026-04-08T14:47:16.021Z</time></trkpt><trkpt lat="44.7659767" lon="8.9928933"><ele>506.20000000000005</ele><time>2026-04-08T14:47:17.021Z</time></trkpt><trkpt lat="44.7660083" lon="8.99281"><ele>507.0</ele><time>2026-04-08T14:47:18.021Z</time></trkpt><trkpt lat="44.7660817" lon="8.992665"><ele>507.5</ele><time>2026-04-08T14:47:20.021Z</time></trkpt><trkpt lat="44.7661417" lon="8.992595"><ele>508.0</ele><time>2026-04-08T14:47:21.021Z</time></trkpt><trkpt lat="44.7662083" lon="8.9925283"><ele>508.5</ele><time>2026-04-08T14:47:22.022Z</time></trkpt><trkpt lat="44.7662717" lon="8.992465"><ele>509.0</ele><time>2026-04-08T14:47:23.022Z</time></trkpt><trkpt lat="44.7663383" lon="8.9924017"><ele>509.5</ele><time>2026-04-08T14:47:24.022Z</time></trkpt><trkpt lat="44.766395" lon="8.992325"><ele>510.0</ele><time>2026-04-08T14:47:25.021Z</time></trkpt><trkpt lat="44.7664533" lon="8.992245"><ele>511.3333333333333</ele><time>2026-04-08T14:47:26.021Z</time></trkpt><trkpt lat="44.7665133" lon="8.992165"><ele>512.6666666666666</ele><time>2026-04-08T14:47:27.021Z</time></trkpt><trkpt lat="44.7665617" lon="8.9920783"><ele>514.0</ele><time>2026-04-08T14:47:28.021Z</time></trkpt><trkpt lat="44.7666" lon="8.992"><ele>515.3333333333333</ele><time>2026-04-08T14:47:29.022Z</time></trkpt><trkpt lat="44.7666283" lon="8.9919033"><ele>516.6666666666666</ele><time>2026-04-08T14:47:30.021Z</time></trkpt><trkpt lat="44.7666517" lon="8.9918033"><ele>518.0</ele><time>2026-04-08T14:47:31.022Z</time></trkpt><trkpt lat="44.76668" lon="8.9916983"><ele>516.8333333333333</ele><time>2026-04-08T14:47:32.022Z</time></trkpt><trkpt lat="44.7667133" lon="8.9916017"><ele>515.6666666666666</ele><time>2026-04-08T14:47:33.021Z</time></trkpt><trkpt lat="44.766745" lon="8.99151"><ele>514.5</ele><time>2026-04-08T14:47:34.021Z</time></trkpt><trkpt lat="44.7667817" lon="8.991425"><ele>513.3333333333334</ele><time>2026-04-08T14:47:35.021Z</time></trkpt><trkpt lat="44.7668233" lon="8.9913333"><ele>512.1666666666667</ele><time>2026-04-08T14:47:36.021Z</time></trkpt><trkpt lat="44.766875" lon="8.9912367"><ele>511.0</ele><time>2026-04-08T14:47:37.022Z</time></trkpt><trkpt lat="44.7669167" lon="8.991135"><ele>506.8</ele><time>2026-04-08T14:47:38.021Z</time></trkpt><trkpt lat="44.766955" lon="8.9910167"><ele>502.6</ele><time>2026-04-08T14:47:39.021Z</time></trkpt><trkpt lat="44.7669933" lon="8.9908983"><ele>498.4</ele><time>2026-04-08T14:47:40.022Z</time></trkpt><trkpt lat="44.7670233" lon="8.99078"><ele>494.2</ele><time>2026-04-08T14:47:41.022Z</time></trkpt><trkpt lat="44.7670417" lon="8.9906517"><ele>490.0</ele><time>2026-04-08T14:47:42.022Z</time></trkpt><trkpt lat="44.7670567" lon="8.9905317"><ele>490.00000000000006</ele><time>2026-04-08T14:47:43.021Z</time></trkpt><trkpt lat="44.76707" lon="8.9904033"><ele>490.0</ele><time>2026-04-08T14:47:44.021Z</time></trkpt><trkpt lat="44.7670767" lon="8.99031"><ele>490.0</ele><time>2026-04-08T14:47:45.021Z</time></trkpt><trkpt lat="44.7670883" lon="8.9901683"><ele>490.0</ele><time>2026-04-08T14:47:46.021Z</time></trkpt><trkpt lat="44.7670933" lon="8.9900483"><ele>490.00000000000006</ele><time>2026-04-08T14:47:47.021Z</time></trkpt><trkpt lat="44.7670933" lon="8.989935"><ele>490.0</ele><time>2026-04-08T14:47:48.022Z</time></trkpt><trkpt lat="44.7670817" lon="8.9898283"><ele>490.4</ele><time>2026-04-08T14:47:49.021Z</time></trkpt><trkpt lat="44.767065" lon="8.9897383"><ele>490.8</ele><time>2026-04-08T14:47:50.022Z</time></trkpt><trkpt lat="44.7670483" lon="8.9895633"><ele>491.20000000000005</ele><time>2026-04-08T14:47:52.021Z</time></trkpt><trkpt lat="44.767085" lon="8.989405"><ele>491.6</ele><time>2026-04-08T14:47:54.021Z</time></trkpt><trkpt lat="44.7670867" lon="8.9892817"><ele>492.0</ele><time>2026-04-08T14:47:56.021Z</time></trkpt><trkpt lat="44.7670517" lon="8.9891567"><ele>492.6</ele><time>2026-04-08T14:47:58.021Z</time></trkpt><trkpt lat="44.7670533" lon="8.9889767"><ele>493.20000000000005</ele><time>2026-04-08T14:48:00.021Z</time></trkpt><trkpt lat="44.7670917" lon="8.988845"><ele>493.8</ele><time>2026-04-08T14:48:02.021Z</time></trkpt><trkpt lat="44.767155" lon="8.98878"><ele>494.4</ele><time>2026-04-08T14:48:04.021Z</time></trkpt><trkpt lat="44.767215" lon="8.9886867"><ele>495.0</ele><time>2026-04-08T14:48:06.021Z</time></trkpt><trkpt lat="44.7672617" lon="8.9885533"><ele>495.0</ele><time>2026-04-08T14:48:08.021Z</time></trkpt><trkpt lat="44.7673033" lon="8.9883917"><ele>495.0</ele><time>2026-04-08T14:48:10.022Z</time></trkpt><trkpt lat="44.76732" lon="8.9883033"><ele>495.0</ele><time>2026-04-08T14:48:11.021Z</time></trkpt><trkpt lat="44.7673233" lon="8.988135"><ele>495.0</ele><time>2026-04-08T14:48:13.022Z</time></trkpt><trkpt lat="44.7673333" lon="8.9879783"><ele>495.0</ele><time>2026-04-08T14:48:15.022Z</time></trkpt><trkpt lat="44.767365" lon="8.9878433"><ele>496.2</ele><time>2026-04-08T14:48:17.021Z</time></trkpt><trkpt lat="44.7673917" lon="8.9876933"><ele>497.4</ele><time>2026-04-08T14:48:19.021Z</time></trkpt><trkpt lat="44.7674233" lon="8.9875333"><ele>498.6</ele><time>2026-04-08T14:48:21.021Z</time></trkpt><trkpt lat="44.7674567" lon="8.98737"><ele>499.8</ele><time>2026-04-08T14:48:23.021Z</time></trkpt><trkpt lat="44.767465" lon="8.9872783"><ele>501.0</ele><time>2026-04-08T14:48:24.021Z</time></trkpt><trkpt lat="44.767465" lon="8.987185"><ele>503.0</ele><time>2026-04-08T14:48:25.021Z</time></trkpt><trkpt lat="44.76747" lon="8.987095"><ele>505.0</ele><time>2026-04-08T14:48:26.021Z</time></trkpt><trkpt lat="44.7674333" lon="8.9869383"><ele>507.0</ele><time>2026-04-08T14:48:28.022Z</time></trkpt><trkpt lat="44.7674" lon="8.9868617"><ele>509.0</ele><time>2026-04-08T14:48:29.022Z</time></trkpt><trkpt lat="44.7673683" lon="8.9867733"><ele>511.0</ele><time>2026-04-08T14:48:30.022Z</time></trkpt><trkpt lat="44.76733" lon="8.9866867"><ele>513.0</ele><time>2026-04-08T14:48:31.022Z</time></trkpt><trkpt lat="44.7672867" lon="8.9865967"><ele>513.6666666666666</ele><time>2026-04-08T14:48:32.021Z</time></trkpt><trkpt lat="44.76724" lon="8.9865067"><ele>514.3333333333334</ele><time>2026-04-08T14:48:33.022Z</time></trkpt><trkpt lat="44.7671967" lon="8.9864167"><ele>515.0</ele><time>2026-04-08T14:48:34.021Z</time></trkpt><trkpt lat="44.767155" lon="8.9863367"><ele>515.6666666666667</ele><time>2026-04-08T14:48:35.021Z</time></trkpt><trkpt lat="44.76707" lon="8.986205"><ele>516.3333333333334</ele><time>2026-04-08T14:48:37.021Z</time></trkpt><trkpt lat="44.7670233" lon="8.9861417"><ele>517.0</ele><time>2026-04-08T14:48:38.021Z</time></trkpt><trkpt lat="44.7669683" lon="8.9860817"><ele>517.0</ele><time>2026-04-08T14:48:39.021Z</time></trkpt><trkpt lat="44.766865" lon="8.985995"><ele>517.0</ele><time>2026-04-08T14:48:41.021Z</time></trkpt><trkpt lat="44.7667783" lon="8.9859267"><ele>517.0</ele><time>2026-04-08T14:48:43.021Z</time></trkpt><trkpt lat="44.766715" lon="8.985825"><ele>517.0</ele><time>2026-04-08T14:48:45.021Z</time></trkpt><trkpt lat="44.7666933" lon="8.98569"><ele>517.0</ele><time>2026-04-08T14:48:47.022Z</time></trkpt><trkpt lat="44.76672" lon="8.9855617"><ele>518.8000000000001</ele><time>2026-04-08T14:48:49.022Z</time></trkpt><trkpt lat="44.766755" lon="8.9854433"><ele>520.6</ele><time>2026-04-08T14:48:51.021Z</time></trkpt><trkpt lat="44.7668201" lon="8.9853449"><ele>522.4000000000001</ele><time>2026-04-08T14:48:53.021Z</time></trkpt><trkpt lat="44.7668909" lon="8.9852292"><ele>524.2</ele><time>2026-04-08T14:48:55.021Z</time></trkpt><trkpt lat="44.7669465" lon="8.9851285"><ele>526.0</ele><time>2026-04-08T14:48:57.021Z</time></trkpt><trkpt lat="44.7669967" lon="8.9850233"><ele>529.6</ele><time>2026-04-08T14:48:59.021Z</time></trkpt><trkpt lat="44.76701" lon="8.98489"><ele>533.2</ele><time>2026-04-08T14:49:01.021Z</time></trkpt><trkpt lat="44.7669967" lon="8.9847383"><ele>536.8</ele><time>2026-04-08T14:49:03.022Z</time></trkpt><trkpt lat="44.7669933" lon="8.9845967"><ele>540.4</ele><time>2026-04-08T14:49:05.022Z</time></trkpt><trkpt lat="44.76699" lon="8.98447"><ele>544.0</ele><time>2026-04-08T14:49:07.021Z</time></trkpt><trkpt lat="44.766985" lon="8.9843633"><ele>544.0</ele><time>2026-04-08T14:49:09.022Z</time></trkpt><trkpt lat="44.7669633" lon="8.98425"><ele>544.0</ele><time>2026-04-08T14:49:11.022Z</time></trkpt><trkpt lat="44.76695" lon="8.9841583"><ele>544.0</ele><time>2026-04-08T14:49:13.021Z</time></trkpt><trkpt lat="44.7669583" lon="8.9840683"><ele>544.0</ele><time>2026-04-08T14:49:15.022Z</time></trkpt><trkpt lat="44.767" lon="8.9839683"><ele>544.0</ele><time>2026-04-08T14:49:17.021Z</time></trkpt><trkpt lat="44.7670517" lon="8.9838617"><ele>544.0</ele><time>2026-04-08T14:49:19.022Z</time></trkpt><trkpt lat="44.7671233" lon="8.9837317"><ele>544.6666666666667</ele><time>2026-04-08T14:49:21.022Z</time></trkpt><trkpt lat="44.7671617" lon="8.983655"><ele>545.3333333333334</ele><time>2026-04-08T14:49:22.021Z</time></trkpt><trkpt lat="44.7672033" lon="8.9835667"><ele>546.0</ele><time>2026-04-08T14:49:23.021Z</time></trkpt><trkpt lat="44.7672517" lon="8.9834267"><ele>546.6666666666666</ele><time>2026-04-08T14:49:25.022Z</time></trkpt><trkpt lat="44.76728" lon="8.9833333"><ele>547.3333333333333</ele><time>2026-04-08T14:49:27.021Z</time></trkpt><trkpt lat="44.7673233" lon="8.983225"><ele>548.0</ele><time>2026-04-08T14:50:00.02Z</time></trkpt><trkpt lat="44.7673833" lon="8.983145"><ele>545.4</ele><time>2026-04-08T14:50:02.02Z</time></trkpt><trkpt lat="44.7674917" lon="8.9830717"><ele>542.8</ele><time>2026-04-08T14:50:05.02Z</time></trkpt><trkpt lat="44.7675767" lon="8.9830433"><ele>540.2</ele><time>2026-04-08T14:50:07.02Z</time></trkpt><trkpt lat="44.7676817" lon="8.9829967"><ele>537.6</ele><time>2026-04-08T14:50:09.021Z</time></trkpt><trkpt lat="44.7677967" lon="8.9829417"><ele>535.0</ele><time>2026-04-08T14:50:11.02Z</time></trkpt><trkpt lat="44.7679017" lon="8.98284"><ele>535.0</ele><time>2026-04-08T14:50:13.02Z</time></trkpt><trkpt lat="44.7680067" lon="8.9827183"><ele>535.0</ele><time>2026-04-08T14:50:15.021Z</time></trkpt><trkpt lat="44.7680617" lon="8.9826467"><ele>535.0</ele><time>2026-04-08T14:50:16.021Z</time></trkpt><trkpt lat="44.7681233" lon="8.98258"><ele>535.0</ele><time>2026-04-08T14:50:17.02Z</time></trkpt><trkpt lat="44.76819" lon="8.98253"><ele>535.0</ele><time>2026-04-08T14:50:18.021Z</time></trkpt><trkpt lat="44.768255" lon="8.9824933"><ele>535.0</ele><time>2026-04-08T14:50:19.021Z</time></trkpt><trkpt lat="44.7683183" lon="8.98247"><ele>535.1666666666667</ele><time>2026-04-08T14:50:20.021Z</time></trkpt><trkpt lat="44.76838" lon="8.9824383"><ele>535.3333333333334</ele><time>2026-04-08T14:50:21.021Z</time></trkpt><trkpt lat="44.7684333" lon="8.9823867"><ele>535.5</ele><time>2026-04-08T14:50:22.02Z</time></trkpt><trkpt lat="44.7685317" lon="8.9822517"><ele>535.6666666666666</ele><time>2026-04-08T14:50:24.02Z</time></trkpt><trkpt lat="44.7685783" lon="8.9821733"><ele>535.8333333333333</ele><time>2026-04-08T14:50:25.021Z</time></trkpt><trkpt lat="44.768625" lon="8.9820883"><ele>536.0</ele><time>2026-04-08T14:50:26.021Z</time></trkpt><trkpt lat="44.76867" lon="8.9819967"><ele>536.0</ele><time>2026-04-08T14:50:27.02Z</time></trkpt><trkpt lat="44.76871" lon="8.981905"><ele>536.0</ele><time>2026-04-08T14:50:28.021Z</time></trkpt><trkpt lat="44.7687483" lon="8.981805"><ele>536.0</ele><time>2026-04-08T14:50:29.02Z</time></trkpt><trkpt lat="44.7688167" lon="8.9816267"><ele>536.0</ele><time>2026-04-08T14:50:31.02Z</time></trkpt><trkpt lat="44.7688633" lon="8.9815517"><ele>536.0</ele><time>2026-04-08T14:50:32.02Z</time></trkpt><trkpt lat="44.7689217" lon="8.9814967"><ele>536.0</ele><time>2026-04-08T14:50:33.02Z</time></trkpt><trkpt lat="44.76899" lon="8.981465"><ele>535.2</ele><time>2026-04-08T14:50:34.021Z</time></trkpt><trkpt lat="44.7690733" lon="8.9814483"><ele>534.4000000000001</ele><time>2026-04-08T14:50:35.02Z</time></trkpt><trkpt lat="44.7691583" lon="8.9814483"><ele>533.6</ele><time>2026-04-08T14:50:36.021Z</time></trkpt><trkpt lat="44.7693067" lon="8.981475"><ele>532.8000000000001</ele><time>2026-04-08T14:50:38.021Z</time></trkpt><trkpt lat="44.76938" lon="8.9814783"><ele>532.0</ele><time>2026-04-08T14:50:39.021Z</time></trkpt><trkpt lat="44.7694517" lon="8.9814767"><ele>532.0</ele><time>2026-04-08T14:50:40.021Z</time></trkpt><trkpt lat="44.769525" lon="8.98147"><ele>532.0</ele><time>2026-04-08T14:50:41.02Z</time></trkpt><trkpt lat="44.7695933" lon="8.981445"><ele>532.0</ele><time>2026-04-08T14:50:42.02Z</time></trkpt><trkpt lat="44.7696483" lon="8.9813983"><ele>532.0</ele><time>2026-04-08T14:50:43.02Z</time></trkpt><trkpt lat="44.7696833" lon="8.9813217"><ele>532.0</ele><time>2026-04-08T14:50:44.021Z</time></trkpt><trkpt lat="44.769695" lon="8.98115"><ele>532.0</ele><time>2026-04-08T14:50:46.021Z</time></trkpt><trkpt lat="44.769695" lon="8.9810533"><ele>532.0</ele><time>2026-04-08T14:50:47.02Z</time></trkpt><trkpt lat="44.769695" lon="8.98096"><ele>532.0</ele><time>2026-04-08T14:50:48.02Z</time></trkpt><trkpt lat="44.7696967" lon="8.980865"><ele>532.0</ele><time>2026-04-08T14:50:49.02Z</time></trkpt><trkpt lat="44.7697033" lon="8.9807683"><ele>532.0</ele><time>2026-04-08T14:50:50.02Z</time></trkpt><trkpt lat="44.769715" lon="8.9806683"><ele>532.0</ele><time>2026-04-08T14:50:51.021Z</time></trkpt><trkpt lat="44.769735" lon="8.9805733"><ele>532.0</ele><time>2026-04-08T14:50:52.02Z</time></trkpt><trkpt lat="44.7697667" lon="8.9804883"><ele>532.0</ele><time>2026-04-08T14:50:53.021Z</time></trkpt><trkpt lat="44.7698067" lon="8.9804017"><ele>533.0</ele><time>2026-04-08T14:50:54.02Z</time></trkpt><trkpt lat="44.7698483" lon="8.98031"><ele>534.0</ele><time>2026-04-08T14:50:55.02Z</time></trkpt><trkpt lat="44.769885" lon="8.9802233"><ele>535.0</ele><time>2026-04-08T14:50:56.021Z</time></trkpt><trkpt lat="44.7699667" lon="8.980115"><ele>536.0</ele><time>2026-04-08T14:50:58.021Z</time></trkpt><trkpt lat="44.7700583" lon="8.9801567"><ele>537.0</ele><time>2026-04-08T14:51:00.02Z</time></trkpt><trkpt lat="44.77009" lon="8.9802383"><ele>538.0</ele><time>2026-04-08T14:51:01.02Z</time></trkpt><trkpt lat="44.7701083" lon="8.9803383"><ele>538.0</ele><time>2026-04-08T14:51:02.02Z</time></trkpt><trkpt lat="44.770125" lon="8.980445"><ele>538.0</ele><time>2026-04-08T14:51:03.02Z</time></trkpt><trkpt lat="44.77014" lon="8.9805617"><ele>538.0</ele><time>2026-04-08T14:51:04.02Z</time></trkpt><trkpt lat="44.77016" lon="8.9806867"><ele>538.0</ele><time>2026-04-08T14:51:05.02Z</time></trkpt><trkpt lat="44.7701833" lon="8.9808233"><ele>538.0</ele><time>2026-04-08T14:51:06.02Z</time></trkpt><trkpt lat="44.7702017" lon="8.9809617"><ele>535.0</ele><time>2026-04-08T14:51:07.02Z</time></trkpt><trkpt lat="44.77022" lon="8.9810917"><ele>532.0</ele><time>2026-04-08T14:51:08.021Z</time></trkpt><trkpt lat="44.7702417" lon="8.9812117"><ele>529.0</ele><time>2026-04-08T14:51:09.02Z</time></trkpt><trkpt lat="44.770265" lon="8.9813183"><ele>526.0</ele><time>2026-04-08T14:51:10.021Z</time></trkpt><trkpt lat="44.7702917" lon="8.98141"><ele>523.0</ele><time>2026-04-08T14:51:11.02Z</time></trkpt><trkpt lat="44.77035" lon="8.9815483"><ele>520.0</ele><time>2026-04-08T14:51:13.021Z</time></trkpt><trkpt lat="44.77046" lon="8.98161"><ele>520.0</ele><time>2026-04-08T14:51:15.021Z</time></trkpt><trkpt lat="44.770525" lon="8.981585"><ele>520.0</ele><time>2026-04-08T14:51:16.021Z</time></trkpt><trkpt lat="44.7705883" lon="8.98154"><ele>520.0</ele><time>2026-04-08T14:51:17.02Z</time></trkpt><trkpt lat="44.7706583" lon="8.98149"><ele>520.0</ele><time>2026-04-08T14:51:18.02Z</time></trkpt><trkpt lat="44.770735" lon="8.981445"><ele>520.0</ele><time>2026-04-08T14:51:19.02Z</time></trkpt><trkpt lat="44.7708083" lon="8.981395"><ele>520.0</ele><time>2026-04-08T14:51:20.02Z</time></trkpt><trkpt lat="44.770885" lon="8.9813367"><ele>520.0</ele><time>2026-04-08T14:51:21.021Z</time></trkpt><trkpt lat="44.7709583" lon="8.9812867"><ele>520.0</ele><time>2026-04-08T14:51:22.021Z</time></trkpt><trkpt lat="44.77103" lon="8.9812217"><ele>520.0</ele><time>2026-04-08T14:51:23.02Z</time></trkpt><trkpt lat="44.7711017" lon="8.9811483"><ele>520.0</ele><time>2026-04-08T14:51:24.021Z</time></trkpt><trkpt lat="44.7711683" lon="8.9810783"><ele>520.0</ele><time>2026-04-08T14:51:25.02Z</time></trkpt><trkpt lat="44.7712217" lon="8.981025"><ele>520.0</ele><time>2026-04-08T14:51:26.021Z</time></trkpt><trkpt lat="44.7712983" lon="8.98096"><ele>518.6</ele><time>2026-04-08T14:51:28.021Z</time></trkpt><trkpt lat="44.7713867" lon="8.980985"><ele>517.2</ele><time>2026-04-08T14:51:31.021Z</time></trkpt><trkpt lat="44.77144" lon="8.9810883"><ele>515.8</ele><time>2026-04-08T14:51:33.021Z</time></trkpt><trkpt lat="44.7715333" lon="8.9812283"><ele>514.4</ele><time>2026-04-08T14:51:36.02Z</time></trkpt><trkpt lat="44.7715483" lon="8.9813433"><ele>513.0</ele><time>2026-04-08T14:51:38.02Z</time></trkpt><trkpt lat="44.7715317" lon="8.9814333"><ele>513.0000000000001</ele><time>2026-04-08T14:51:39.02Z</time></trkpt><trkpt lat="44.7715017" lon="8.9815367"><ele>513.0</ele><time>2026-04-08T14:51:40.02Z</time></trkpt><trkpt lat="44.77147" lon="8.9816267"><ele>513.0</ele><time>2026-04-08T14:51:41.02Z</time></trkpt><trkpt lat="44.7714467" lon="8.981715"><ele>513.0</ele><time>2026-04-08T14:51:42.02Z</time></trkpt><trkpt lat="44.771415" lon="8.9818033"><ele>513.0</ele><time>2026-04-08T14:51:43.02Z</time></trkpt><trkpt lat="44.7713817" lon="8.9818967"><ele>513.0000000000001</ele><time>2026-04-08T14:51:44.021Z</time></trkpt><trkpt lat="44.7713333" lon="8.98198"><ele>513.0</ele><time>2026-04-08T14:51:45.021Z</time></trkpt><trkpt lat="44.771275" lon="8.9820617"><ele>511.1666666666667</ele><time>2026-04-08T14:51:46.02Z</time></trkpt><trkpt lat="44.771215" lon="8.9821433"><ele>509.33333333333337</ele><time>2026-04-08T14:51:47.02Z</time></trkpt><trkpt lat="44.7711567" lon="8.9822167"><ele>507.5</ele><time>2026-04-08T14:51:48.021Z</time></trkpt><trkpt lat="44.7710983" lon="8.9822917"><ele>505.6666666666667</ele><time>2026-04-08T14:51:49.02Z</time></trkpt><trkpt lat="44.7710433" lon="8.9823583"><ele>503.83333333333337</ele><time>2026-04-08T14:51:50.02Z</time></trkpt><trkpt lat="44.7709933" lon="8.9824183"><ele>502.0</ele><time>2026-04-08T14:51:51.021Z</time></trkpt><trkpt lat="44.7709417" lon="8.9825467"><ele>501.50000000000006</ele><time>2026-04-08T14:51:53.02Z</time></trkpt><trkpt lat="44.7709867" lon="8.9826417"><ele>501.0</ele><time>2026-04-08T14:51:55.021Z</time></trkpt><trkpt lat="44.7710483" lon="8.98266"><ele>500.5</ele><time>2026-04-08T14:51:56.02Z</time></trkpt><trkpt lat="44.7711267" lon="8.98263"><ele>500.0</ele><time>2026-04-08T14:51:57.02Z</time></trkpt><trkpt lat="44.7712117" lon="8.982575"><ele>499.50000000000006</ele><time>2026-04-08T14:51:58.02Z</time></trkpt><trkpt lat="44.77129" lon="8.9825267"><ele>499.0</ele><time>2026-04-08T14:51:59.02Z</time></trkpt><trkpt lat="44.7713567" lon="8.9824983"><ele>495.0</ele><time>2026-04-08T14:52:00.021Z</time></trkpt><trkpt lat="44.7714633" lon="8.982545"><ele>491.0</ele><time>2026-04-08T14:52:02.02Z</time></trkpt><trkpt lat="44.7714733" lon="8.9827233"><ele>487.0</ele><time>2026-04-08T14:52:04.021Z</time></trkpt><trkpt lat="44.7714417" lon="8.98283"><ele>483.0</ele><time>2026-04-08T14:52:05.02Z</time></trkpt><trkpt lat="44.7714017" lon="8.9829317"><ele>479.0</ele><time>2026-04-08T14:52:06.02Z</time></trkpt><trkpt lat="44.771365" lon="8.98303"><ele>478.99999999999994</ele><time>2026-04-08T14:52:07.02Z</time></trkpt><trkpt lat="44.7713317" lon="8.98312"><ele>479.0</ele><time>2026-04-08T14:52:08.021Z</time></trkpt><trkpt lat="44.7713017" lon="8.9832083"><ele>479.0</ele><time>2026-04-08T14:52:09.021Z</time></trkpt><trkpt lat="44.77127" lon="8.9833"><ele>479.0</ele><time>2026-04-08T14:52:10.021Z</time></trkpt><trkpt lat="44.7712167" lon="8.98343"><ele>478.99999999999994</ele><time>2026-04-08T14:52:12.02Z</time></trkpt><trkpt lat="44.7711717" lon="8.9835233"><ele>479.0</ele><time>2026-04-08T14:52:14.02Z</time></trkpt><trkpt lat="44.7711367" lon="8.983635"><ele>476.4</ele><time>2026-04-08T14:52:16.021Z</time></trkpt><trkpt lat="44.7711067" lon="8.9837583"><ele>473.79999999999995</ele><time>2026-04-08T14:52:18.02Z</time></trkpt><trkpt lat="44.7711083" lon="8.9838833"><ele>471.20000000000005</ele><time>2026-04-08T14:52:20.02Z</time></trkpt><trkpt lat="44.7711483" lon="8.9840083"><ele>468.6</ele><time>2026-04-08T14:52:22.02Z</time></trkpt><trkpt lat="44.7712317" lon="8.98411"><ele>466.0</ele><time>2026-04-08T14:52:24.02Z</time></trkpt><trkpt lat="44.7712917" lon="8.9841433"><ele>466.00000000000006</ele><time>2026-04-08T14:52:25.02Z</time></trkpt><trkpt lat="44.7713617" lon="8.984145"><ele>466.0</ele><time>2026-04-08T14:52:26.02Z</time></trkpt><trkpt lat="44.77144" lon="8.9841117"><ele>466.0</ele><time>2026-04-08T14:52:27.021Z</time></trkpt><trkpt lat="44.7715233" lon="8.9840633"><ele>466.0</ele><time>2026-04-08T14:52:28.021Z</time></trkpt><trkpt lat="44.7716183" lon="8.9840133"><ele>466.00000000000006</ele><time>2026-04-08T14:52:29.021Z</time></trkpt><trkpt lat="44.7717133" lon="8.9839583"><ele>466.0</ele><time>2026-04-08T14:52:30.02Z</time></trkpt><trkpt lat="44.7718133" lon="8.9839"><ele>463.20000000000005</ele><time>2026-04-08T14:52:31.021Z</time></trkpt><trkpt lat="44.7719133" lon="8.9838383"><ele>460.40000000000003</ele><time>2026-04-08T14:52:32.02Z</time></trkpt><trkpt lat="44.7720117" lon="8.9837683"><ele>457.6</ele><time>2026-04-08T14:52:33.021Z</time></trkpt><trkpt lat="44.7721133" lon="8.9837033"><ele>454.8</ele><time>2026-04-08T14:52:34.02Z</time></trkpt><trkpt lat="44.7722083" lon="8.9836383"><ele>452.0</ele><time>2026-04-08T14:52:35.02Z</time></trkpt><trkpt lat="44.772295" lon="8.983575"><ele>451.99999999999994</ele><time>2026-04-08T14:52:36.021Z</time></trkpt><trkpt lat="44.772375" lon="8.9835167"><ele>452.0</ele><time>2026-04-08T14:52:37.02Z</time></trkpt><trkpt lat="44.7724483" lon="8.9834683"><ele>452.0</ele><time>2026-04-08T14:52:38.02Z</time></trkpt><trkpt lat="44.7725183" lon="8.9834283"><ele>452.0</ele><time>2026-04-08T14:52:39.021Z</time></trkpt><trkpt lat="44.7725883" lon="8.9833917"><ele>451.99999999999994</ele><time>2026-04-08T14:52:40.02Z</time></trkpt><trkpt lat="44.7726533" lon="8.9833567"><ele>452.0</ele><time>2026-04-08T14:52:41.021Z</time></trkpt><trkpt lat="44.7727283" lon="8.98332"><ele>452.14285714285717</ele><time>2026-04-08T14:52:42.02Z</time></trkpt><trkpt lat="44.772805" lon="8.98329"><ele>452.2857142857142</ele><time>2026-04-08T14:52:43.02Z</time></trkpt><trkpt lat="44.77288" lon="8.9832633"><ele>452.4285714285714</ele><time>2026-04-08T14:52:44.02Z</time></trkpt><trkpt lat="44.77295" lon="8.98323"><ele>452.57142857142856</ele><time>2026-04-08T14:52:45.021Z</time></trkpt><trkpt lat="44.7730217" lon="8.9832"><ele>452.71428571428567</ele><time>2026-04-08T14:52:46.021Z</time></trkpt><trkpt lat="44.7730867" lon="8.9831733"><ele>452.8571428571428</ele><time>2026-04-08T14:52:47.02Z</time></trkpt><trkpt lat="44.77315" lon="8.9831533"><ele>452.99999999999994</ele><time>2026-04-08T14:52:48.021Z</time></trkpt><trkpt lat="44.7732117" lon="8.98313"><ele>453.0</ele><time>2026-04-08T14:52:49.02Z</time></trkpt><trkpt lat="44.7733283" lon="8.983135"><ele>453.0</ele><time>2026-04-08T14:52:51.021Z</time></trkpt><trkpt lat="44.7734033" lon="8.983235"><ele>453.0</ele><time>2026-04-08T14:52:53.02Z</time></trkpt><trkpt lat="44.773395" lon="8.9833233"><ele>453.0</ele><time>2026-04-08T14:52:54.021Z</time></trkpt><trkpt lat="44.7733633" lon="8.9834067"><ele>453.0</ele><time>2026-04-08T14:52:55.02Z</time></trkpt><trkpt lat="44.773325" lon="8.98348"><ele>453.0</ele><time>2026-04-08T14:52:56.02Z</time></trkpt><trkpt lat="44.7732817" lon="8.9835483"><ele>451.14285714285705</ele><time>2026-04-08T14:52:57.02Z</time></trkpt><trkpt lat="44.77323" lon="8.9836217"><ele>449.2857142857143</ele><time>2026-04-08T14:52:58.02Z</time></trkpt><trkpt lat="44.7731767" lon="8.9836917"><ele>447.4285714285714</ele><time>2026-04-08T14:52:59.02Z</time></trkpt><trkpt lat="44.77312" lon="8.9837567"><ele>445.57142857142856</ele><time>2026-04-08T14:53:00.02Z</time></trkpt><trkpt lat="44.7730567" lon="8.98382"><ele>443.71428571428567</ele><time>2026-04-08T14:53:01.02Z</time></trkpt><trkpt lat="44.7729933" lon="8.98388"><ele>441.85714285714283</ele><time>2026-04-08T14:53:02.021Z</time></trkpt><trkpt lat="44.7729383" lon="8.9839333"><ele>440.0</ele><time>2026-04-08T14:53:03.021Z</time></trkpt><trkpt lat="44.7728867" lon="8.9839883"><ele>440.0</ele><time>2026-04-08T14:53:04.02Z</time></trkpt><trkpt lat="44.7727983" lon="8.9840883"><ele>440.0</ele><time>2026-04-08T14:53:06.021Z</time></trkpt><trkpt lat="44.77277" lon="8.984195"><ele>440.0</ele><time>2026-04-08T14:53:08.02Z</time></trkpt><trkpt lat="44.7728117" lon="8.9843417"><ele>440.0</ele><time>2026-04-08T14:53:10.02Z</time></trkpt><trkpt lat="44.7729317" lon="8.9843967"><ele>440.0</ele><time>2026-04-08T14:53:12.02Z</time></trkpt><trkpt lat="44.7730117" lon="8.98441"><ele>437.8</ele><time>2026-04-08T14:53:13.021Z</time></trkpt><trkpt lat="44.7730933" lon="8.9844233"><ele>435.6</ele><time>2026-04-08T14:53:14.02Z</time></trkpt><trkpt lat="44.7731833" lon="8.9844333"><ele>433.4</ele><time>2026-04-08T14:53:15.02Z</time></trkpt><trkpt lat="44.7732767" lon="8.9844533"><ele>431.2</ele><time>2026-04-08T14:53:16.021Z</time></trkpt><trkpt lat="44.7733667" lon="8.9844733"><ele>429.0</ele><time>2026-04-08T14:53:17.021Z</time></trkpt><trkpt lat="44.7734583" lon="8.98449"><ele>427.6666666666667</ele><time>2026-04-08T14:53:18.021Z</time></trkpt><trkpt lat="44.773555" lon="8.9845067"><ele>426.33333333333337</ele><time>2026-04-08T14:53:19.02Z</time></trkpt><trkpt lat="44.773645" lon="8.9845133"><ele>425.0</ele><time>2026-04-08T14:53:20.021Z</time></trkpt><trkpt lat="44.77372" lon="8.9845083"><ele>423.6666666666667</ele><time>2026-04-08T14:53:21.021Z</time></trkpt><trkpt lat="44.7737867" lon="8.9844867"><ele>422.33333333333337</ele><time>2026-04-08T14:53:22.021Z</time></trkpt><trkpt lat="44.7738533" lon="8.9844317"><ele>421.0</ele><time>2026-04-08T14:53:23.021Z</time></trkpt><trkpt lat="44.7739183" lon="8.9843667"><ele>421.00000000000006</ele><time>2026-04-08T14:53:24.021Z</time></trkpt><trkpt lat="44.7739783" lon="8.9842917"><ele>421.0</ele><time>2026-04-08T14:53:25.02Z</time></trkpt><trkpt lat="44.7740367" lon="8.9842233"><ele>421.0</ele><time>2026-04-08T14:53:26.021Z</time></trkpt><trkpt lat="44.7740933" lon="8.98416"><ele>421.0</ele><time>2026-04-08T14:53:27.02Z</time></trkpt><trkpt lat="44.7741483" lon="8.9841033"><ele>421.00000000000006</ele><time>2026-04-08T14:53:28.02Z</time></trkpt><trkpt lat="44.7741983" lon="8.9840483"><ele>421.0</ele><time>2026-04-08T14:53:29.02Z</time></trkpt><trkpt lat="44.774295" lon="8.983985"><ele>418.50000000000006</ele><time>2026-04-08T14:53:31.019Z</time></trkpt><trkpt lat="44.77439" lon="8.9839933"><ele>416.0</ele><time>2026-04-08T14:53:33.019Z</time></trkpt><trkpt lat="44.7744633" lon="8.9841167"><ele>413.5</ele><time>2026-04-08T14:53:35.02Z</time></trkpt><trkpt lat="44.7744767" lon="8.9842133"><ele>411.0</ele><time>2026-04-08T14:53:36.019Z</time></trkpt><trkpt lat="44.7744633" lon="8.9843133"><ele>408.50000000000006</ele><time>2026-04-08T14:53:37.02Z</time></trkpt><trkpt lat="44.7744367" lon="8.9844133"><ele>406.0</ele><time>2026-04-08T14:53:38.019Z</time></trkpt><trkpt lat="44.77441" lon="8.984515"><ele>406.33333333333337</ele><time>2026-04-08T14:53:39.019Z</time></trkpt><trkpt lat="44.7743767" lon="8.9846233"><ele>406.6666666666667</ele><time>2026-04-08T14:53:40.02Z</time></trkpt><trkpt lat="44.7743483" lon="8.984725"><ele>407.0</ele><time>2026-04-08T14:53:41.02Z</time></trkpt><trkpt lat="44.7743167" lon="8.984835"><ele>407.33333333333337</ele><time>2026-04-08T14:53:42.019Z</time></trkpt><trkpt lat="44.77428" lon="8.9849517"><ele>407.6666666666667</ele><time>2026-04-08T14:53:43.02Z</time></trkpt><trkpt lat="44.7742517" lon="8.9850683"><ele>408.0</ele><time>2026-04-08T14:53:44.02Z</time></trkpt><trkpt lat="44.774225" lon="8.9851767"><ele>408.0</ele><time>2026-04-08T14:53:45.02Z</time></trkpt><trkpt lat="44.7741967" lon="8.9852783"><ele>408.0</ele><time>2026-04-08T14:53:46.02Z</time></trkpt><trkpt lat="44.7741733" lon="8.9853817"><ele>408.0</ele><time>2026-04-08T14:53:47.019Z</time></trkpt><trkpt lat="44.7741567" lon="8.9854767"><ele>408.0</ele><time>2026-04-08T14:53:48.02Z</time></trkpt><trkpt lat="44.7741367" lon="8.9855733"><ele>408.0</ele><time>2026-04-08T14:53:49.02Z</time></trkpt><trkpt lat="44.7741167" lon="8.985665"><ele>408.0</ele><time>2026-04-08T14:53:50.02Z</time></trkpt><trkpt lat="44.7740817" lon="8.9857433"><ele>408.0</ele><time>2026-04-08T14:53:51.02Z</time></trkpt><trkpt lat="44.77403" lon="8.9858083"><ele>405.1666666666667</ele><time>2026-04-08T14:53:52.019Z</time></trkpt><trkpt lat="44.7739667" lon="8.985855"><ele>402.33333333333337</ele><time>2026-04-08T14:53:53.02Z</time></trkpt><trkpt lat="44.773895" lon="8.9858983"><ele>399.5</ele><time>2026-04-08T14:53:54.019Z</time></trkpt><trkpt lat="44.7738183" lon="8.98594"><ele>396.6666666666667</ele><time>2026-04-08T14:53:55.02Z</time></trkpt><trkpt lat="44.7737417" lon="8.985975"><ele>393.83333333333337</ele><time>2026-04-08T14:53:56.02Z</time></trkpt><trkpt lat="44.77367" lon="8.986015"><ele>391.0</ele><time>2026-04-08T14:53:57.02Z</time></trkpt><trkpt lat="44.77361" lon="8.9860567"><ele>391.00000000000006</ele><time>2026-04-08T14:53:58.019Z</time></trkpt><trkpt lat="44.7735433" lon="8.9861783"><ele>391.0</ele><time>2026-04-08T14:54:00.02Z</time></trkpt><trkpt lat="44.77357" lon="8.9863317"><ele>391.0</ele><time>2026-04-08T14:54:02.019Z</time></trkpt><trkpt lat="44.7736117" lon="8.9864"><ele>391.0</ele><time>2026-04-08T14:54:03.019Z</time></trkpt><trkpt lat="44.7736633" lon="8.98646"><ele>391.00000000000006</ele><time>2026-04-08T14:54:04.019Z</time></trkpt><trkpt lat="44.7737217" lon="8.9865083"><ele>391.0</ele><time>2026-04-08T14:54:05.02Z</time></trkpt><trkpt lat="44.773795" lon="8.986545"><ele>391.00000000000006</ele><time>2026-04-08T14:54:06.019Z</time></trkpt><trkpt lat="44.7738633" lon="8.9865633"><ele>391.0</ele><time>2026-04-08T14:54:07.019Z</time></trkpt><trkpt lat="44.7739417" lon="8.98656"><ele>391.0</ele><time>2026-04-08T14:54:08.02Z</time></trkpt><trkpt lat="44.7740167" lon="8.9865433"><ele>391.0</ele><time>2026-04-08T14:54:09.019Z</time></trkpt><trkpt lat="44.7740967" lon="8.9865133"><ele>391.00000000000006</ele><time>2026-04-08T14:54:10.019Z</time></trkpt><trkpt lat="44.7741733" lon="8.9864717"><ele>391.0</ele><time>2026-04-08T14:54:11.019Z</time></trkpt><trkpt lat="44.7742567" lon="8.9864333"><ele>391.00000000000006</ele><time>2026-04-08T14:54:12.02Z</time></trkpt><trkpt lat="44.7743417" lon="8.98639"><ele>391.0</ele><time>2026-04-08T14:54:13.02Z</time></trkpt><trkpt lat="44.7744283" lon="8.9863483"><ele>391.0</ele><time>2026-04-08T14:54:14.02Z</time></trkpt><trkpt lat="44.77451" lon="8.9863067"><ele>391.0</ele><time>2026-04-08T14:54:15.019Z</time></trkpt><trkpt lat="44.7745883" lon="8.9862633"><ele>391.00000000000006</ele><time>2026-04-08T14:54:16.02Z</time></trkpt><trkpt lat="44.7746683" lon="8.986215"><ele>391.0</ele><time>2026-04-08T14:54:17.019Z</time></trkpt><trkpt lat="44.7747433" lon="8.98617"><ele>391.1666666666667</ele><time>2026-04-08T14:54:18.019Z</time></trkpt><trkpt lat="44.774815" lon="8.986115"><ele>391.33333333333337</ele><time>2026-04-08T14:54:19.019Z</time></trkpt><trkpt lat="44.7748883" lon="8.9860633"><ele>391.5</ele><time>2026-04-08T14:54:20.02Z</time></trkpt><trkpt lat="44.77495" lon="8.9860017"><ele>391.66666666666663</ele><time>2026-04-08T14:54:21.019Z</time></trkpt><trkpt lat="44.775015" lon="8.9859267"><ele>391.8333333333333</ele><time>2026-04-08T14:54:22.019Z</time></trkpt><trkpt lat="44.775085" lon="8.9858583"><ele>392.0</ele><time>2026-04-08T14:54:23.019Z</time></trkpt><trkpt lat="44.7751617" lon="8.9857983"><ele>389.49999999999994</ele><time>2026-04-08T14:54:24.02Z</time></trkpt><trkpt lat="44.77523" lon="8.98574"><ele>387.0</ele><time>2026-04-08T14:54:25.019Z</time></trkpt><trkpt lat="44.7753067" lon="8.9856817"><ele>384.5</ele><time>2026-04-08T14:54:26.02Z</time></trkpt><trkpt lat="44.7753817" lon="8.985625"><ele>382.0</ele><time>2026-04-08T14:54:27.019Z</time></trkpt><trkpt lat="44.7754583" lon="8.9855717"><ele>379.5</ele><time>2026-04-08T14:54:28.02Z</time></trkpt><trkpt lat="44.7755317" lon="8.9855217"><ele>377.0</ele><time>2026-04-08T14:54:29.02Z</time></trkpt><trkpt lat="44.7756" lon="8.9854833"><ele>377.0</ele><time>2026-04-08T14:54:30.02Z</time></trkpt><trkpt lat="44.77567" lon="8.9854533"><ele>377.0</ele><time>2026-04-08T14:54:31.019Z</time></trkpt><trkpt lat="44.775735" lon="8.9854417"><ele>377.0</ele><time>2026-04-08T14:54:32.02Z</time></trkpt><trkpt lat="44.7758367" lon="8.9855017"><ele>377.0</ele><time>2026-04-08T14:54:34.02Z</time></trkpt><trkpt lat="44.7758717" lon="8.9856733"><ele>377.0</ele><time>2026-04-08T14:54:36.02Z</time></trkpt><trkpt lat="44.7758533" lon="8.9857667"><ele>377.0</ele><time>2026-04-08T14:54:37.019Z</time></trkpt><trkpt lat="44.77582" lon="8.9858567"><ele>375.1666666666667</ele><time>2026-04-08T14:54:38.019Z</time></trkpt><trkpt lat="44.7757783" lon="8.9859467"><ele>373.33333333333337</ele><time>2026-04-08T14:54:39.019Z</time></trkpt><trkpt lat="44.7757383" lon="8.9860417"><ele>371.5</ele><time>2026-04-08T14:54:40.019Z</time></trkpt><trkpt lat="44.7756967" lon="8.98614"><ele>369.6666666666667</ele><time>2026-04-08T14:54:41.02Z</time></trkpt><trkpt lat="44.7756517" lon="8.9862367"><ele>367.8333333333333</ele><time>2026-04-08T14:54:42.02Z</time></trkpt><trkpt lat="44.7756" lon="8.9863433"><ele>366.0</ele><time>2026-04-08T14:54:43.019Z</time></trkpt><trkpt lat="44.7755483" lon="8.9864567"><ele>366.0</ele><time>2026-04-08T14:54:44.019Z</time></trkpt><trkpt lat="44.7754917" lon="8.9865667"><ele>366.0</ele><time>2026-04-08T14:54:45.019Z</time></trkpt><trkpt lat="44.775435" lon="8.9866783"><ele>366.0</ele><time>2026-04-08T14:54:46.019Z</time></trkpt><trkpt lat="44.7753767" lon="8.9867967"><ele>366.0</ele><time>2026-04-08T14:54:47.02Z</time></trkpt><trkpt lat="44.775315" lon="8.9869167"><ele>366.0</ele><time>2026-04-08T14:54:48.02Z</time></trkpt><trkpt lat="44.77525" lon="8.9870333"><ele>365.8</ele><time>2026-04-08T14:54:49.019Z</time></trkpt><trkpt lat="44.7751833" lon="8.987145"><ele>365.6</ele><time>2026-04-08T14:54:50.02Z</time></trkpt><trkpt lat="44.775115" lon="8.9872483"><ele>365.4</ele><time>2026-04-08T14:54:51.02Z</time></trkpt><trkpt lat="44.7750433" lon="8.9873383"><ele>365.2</ele><time>2026-04-08T14:54:52.02Z</time></trkpt><trkpt lat="44.774965" lon="8.9874183"><ele>365.0</ele><time>2026-04-08T14:54:53.02Z</time></trkpt><trkpt lat="44.7748783" lon="8.98749"><ele>361.2</ele><time>2026-04-08T14:54:54.019Z</time></trkpt><trkpt lat="44.774785" lon="8.9875717"><ele>357.4</ele><time>2026-04-08T14:54:55.019Z</time></trkpt><trkpt lat="44.7746983" lon="8.9876467"><ele>353.6</ele><time>2026-04-08T14:54:56.02Z</time></trkpt><trkpt lat="44.77461" lon="8.987715"><ele>349.8</ele><time>2026-04-08T14:54:57.019Z</time></trkpt><trkpt lat="44.774515" lon="8.98777"><ele>346.0</ele><time>2026-04-08T14:54:58.019Z</time></trkpt><trkpt lat="44.7744267" lon="8.987825"><ele>346.0</ele><time>2026-04-08T14:54:59.019Z</time></trkpt><trkpt lat="44.774355" lon="8.9878767"><ele>346.0</ele><time>2026-04-08T14:55:00.02Z</time></trkpt><trkpt lat="44.7742867" lon="8.987985"><ele>346.0</ele><time>2026-04-08T14:55:02.019Z</time></trkpt><trkpt lat="44.7743217" lon="8.9881"><ele>346.0</ele><time>2026-04-08T14:55:04.02Z</time></trkpt><trkpt lat="44.7744517" lon="8.9881567"><ele>346.0</ele><time>2026-04-08T14:55:06.02Z</time></trkpt><trkpt lat="44.77453" lon="8.988175"><ele>346.0</ele><time>2026-04-08T14:55:07.019Z</time></trkpt><trkpt lat="44.7746117" lon="8.9881883"><ele>346.0</ele><time>2026-04-08T14:55:08.019Z</time></trkpt><trkpt lat="44.7747" lon="8.988195"><ele>346.0</ele><time>2026-04-08T14:55:09.02Z</time></trkpt><trkpt lat="44.7747833" lon="8.9881833"><ele>346.0</ele><time>2026-04-08T14:55:10.019Z</time></trkpt><trkpt lat="44.774875" lon="8.9881733"><ele>346.0</ele><time>2026-04-08T14:55:11.019Z</time></trkpt><trkpt lat="44.7749683" lon="8.9881617"><ele>346.0</ele><time>2026-04-08T14:55:12.02Z</time></trkpt><trkpt lat="44.775065" lon="8.98814"><ele>346.0</ele><time>2026-04-08T14:55:13.019Z</time></trkpt><trkpt lat="44.77516" lon="8.98813"><ele>346.0</ele><time>2026-04-08T14:55:14.02Z</time></trkpt><trkpt lat="44.7752567" lon="8.9881217"><ele>346.0</ele><time>2026-04-08T14:55:15.019Z</time></trkpt><trkpt lat="44.7753583" lon="8.9881167"><ele>346.0</ele><time>2026-04-08T14:55:16.019Z</time></trkpt><trkpt lat="44.7754583" lon="8.98811"><ele>346.0</ele><time>2026-04-08T14:55:17.02Z</time></trkpt><trkpt lat="44.7755567" lon="8.9881"><ele>344.20000000000005</ele><time>2026-04-08T14:55:18.02Z</time></trkpt><trkpt lat="44.7756583" lon="8.9880883"><ele>342.40000000000003</ele><time>2026-04-08T14:55:19.019Z</time></trkpt><trkpt lat="44.77576" lon="8.9880767"><ele>340.6</ele><time>2026-04-08T14:55:20.02Z</time></trkpt><trkpt lat="44.7758717" lon="8.98805"><ele>338.8</ele><time>2026-04-08T14:55:21.019Z</time></trkpt><trkpt lat="44.7759667" lon="8.988025"><ele>337.0</ele><time>2026-04-08T14:55:22.019Z</time></trkpt><trkpt lat="44.7760717" lon="8.98799"><ele>334.8</ele><time>2026-04-08T14:55:23.019Z</time></trkpt><trkpt lat="44.7761733" lon="8.987945"><ele>332.6</ele><time>2026-04-08T14:55:24.019Z</time></trkpt><trkpt lat="44.776275" lon="8.9879033"><ele>330.40000000000003</ele><time>2026-04-08T14:55:25.02Z</time></trkpt><trkpt lat="44.7763783" lon="8.98786"><ele>328.20000000000005</ele><time>2026-04-08T14:55:26.019Z</time></trkpt><trkpt lat="44.7764817" lon="8.9878233"><ele>326.0</ele><time>2026-04-08T14:55:27.019Z</time></trkpt><trkpt lat="44.77658" lon="8.9877833"><ele>326.0</ele><time>2026-04-08T14:55:28.019Z</time></trkpt><trkpt lat="44.7766817" lon="8.9877433"><ele>326.0</ele><time>2026-04-08T14:55:29.02Z</time></trkpt><trkpt lat="44.7767767" lon="8.9876917"><ele>326.0</ele><time>2026-04-08T14:55:30.019Z</time></trkpt><trkpt lat="44.776865" lon="8.9876433"><ele>326.0</ele><time>2026-04-08T14:55:31.019Z</time></trkpt><trkpt lat="44.7769567" lon="8.987595"><ele>326.0</ele><time>2026-04-08T14:55:32.019Z</time></trkpt><trkpt lat="44.777045" lon="8.9875417"><ele>326.6666666666667</ele><time>2026-04-08T14:55:33.019Z</time></trkpt><trkpt lat="44.7771333" lon="8.98749"><ele>327.33333333333337</ele><time>2026-04-08T14:55:34.02Z</time></trkpt><trkpt lat="44.77722" lon="8.987445"><ele>328.0</ele><time>2026-04-08T14:55:35.019Z</time></trkpt><trkpt lat="44.7772983" lon="8.9874117"><ele>328.6666666666667</ele><time>2026-04-08T14:55:36.019Z</time></trkpt><trkpt lat="44.77737" lon="8.9874033"><ele>329.3333333333333</ele><time>2026-04-08T14:55:37.019Z</time></trkpt><trkpt lat="44.777445" lon="8.98742"><ele>330.0</ele><time>2026-04-08T14:55:38.019Z</time></trkpt><trkpt lat="44.777515" lon="8.9874783"><ele>328.4</ele><time>2026-04-08T14:55:39.019Z</time></trkpt><trkpt lat="44.777565" lon="8.9875683"><ele>326.8</ele><time>2026-04-08T14:55:40.019Z</time></trkpt><trkpt lat="44.7776" lon="8.9876783"><ele>325.20000000000005</ele><time>2026-04-08T14:55:41.019Z</time></trkpt><trkpt lat="44.77764" lon="8.9877967"><ele>323.6</ele><time>2026-04-08T14:55:42.019Z</time></trkpt><trkpt lat="44.7776783" lon="8.98792"><ele>322.0</ele><time>2026-04-08T14:55:43.02Z</time></trkpt><trkpt lat="44.77772" lon="8.9880483"><ele>324.8</ele><time>2026-04-08T14:55:44.019Z</time></trkpt><trkpt lat="44.77776" lon="8.9881783"><ele>327.6</ele><time>2026-04-08T14:55:45.019Z</time></trkpt><trkpt lat="44.7777933" lon="8.9883183"><ele>330.40000000000003</ele><time>2026-04-08T14:55:46.02Z</time></trkpt><trkpt lat="44.777805" lon="8.9884733"><ele>333.20000000000005</ele><time>2026-04-08T14:55:47.019Z</time></trkpt><trkpt lat="44.7778033" lon="8.9886233"><ele>336.0</ele><time>2026-04-08T14:55:48.02Z</time></trkpt><trkpt lat="44.7777933" lon="8.98878"><ele>336.0</ele><time>2026-04-08T14:55:49.019Z</time></trkpt><trkpt lat="44.77778" lon="8.988935"><ele>336.0</ele><time>2026-04-08T14:55:50.019Z</time></trkpt><trkpt lat="44.7777717" lon="8.9890817"><ele>336.0</ele><time>2026-04-08T14:55:51.019Z</time></trkpt><trkpt lat="44.77777" lon="8.989225"><ele>336.0</ele><time>2026-04-08T14:55:52.019Z</time></trkpt><trkpt lat="44.7777633" lon="8.9893683"><ele>336.0</ele><time>2026-04-08T14:55:53.02Z</time></trkpt><trkpt lat="44.777755" lon="8.9895133"><ele>332.8</ele><time>2026-04-08T14:55:54.019Z</time></trkpt><trkpt lat="44.77775" lon="8.989655"><ele>329.6</ele><time>2026-04-08T14:55:55.019Z</time></trkpt><trkpt lat="44.77775" lon="8.9897967"><ele>326.4</ele><time>2026-04-08T14:55:56.02Z</time></trkpt><trkpt lat="44.7777583" lon="8.9899367"><ele>323.2</ele><time>2026-04-08T14:55:57.019Z</time></trkpt><trkpt lat="44.77778" lon="8.9900783"><ele>320.0</ele><time>2026-04-08T14:55:58.02Z</time></trkpt><trkpt lat="44.777805" lon="8.99021"><ele>318.33333333333337</ele><time>2026-04-08T14:55:59.019Z</time></trkpt><trkpt lat="44.7778317" lon="8.9903233"><ele>316.6666666666667</ele><time>2026-04-08T14:56:00.02Z</time></trkpt><trkpt lat="44.7778617" lon="8.990415"><ele>315.0</ele><time>2026-04-08T14:56:01.02Z</time></trkpt><trkpt lat="44.7779067" lon="8.9905"><ele>313.3333333333333</ele><time>2026-04-08T14:56:02.019Z</time></trkpt><trkpt lat="44.7779633" lon="8.99058"><ele>311.66666666666663</ele><time>2026-04-08T14:56:03.019Z</time></trkpt><trkpt lat="44.7780333" lon="8.9906483"><ele>310.0</ele><time>2026-04-08T14:56:04.02Z</time></trkpt><trkpt lat="44.77811" lon="8.990705"><ele>310.0</ele><time>2026-04-08T14:56:05.019Z</time></trkpt><trkpt lat="44.778185" lon="8.9907583"><ele>310.0</ele><time>2026-04-08T14:56:06.02Z</time></trkpt><trkpt lat="44.7782667" lon="8.990805"><ele>310.0</ele><time>2026-04-08T14:56:07.019Z</time></trkpt><trkpt lat="44.7783467" lon="8.99085"><ele>310.0</ele><time>2026-04-08T14:56:08.02Z</time></trkpt><trkpt lat="44.778425" lon="8.99089"><ele>310.0</ele><time>2026-04-08T14:56:09.019Z</time></trkpt><trkpt lat="44.7785017" lon="8.9909333"><ele>310.0</ele><time>2026-04-08T14:56:10.019Z</time></trkpt><trkpt lat="44.7785783" lon="8.9909817"><ele>308.8333333333333</ele><time>2026-04-08T14:56:11.019Z</time></trkpt><trkpt lat="44.7786567" lon="8.9910267"><ele>307.66666666666663</ele><time>2026-04-08T14:56:12.02Z</time></trkpt><trkpt lat="44.7787367" lon="8.991075"><ele>306.5</ele><time>2026-04-08T14:56:13.02Z</time></trkpt><trkpt lat="44.7788183" lon="8.9911183"><ele>305.3333333333333</ele><time>2026-04-08T14:56:14.02Z</time></trkpt><trkpt lat="44.7788933" lon="8.9911617"><ele>304.1666666666667</ele><time>2026-04-08T14:56:15.019Z</time></trkpt><trkpt lat="44.77896" lon="8.9912117"><ele>303.0</ele><time>2026-04-08T14:56:16.02Z</time></trkpt><trkpt lat="44.7790183" lon="8.9912683"><ele>303.0</ele><time>2026-04-08T14:56:17.019Z</time></trkpt><trkpt lat="44.77908" lon="8.991325"><ele>303.0</ele><time>2026-04-08T14:56:18.02Z</time></trkpt><trkpt lat="44.77913" lon="8.9913917"><ele>303.0</ele><time>2026-04-08T14:56:19.019Z</time></trkpt><trkpt lat="44.779175" lon="8.9914633"><ele>303.0</ele><time>2026-04-08T14:56:20.02Z</time></trkpt><trkpt lat="44.7792083" lon="8.9915483"><ele>303.0</ele><time>2026-04-08T14:56:21.019Z</time></trkpt><trkpt lat="44.7792333" lon="8.9916317"><ele>303.0</ele><time>2026-04-08T14:56:22.019Z</time></trkpt><trkpt lat="44.779285" lon="8.9917867"><ele>303.2</ele><time>2026-04-08T14:56:24.019Z</time></trkpt><trkpt lat="44.7793233" lon="8.9918583"><ele>303.4</ele><time>2026-04-08T14:56:25.019Z</time></trkpt><trkpt lat="44.7793717" lon="8.9919283"><ele>303.59999999999997</ele><time>2026-04-08T14:56:26.019Z</time></trkpt><trkpt lat="44.7794733" lon="8.9920233"><ele>303.8</ele><time>2026-04-08T14:56:28.02Z</time></trkpt><trkpt lat="44.7795567" lon="8.9921333"><ele>304.0</ele><time>2026-04-08T14:56:30.019Z</time></trkpt><trkpt lat="44.7796183" lon="8.99228"><ele>302.59999999999997</ele><time>2026-04-08T14:56:32.019Z</time></trkpt><trkpt lat="44.7796483" lon="8.9923583"><ele>301.2</ele><time>2026-04-08T14:56:33.02Z</time></trkpt><trkpt lat="44.77971" lon="8.99251"><ele>299.79999999999995</ele><time>2026-04-08T14:56:35.019Z</time></trkpt><trkpt lat="44.779755" lon="8.9926783"><ele>298.4</ele><time>2026-04-08T14:56:37.02Z</time></trkpt><trkpt lat="44.7797833" lon="8.9928467"><ele>297.0</ele><time>2026-04-08T14:56:39.019Z</time></trkpt><trkpt lat="44.7797917" lon="8.9930067"><ele>296.6666666666667</ele><time>2026-04-08T14:56:41.019Z</time></trkpt><trkpt lat="44.7797683" lon="8.9931683"><ele>296.3333333333333</ele><time>2026-04-08T14:56:43.02Z</time></trkpt><trkpt lat="44.7797517" lon="8.993255"><ele>296.0</ele><time>2026-04-08T14:56:44.019Z</time></trkpt><trkpt lat="44.77974" lon="8.9933433"><ele>295.66666666666663</ele><time>2026-04-08T14:56:45.019Z</time></trkpt><trkpt lat="44.7797283" lon="8.993435"><ele>295.3333333333333</ele><time>2026-04-08T14:56:46.02Z</time></trkpt><trkpt lat="44.77971" lon="8.9935283"><ele>295.0</ele><time>2026-04-08T14:56:47.019Z</time></trkpt><trkpt lat="44.7796533" lon="8.9936883"><ele>294.8333333333333</ele><time>2026-04-08T14:56:49.019Z</time></trkpt><trkpt lat="44.7795967" lon="8.993835"><ele>294.66666666666663</ele><time>2026-04-08T14:56:51.019Z</time></trkpt><trkpt lat="44.77957" lon="8.9939167"><ele>294.5</ele><time>2026-04-08T14:56:52.019Z</time></trkpt><trkpt lat="44.7795167" lon="8.994075"><ele>294.3333333333333</ele><time>2026-04-08T14:56:54.02Z</time></trkpt><trkpt lat="44.7794833" lon="8.9941567"><ele>294.1666666666667</ele><time>2026-04-08T14:56:55.02Z</time></trkpt><trkpt lat="44.7794483" lon="8.994245"><ele>294.0</ele><time>2026-04-08T14:56:56.019Z</time></trkpt><trkpt lat="44.779415" lon="8.9943283"><ele>293.57142857142856</ele><time>2026-04-08T14:56:57.02Z</time></trkpt><trkpt lat="44.7793833" lon="8.99441"><ele>293.1428571428571</ele><time>2026-04-08T14:56:58.019Z</time></trkpt><trkpt lat="44.77934" lon="8.9945017"><ele>292.7142857142857</ele><time>2026-04-08T14:56:59.02Z</time></trkpt><trkpt lat="44.7793033" lon="8.9945933"><ele>292.2857142857143</ele><time>2026-04-08T14:57:00.019Z</time></trkpt><trkpt lat="44.7792683" lon="8.9946833"><ele>291.85714285714283</ele><time>2026-04-08T14:57:01.02Z</time></trkpt><trkpt lat="44.7792383" lon="8.9947717"><ele>291.42857142857144</ele><time>2026-04-08T14:57:02.019Z</time></trkpt><trkpt lat="44.7792033" lon="8.994855"><ele>291.0</ele><time>2026-04-08T14:57:03.019Z</time></trkpt><trkpt lat="44.779175" lon="8.9949383"><ele>291.5</ele><time>2026-04-08T14:57:04.02Z</time></trkpt><trkpt lat="44.779145" lon="8.99502"><ele>292.0</ele><time>2026-04-08T14:57:05.019Z</time></trkpt><trkpt lat="44.7790933" lon="8.9951517"><ele>292.5</ele><time>2026-04-08T14:57:07.02Z</time></trkpt><trkpt lat="44.7790517" lon="8.9952567"><ele>293.0</ele><time>2026-04-08T14:57:09.018Z</time></trkpt><trkpt lat="44.7790133" lon="8.9953467"><ele>293.5</ele><time>2026-04-08T14:57:11.018Z</time></trkpt><trkpt lat="44.7790283" lon="8.9955083"><ele>294.0</ele><time>2026-04-08T14:57:23.018Z</time></trkpt><trkpt lat="44.77911" lon="8.9955717"><ele>294.0</ele><time>2026-04-08T14:57:25.018Z</time></trkpt><trkpt lat="44.7792017" lon="8.9956367"><ele>294.0</ele><time>2026-04-08T14:57:27.019Z</time></trkpt><trkpt lat="44.779305" lon="8.9957167"><ele>294.0</ele><time>2026-04-08T14:57:29.018Z</time></trkpt><trkpt lat="44.779365" lon="8.9957567"><ele>294.0</ele><time>2026-04-08T14:57:30.018Z</time></trkpt><trkpt lat="44.779425" lon="8.9958083"><ele>294.0</ele><time>2026-04-08T14:57:31.019Z</time></trkpt><trkpt lat="44.7794883" lon="8.995855"><ele>294.0</ele><time>2026-04-08T14:57:32.018Z</time></trkpt><trkpt lat="44.7795483" lon="8.995905"><ele>293.8333333333333</ele><time>2026-04-08T14:57:33.018Z</time></trkpt><trkpt lat="44.7796067" lon="8.9959617"><ele>293.6666666666667</ele><time>2026-04-08T14:57:34.018Z</time></trkpt><trkpt lat="44.77967" lon="8.9960083"><ele>293.5</ele><time>2026-04-08T14:57:35.019Z</time></trkpt><trkpt lat="44.7797333" lon="8.9960583"><ele>293.33333333333337</ele><time>2026-04-08T14:57:36.019Z</time></trkpt><trkpt lat="44.7798" lon="8.996115"><ele>293.1666666666667</ele><time>2026-04-08T14:57:37.019Z</time></trkpt><trkpt lat="44.7798683" lon="8.9961633"><ele>293.0</ele><time>2026-04-08T14:57:38.018Z</time></trkpt><trkpt lat="44.77995" lon="8.9962233"><ele>293.0</ele><time>2026-04-08T14:57:39.018Z</time></trkpt><trkpt lat="44.78004" lon="8.9962867"><ele>293.0</ele><time>2026-04-08T14:57:40.018Z</time></trkpt><trkpt lat="44.78013" lon="8.99635"><ele>293.0</ele><time>2026-04-08T14:57:41.019Z</time></trkpt><trkpt lat="44.7802167" lon="8.9964183"><ele>293.0</ele><time>2026-04-08T14:57:42.019Z</time></trkpt><trkpt lat="44.7803033" lon="8.9964917"><ele>293.0</ele><time>2026-04-08T14:57:43.018Z</time></trkpt><trkpt lat="44.7803883" lon="8.9965533"><ele>292.8</ele><time>2026-04-08T14:57:44.019Z</time></trkpt><trkpt lat="44.7804717" lon="8.9966183"><ele>292.6</ele><time>2026-04-08T14:57:45.018Z</time></trkpt><trkpt lat="44.780555" lon="8.996675"><ele>292.4</ele><time>2026-04-08T14:57:46.019Z</time></trkpt><trkpt lat="44.7806317" lon="8.9967317"><ele>292.2</ele><time>2026-04-08T14:57:47.019Z</time></trkpt><trkpt lat="44.7807133" lon="8.9968"><ele>292.0</ele><time>2026-04-08T14:57:48.018Z</time></trkpt><trkpt lat="44.78079" lon="8.9968583"><ele>291.8</ele><time>2026-04-08T14:57:49.019Z</time></trkpt><trkpt lat="44.7808667" lon="8.996905"><ele>291.6</ele><time>2026-04-08T14:57:50.018Z</time></trkpt><trkpt lat="44.780945" lon="8.9969583"><ele>291.40000000000003</ele><time>2026-04-08T14:57:51.018Z</time></trkpt><trkpt lat="44.781025" lon="8.99702"><ele>291.2</ele><time>2026-04-08T14:57:52.019Z</time></trkpt><trkpt lat="44.7811083" lon="8.9970783"><ele>291.0</ele><time>2026-04-08T14:57:53.018Z</time></trkpt><trkpt lat="44.7811933" lon="8.9971483"><ele>290.0</ele><time>2026-04-08T14:57:54.018Z</time></trkpt><trkpt lat="44.7812783" lon="8.9972183"><ele>289.0</ele><time>2026-04-08T14:57:55.018Z</time></trkpt><trkpt lat="44.78136" lon="8.9972833"><ele>288.0</ele><time>2026-04-08T14:57:56.019Z</time></trkpt><trkpt lat="44.78144" lon="8.9973383"><ele>287.0</ele><time>2026-04-08T14:57:57.018Z</time></trkpt><trkpt lat="44.781525" lon="8.9973933"><ele>286.0</ele><time>2026-04-08T14:57:58.019Z</time></trkpt><trkpt lat="44.781605" lon="8.997465"><ele>286.40000000000003</ele><time>2026-04-08T14:57:59.018Z</time></trkpt><trkpt lat="44.7816817" lon="8.9975383"><ele>286.8</ele><time>2026-04-08T14:58:00.018Z</time></trkpt><trkpt lat="44.781765" lon="8.9976283"><ele>287.20000000000005</ele><time>2026-04-08T14:58:01.018Z</time></trkpt><trkpt lat="44.7818433" lon="8.9977267"><ele>287.6</ele><time>2026-04-08T14:58:02.019Z</time></trkpt><trkpt lat="44.78192" lon="8.9978283"><ele>288.0</ele><time>2026-04-08T14:58:03.018Z</time></trkpt><trkpt lat="44.7819867" lon="8.99794"><ele>288.2</ele><time>2026-04-08T14:58:04.019Z</time></trkpt><trkpt lat="44.782045" lon="8.9980583"><ele>288.4</ele><time>2026-04-08T14:58:05.018Z</time></trkpt><trkpt lat="44.7820967" lon="8.9981883"><ele>288.59999999999997</ele><time>2026-04-08T14:58:06.018Z</time></trkpt><trkpt lat="44.7821517" lon="8.998315"><ele>288.8</ele><time>2026-04-08T14:58:07.018Z</time></trkpt><trkpt lat="44.7822" lon="8.998445"><ele>289.0</ele><time>2026-04-08T14:58:08.019Z</time></trkpt><trkpt lat="44.7822583" lon="8.9985633"><ele>288.25</ele><time>2026-04-08T14:58:09.019Z</time></trkpt><trkpt lat="44.78233" lon="8.9986617"><ele>287.5</ele><time>2026-04-08T14:58:10.018Z</time></trkpt><trkpt lat="44.7824217" lon="8.9987433"><ele>286.75</ele><time>2026-04-08T14:58:11.019Z</time></trkpt><trkpt lat="44.7825267" lon="8.9988217"><ele>286.0</ele><time>2026-04-08T14:58:12.019Z</time></trkpt><trkpt lat="44.7826367" lon="8.9989067"><ele>285.25</ele><time>2026-04-08T14:58:13.018Z</time></trkpt><trkpt lat="44.7827483" lon="8.9989967"><ele>284.5</ele><time>2026-04-08T14:58:14.018Z</time></trkpt><trkpt lat="44.7828633" lon="8.9990983"><ele>283.75</ele><time>2026-04-08T14:58:15.018Z</time></trkpt><trkpt lat="44.7829817" lon="8.9992083"><ele>283.0</ele><time>2026-04-08T14:58:16.019Z</time></trkpt><trkpt lat="44.7831" lon="8.9993167"><ele>283.0</ele><time>2026-04-08T14:58:17.018Z</time></trkpt><trkpt lat="44.7832267" lon="8.999435"><ele>283.0</ele><time>2026-04-08T14:58:18.018Z</time></trkpt><trkpt lat="44.78336" lon="8.99956"><ele>283.0</ele><time>2026-04-08T14:58:19.019Z</time></trkpt><trkpt lat="44.7834967" lon="8.9996817"><ele>284.0</ele><time>2026-04-08T14:58:20.019Z</time></trkpt><trkpt lat="44.7836333" lon="8.9998033"><ele>285.0</ele><time>2026-04-08T14:58:21.019Z</time></trkpt><trkpt lat="44.7837717" lon="8.9999233"><ele>286.0</ele><time>2026-04-08T14:58:22.018Z</time></trkpt><trkpt lat="44.78392" lon="9.000045"><ele>286.0</ele><time>2026-04-08T14:58:23.019Z</time></trkpt><trkpt lat="44.7840633" lon="9.000165"><ele>286.0</ele><time>2026-04-08T14:58:24.019Z</time></trkpt><trkpt lat="44.7842033" lon="9.00028"><ele>286.0</ele><time>2026-04-08T14:58:25.018Z</time></trkpt><trkpt lat="44.7843317" lon="9.0003783"><ele>289.0</ele><time>2026-04-08T14:58:26.018Z</time></trkpt><trkpt lat="44.78445" lon="9.0004833"><ele>292.0</ele><time>2026-04-08T14:58:27.018Z</time></trkpt><trkpt lat="44.78456" lon="9.000585"><ele>295.0</ele><time>2026-04-08T14:58:28.018Z</time></trkpt><trkpt lat="44.78468" lon="9.0006883"><ele>298.0</ele><time>2026-04-08T14:58:29.018Z</time></trkpt><trkpt lat="44.7848017" lon="9.000785"><ele>294.25</ele><time>2026-04-08T14:58:30.018Z</time></trkpt><trkpt lat="44.7849167" lon="9.0008867"><ele>290.5</ele><time>2026-04-08T14:58:31.018Z</time></trkpt><trkpt lat="44.7850333" lon="9.0009833"><ele>286.75</ele><time>2026-04-08T14:58:32.018Z</time></trkpt><trkpt lat="44.7851567" lon="9.00108"><ele>283.0</ele><time>2026-04-08T14:58:33.019Z</time></trkpt><trkpt lat="44.7852783" lon="9.0011833"><ele>283.0</ele><time>2026-04-08T14:58:34.018Z</time></trkpt><trkpt lat="44.7853967" lon="9.0012833"><ele>283.0</ele><time>2026-04-08T14:58:35.019Z</time></trkpt><trkpt lat="44.78552" lon="9.001385"><ele>283.0</ele><time>2026-04-08T14:58:36.018Z</time></trkpt><trkpt lat="44.7856433" lon="9.0014833"><ele>283.0</ele><time>2026-04-08T14:58:37.018Z</time></trkpt><trkpt lat="44.78576" lon="9.001585"><ele>281.5</ele><time>2026-04-08T14:58:38.018Z</time></trkpt><trkpt lat="44.785885" lon="9.0016917"><ele>280.0</ele><time>2026-04-08T14:58:39.019Z</time></trkpt><trkpt lat="44.7860117" lon="9.001795"><ele>278.5</ele><time>2026-04-08T14:58:40.019Z</time></trkpt><trkpt lat="44.7861317" lon="9.0018917"><ele>277.0</ele><time>2026-04-08T14:58:41.018Z</time></trkpt><trkpt lat="44.7862517" lon="9.00199"><ele>276.0</ele><time>2026-04-08T14:58:42.018Z</time></trkpt><trkpt lat="44.7863667" lon="9.0020833"><ele>275.0</ele><time>2026-04-08T14:58:43.018Z</time></trkpt><trkpt lat="44.786475" lon="9.00217"><ele>274.0</ele><time>2026-04-08T14:58:44.018Z</time></trkpt><trkpt lat="44.7865833" lon="9.002265"><ele>273.0</ele><time>2026-04-08T14:58:45.019Z</time></trkpt><trkpt lat="44.7866917" lon="9.0023633"><ele>273.0</ele><time>2026-04-08T14:58:46.018Z</time></trkpt><trkpt lat="44.7867983" lon="9.0024583"><ele>273.0</ele><time>2026-04-08T14:58:47.018Z</time></trkpt><trkpt lat="44.7869033" lon="9.00255"><ele>273.0</ele><time>2026-04-08T14:58:48.018Z</time></trkpt><trkpt lat="44.787005" lon="9.0026333"><ele>273.0</ele><time>2026-04-08T14:58:49.018Z</time></trkpt><trkpt lat="44.7871067" lon="9.0027017"><ele>272.25</ele><time>2026-04-08T14:58:50.019Z</time></trkpt><trkpt lat="44.78722" lon="9.00276"><ele>271.5</ele><time>2026-04-08T14:58:51.019Z</time></trkpt><trkpt lat="44.787345" lon="9.0027983"><ele>270.75</ele><time>2026-04-08T14:58:52.018Z</time></trkpt><trkpt lat="44.787475" lon="9.0028167"><ele>270.0</ele><time>2026-04-08T14:58:53.018Z</time></trkpt><trkpt lat="44.7876083" lon="9.00282"><ele>269.5</ele><time>2026-04-08T14:58:54.018Z</time></trkpt><trkpt lat="44.7877417" lon="9.002815"><ele>269.0</ele><time>2026-04-08T14:58:55.018Z</time></trkpt><trkpt lat="44.7878817" lon="9.00281"><ele>268.5</ele><time>2026-04-08T14:58:56.018Z</time></trkpt><trkpt lat="44.7880167" lon="9.0028083"><ele>268.0</ele><time>2026-04-08T14:58:57.019Z</time></trkpt><trkpt lat="44.7881483" lon="9.0028067"><ele>268.0</ele><time>2026-04-08T14:58:58.018Z</time></trkpt><trkpt lat="44.7882883" lon="9.002805"><ele>268.0</ele><time>2026-04-08T14:58:59.018Z</time></trkpt><trkpt lat="44.788435" lon="9.00279"><ele>268.0</ele><time>2026-04-08T14:59:00.019Z</time></trkpt><trkpt lat="44.7885817" lon="9.00278"><ele>268.0</ele><time>2026-04-08T14:59:01.018Z</time></trkpt><trkpt lat="44.7887283" lon="9.0027633"><ele>267.25</ele><time>2026-04-08T14:59:02.019Z</time></trkpt><trkpt lat="44.7888717" lon="9.0027617"><ele>266.5</ele><time>2026-04-08T14:59:03.018Z</time></trkpt><trkpt lat="44.7890183" lon="9.002765"><ele>265.75</ele><time>2026-04-08T14:59:04.018Z</time></trkpt><trkpt lat="44.7891667" lon="9.0027717"><ele>265.0</ele><time>2026-04-08T14:59:05.019Z</time></trkpt><trkpt lat="44.7893183" lon="9.0027717"><ele>265.25</ele><time>2026-04-08T14:59:06.018Z</time></trkpt><trkpt lat="44.7894683" lon="9.00277"><ele>265.5</ele><time>2026-04-08T14:59:07.019Z</time></trkpt><trkpt lat="44.7896133" lon="9.002755"><ele>265.75</ele><time>2026-04-08T14:59:08.019Z</time></trkpt><trkpt lat="44.7897583" lon="9.0027283"><ele>266.0</ele><time>2026-04-08T14:59:09.018Z</time></trkpt><trkpt lat="44.789905" lon="9.0026967"><ele>266.0</ele><time>2026-04-08T14:59:10.019Z</time></trkpt><trkpt lat="44.7900567" lon="9.0026633"><ele>266.0</ele><time>2026-04-08T14:59:11.018Z</time></trkpt><trkpt lat="44.790205" lon="9.0026267"><ele>266.0</ele><time>2026-04-08T14:59:12.019Z</time></trkpt><trkpt lat="44.790355" lon="9.0025933"><ele>265.25</ele><time>2026-04-08T14:59:13.018Z</time></trkpt><trkpt lat="44.7905067" lon="9.00255"><ele>264.5</ele><time>2026-04-08T14:59:14.018Z</time></trkpt><trkpt lat="44.7906433" lon="9.0025167"><ele>263.75</ele><time>2026-04-08T14:59:15.019Z</time></trkpt><trkpt lat="44.7907817" lon="9.0024833"><ele>263.0</ele><time>2026-04-08T14:59:16.019Z</time></trkpt><trkpt lat="44.7909133" lon="9.00245"><ele>264.0</ele><time>2026-04-08T14:59:17.019Z</time></trkpt><trkpt lat="44.7910467" lon="9.0024167"><ele>265.0</ele><time>2026-04-08T14:59:18.018Z</time></trkpt><trkpt lat="44.7911767" lon="9.0023883"><ele>266.0</ele><time>2026-04-08T14:59:19.018Z</time></trkpt><trkpt lat="44.79131" lon="9.0023617"><ele>267.0</ele><time>2026-04-08T14:59:20.018Z</time></trkpt><trkpt lat="44.7914483" lon="9.0023217"><ele>267.0</ele><time>2026-04-08T14:59:21.018Z</time></trkpt><trkpt lat="44.7915733" lon="9.002265"><ele>267.0</ele><time>2026-04-08T14:59:22.018Z</time></trkpt><trkpt lat="44.7916967" lon="9.00219"><ele>267.0</ele><time>2026-04-08T14:59:23.018Z</time></trkpt><trkpt lat="44.7918183" lon="9.00211"><ele>267.0</ele><time>2026-04-08T14:59:24.018Z</time></trkpt><trkpt lat="44.7919483" lon="9.00202"><ele>266.25</ele><time>2026-04-08T14:59:25.019Z</time></trkpt><trkpt lat="44.7920733" lon="9.001925"><ele>265.5</ele><time>2026-04-08T14:59:26.019Z</time></trkpt><trkpt lat="44.7921983" lon="9.0018283"><ele>264.75</ele><time>2026-04-08T14:59:27.018Z</time></trkpt><trkpt lat="44.7923233" lon="9.0017283"><ele>264.0</ele><time>2026-04-08T14:59:28.018Z</time></trkpt><trkpt lat="44.7924533" lon="9.001625"><ele>264.0</ele><time>2026-04-08T14:59:29.019Z</time></trkpt><trkpt lat="44.7925867" lon="9.0015267"><ele>264.0</ele><time>2026-04-08T14:59:30.019Z</time></trkpt><trkpt lat="44.7927167" lon="9.0014317"><ele>264.0</ele><time>2026-04-08T14:59:31.018Z</time></trkpt><trkpt lat="44.7928433" lon="9.0013317"><ele>264.0</ele><time>2026-04-08T14:59:32.018Z</time></trkpt><trkpt lat="44.7929733" lon="9.0012383"><ele>261.3333333333333</ele><time>2026-04-08T14:59:33.018Z</time></trkpt><trkpt lat="44.7931033" lon="9.0011317"><ele>258.66666666666663</ele><time>2026-04-08T14:59:34.018Z</time></trkpt><trkpt lat="44.7932383" lon="9.00103"><ele>256.0</ele><time>2026-04-08T14:59:35.019Z</time></trkpt><trkpt lat="44.7933767" lon="9.0009333"><ele>256.66666666666663</ele><time>2026-04-08T14:59:36.018Z</time></trkpt><trkpt lat="44.79351" lon="9.0008267"><ele>257.3333333333333</ele><time>2026-04-08T14:59:37.019Z</time></trkpt><trkpt lat="44.7936433" lon="9.0007217"><ele>258.0</ele><time>2026-04-08T14:59:38.018Z</time></trkpt><trkpt lat="44.79378" lon="9.00062"><ele>258.0</ele><time>2026-04-08T14:59:39.018Z</time></trkpt><trkpt lat="44.7939083" lon="9.0005133"><ele>258.0</ele><time>2026-04-08T14:59:40.018Z</time></trkpt><trkpt lat="44.7940367" lon="9.000385"><ele>258.0</ele><time>2026-04-08T14:59:41.019Z</time></trkpt><trkpt lat="44.7941667" lon="9.0002617"><ele>258.0</ele><time>2026-04-08T14:59:42.018Z</time></trkpt><trkpt lat="44.7943033" lon="9.00013"><ele>258.0</ele><time>2026-04-08T14:59:43.019Z</time></trkpt><trkpt lat="44.794435" lon="9.0000067"><ele>258.0</ele><time>2026-04-08T14:59:44.019Z</time></trkpt><trkpt lat="44.7945667" lon="8.999875"><ele>257.6666666666667</ele><time>2026-04-08T14:59:45.019Z</time></trkpt><trkpt lat="44.794695" lon="8.9997433"><ele>257.33333333333337</ele><time>2026-04-08T14:59:46.018Z</time></trkpt><trkpt lat="44.7948233" lon="8.99962"><ele>257.0</ele><time>2026-04-08T14:59:47.019Z</time></trkpt><trkpt lat="44.7949517" lon="8.9994883"><ele>257.0</ele><time>2026-04-08T14:59:48.018Z</time></trkpt><trkpt lat="44.7950783" lon="8.999365"><ele>257.0</ele><time>2026-04-08T14:59:49.018Z</time></trkpt><trkpt lat="44.795205" lon="8.99924"><ele>257.0</ele><time>2026-04-08T14:59:50.018Z</time></trkpt><trkpt lat="44.79533" lon="8.999115"><ele>255.75</ele><time>2026-04-08T14:59:51.018Z</time></trkpt><trkpt lat="44.7954483" lon="8.9990017"><ele>254.5</ele><time>2026-04-08T14:59:52.018Z</time></trkpt><trkpt lat="44.7955567" lon="8.9988933"><ele>253.25</ele><time>2026-04-08T14:59:53.018Z</time></trkpt><trkpt lat="44.795665" lon="8.9987917"><ele>252.0</ele><time>2026-04-08T14:59:54.018Z</time></trkpt><trkpt lat="44.79577" lon="8.9986867"><ele>252.0</ele><time>2026-04-08T14:59:55.018Z</time></trkpt><trkpt lat="44.7958733" lon="8.9985817"><ele>252.0</ele><time>2026-04-08T14:59:56.019Z</time></trkpt><trkpt lat="44.7959683" lon="8.99848"><ele>252.0</ele><time>2026-04-08T14:59:57.019Z</time></trkpt><trkpt lat="44.796075" lon="8.9983767"><ele>252.0</ele><time>2026-04-08T14:59:58.019Z</time></trkpt><trkpt lat="44.796185" lon="8.99827"><ele>252.25</ele><time>2026-04-08T14:59:59.018Z</time></trkpt><trkpt lat="44.796295" lon="8.99816"><ele>252.5</ele><time>2026-04-08T15:00:00.019Z</time></trkpt><trkpt lat="44.7964083" lon="8.9980533"><ele>252.75</ele><time>2026-04-08T15:00:01.019Z</time></trkpt><trkpt lat="44.796525" lon="8.9979483"><ele>253.0</ele><time>2026-04-08T15:00:02.018Z</time></trkpt><trkpt lat="44.7966517" lon="8.9978533"><ele>253.0</ele><time>2026-04-08T15:00:03.019Z</time></trkpt><trkpt lat="44.796785" lon="8.99777"><ele>253.0</ele><time>2026-04-08T15:00:04.019Z</time></trkpt><trkpt lat="44.7969183" lon="8.997695"><ele>253.0</ele><time>2026-04-08T15:00:05.019Z</time></trkpt><trkpt lat="44.797055" lon="8.9976217"><ele>253.0</ele><time>2026-04-08T15:00:06.019Z</time></trkpt><trkpt lat="44.797185" lon="8.9975383"><ele>252.5</ele><time>2026-04-08T15:00:07.018Z</time></trkpt><trkpt lat="44.7973133" lon="8.997455"><ele>252.0</ele><time>2026-04-08T15:00:08.018Z</time></trkpt><trkpt lat="44.797445" lon="8.9973683"><ele>251.5</ele><time>2026-04-08T15:00:09.019Z</time></trkpt><trkpt lat="44.797575" lon="8.9972867"><ele>251.0</ele><time>2026-04-08T15:00:10.019Z</time></trkpt><trkpt lat="44.7977033" lon="8.9972033"><ele>250.5</ele><time>2026-04-08T15:00:11.019Z</time></trkpt><trkpt lat="44.7978333" lon="8.9971133"><ele>250.0</ele><time>2026-04-08T15:00:12.019Z</time></trkpt><trkpt lat="44.7979633" lon="8.9970283"><ele>249.5</ele><time>2026-04-08T15:00:13.018Z</time></trkpt><trkpt lat="44.7980933" lon="8.9969417"><ele>249.0</ele><time>2026-04-08T15:00:14.019Z</time></trkpt><trkpt lat="44.7982233" lon="8.996855"><ele>249.0</ele><time>2026-04-08T15:00:15.018Z</time></trkpt><trkpt lat="44.798355" lon="8.9967683"><ele>249.0</ele><time>2026-04-08T15:00:16.019Z</time></trkpt><trkpt lat="44.7984817" lon="8.996685"><ele>249.0</ele><time>2026-04-08T15:00:17.018Z</time></trkpt><trkpt lat="44.7986083" lon="8.9965967"><ele>249.0</ele><time>2026-04-08T15:00:18.019Z</time></trkpt><trkpt lat="44.7987333" lon="8.9965"><ele>249.0</ele><time>2026-04-08T15:00:19.018Z</time></trkpt><trkpt lat="44.79886" lon="8.9963983"><ele>249.0</ele><time>2026-04-08T15:00:20.018Z</time></trkpt><trkpt lat="44.7989867" lon="8.9962933"><ele>249.0</ele><time>2026-04-08T15:00:21.018Z</time></trkpt><trkpt lat="44.79912" lon="8.9961867"><ele>249.0</ele><time>2026-04-08T15:00:22.019Z</time></trkpt><trkpt lat="44.7992567" lon="8.9960783"><ele>248.66666666666669</ele><time>2026-04-08T15:00:23.018Z</time></trkpt><trkpt lat="44.7993917" lon="8.9959767"><ele>248.33333333333334</ele><time>2026-04-08T15:00:24.018Z</time></trkpt><trkpt lat="44.7995283" lon="8.99587"><ele>248.0</ele><time>2026-04-08T15:00:25.019Z</time></trkpt><trkpt lat="44.79966" lon="8.9957617"><ele>247.75</ele><time>2026-04-08T15:00:26.018Z</time></trkpt><trkpt lat="44.79979" lon="8.99566"><ele>247.5</ele><time>2026-04-08T15:00:27.019Z</time></trkpt><trkpt lat="44.7999183" lon="8.995555"><ele>247.25</ele><time>2026-04-08T15:00:28.018Z</time></trkpt><trkpt lat="44.8000433" lon="8.9954533"><ele>247.0</ele><time>2026-04-08T15:00:29.018Z</time></trkpt><trkpt lat="44.8001683" lon="8.9953567"><ele>247.0</ele><time>2026-04-08T15:00:30.019Z</time></trkpt><trkpt lat="44.8002933" lon="8.9952567"><ele>247.0</ele><time>2026-04-08T15:00:31.018Z</time></trkpt><trkpt lat="44.800415" lon="8.9951583"><ele>247.0</ele><time>2026-04-08T15:00:32.018Z</time></trkpt><trkpt lat="44.800535" lon="8.99506"><ele>247.0</ele><time>2026-04-08T15:00:33.019Z</time></trkpt><trkpt lat="44.8006567" lon="8.9949617"><ele>247.25</ele><time>2026-04-08T15:00:34.019Z</time></trkpt><trkpt lat="44.8007733" lon="8.994865"><ele>247.5</ele><time>2026-04-08T15:00:35.019Z</time></trkpt><trkpt lat="44.80089" lon="8.9947683"><ele>247.75</ele><time>2026-04-08T15:00:36.019Z</time></trkpt><trkpt lat="44.8010083" lon="8.994675"><ele>248.0</ele><time>2026-04-08T15:00:37.018Z</time></trkpt><trkpt lat="44.8011283" lon="8.9945783"><ele>248.0</ele><time>2026-04-08T15:00:38.018Z</time></trkpt><trkpt lat="44.8012383" lon="8.9944883"><ele>248.0</ele><time>2026-04-08T15:00:39.019Z</time></trkpt><trkpt lat="44.8013533" lon="8.994395"><ele>248.0</ele><time>2026-04-08T15:00:40.019Z</time></trkpt><trkpt lat="44.8014667" lon="8.9943033"><ele>248.0</ele><time>2026-04-08T15:00:41.019Z</time></trkpt><trkpt lat="44.8015817" lon="8.9942117"><ele>247.75</ele><time>2026-04-08T15:00:42.018Z</time></trkpt><trkpt lat="44.8016967" lon="8.99411"><ele>247.5</ele><time>2026-04-08T15:00:43.018Z</time></trkpt><trkpt lat="44.801805" lon="8.9940183"><ele>247.25</ele><time>2026-04-08T15:00:44.018Z</time></trkpt><trkpt lat="44.8019167" lon="8.993925"><ele>247.0</ele><time>2026-04-08T15:00:45.018Z</time></trkpt><trkpt lat="44.802035" lon="8.9938317"><ele>247.0</ele><time>2026-04-08T15:00:46.017Z</time></trkpt><trkpt lat="44.8021567" lon="8.9937433"><ele>247.0</ele><time>2026-04-08T15:00:47.017Z</time></trkpt><trkpt lat="44.8022683" lon="8.9936583"><ele>247.0</ele><time>2026-04-08T15:00:48.017Z</time></trkpt><trkpt lat="44.80238" lon="8.9935617"><ele>247.0</ele><time>2026-04-08T15:00:49.017Z</time></trkpt><trkpt lat="44.8024933" lon="8.993475"><ele>247.0</ele><time>2026-04-08T15:00:50.018Z</time></trkpt><trkpt lat="44.8026117" lon="8.9933883"><ele>247.0</ele><time>2026-04-08T15:00:51.017Z</time></trkpt><trkpt lat="44.80272" lon="8.9933"><ele>247.0</ele><time>2026-04-08T15:00:52.018Z</time></trkpt><trkpt lat="44.8028317" lon="8.9932017"><ele>247.0</ele><time>2026-04-08T15:00:53.017Z</time></trkpt><trkpt lat="44.80295" lon="8.993115"><ele>245.75</ele><time>2026-04-08T15:00:54.018Z</time></trkpt><trkpt lat="44.803075" lon="8.9930183"><ele>244.5</ele><time>2026-04-08T15:00:55.018Z</time></trkpt><trkpt lat="44.8032033" lon="8.9929167"><ele>243.25</ele><time>2026-04-08T15:00:56.017Z</time></trkpt><trkpt lat="44.8033317" lon="8.9928133"><ele>242.0</ele><time>2026-04-08T15:00:57.017Z</time></trkpt><trkpt lat="44.8034633" lon="8.9927067"><ele>241.33333333333334</ele><time>2026-04-08T15:00:58.018Z</time></trkpt><trkpt lat="44.803595" lon="8.9926"><ele>240.66666666666669</ele><time>2026-04-08T15:00:59.017Z</time></trkpt><trkpt lat="44.80373" lon="8.99249"><ele>240.0</ele><time>2026-04-08T15:01:00.017Z</time></trkpt><trkpt lat="44.803865" lon="8.9923833"><ele>240.0</ele><time>2026-04-08T15:01:01.017Z</time></trkpt><trkpt lat="44.8040033" lon="8.9922733"><ele>240.0</ele><time>2026-04-08T15:01:02.017Z</time></trkpt><trkpt lat="44.804145" lon="8.992165"><ele>240.0</ele><time>2026-04-08T15:01:03.017Z</time></trkpt><trkpt lat="44.8042833" lon="8.9920533"><ele>240.33333333333331</ele><time>2026-04-08T15:01:04.018Z</time></trkpt><trkpt lat="44.8044183" lon="8.9919417"><ele>240.66666666666666</ele><time>2026-04-08T15:01:05.018Z</time></trkpt><trkpt lat="44.8045517" lon="8.991835"><ele>241.0</ele><time>2026-04-08T15:01:06.017Z</time></trkpt><trkpt lat="44.80468" lon="8.99173"><ele>241.0</ele><time>2026-04-08T15:01:07.018Z</time></trkpt><trkpt lat="44.8048067" lon="8.9916267"><ele>241.0</ele><time>2026-04-08T15:01:08.018Z</time></trkpt><trkpt lat="44.8049317" lon="8.9915233"><ele>241.0</ele><time>2026-04-08T15:01:09.017Z</time></trkpt><trkpt lat="44.805055" lon="8.991425"><ele>241.0</ele><time>2026-04-08T15:01:10.018Z</time></trkpt><trkpt lat="44.8051783" lon="8.9913233"><ele>241.0</ele><time>2026-04-08T15:01:11.017Z</time></trkpt><trkpt lat="44.8053033" lon="8.991225"><ele>241.0</ele><time>2026-04-08T15:01:12.018Z</time></trkpt><trkpt lat="44.805425" lon="8.9911317"><ele>241.0</ele><time>2026-04-08T15:01:13.017Z</time></trkpt><trkpt lat="44.8055517" lon="8.9910367"><ele>241.0</ele><time>2026-04-08T15:01:14.018Z</time></trkpt><trkpt lat="44.80568" lon="8.9909417"><ele>241.5</ele><time>2026-04-08T15:01:15.017Z</time></trkpt><trkpt lat="44.805805" lon="8.99084"><ele>242.0</ele><time>2026-04-08T15:01:16.017Z</time></trkpt><trkpt lat="44.80593" lon="8.9907467"><ele>242.5</ele><time>2026-04-08T15:01:17.017Z</time></trkpt><trkpt lat="44.8060583" lon="8.9906583"><ele>243.0</ele><time>2026-04-08T15:01:18.017Z</time></trkpt><trkpt lat="44.8061883" lon="8.99057"><ele>241.5</ele><time>2026-04-08T15:01:19.017Z</time></trkpt><trkpt lat="44.8063233" lon="8.9904817"><ele>240.0</ele><time>2026-04-08T15:01:20.017Z</time></trkpt><trkpt lat="44.806455" lon="8.9903967"><ele>238.5</ele><time>2026-04-08T15:01:21.018Z</time></trkpt><trkpt lat="44.8065933" lon="8.9903083"><ele>237.0</ele><time>2026-04-08T15:01:22.017Z</time></trkpt><trkpt lat="44.8067267" lon="8.9902167"><ele>237.0</ele><time>2026-04-08T15:01:23.017Z</time></trkpt><trkpt lat="44.8068567" lon="8.99012"><ele>237.0</ele><time>2026-04-08T15:01:24.018Z</time></trkpt><trkpt lat="44.8069783" lon="8.9900133"><ele>237.0</ele><time>2026-04-08T15:01:25.018Z</time></trkpt><trkpt lat="44.807105" lon="8.989915"><ele>237.0</ele><time>2026-04-08T15:01:26.017Z</time></trkpt><trkpt lat="44.8072333" lon="8.9898133"><ele>237.5</ele><time>2026-04-08T15:01:27.018Z</time></trkpt><trkpt lat="44.8073583" lon="8.9897033"><ele>238.0</ele><time>2026-04-08T15:01:28.017Z</time></trkpt><trkpt lat="44.8074833" lon="8.989595"><ele>238.5</ele><time>2026-04-08T15:01:29.017Z</time></trkpt><trkpt lat="44.80761" lon="8.9894817"><ele>239.0</ele><time>2026-04-08T15:01:30.017Z</time></trkpt><trkpt lat="44.8077367" lon="8.9893733"><ele>237.66666666666669</ele><time>2026-04-08T15:01:31.017Z</time></trkpt><trkpt lat="44.8078667" lon="8.9892567"><ele>236.33333333333331</ele><time>2026-04-08T15:01:32.017Z</time></trkpt><trkpt lat="44.807995" lon="8.9891367"><ele>235.0</ele><time>2026-04-08T15:01:33.018Z</time></trkpt><trkpt lat="44.8081233" lon="8.9890133"><ele>235.0</ele><time>2026-04-08T15:01:34.017Z</time></trkpt><trkpt lat="44.8082483" lon="8.9888867"><ele>235.0</ele><time>2026-04-08T15:01:35.017Z</time></trkpt><trkpt lat="44.8083733" lon="8.9887617"><ele>235.0</ele><time>2026-04-08T15:01:36.017Z</time></trkpt><trkpt lat="44.808495" lon="8.9886233"><ele>234.66666666666666</ele><time>2026-04-08T15:01:37.017Z</time></trkpt><trkpt lat="44.8086183" lon="8.9884833"><ele>234.33333333333331</ele><time>2026-04-08T15:01:38.017Z</time></trkpt><trkpt lat="44.808745" lon="8.9883467"><ele>234.0</ele><time>2026-04-08T15:01:39.017Z</time></trkpt><trkpt lat="44.8088683" lon="8.9882083"><ele>234.0</ele><time>2026-04-08T15:01:40.017Z</time></trkpt><trkpt lat="44.8089983" lon="8.9880717"><ele>234.0</ele><time>2026-04-08T15:01:41.018Z</time></trkpt><trkpt lat="44.8091283" lon="8.9879383"><ele>234.0</ele><time>2026-04-08T15:01:42.018Z</time></trkpt><trkpt lat="44.8092567" lon="8.987805"><ele>232.33333333333331</ele><time>2026-04-08T15:01:43.017Z</time></trkpt><trkpt lat="44.8093867" lon="8.9876767"><ele>230.66666666666666</ele><time>2026-04-08T15:01:44.017Z</time></trkpt><trkpt lat="44.8095183" lon="8.9875483"><ele>229.0</ele><time>2026-04-08T15:01:45.017Z</time></trkpt><trkpt lat="44.8096483" lon="8.9874167"><ele>228.66666666666666</ele><time>2026-04-08T15:01:46.018Z</time></trkpt><trkpt lat="44.8097817" lon="8.9872933"><ele>228.33333333333331</ele><time>2026-04-08T15:01:47.017Z</time></trkpt><trkpt lat="44.8099167" lon="8.9871667"><ele>228.0</ele><time>2026-04-08T15:01:48.018Z</time></trkpt><trkpt lat="44.8100517" lon="8.9870383"><ele>228.0</ele><time>2026-04-08T15:01:49.017Z</time></trkpt><trkpt lat="44.810185" lon="8.9869067"><ele>228.0</ele><time>2026-04-08T15:01:50.017Z</time></trkpt><trkpt lat="44.8103183" lon="8.9867783"><ele>228.0</ele><time>2026-04-08T15:01:51.018Z</time></trkpt><trkpt lat="44.81045" lon="8.9866483"><ele>228.0</ele><time>2026-04-08T15:01:52.017Z</time></trkpt><trkpt lat="44.81058" lon="8.9865217"><ele>228.0</ele><time>2026-04-08T15:01:53.018Z</time></trkpt><trkpt lat="44.8107117" lon="8.9863933"><ele>228.0</ele><time>2026-04-08T15:01:54.017Z</time></trkpt><trkpt lat="44.8108467" lon="8.98626"><ele>228.0</ele><time>2026-04-08T15:01:55.017Z</time></trkpt><trkpt lat="44.81098" lon="8.9861283"><ele>228.0</ele><time>2026-04-08T15:01:56.017Z</time></trkpt><trkpt lat="44.8111117" lon="8.9860017"><ele>228.0</ele><time>2026-04-08T15:01:57.017Z</time></trkpt><trkpt lat="44.8112367" lon="8.9858833"><ele>228.0</ele><time>2026-04-08T15:01:58.018Z</time></trkpt><trkpt lat="44.811365" lon="8.985765"><ele>228.0</ele><time>2026-04-08T15:01:59.017Z</time></trkpt><trkpt lat="44.81149" lon="8.9856433"><ele>228.0</ele><time>2026-04-08T15:02:00.017Z</time></trkpt><trkpt lat="44.811605" lon="8.985525"><ele>228.0</ele><time>2026-04-08T15:02:01.018Z</time></trkpt><trkpt lat="44.8117233" lon="8.98541"><ele>227.75</ele><time>2026-04-08T15:02:02.018Z</time></trkpt><trkpt lat="44.8118483" lon="8.9852917"><ele>227.5</ele><time>2026-04-08T15:02:03.017Z</time></trkpt><trkpt lat="44.8119733" lon="8.985175"><ele>227.25</ele><time>2026-04-08T15:02:04.017Z</time></trkpt><trkpt lat="44.81209" lon="8.9850633"><ele>227.0</ele><time>2026-04-08T15:02:05.017Z</time></trkpt><trkpt lat="44.8122" lon="8.9849467"><ele>227.0</ele><time>2026-04-08T15:02:06.018Z</time></trkpt><trkpt lat="44.8123167" lon="8.9848283"><ele>227.0</ele><time>2026-04-08T15:02:07.018Z</time></trkpt><trkpt lat="44.812435" lon="8.9847117"><ele>227.0</ele><time>2026-04-08T15:02:08.018Z</time></trkpt><trkpt lat="44.81255" lon="8.9845983"><ele>227.0</ele><time>2026-04-08T15:02:09.017Z</time></trkpt><trkpt lat="44.812665" lon="8.98449"><ele>227.25</ele><time>2026-04-08T15:02:10.018Z</time></trkpt><trkpt lat="44.81278" lon="8.9843783"><ele>227.5</ele><time>2026-04-08T15:02:11.017Z</time></trkpt><trkpt lat="44.8128867" lon="8.9842683"><ele>227.75</ele><time>2026-04-08T15:02:12.017Z</time></trkpt><trkpt lat="44.81299" lon="8.98416"><ele>228.0</ele><time>2026-04-08T15:02:13.017Z</time></trkpt><trkpt lat="44.8130933" lon="8.9840533"><ele>228.0</ele><time>2026-04-08T15:02:14.018Z</time></trkpt><trkpt lat="44.8132017" lon="8.9839517"><ele>228.0</ele><time>2026-04-08T15:02:15.017Z</time></trkpt><trkpt lat="44.81331" lon="8.9838467"><ele>228.0</ele><time>2026-04-08T15:02:16.018Z</time></trkpt><trkpt lat="44.8134183" lon="8.9837433"><ele>228.0</ele><time>2026-04-08T15:02:17.017Z</time></trkpt><trkpt lat="44.8135217" lon="8.983645"><ele>227.5</ele><time>2026-04-08T15:02:18.017Z</time></trkpt><trkpt lat="44.813625" lon="8.983545"><ele>227.0</ele><time>2026-04-08T15:02:19.017Z</time></trkpt><trkpt lat="44.8137317" lon="8.9834617"><ele>226.5</ele><time>2026-04-08T15:02:20.017Z</time></trkpt><trkpt lat="44.8138467" lon="8.9833817"><ele>226.0</ele><time>2026-04-08T15:02:21.018Z</time></trkpt><trkpt lat="44.81397" lon="8.983325"><ele>227.5</ele><time>2026-04-08T15:02:22.018Z</time></trkpt><trkpt lat="44.8140883" lon="8.9832917"><ele>229.0</ele><time>2026-04-08T15:02:23.017Z</time></trkpt><trkpt lat="44.8142167" lon="8.98328"><ele>230.5</ele><time>2026-04-08T15:02:24.017Z</time></trkpt><trkpt lat="44.81434" lon="8.9832933"><ele>232.0</ele><time>2026-04-08T15:02:25.018Z</time></trkpt><trkpt lat="44.8144617" lon="8.9833167"><ele>230.25</ele><time>2026-04-08T15:02:26.018Z</time></trkpt><trkpt lat="44.8145833" lon="8.9833633"><ele>228.5</ele><time>2026-04-08T15:02:27.017Z</time></trkpt><trkpt lat="44.8147017" lon="8.9834133"><ele>226.75</ele><time>2026-04-08T15:02:28.017Z</time></trkpt><trkpt lat="44.8148183" lon="8.9834617"><ele>225.0</ele><time>2026-04-08T15:02:29.018Z</time></trkpt><trkpt lat="44.81494" lon="8.9835083"><ele>225.0</ele><time>2026-04-08T15:02:30.017Z</time></trkpt><trkpt lat="44.8150717" lon="8.98355"><ele>225.0</ele><time>2026-04-08T15:02:31.018Z</time></trkpt><trkpt lat="44.815205" lon="8.9836017"><ele>225.0</ele><time>2026-04-08T15:02:32.018Z</time></trkpt><trkpt lat="44.815335" lon="8.983655"><ele>225.0</ele><time>2026-04-08T15:02:33.017Z</time></trkpt><trkpt lat="44.81547" lon="8.98371"><ele>224.5</ele><time>2026-04-08T15:02:34.017Z</time></trkpt><trkpt lat="44.8156" lon="8.983765"><ele>224.0</ele><time>2026-04-08T15:02:35.017Z</time></trkpt><trkpt lat="44.81572" lon="8.9838167"><ele>223.5</ele><time>2026-04-08T15:02:36.018Z</time></trkpt><trkpt lat="44.81583" lon="8.9838967"><ele>223.0</ele><time>2026-04-08T15:02:37.017Z</time></trkpt><trkpt lat="44.8159283" lon="8.983995"><ele>223.25</ele><time>2026-04-08T15:02:38.018Z</time></trkpt><trkpt lat="44.8160017" lon="8.98413"><ele>223.5</ele><time>2026-04-08T15:02:39.018Z</time></trkpt><trkpt lat="44.81606" lon="8.9842967"><ele>223.75</ele><time>2026-04-08T15:02:40.018Z</time></trkpt><trkpt lat="44.8160983" lon="8.984485"><ele>224.0</ele><time>2026-04-08T15:02:41.017Z</time></trkpt><trkpt lat="44.8161333" lon="8.984675"><ele>224.25</ele><time>2026-04-08T15:02:42.017Z</time></trkpt><trkpt lat="44.81618" lon="8.9848467"><ele>224.5</ele><time>2026-04-08T15:02:43.017Z</time></trkpt><trkpt lat="44.816235" lon="8.9850083"><ele>224.75</ele><time>2026-04-08T15:02:44.017Z</time></trkpt><trkpt lat="44.8163033" lon="8.9851483"><ele>225.0</ele><time>2026-04-08T15:02:45.017Z</time></trkpt><trkpt lat="44.8164033" lon="8.9852483"><ele>226.25</ele><time>2026-04-08T15:02:46.017Z</time></trkpt><trkpt lat="44.816515" lon="8.9853233"><ele>227.5</ele><time>2026-04-08T15:02:47.017Z</time></trkpt><trkpt lat="44.816635" lon="8.9853983"><ele>228.75</ele><time>2026-04-08T15:02:48.017Z</time></trkpt><trkpt lat="44.8167667" lon="8.98547"><ele>230.0</ele><time>2026-04-08T15:02:49.017Z</time></trkpt><trkpt lat="44.8168917" lon="8.985545"><ele>230.0</ele><time>2026-04-08T15:02:50.017Z</time></trkpt><trkpt lat="44.81702" lon="8.9856067"><ele>230.0</ele><time>2026-04-08T15:02:51.017Z</time></trkpt><trkpt lat="44.8171517" lon="8.98568"><ele>230.0</ele><time>2026-04-08T15:02:52.017Z</time></trkpt><trkpt lat="44.817285" lon="8.9857517"><ele>230.0</ele><time>2026-04-08T15:02:53.018Z</time></trkpt><trkpt lat="44.8174217" lon="8.9858167"><ele>232.33333333333334</ele><time>2026-04-08T15:02:54.018Z</time></trkpt><trkpt lat="44.8175617" lon="8.9858667"><ele>234.66666666666669</ele><time>2026-04-08T15:02:55.017Z</time></trkpt><trkpt lat="44.81771" lon="8.9859033"><ele>237.0</ele><time>2026-04-08T15:02:56.017Z</time></trkpt><trkpt lat="44.8178667" lon="8.98593"><ele>237.0</ele><time>2026-04-08T15:02:57.017Z</time></trkpt><trkpt lat="44.8180217" lon="8.9859667"><ele>237.0</ele><time>2026-04-08T15:02:58.017Z</time></trkpt><trkpt lat="44.8181733" lon="8.9860017"><ele>237.0</ele><time>2026-04-08T15:02:59.018Z</time></trkpt><trkpt lat="44.8183233" lon="8.986035"><ele>237.0</ele><time>2026-04-08T15:03:00.017Z</time></trkpt><trkpt lat="44.8184783" lon="8.9860617"><ele>237.0</ele><time>2026-04-08T15:03:01.017Z</time></trkpt><trkpt lat="44.818635" lon="8.9860867"><ele>237.0</ele><time>2026-04-08T15:03:02.018Z</time></trkpt><trkpt lat="44.8187933" lon="8.9861217"><ele>233.33333333333331</ele><time>2026-04-08T15:03:03.018Z</time></trkpt><trkpt lat="44.81895" lon="8.9861533"><ele>229.66666666666666</ele><time>2026-04-08T15:03:04.017Z</time></trkpt><trkpt lat="44.8191017" lon="8.9861917"><ele>226.0</ele><time>2026-04-08T15:03:05.017Z</time></trkpt><trkpt lat="44.8192617" lon="8.9862383"><ele>224.33333333333331</ele><time>2026-04-08T15:03:06.017Z</time></trkpt><trkpt lat="44.8194183" lon="8.986305"><ele>222.66666666666669</ele><time>2026-04-08T15:03:07.017Z</time></trkpt><trkpt lat="44.8195717" lon="8.9863883"><ele>221.0</ele><time>2026-04-08T15:03:08.018Z</time></trkpt><trkpt lat="44.8197267" lon="8.9864883"><ele>221.0</ele><time>2026-04-08T15:03:09.018Z</time></trkpt><trkpt lat="44.8198867" lon="8.9865917"><ele>221.0</ele><time>2026-04-08T15:03:10.017Z</time></trkpt><trkpt lat="44.82005" lon="8.9867017"><ele>221.0</ele><time>2026-04-08T15:03:11.018Z</time></trkpt><trkpt lat="44.8202067" lon="8.9868117"><ele>222.0</ele><time>2026-04-08T15:03:12.017Z</time></trkpt><trkpt lat="44.8203633" lon="8.98692"><ele>223.0</ele><time>2026-04-08T15:03:13.017Z</time></trkpt><trkpt lat="44.8205167" lon="8.9870283"><ele>224.0</ele><time>2026-04-08T15:03:14.017Z</time></trkpt><trkpt lat="44.8206733" lon="8.98713"><ele>224.0</ele><time>2026-04-08T15:03:15.017Z</time></trkpt><trkpt lat="44.82083" lon="8.9872383"><ele>224.0</ele><time>2026-04-08T15:03:16.017Z</time></trkpt><trkpt lat="44.8209917" lon="8.9873533"><ele>224.0</ele><time>2026-04-08T15:03:17.017Z</time></trkpt><trkpt lat="44.8211483" lon="8.9874683"><ele>227.0</ele><time>2026-04-08T15:03:18.017Z</time></trkpt><trkpt lat="44.8213083" lon="8.9875733"><ele>230.0</ele><time>2026-04-08T15:03:19.017Z</time></trkpt><trkpt lat="44.82147" lon="8.9876767"><ele>233.0</ele><time>2026-04-08T15:03:20.017Z</time></trkpt><trkpt lat="44.8216283" lon="8.9877833"><ele>233.0</ele><time>2026-04-08T15:03:21.017Z</time></trkpt><trkpt lat="44.82179" lon="8.987895"><ele>233.0</ele><time>2026-04-08T15:03:22.017Z</time></trkpt><trkpt lat="44.8219517" lon="8.988005"><ele>233.0</ele><time>2026-04-08T15:03:23.017Z</time></trkpt><trkpt lat="44.82211" lon="8.9881167"><ele>232.33333333333334</ele><time>2026-04-08T15:03:24.017Z</time></trkpt><trkpt lat="44.8222717" lon="8.9882333"><ele>231.66666666666669</ele><time>2026-04-08T15:03:25.017Z</time></trkpt><trkpt lat="44.82243" lon="8.988345"><ele>231.0</ele><time>2026-04-08T15:03:26.017Z</time></trkpt><trkpt lat="44.822595" lon="8.9884583"><ele>227.33333333333331</ele><time>2026-04-08T15:03:27.018Z</time></trkpt><trkpt lat="44.82276" lon="8.98857"><ele>223.66666666666666</ele><time>2026-04-08T15:03:28.017Z</time></trkpt><trkpt lat="44.8229217" lon="8.988685"><ele>220.0</ele><time>2026-04-08T15:03:29.017Z</time></trkpt><trkpt lat="44.8230783" lon="8.9887933"><ele>220.0</ele><time>2026-04-08T15:03:30.017Z</time></trkpt><trkpt lat="44.823235" lon="8.9888967"><ele>220.0</ele><time>2026-04-08T15:03:31.018Z</time></trkpt><trkpt lat="44.823385" lon="8.989005"><ele>220.0</ele><time>2026-04-08T15:03:32.017Z</time></trkpt><trkpt lat="44.8235383" lon="8.9891083"><ele>220.66666666666666</ele><time>2026-04-08T15:03:33.017Z</time></trkpt><trkpt lat="44.8236867" lon="8.9892117"><ele>221.33333333333331</ele><time>2026-04-08T15:03:34.017Z</time></trkpt><trkpt lat="44.823835" lon="8.989315"><ele>222.0</ele><time>2026-04-08T15:03:35.018Z</time></trkpt><trkpt lat="44.82398" lon="8.98942"><ele>222.0</ele><time>2026-04-08T15:03:36.017Z</time></trkpt><trkpt lat="44.824125" lon="8.9895167"><ele>222.0</ele><time>2026-04-08T15:03:37.017Z</time></trkpt><trkpt lat="44.8242767" lon="8.9896"><ele>222.0</ele><time>2026-04-08T15:03:38.017Z</time></trkpt><trkpt lat="44.824435" lon="8.9896667"><ele>220.66666666666669</ele><time>2026-04-08T15:03:39.017Z</time></trkpt><trkpt lat="44.8246033" lon="8.9897017"><ele>219.33333333333334</ele><time>2026-04-08T15:03:40.018Z</time></trkpt><trkpt lat="44.8247667" lon="8.9897033"><ele>218.0</ele><time>2026-04-08T15:03:41.017Z</time></trkpt><trkpt lat="44.8249333" lon="8.9896867"><ele>218.0</ele><time>2026-04-08T15:03:42.017Z</time></trkpt><trkpt lat="44.8251" lon="8.9896583"><ele>218.0</ele><time>2026-04-08T15:03:43.018Z</time></trkpt><trkpt lat="44.82528" lon="8.9896283"><ele>218.0</ele><time>2026-04-08T15:03:44.018Z</time></trkpt><trkpt lat="44.8254533" lon="8.9895933"><ele>219.66666666666669</ele><time>2026-04-08T15:03:45.018Z</time></trkpt><trkpt lat="44.825615" lon="8.9895483"><ele>221.33333333333331</ele><time>2026-04-08T15:03:46.017Z</time></trkpt><trkpt lat="44.8257667" lon="8.9894783"><ele>223.0</ele><time>2026-04-08T15:03:47.017Z</time></trkpt><trkpt lat="44.8259067" lon="8.9893883"><ele>223.33333333333331</ele><time>2026-04-08T15:03:48.017Z</time></trkpt><trkpt lat="44.8260283" lon="8.9892733"><ele>223.66666666666669</ele><time>2026-04-08T15:03:49.017Z</time></trkpt><trkpt lat="44.826135" lon="8.9891183"><ele>224.0</ele><time>2026-04-08T15:03:50.017Z</time></trkpt><trkpt lat="44.82624" lon="8.9889567"><ele>224.0</ele><time>2026-04-08T15:03:51.017Z</time></trkpt><trkpt lat="44.826335" lon="8.98879"><ele>224.0</ele><time>2026-04-08T15:03:52.017Z</time></trkpt><trkpt lat="44.8264167" lon="8.98862"><ele>224.0</ele><time>2026-04-08T15:03:53.018Z</time></trkpt><trkpt lat="44.8264767" lon="8.9884433"><ele>224.0</ele><time>2026-04-08T15:03:54.018Z</time></trkpt><trkpt lat="44.8265133" lon="8.9882483"><ele>222.25</ele><time>2026-04-08T15:03:55.017Z</time></trkpt><trkpt lat="44.8265317" lon="8.98805"><ele>220.5</ele><time>2026-04-08T15:03:56.017Z</time></trkpt><trkpt lat="44.8265333" lon="8.98785"><ele>218.75</ele><time>2026-04-08T15:03:57.018Z</time></trkpt><trkpt lat="44.8265367" lon="8.9876517"><ele>217.0</ele><time>2026-04-08T15:03:58.018Z</time></trkpt><trkpt lat="44.8265383" lon="8.9874433"><ele>216.25</ele><time>2026-04-08T15:03:59.018Z</time></trkpt><trkpt lat="44.826545" lon="8.9872383"><ele>215.5</ele><time>2026-04-08T15:04:00.017Z</time></trkpt><trkpt lat="44.8265667" lon="8.98703"><ele>214.75</ele><time>2026-04-08T15:04:01.018Z</time></trkpt><trkpt lat="44.826605" lon="8.9868283"><ele>214.0</ele><time>2026-04-08T15:04:02.018Z</time></trkpt><trkpt lat="44.826665" lon="8.9866367"><ele>213.33333333333331</ele><time>2026-04-08T15:04:03.018Z</time></trkpt><trkpt lat="44.8267467" lon="8.9864517"><ele>212.66666666666669</ele><time>2026-04-08T15:04:04.017Z</time></trkpt><trkpt lat="44.8268317" lon="8.9862583"><ele>212.0</ele><time>2026-04-08T15:04:05.018Z</time></trkpt><trkpt lat="44.8269183" lon="8.9860767"><ele>211.0</ele><time>2026-04-08T15:04:06.017Z</time></trkpt><trkpt lat="44.82701" lon="8.9858983"><ele>210.0</ele><time>2026-04-08T15:04:07.017Z</time></trkpt><trkpt lat="44.8271067" lon="8.9857183"><ele>209.0</ele><time>2026-04-08T15:04:08.018Z</time></trkpt><trkpt lat="44.8272067" lon="8.9855467"><ele>209.0</ele><time>2026-04-08T15:04:09.017Z</time></trkpt><trkpt lat="44.8273083" lon="8.985375"><ele>209.0</ele><time>2026-04-08T15:04:10.017Z</time></trkpt><trkpt lat="44.8274133" lon="8.98521"><ele>209.0</ele><time>2026-04-08T15:04:11.018Z</time></trkpt><trkpt lat="44.8275233" lon="8.9850533"><ele>209.0</ele><time>2026-04-08T15:04:12.017Z</time></trkpt><trkpt lat="44.827635" lon="8.9848983"><ele>209.0</ele><time>2026-04-08T15:04:13.018Z</time></trkpt><trkpt lat="44.8277533" lon="8.9847533"><ele>209.0</ele><time>2026-04-08T15:04:14.018Z</time></trkpt><trkpt lat="44.82788" lon="8.9846133"><ele>208.66666666666669</ele><time>2026-04-08T15:04:15.017Z</time></trkpt><trkpt lat="44.8280133" lon="8.9844817"><ele>208.33333333333331</ele><time>2026-04-08T15:04:16.017Z</time></trkpt><trkpt lat="44.8281517" lon="8.9843583"><ele>208.0</ele><time>2026-04-08T15:04:17.017Z</time></trkpt><trkpt lat="44.8282967" lon="8.984235"><ele>207.66666666666666</ele><time>2026-04-08T15:04:18.017Z</time></trkpt><trkpt lat="44.828435" lon="8.9841167"><ele>207.33333333333331</ele><time>2026-04-08T15:04:19.018Z</time></trkpt><trkpt lat="44.8285733" lon="8.9839967"><ele>207.0</ele><time>2026-04-08T15:04:20.017Z</time></trkpt><trkpt lat="44.82871" lon="8.98388"><ele>207.0</ele><time>2026-04-08T15:04:21.017Z</time></trkpt><trkpt lat="44.82884" lon="8.9837633"><ele>207.0</ele><time>2026-04-08T15:04:22.017Z</time></trkpt><trkpt lat="44.8289733" lon="8.9836433"><ele>207.0</ele><time>2026-04-08T15:04:23.017Z</time></trkpt><trkpt lat="44.829095" lon="8.98351"><ele>207.0</ele><time>2026-04-08T15:04:24.017Z</time></trkpt><trkpt lat="44.8292117" lon="8.98336"><ele>207.0</ele><time>2026-04-08T15:04:25.018Z</time></trkpt><trkpt lat="44.8293283" lon="8.983205"><ele>207.0</ele><time>2026-04-08T15:04:26.017Z</time></trkpt><trkpt lat="44.8294433" lon="8.9830533"><ele>207.0</ele><time>2026-04-08T15:04:27.017Z</time></trkpt><trkpt lat="44.829555" lon="8.9829067"><ele>207.0</ele><time>2026-04-08T15:04:28.016Z</time></trkpt><trkpt lat="44.82966" lon="8.98276"><ele>207.0</ele><time>2026-04-08T15:04:29.016Z</time></trkpt><trkpt lat="44.8297517" lon="8.9826017"><ele>207.0</ele><time>2026-04-08T15:04:30.016Z</time></trkpt><trkpt lat="44.8298417" lon="8.982435"><ele>207.5</ele><time>2026-04-08T15:04:31.017Z</time></trkpt><trkpt lat="44.829905" lon="8.98225"><ele>208.0</ele><time>2026-04-08T15:04:32.017Z</time></trkpt><trkpt lat="44.8299533" lon="8.9820483"><ele>208.5</ele><time>2026-04-08T15:04:33.017Z</time></trkpt><trkpt lat="44.8299933" lon="8.981845"><ele>209.0</ele><time>2026-04-08T15:04:34.016Z</time></trkpt><trkpt lat="44.830035" lon="8.9816383"><ele>209.33333333333334</ele><time>2026-04-08T15:04:35.017Z</time></trkpt><trkpt lat="44.83007" lon="8.98144"><ele>209.66666666666669</ele><time>2026-04-08T15:04:36.017Z</time></trkpt><trkpt lat="44.8301133" lon="8.98123"><ele>210.0</ele><time>2026-04-08T15:04:37.016Z</time></trkpt><trkpt lat="44.8301517" lon="8.981025"><ele>207.66666666666669</ele><time>2026-04-08T15:04:38.016Z</time></trkpt><trkpt lat="44.8301933" lon="8.98081"><ele>205.33333333333334</ele><time>2026-04-08T15:04:39.016Z</time></trkpt><trkpt lat="44.83024" lon="8.9805933"><ele>203.0</ele><time>2026-04-08T15:04:40.016Z</time></trkpt><trkpt lat="44.83029" lon="8.98038"><ele>203.0</ele><time>2026-04-08T15:04:41.016Z</time></trkpt><trkpt lat="44.83033" lon="8.9801633"><ele>203.0</ele><time>2026-04-08T15:04:42.017Z</time></trkpt><trkpt lat="44.8303767" lon="8.9799517"><ele>203.0</ele><time>2026-04-08T15:04:43.016Z</time></trkpt><trkpt lat="44.8304267" lon="8.9797383"><ele>202.66666666666669</ele><time>2026-04-08T15:04:44.016Z</time></trkpt><trkpt lat="44.830475" lon="8.9795433"><ele>202.33333333333331</ele><time>2026-04-08T15:04:45.017Z</time></trkpt><trkpt lat="44.8305183" lon="8.9793383"><ele>202.0</ele><time>2026-04-08T15:04:46.016Z</time></trkpt><trkpt lat="44.8305667" lon="8.9791267"><ele>202.0</ele><time>2026-04-08T15:04:47.017Z</time></trkpt><trkpt lat="44.8306183" lon="8.978925"><ele>202.0</ele><time>2026-04-08T15:04:48.017Z</time></trkpt><trkpt lat="44.83066" lon="8.9787433"><ele>202.0</ele><time>2026-04-08T15:04:49.016Z</time></trkpt><trkpt lat="44.8307033" lon="8.9785733"><ele>202.0</ele><time>2026-04-08T15:04:50.017Z</time></trkpt><trkpt lat="44.8307467" lon="8.978405"><ele>202.5</ele><time>2026-04-08T15:04:51.016Z</time></trkpt><trkpt lat="44.8307867" lon="8.978245"><ele>203.0</ele><time>2026-04-08T15:04:52.017Z</time></trkpt><trkpt lat="44.8308267" lon="8.9780767"><ele>203.5</ele><time>2026-04-08T15:04:53.016Z</time></trkpt><trkpt lat="44.8308717" lon="8.9778917"><ele>204.0</ele><time>2026-04-08T15:04:54.016Z</time></trkpt><trkpt lat="44.8309167" lon="8.9777017"><ele>203.75</ele><time>2026-04-08T15:04:55.017Z</time></trkpt><trkpt lat="44.830965" lon="8.9775067"><ele>203.5</ele><time>2026-04-08T15:04:56.016Z</time></trkpt><trkpt lat="44.8310133" lon="8.9773033"><ele>203.25</ele><time>2026-04-08T15:04:57.016Z</time></trkpt><trkpt lat="44.8310583" lon="8.977115"><ele>203.0</ele><time>2026-04-08T15:04:58.016Z</time></trkpt><trkpt lat="44.8311017" lon="8.9769317"><ele>203.0</ele><time>2026-04-08T15:04:59.016Z</time></trkpt><trkpt lat="44.8311467" lon="8.9767433"><ele>203.0</ele><time>2026-04-08T15:05:00.016Z</time></trkpt><trkpt lat="44.8312" lon="8.9765467"><ele>203.0</ele><time>2026-04-08T15:05:01.016Z</time></trkpt><trkpt lat="44.8312483" lon="8.976345"><ele>203.0</ele><time>2026-04-08T15:05:02.017Z</time></trkpt><trkpt lat="44.8313" lon="8.9761383"><ele>202.33333333333334</ele><time>2026-04-08T15:05:03.016Z</time></trkpt><trkpt lat="44.8313467" lon="8.97592"><ele>201.66666666666669</ele><time>2026-04-08T15:05:04.016Z</time></trkpt><trkpt lat="44.8313883" lon="8.9757"><ele>201.0</ele><time>2026-04-08T15:05:05.016Z</time></trkpt><trkpt lat="44.8314317" lon="8.9754733"><ele>200.66666666666669</ele><time>2026-04-08T15:05:06.016Z</time></trkpt><trkpt lat="44.8314667" lon="8.97524"><ele>200.33333333333334</ele><time>2026-04-08T15:05:07.016Z</time></trkpt><trkpt lat="44.8314933" lon="8.9750033"><ele>200.0</ele><time>2026-04-08T15:05:08.016Z</time></trkpt><trkpt lat="44.8315233" lon="8.97476"><ele>199.66666666666669</ele><time>2026-04-08T15:05:09.017Z</time></trkpt><trkpt lat="44.831545" lon="8.9745067"><ele>199.33333333333331</ele><time>2026-04-08T15:05:10.017Z</time></trkpt><trkpt lat="44.831565" lon="8.974255"><ele>199.0</ele><time>2026-04-08T15:05:11.016Z</time></trkpt><trkpt lat="44.8315783" lon="8.9740083"><ele>199.0</ele><time>2026-04-08T15:05:12.017Z</time></trkpt><trkpt lat="44.8315783" lon="8.9737567"><ele>199.0</ele><time>2026-04-08T15:05:13.016Z</time></trkpt><trkpt lat="44.831565" lon="8.9735067"><ele>199.0</ele><time>2026-04-08T15:05:14.017Z</time></trkpt><trkpt lat="44.8315483" lon="8.9732583"><ele>199.0</ele><time>2026-04-08T15:05:15.017Z</time></trkpt><trkpt lat="44.83152" lon="8.9730167"><ele>199.0</ele><time>2026-04-08T15:05:16.016Z</time></trkpt><trkpt lat="44.8314767" lon="8.9727767"><ele>199.0</ele><time>2026-04-08T15:05:17.016Z</time></trkpt><trkpt lat="44.8314367" lon="8.972535"><ele>199.0</ele><time>2026-04-08T15:05:18.017Z</time></trkpt><trkpt lat="44.83139" lon="8.9723017"><ele>199.0</ele><time>2026-04-08T15:05:19.017Z</time></trkpt><trkpt lat="44.8313467" lon="8.97207"><ele>199.0</ele><time>2026-04-08T15:05:20.016Z</time></trkpt><trkpt lat="44.8313" lon="8.9718367"><ele>199.33333333333331</ele><time>2026-04-08T15:05:21.017Z</time></trkpt><trkpt lat="44.8312467" lon="8.9716033"><ele>199.66666666666669</ele><time>2026-04-08T15:05:22.016Z</time></trkpt><trkpt lat="44.8311983" lon="8.9713817"><ele>200.0</ele><time>2026-04-08T15:05:23.016Z</time></trkpt><trkpt lat="44.8311567" lon="8.9711567"><ele>200.0</ele><time>2026-04-08T15:05:24.017Z</time></trkpt><trkpt lat="44.8311117" lon="8.9709333"><ele>200.0</ele><time>2026-04-08T15:05:25.016Z</time></trkpt><trkpt lat="44.83106" lon="8.9707083"><ele>200.0</ele><time>2026-04-08T15:05:26.017Z</time></trkpt><trkpt lat="44.831005" lon="8.9704767"><ele>199.0</ele><time>2026-04-08T15:05:27.017Z</time></trkpt><trkpt lat="44.8309417" lon="8.9702467"><ele>198.0</ele><time>2026-04-08T15:05:28.017Z</time></trkpt><trkpt lat="44.8308767" lon="8.9700183"><ele>197.0</ele><time>2026-04-08T15:05:29.017Z</time></trkpt><trkpt lat="44.8308083" lon="8.96979"><ele>197.0</ele><time>2026-04-08T15:05:30.017Z</time></trkpt><trkpt lat="44.8307433" lon="8.9695583"><ele>197.0</ele><time>2026-04-08T15:05:31.016Z</time></trkpt><trkpt lat="44.8306817" lon="8.9693217"><ele>197.0</ele><time>2026-04-08T15:05:32.016Z</time></trkpt><trkpt lat="44.8306233" lon="8.969085"><ele>197.0</ele><time>2026-04-08T15:05:33.016Z</time></trkpt><trkpt lat="44.8305617" lon="8.9688483"><ele>197.0</ele><time>2026-04-08T15:05:34.017Z</time></trkpt><trkpt lat="44.8305067" lon="8.96861"><ele>197.0</ele><time>2026-04-08T15:05:35.016Z</time></trkpt><trkpt lat="44.830475" lon="8.9683717"><ele>196.33333333333334</ele><time>2026-04-08T15:05:36.016Z</time></trkpt><trkpt lat="44.8304767" lon="8.9681317"><ele>195.66666666666669</ele><time>2026-04-08T15:05:37.017Z</time></trkpt><trkpt lat="44.83051" lon="8.9679067"><ele>195.0</ele><time>2026-04-08T15:05:38.016Z</time></trkpt><trkpt lat="44.8305733" lon="8.96769"><ele>194.66666666666669</ele><time>2026-04-08T15:05:39.017Z</time></trkpt><trkpt lat="44.8306517" lon="8.9674633"><ele>194.33333333333334</ele><time>2026-04-08T15:05:40.017Z</time></trkpt><trkpt lat="44.8307283" lon="8.96724"><ele>194.0</ele><time>2026-04-08T15:05:41.016Z</time></trkpt><trkpt lat="44.8308083" lon="8.9670117"><ele>194.0</ele><time>2026-04-08T15:05:42.017Z</time></trkpt><trkpt lat="44.8308917" lon="8.966795"><ele>194.0</ele><time>2026-04-08T15:05:43.016Z</time></trkpt><trkpt lat="44.8309683" lon="8.9665967"><ele>194.0</ele><time>2026-04-08T15:05:44.017Z</time></trkpt><trkpt lat="44.8310467" lon="8.9664067"><ele>194.0</ele><time>2026-04-08T15:05:45.017Z</time></trkpt><trkpt lat="44.8311167" lon="8.9662333"><ele>194.0</ele><time>2026-04-08T15:05:46.016Z</time></trkpt><trkpt lat="44.8311833" lon="8.966075"><ele>194.0</ele><time>2026-04-08T15:05:47.017Z</time></trkpt><trkpt lat="44.8312633" lon="8.9659383"><ele>194.0</ele><time>2026-04-08T15:05:48.016Z</time></trkpt><trkpt lat="44.8313567" lon="8.9658183"><ele>194.0</ele><time>2026-04-08T15:05:49.017Z</time></trkpt><trkpt lat="44.8314667" lon="8.96571"><ele>194.0</ele><time>2026-04-08T15:05:50.016Z</time></trkpt><trkpt lat="44.831585" lon="8.9656117"><ele>194.0</ele><time>2026-04-08T15:05:51.016Z</time></trkpt><trkpt lat="44.8317067" lon="8.9655333"><ele>194.0</ele><time>2026-04-08T15:05:52.016Z</time></trkpt><trkpt lat="44.8318217" lon="8.9654717"><ele>195.0</ele><time>2026-04-08T15:05:53.016Z</time></trkpt><trkpt lat="44.8319333" lon="8.9654533"><ele>196.0</ele><time>2026-04-08T15:05:54.016Z</time></trkpt><trkpt lat="44.8320417" lon="8.9654767"><ele>197.0</ele><time>2026-04-08T15:05:55.017Z</time></trkpt><trkpt lat="44.8321467" lon="8.9655517"><ele>198.0</ele><time>2026-04-08T15:05:56.016Z</time></trkpt><trkpt lat="44.832245" lon="8.9656467"><ele>198.0</ele><time>2026-04-08T15:05:57.017Z</time></trkpt><trkpt lat="44.832355" lon="8.965745"><ele>198.0</ele><time>2026-04-08T15:05:58.016Z</time></trkpt><trkpt lat="44.8324667" lon="8.965855"><ele>198.0</ele><time>2026-04-08T15:05:59.017Z</time></trkpt><trkpt lat="44.8325767" lon="8.9659617"><ele>198.0</ele><time>2026-04-08T15:06:00.017Z</time></trkpt><trkpt lat="44.8326717" lon="8.9660633"><ele>198.5</ele><time>2026-04-08T15:06:01.016Z</time></trkpt><trkpt lat="44.8327533" lon="8.96615"><ele>199.0</ele><time>2026-04-08T15:06:02.016Z</time></trkpt><trkpt lat="44.8328267" lon="8.9662133"><ele>199.5</ele><time>2026-04-08T15:06:03.017Z</time></trkpt><trkpt lat="44.8328933" lon="8.966235"><ele>200.0</ele><time>2026-04-08T15:06:04.017Z</time></trkpt><trkpt lat="44.8329583" lon="8.9662183"><ele>200.5</ele><time>2026-04-08T15:06:05.016Z</time></trkpt><trkpt lat="44.83302" lon="8.9661517"><ele>201.0</ele><time>2026-04-08T15:06:06.016Z</time></trkpt><trkpt lat="44.8330617" lon="8.9660383"><ele>201.0</ele><time>2026-04-08T15:06:07.016Z</time></trkpt><trkpt lat="44.833085" lon="8.9659017"><ele>201.0</ele><time>2026-04-08T15:06:08.016Z</time></trkpt><trkpt lat="44.8331067" lon="8.9657433"><ele>201.0</ele><time>2026-04-08T15:06:09.017Z</time></trkpt><trkpt lat="44.8331233" lon="8.9655783"><ele>201.0</ele><time>2026-04-08T15:06:10.016Z</time></trkpt><trkpt lat="44.8331467" lon="8.965405"><ele>200.75</ele><time>2026-04-08T15:06:11.016Z</time></trkpt><trkpt lat="44.83317" lon="8.9652267"><ele>200.5</ele><time>2026-04-08T15:06:12.016Z</time></trkpt><trkpt lat="44.8332033" lon="8.9650333"><ele>200.25</ele><time>2026-04-08T15:06:13.017Z</time></trkpt><trkpt lat="44.8332417" lon="8.9648367"><ele>200.0</ele><time>2026-04-08T15:06:14.017Z</time></trkpt><trkpt lat="44.8332767" lon="8.96464"><ele>199.5</ele><time>2026-04-08T15:06:15.017Z</time></trkpt><trkpt lat="44.8333083" lon="8.9644483"><ele>199.0</ele><time>2026-04-08T15:06:16.016Z</time></trkpt><trkpt lat="44.833345" lon="8.96426"><ele>198.5</ele><time>2026-04-08T15:06:17.016Z</time></trkpt><trkpt lat="44.833375" lon="8.964075"><ele>198.0</ele><time>2026-04-08T15:06:18.016Z</time></trkpt><trkpt lat="44.8334133" lon="8.9638867"><ele>198.0</ele><time>2026-04-08T15:06:19.017Z</time></trkpt><trkpt lat="44.8334533" lon="8.963685"><ele>198.0</ele><time>2026-04-08T15:06:20.017Z</time></trkpt><trkpt lat="44.83349" lon="8.9634617"><ele>198.0</ele><time>2026-04-08T15:06:21.016Z</time></trkpt><trkpt lat="44.8335283" lon="8.9632333"><ele>197.0</ele><time>2026-04-08T15:06:22.016Z</time></trkpt><trkpt lat="44.8335683" lon="8.96299"><ele>196.0</ele><time>2026-04-08T15:06:23.016Z</time></trkpt><trkpt lat="44.8336433" lon="8.9624983"><ele>195.33333333333331</ele><time>2026-04-08T15:06:25.016Z</time></trkpt><trkpt lat="44.83369" lon="8.962255"><ele>194.66666666666669</ele><time>2026-04-08T15:06:26.016Z</time></trkpt><trkpt lat="44.8337383" lon="8.9619983"><ele>194.0</ele><time>2026-04-08T15:06:27.016Z</time></trkpt><trkpt lat="44.8337833" lon="8.961745"><ele>193.66666666666669</ele><time>2026-04-08T15:06:28.016Z</time></trkpt><trkpt lat="44.83383" lon="8.96149"><ele>193.33333333333331</ele><time>2026-04-08T15:06:29.016Z</time></trkpt><trkpt lat="44.833875" lon="8.9612217"><ele>193.0</ele><time>2026-04-08T15:06:30.016Z</time></trkpt><trkpt lat="44.83392" lon="8.9609583"><ele>192.33333333333331</ele><time>2026-04-08T15:06:31.016Z</time></trkpt><trkpt lat="44.833965" lon="8.960685"><ele>191.66666666666666</ele><time>2026-04-08T15:06:32.016Z</time></trkpt><trkpt lat="44.83401" lon="8.9604167"><ele>191.0</ele><time>2026-04-08T15:06:33.017Z</time></trkpt><trkpt lat="44.83406" lon="8.9601367"><ele>190.66666666666666</ele><time>2026-04-08T15:06:34.017Z</time></trkpt><trkpt lat="44.8341067" lon="8.959865"><ele>190.33333333333334</ele><time>2026-04-08T15:06:35.017Z</time></trkpt><trkpt lat="44.834155" lon="8.959595"><ele>190.0</ele><time>2026-04-08T15:06:36.016Z</time></trkpt><trkpt lat="44.8341983" lon="8.959335"><ele>189.33333333333334</ele><time>2026-04-08T15:06:37.016Z</time></trkpt><trkpt lat="44.834245" lon="8.9590633"><ele>188.66666666666666</ele><time>2026-04-08T15:06:38.017Z</time></trkpt><trkpt lat="44.8342917" lon="8.9588117"><ele>188.0</ele><time>2026-04-08T15:06:39.016Z</time></trkpt><trkpt lat="44.8343333" lon="8.9585533"><ele>189.33333333333331</ele><time>2026-04-08T15:06:40.017Z</time></trkpt><trkpt lat="44.834375" lon="8.9583017"><ele>190.66666666666666</ele><time>2026-04-08T15:06:41.016Z</time></trkpt><trkpt lat="44.8344133" lon="8.95805"><ele>192.0</ele><time>2026-04-08T15:06:42.017Z</time></trkpt><trkpt lat="44.8344517" lon="8.957805"><ele>192.0</ele><time>2026-04-08T15:06:43.017Z</time></trkpt><trkpt lat="44.8345" lon="8.957555"><ele>192.0</ele><time>2026-04-08T15:06:44.017Z</time></trkpt><trkpt lat="44.834545" lon="8.9573133"><ele>192.0</ele><time>2026-04-08T15:06:45.016Z</time></trkpt><trkpt lat="44.8345867" lon="8.9570817"><ele>191.75</ele><time>2026-04-08T15:06:46.016Z</time></trkpt><trkpt lat="44.8346333" lon="8.9568617"><ele>191.5</ele><time>2026-04-08T15:06:47.017Z</time></trkpt><trkpt lat="44.8346683" lon="8.9566667"><ele>191.25</ele><time>2026-04-08T15:06:48.016Z</time></trkpt><trkpt lat="44.8347033" lon="8.9564733"><ele>191.0</ele><time>2026-04-08T15:06:49.017Z</time></trkpt><trkpt lat="44.8347367" lon="8.9562983"><ele>190.60000000000002</ele><time>2026-04-08T15:06:50.016Z</time></trkpt><trkpt lat="44.8347683" lon="8.9561367"><ele>190.2</ele><time>2026-04-08T15:06:51.017Z</time></trkpt><trkpt lat="44.8347967" lon="8.955995"><ele>189.8</ele><time>2026-04-08T15:06:52.016Z</time></trkpt><trkpt lat="44.834815" lon="8.9558717"><ele>189.39999999999998</ele><time>2026-04-08T15:06:53.016Z</time></trkpt><trkpt lat="44.834835" lon="8.9557733"><ele>189.0</ele><time>2026-04-08T15:06:54.017Z</time></trkpt><trkpt lat="44.8348617" lon="8.9556467"><ele>188.6</ele><time>2026-04-08T15:06:56.016Z</time></trkpt><trkpt lat="44.8348833" lon="8.9555617"><ele>188.2</ele><time>2026-04-08T15:06:59.017Z</time></trkpt><trkpt lat="44.8348883" lon="8.9554283"><ele>187.79999999999998</ele><time>2026-04-08T15:07:04.017Z</time></trkpt><trkpt lat="44.834905" lon="8.9553033"><ele>187.39999999999998</ele><time>2026-04-08T15:07:05.016Z</time></trkpt><trkpt lat="44.8349317" lon="8.9551567"><ele>187.0</ele><time>2026-04-08T15:07:06.017Z</time></trkpt><trkpt lat="44.83496" lon="8.9549883"><ele>186.75</ele><time>2026-04-08T15:07:07.016Z</time></trkpt><trkpt lat="44.8349917" lon="8.9548217"><ele>186.5</ele><time>2026-04-08T15:07:08.017Z</time></trkpt><trkpt lat="44.83502" lon="8.9546583"><ele>186.25</ele><time>2026-04-08T15:07:09.017Z</time></trkpt><trkpt lat="44.835055" lon="8.9544817"><ele>186.0</ele><time>2026-04-08T15:07:10.017Z</time></trkpt><trkpt lat="44.8350867" lon="8.954315"><ele>186.0</ele><time>2026-04-08T15:07:11.016Z</time></trkpt><trkpt lat="44.8351217" lon="8.9541533"><ele>186.0</ele><time>2026-04-08T15:07:12.016Z</time></trkpt><trkpt lat="44.835165" lon="8.9540083"><ele>186.0</ele><time>2026-04-08T15:07:13.016Z</time></trkpt><trkpt lat="44.8352233" lon="8.95388"><ele>186.0</ele><time>2026-04-08T15:07:14.016Z</time></trkpt><trkpt lat="44.8352883" lon="8.9537617"><ele>186.0</ele><time>2026-04-08T15:07:15.017Z</time></trkpt><trkpt lat="44.8353533" lon="8.9536767"><ele>186.33333333333334</ele><time>2026-04-08T15:07:16.016Z</time></trkpt><trkpt lat="44.8354167" lon="8.9536233"><ele>186.66666666666666</ele><time>2026-04-08T15:07:17.017Z</time></trkpt><trkpt lat="44.8354833" lon="8.9536033"><ele>187.0</ele><time>2026-04-08T15:07:18.016Z</time></trkpt><trkpt lat="44.8355467" lon="8.9536317"><ele>187.33333333333331</ele><time>2026-04-08T15:07:19.016Z</time></trkpt><trkpt lat="44.8356133" lon="8.9537017"><ele>187.66666666666666</ele><time>2026-04-08T15:07:20.017Z</time></trkpt><trkpt lat="44.8356833" lon="8.953785"><ele>188.0</ele><time>2026-04-08T15:07:21.016Z</time></trkpt><trkpt lat="44.8357633" lon="8.9538767"><ele>188.0</ele><time>2026-04-08T15:07:22.016Z</time></trkpt><trkpt lat="44.83585" lon="8.953975"><ele>188.0</ele><time>2026-04-08T15:07:23.016Z</time></trkpt><trkpt lat="44.83594" lon="8.9540717"><ele>188.0</ele><time>2026-04-08T15:07:24.016Z</time></trkpt><trkpt lat="44.836035" lon="8.95417"><ele>188.0</ele><time>2026-04-08T15:07:25.017Z</time></trkpt><trkpt lat="44.836135" lon="8.9542683"><ele>189.5</ele><time>2026-04-08T15:07:26.016Z</time></trkpt><trkpt lat="44.8362333" lon="8.9543683"><ele>191.0</ele><time>2026-04-08T15:07:27.017Z</time></trkpt><trkpt lat="44.8363283" lon="8.954465"><ele>192.5</ele><time>2026-04-08T15:07:28.016Z</time></trkpt><trkpt lat="44.8364217" lon="8.95456"><ele>194.0</ele><time>2026-04-08T15:07:29.016Z</time></trkpt><trkpt lat="44.8365067" lon="8.9546567"><ele>194.00000000000003</ele><time>2026-04-08T15:07:30.017Z</time></trkpt><trkpt lat="44.8365867" lon="8.9547433"><ele>194.0</ele><time>2026-04-08T15:07:31.016Z</time></trkpt><trkpt lat="44.836655" lon="8.9548217"><ele>194.0</ele><time>2026-04-08T15:07:32.016Z</time></trkpt><trkpt lat="44.8367083" lon="8.9548933"><ele>194.0</ele><time>2026-04-08T15:07:33.017Z</time></trkpt><trkpt lat="44.83678" lon="8.9549583"><ele>194.00000000000003</ele><time>2026-04-08T15:07:34.016Z</time></trkpt><trkpt lat="44.83685" lon="8.95503"><ele>194.0</ele><time>2026-04-08T15:07:35.016Z</time></trkpt><trkpt lat="44.83692" lon="8.95509"><ele>194.00000000000003</ele><time>2026-04-08T15:07:36.016Z</time></trkpt><trkpt lat="44.8369783" lon="8.955145"><ele>194.0</ele><time>2026-04-08T15:07:37.016Z</time></trkpt><trkpt lat="44.8370717" lon="8.9551783"><ele>194.0</ele><time>2026-04-08T15:07:39.016Z</time></trkpt><trkpt lat="44.8371633" lon="8.95509"><ele>194.0</ele><time>2026-04-08T15:07:41.016Z</time></trkpt><trkpt lat="44.8372067" lon="8.955005"><ele>194.00000000000003</ele><time>2026-04-08T15:07:42.017Z</time></trkpt><trkpt lat="44.837245" lon="8.9549033"><ele>194.0</ele><time>2026-04-08T15:07:43.016Z</time></trkpt><trkpt lat="44.837295" lon="8.9547967"><ele>194.0</ele><time>2026-04-08T15:07:44.016Z</time></trkpt><trkpt lat="44.8373483" lon="8.9546933"><ele>194.0</ele><time>2026-04-08T15:07:45.017Z</time></trkpt><trkpt lat="44.8373983" lon="8.954585"><ele>194.0</ele><time>2026-04-08T15:07:46.016Z</time></trkpt><trkpt lat="44.837455" lon="8.9544733"><ele>194.0</ele><time>2026-04-08T15:07:47.016Z</time></trkpt><trkpt lat="44.8375167" lon="8.9543617"><ele>194.0</ele><time>2026-04-08T15:07:48.016Z</time></trkpt><trkpt lat="44.8375717" lon="8.9542483"><ele>194.25</ele><time>2026-04-08T15:07:49.017Z</time></trkpt><trkpt lat="44.8376333" lon="8.9541383"><ele>194.5</ele><time>2026-04-08T15:07:50.017Z</time></trkpt><trkpt lat="44.8377083" lon="8.9540067"><ele>194.75</ele><time>2026-04-08T15:07:51.017Z</time></trkpt><trkpt lat="44.83778" lon="8.9538517"><ele>195.0</ele><time>2026-04-08T15:07:52.017Z</time></trkpt><trkpt lat="44.8378583" lon="8.9536867"><ele>195.0</ele><time>2026-04-08T15:07:53.016Z</time></trkpt><trkpt lat="44.8379367" lon="8.95353"><ele>195.0</ele><time>2026-04-08T15:07:54.017Z</time></trkpt><trkpt lat="44.8379983" lon="8.9533983"><ele>195.0</ele><time>2026-04-08T15:07:55.017Z</time></trkpt><trkpt lat="44.838055" lon="8.9532833"><ele>195.0</ele><time>2026-04-08T15:07:56.017Z</time></trkpt><trkpt lat="44.8381017" lon="8.9531867"><ele>195.0</ele><time>2026-04-08T15:07:57.017Z</time></trkpt><trkpt lat="44.8381517" lon="8.953085"><ele>195.25</ele><time>2026-04-08T15:07:58.016Z</time></trkpt><trkpt lat="44.83821" lon="8.9529583"><ele>195.5</ele><time>2026-04-08T15:07:59.016Z</time></trkpt><trkpt lat="44.8382833" lon="8.95281"><ele>195.75</ele><time>2026-04-08T15:08:00.016Z</time></trkpt><trkpt lat="44.83835" lon="8.9526633"><ele>196.0</ele><time>2026-04-08T15:08:01.016Z</time></trkpt><trkpt lat="44.8384117" lon="8.9525267"><ele>197.0</ele><time>2026-04-08T15:08:02.016Z</time></trkpt><trkpt lat="44.83848" lon="8.9523883"><ele>198.0</ele><time>2026-04-08T15:08:03.016Z</time></trkpt><trkpt lat="44.83856" lon="8.9522317"><ele>199.0</ele><time>2026-04-08T15:08:04.017Z</time></trkpt><trkpt lat="44.8386683" lon="8.952025"><ele>200.0</ele><time>2026-04-08T15:08:05.016Z</time></trkpt><trkpt lat="44.8387883" lon="8.9517817"><ele>199.33333333333334</ele><time>2026-04-08T15:08:06.016Z</time></trkpt><trkpt lat="44.8389017" lon="8.95155"><ele>198.66666666666669</ele><time>2026-04-08T15:08:07.016Z</time></trkpt><trkpt lat="44.8390067" lon="8.9513317"><ele>198.0</ele><time>2026-04-08T15:08:08.017Z</time></trkpt><trkpt lat="44.8391067" lon="8.95112"><ele>198.0</ele><time>2026-04-08T15:08:09.017Z</time></trkpt><trkpt lat="44.83921" lon="8.9509267"><ele>198.0</ele><time>2026-04-08T15:08:10.016Z</time></trkpt><trkpt lat="44.8393083" lon="8.95074"><ele>198.0</ele><time>2026-04-08T15:08:11.016Z</time></trkpt><trkpt lat="44.8393967" lon="8.95056"><ele>198.33333333333331</ele><time>2026-04-08T15:08:12.016Z</time></trkpt><trkpt lat="44.8394917" lon="8.950375"><ele>198.66666666666666</ele><time>2026-04-08T15:08:13.016Z</time></trkpt><trkpt lat="44.8395783" lon="8.950185"><ele>199.0</ele><time>2026-04-08T15:08:14.016Z</time></trkpt><trkpt lat="44.83967" lon="8.9499883"><ele>197.33333333333331</ele><time>2026-04-08T15:08:15.017Z</time></trkpt><trkpt lat="44.8397633" lon="8.949795"><ele>195.66666666666669</ele><time>2026-04-08T15:08:16.017Z</time></trkpt><trkpt lat="44.839855" lon="8.9495983"><ele>194.0</ele><time>2026-04-08T15:08:17.017Z</time></trkpt><trkpt lat="44.839945" lon="8.94941"><ele>194.0</ele><time>2026-04-08T15:08:18.017Z</time></trkpt><trkpt lat="44.840035" lon="8.94923"><ele>194.0</ele><time>2026-04-08T15:08:19.017Z</time></trkpt><trkpt lat="44.840115" lon="8.9490567"><ele>194.0</ele><time>2026-04-08T15:08:20.017Z</time></trkpt><trkpt lat="44.8401983" lon="8.9488733"><ele>195.0</ele><time>2026-04-08T15:08:21.015Z</time></trkpt><trkpt lat="44.84028" lon="8.9486933"><ele>196.0</ele><time>2026-04-08T15:08:22.016Z</time></trkpt><trkpt lat="44.8403667" lon="8.9485133"><ele>197.0</ele><time>2026-04-08T15:08:23.016Z</time></trkpt><trkpt lat="44.84046" lon="8.9483267"><ele>197.0</ele><time>2026-04-08T15:08:24.016Z</time></trkpt><trkpt lat="44.84056" lon="8.94814"><ele>197.0</ele><time>2026-04-08T15:08:25.016Z</time></trkpt><trkpt lat="44.840655" lon="8.9479483"><ele>197.0</ele><time>2026-04-08T15:08:26.016Z</time></trkpt><trkpt lat="44.840755" lon="8.9477533"><ele>197.0</ele><time>2026-04-08T15:08:27.016Z</time></trkpt><trkpt lat="44.840855" lon="8.9475583"><ele>197.0</ele><time>2026-04-08T15:08:28.016Z</time></trkpt><trkpt lat="44.8409467" lon="8.947365"><ele>197.0</ele><time>2026-04-08T15:08:29.016Z</time></trkpt><trkpt lat="44.8410383" lon="8.9471717"><ele>196.66666666666669</ele><time>2026-04-08T15:08:30.015Z</time></trkpt><trkpt lat="44.84113" lon="8.9469883"><ele>196.33333333333331</ele><time>2026-04-08T15:08:31.015Z</time></trkpt><trkpt lat="44.8412267" lon="8.946815"><ele>196.0</ele><time>2026-04-08T15:08:32.015Z</time></trkpt><trkpt lat="44.8413317" lon="8.9466533"><ele>196.0</ele><time>2026-04-08T15:08:33.015Z</time></trkpt><trkpt lat="44.8414483" lon="8.9464983"><ele>196.0</ele><time>2026-04-08T15:08:34.015Z</time></trkpt><trkpt lat="44.8415733" lon="8.94635"><ele>196.0</ele><time>2026-04-08T15:08:35.015Z</time></trkpt><trkpt lat="44.8417017" lon="8.9462033"><ele>195.66666666666666</ele><time>2026-04-08T15:08:36.015Z</time></trkpt><trkpt lat="44.8418317" lon="8.9460533"><ele>195.33333333333331</ele><time>2026-04-08T15:08:37.016Z</time></trkpt><trkpt lat="44.84196" lon="8.9459083"><ele>195.0</ele><time>2026-04-08T15:08:38.015Z</time></trkpt><trkpt lat="44.84209" lon="8.9457667"><ele>195.0</ele><time>2026-04-08T15:08:39.016Z</time></trkpt><trkpt lat="44.84222" lon="8.94562"><ele>195.0</ele><time>2026-04-08T15:08:40.015Z</time></trkpt><trkpt lat="44.8423433" lon="8.9454767"><ele>195.0</ele><time>2026-04-08T15:08:41.016Z</time></trkpt><trkpt lat="44.842475" lon="8.9453333"><ele>195.0</ele><time>2026-04-08T15:08:42.015Z</time></trkpt><trkpt lat="44.8426067" lon="8.9451917"><ele>195.0</ele><time>2026-04-08T15:08:43.016Z</time></trkpt><trkpt lat="44.8427383" lon="8.9450483"><ele>195.0</ele><time>2026-04-08T15:08:44.016Z</time></trkpt><trkpt lat="44.8428683" lon="8.9449017"><ele>194.66666666666669</ele><time>2026-04-08T15:08:45.015Z</time></trkpt><trkpt lat="44.843" lon="8.9447533"><ele>194.33333333333334</ele><time>2026-04-08T15:08:46.015Z</time></trkpt><trkpt lat="44.8431283" lon="8.9446067"><ele>194.0</ele><time>2026-04-08T15:08:47.015Z</time></trkpt><trkpt lat="44.8432633" lon="8.9444583"><ele>194.0</ele><time>2026-04-08T15:08:48.016Z</time></trkpt><trkpt lat="44.8433967" lon="8.9443117"><ele>194.0</ele><time>2026-04-08T15:08:49.016Z</time></trkpt><trkpt lat="44.84353" lon="8.94417"><ele>194.0</ele><time>2026-04-08T15:08:50.016Z</time></trkpt><trkpt lat="44.8436617" lon="8.9440183"><ele>194.33333333333334</ele><time>2026-04-08T15:08:51.016Z</time></trkpt><trkpt lat="44.8437917" lon="8.9438733"><ele>194.66666666666669</ele><time>2026-04-08T15:08:52.015Z</time></trkpt><trkpt lat="44.843925" lon="8.9437283"><ele>195.0</ele><time>2026-04-08T15:08:53.016Z</time></trkpt><trkpt lat="44.8440533" lon="8.94359"><ele>195.0</ele><time>2026-04-08T15:08:54.015Z</time></trkpt><trkpt lat="44.8441883" lon="8.943445"><ele>195.0</ele><time>2026-04-08T15:08:55.015Z</time></trkpt><trkpt lat="44.8443183" lon="8.9432933"><ele>195.0</ele><time>2026-04-08T15:08:56.015Z</time></trkpt><trkpt lat="44.8444517" lon="8.9431467"><ele>195.33333333333331</ele><time>2026-04-08T15:08:57.016Z</time></trkpt><trkpt lat="44.8445867" lon="8.9429983"><ele>195.66666666666666</ele><time>2026-04-08T15:08:58.016Z</time></trkpt><trkpt lat="44.8447133" lon="8.942855"><ele>196.0</ele><time>2026-04-08T15:08:59.015Z</time></trkpt><trkpt lat="44.844845" lon="8.94271"><ele>196.0</ele><time>2026-04-08T15:09:00.015Z</time></trkpt><trkpt lat="44.844975" lon="8.9425667"><ele>196.0</ele><time>2026-04-08T15:09:01.016Z</time></trkpt><trkpt lat="44.8451033" lon="8.94242"><ele>196.0</ele><time>2026-04-08T15:09:02.015Z</time></trkpt><trkpt lat="44.845235" lon="8.9422717"><ele>195.0</ele><time>2026-04-08T15:09:03.015Z</time></trkpt><trkpt lat="44.8453633" lon="8.94212"><ele>194.0</ele><time>2026-04-08T15:09:04.016Z</time></trkpt><trkpt lat="44.8454967" lon="8.9419767"><ele>193.0</ele><time>2026-04-08T15:09:05.015Z</time></trkpt><trkpt lat="44.8456317" lon="8.9418333"><ele>193.0</ele><time>2026-04-08T15:09:06.016Z</time></trkpt><trkpt lat="44.84577" lon="8.941685"><ele>193.0</ele><time>2026-04-08T15:09:07.015Z</time></trkpt><trkpt lat="44.8459083" lon="8.9415367"><ele>193.0</ele><time>2026-04-08T15:09:08.015Z</time></trkpt><trkpt lat="44.846055" lon="8.9413833"><ele>193.0</ele><time>2026-04-08T15:09:09.015Z</time></trkpt><trkpt lat="44.8461983" lon="8.941235"><ele>193.0</ele><time>2026-04-08T15:09:10.015Z</time></trkpt><trkpt lat="44.8463417" lon="8.9410767"><ele>193.0</ele><time>2026-04-08T15:09:11.015Z</time></trkpt><trkpt lat="44.846475" lon="8.9409233"><ele>190.66666666666666</ele><time>2026-04-08T15:09:12.015Z</time></trkpt><trkpt lat="44.84661" lon="8.9407783"><ele>188.33333333333331</ele><time>2026-04-08T15:09:13.016Z</time></trkpt><trkpt lat="44.8467467" lon="8.94064"><ele>186.0</ele><time>2026-04-08T15:09:14.016Z</time></trkpt><trkpt lat="44.8468883" lon="8.9405067"><ele>186.0</ele><time>2026-04-08T15:09:15.016Z</time></trkpt><trkpt lat="44.8470333" lon="8.9403767"><ele>186.0</ele><time>2026-04-08T15:09:16.015Z</time></trkpt><trkpt lat="44.8471817" lon="8.9402517"><ele>186.0</ele><time>2026-04-08T15:09:17.015Z</time></trkpt><trkpt lat="44.8473267" lon="8.9401283"><ele>182.66666666666666</ele><time>2026-04-08T15:09:18.016Z</time></trkpt><trkpt lat="44.8474767" lon="8.9399983"><ele>179.33333333333331</ele><time>2026-04-08T15:09:19.015Z</time></trkpt><trkpt lat="44.8476233" lon="8.9398717"><ele>176.0</ele><time>2026-04-08T15:09:20.015Z</time></trkpt><trkpt lat="44.8477667" lon="8.9397433"><ele>176.0</ele><time>2026-04-08T15:09:21.016Z</time></trkpt><trkpt lat="44.8479133" lon="8.9396267"><ele>176.0</ele><time>2026-04-08T15:09:22.015Z</time></trkpt><trkpt lat="44.8480583" lon="8.93952"><ele>176.0</ele><time>2026-04-08T15:09:23.016Z</time></trkpt><trkpt lat="44.8482083" lon="8.93943"><ele>176.0</ele><time>2026-04-08T15:09:24.016Z</time></trkpt><trkpt lat="44.84837" lon="8.9393583"><ele>176.0</ele><time>2026-04-08T15:09:25.016Z</time></trkpt><trkpt lat="44.8485283" lon="8.93931"><ele>176.0</ele><time>2026-04-08T15:09:26.016Z</time></trkpt><trkpt lat="44.8487" lon="8.9392567"><ele>173.66666666666666</ele><time>2026-04-08T15:09:27.015Z</time></trkpt><trkpt lat="44.848875" lon="8.9392"><ele>171.33333333333334</ele><time>2026-04-08T15:09:28.016Z</time></trkpt><trkpt lat="44.84905" lon="8.93914"><ele>169.0</ele><time>2026-04-08T15:09:29.015Z</time></trkpt><trkpt lat="44.8492267" lon="8.9390867"><ele>169.33333333333334</ele><time>2026-04-08T15:09:30.016Z</time></trkpt><trkpt lat="44.8494017" lon="8.9390367"><ele>169.66666666666666</ele><time>2026-04-08T15:09:31.016Z</time></trkpt><trkpt lat="44.8495783" lon="8.9389783"><ele>170.0</ele><time>2026-04-08T15:09:32.015Z</time></trkpt><trkpt lat="44.84975" lon="8.9389233"><ele>170.0</ele><time>2026-04-08T15:09:33.015Z</time></trkpt><trkpt lat="44.849925" lon="8.9388667"><ele>170.0</ele><time>2026-04-08T15:09:34.016Z</time></trkpt><trkpt lat="44.8500967" lon="8.9388117"><ele>170.0</ele><time>2026-04-08T15:09:35.015Z</time></trkpt><trkpt lat="44.8502617" lon="8.93875"><ele>172.0</ele><time>2026-04-08T15:09:36.015Z</time></trkpt><trkpt lat="44.8504217" lon="8.9386917"><ele>174.0</ele><time>2026-04-08T15:09:37.015Z</time></trkpt><trkpt lat="44.8505767" lon="8.93863"><ele>176.0</ele><time>2026-04-08T15:09:38.016Z</time></trkpt><trkpt lat="44.8507317" lon="8.9385667"><ele>176.0</ele><time>2026-04-08T15:09:39.015Z</time></trkpt><trkpt lat="44.850885" lon="8.9385033"><ele>176.0</ele><time>2026-04-08T15:09:40.015Z</time></trkpt><trkpt lat="44.851045" lon="8.9384383"><ele>176.0</ele><time>2026-04-08T15:09:41.015Z</time></trkpt><trkpt lat="44.8512033" lon="8.9383667"><ele>174.66666666666666</ele><time>2026-04-08T15:09:42.016Z</time></trkpt><trkpt lat="44.8513583" lon="8.938305"><ele>173.33333333333334</ele><time>2026-04-08T15:09:43.015Z</time></trkpt><trkpt lat="44.8515167" lon="8.9382467"><ele>172.0</ele><time>2026-04-08T15:09:44.015Z</time></trkpt><trkpt lat="44.8516767" lon="8.9381867"><ele>173.0</ele><time>2026-04-08T15:09:45.015Z</time></trkpt><trkpt lat="44.85184" lon="8.938125"><ele>174.0</ele><time>2026-04-08T15:09:46.015Z</time></trkpt><trkpt lat="44.8520033" lon="8.9380617"><ele>175.0</ele><time>2026-04-08T15:09:47.016Z</time></trkpt><trkpt lat="44.85217" lon="8.938"><ele>175.0</ele><time>2026-04-08T15:09:48.016Z</time></trkpt><trkpt lat="44.852335" lon="8.9379383"><ele>175.0</ele><time>2026-04-08T15:09:49.015Z</time></trkpt><trkpt lat="44.8525017" lon="8.93787"><ele>175.0</ele><time>2026-04-08T15:09:50.015Z</time></trkpt><trkpt lat="44.852665" lon="8.937805"><ele>176.66666666666669</ele><time>2026-04-08T15:09:51.016Z</time></trkpt><trkpt lat="44.8528283" lon="8.9377383"><ele>178.33333333333334</ele><time>2026-04-08T15:09:52.015Z</time></trkpt><trkpt lat="44.8529933" lon="8.9376733"><ele>180.0</ele><time>2026-04-08T15:09:53.015Z</time></trkpt><trkpt lat="44.8531567" lon="8.9376083"><ele>177.33333333333334</ele><time>2026-04-08T15:09:54.015Z</time></trkpt><trkpt lat="44.85332" lon="8.93754"><ele>174.66666666666669</ele><time>2026-04-08T15:09:55.016Z</time></trkpt><trkpt lat="44.8534883" lon="8.9374833"><ele>172.0</ele><time>2026-04-08T15:09:56.015Z</time></trkpt><trkpt lat="44.8536467" lon="8.93742"><ele>172.0</ele><time>2026-04-08T15:09:57.015Z</time></trkpt><trkpt lat="44.8538067" lon="8.9373567"><ele>172.0</ele><time>2026-04-08T15:09:58.015Z</time></trkpt><trkpt lat="44.85397" lon="8.9372933"><ele>172.0</ele><time>2026-04-08T15:09:59.016Z</time></trkpt><trkpt lat="44.8541333" lon="8.93723"><ele>171.33333333333334</ele><time>2026-04-08T15:10:00.015Z</time></trkpt><trkpt lat="44.854305" lon="8.9371667"><ele>170.66666666666666</ele><time>2026-04-08T15:10:01.015Z</time></trkpt><trkpt lat="44.8544717" lon="8.9370983"><ele>170.0</ele><time>2026-04-08T15:10:02.015Z</time></trkpt><trkpt lat="44.8546433" lon="8.937035"><ele>170.0</ele><time>2026-04-08T15:10:03.015Z</time></trkpt><trkpt lat="44.8548183" lon="8.9369717"><ele>170.0</ele><time>2026-04-08T15:10:04.016Z</time></trkpt><trkpt lat="44.854995" lon="8.9369017"><ele>170.0</ele><time>2026-04-08T15:10:05.015Z</time></trkpt><trkpt lat="44.8551717" lon="8.9368317"><ele>169.66666666666666</ele><time>2026-04-08T15:10:06.016Z</time></trkpt><trkpt lat="44.8553533" lon="8.93676"><ele>169.33333333333334</ele><time>2026-04-08T15:10:07.016Z</time></trkpt><trkpt lat="44.8555317" lon="8.936695"><ele>169.0</ele><time>2026-04-08T15:10:08.015Z</time></trkpt><trkpt lat="44.855715" lon="8.936625"><ele>168.66666666666669</ele><time>2026-04-08T15:10:09.015Z</time></trkpt><trkpt lat="44.8558983" lon="8.9365533"><ele>168.33333333333334</ele><time>2026-04-08T15:10:10.015Z</time></trkpt><trkpt lat="44.8560717" lon="8.9364817"><ele>168.0</ele><time>2026-04-08T15:10:11.016Z</time></trkpt><trkpt lat="44.8562483" lon="8.936405"><ele>168.0</ele><time>2026-04-08T15:10:12.016Z</time></trkpt><trkpt lat="44.8564183" lon="8.936335"><ele>168.0</ele><time>2026-04-08T15:10:13.015Z</time></trkpt><trkpt lat="44.8565933" lon="8.9362667"><ele>168.0</ele><time>2026-04-08T15:10:14.016Z</time></trkpt><trkpt lat="44.85675" lon="8.9362017"><ele>169.0</ele><time>2026-04-08T15:10:15.015Z</time></trkpt><trkpt lat="44.8568983" lon="8.9361433"><ele>170.0</ele><time>2026-04-08T15:10:16.016Z</time></trkpt><trkpt lat="44.8570483" lon="8.936085"><ele>171.0</ele><time>2026-04-08T15:10:17.015Z</time></trkpt><trkpt lat="44.8571983" lon="8.93603"><ele>171.0</ele><time>2026-04-08T15:10:18.015Z</time></trkpt><trkpt lat="44.8573433" lon="8.9359767"><ele>171.0</ele><time>2026-04-08T15:10:19.015Z</time></trkpt><trkpt lat="44.8574917" lon="8.9359167"><ele>171.0</ele><time>2026-04-08T15:10:20.015Z</time></trkpt><trkpt lat="44.8576333" lon="8.9358617"><ele>170.25</ele><time>2026-04-08T15:10:21.015Z</time></trkpt><trkpt lat="44.85778" lon="8.9357967"><ele>169.5</ele><time>2026-04-08T15:10:22.016Z</time></trkpt><trkpt lat="44.8579267" lon="8.9357383"><ele>168.75</ele><time>2026-04-08T15:10:23.016Z</time></trkpt><trkpt lat="44.85806" lon="8.9356883"><ele>168.0</ele><time>2026-04-08T15:10:24.015Z</time></trkpt><trkpt lat="44.8581933" lon="8.9356467"><ele>168.0</ele><time>2026-04-08T15:10:25.016Z</time></trkpt><trkpt lat="44.8583283" lon="8.93558"><ele>168.0</ele><time>2026-04-08T15:10:26.015Z</time></trkpt><trkpt lat="44.8584633" lon="8.9355233"><ele>168.0</ele><time>2026-04-08T15:10:27.016Z</time></trkpt><trkpt lat="44.85859" lon="8.9354833"><ele>168.0</ele><time>2026-04-08T15:10:28.015Z</time></trkpt><trkpt lat="44.8587083" lon="8.93545"><ele>167.60000000000002</ele><time>2026-04-08T15:10:29.015Z</time></trkpt><trkpt lat="44.8587967" lon="8.9354217"><ele>167.20000000000002</ele><time>2026-04-08T15:10:30.015Z</time></trkpt><trkpt lat="44.85886" lon="8.9354217"><ele>166.8</ele><time>2026-04-08T15:10:31.015Z</time></trkpt><trkpt lat="44.8589933" lon="8.9354967"><ele>166.4</ele><time>2026-04-08T15:10:33.015Z</time></trkpt><trkpt lat="44.8590733" lon="8.9355517"><ele>166.0</ele><time>2026-04-08T15:10:34.016Z</time></trkpt><trkpt lat="44.8591467" lon="8.9356033"><ele>166.0</ele><time>2026-04-08T15:10:35.016Z</time></trkpt><trkpt lat="44.8592067" lon="8.9356417"><ele>166.0</ele><time>2026-04-08T15:10:36.015Z</time></trkpt><trkpt lat="44.8593283" lon="8.9357133"><ele>166.0</ele><time>2026-04-08T15:10:54.015Z</time></trkpt><trkpt lat="44.8594" lon="8.935755"><ele>166.0</ele><time>2026-04-08T15:10:55.015Z</time></trkpt><trkpt lat="44.8594867" lon="8.9358133"><ele>166.0</ele><time>2026-04-08T15:10:56.015Z</time></trkpt><trkpt lat="44.85959" lon="8.9358817"><ele>166.0</ele><time>2026-04-08T15:10:57.015Z</time></trkpt><trkpt lat="44.859685" lon="8.935945"><ele>166.0</ele><time>2026-04-08T15:10:58.015Z</time></trkpt><trkpt lat="44.8597767" lon="8.9360117"><ele>166.0</ele><time>2026-04-08T15:10:59.016Z</time></trkpt><trkpt lat="44.8598633" lon="8.93607"><ele>166.0</ele><time>2026-04-08T15:11:00.015Z</time></trkpt><trkpt lat="44.8599467" lon="8.93612"><ele>166.0</ele><time>2026-04-08T15:11:01.015Z</time></trkpt><trkpt lat="44.8600317" lon="8.9361533"><ele>166.0</ele><time>2026-04-08T15:11:02.016Z</time></trkpt><trkpt lat="44.8601117" lon="8.93618"><ele>166.0</ele><time>2026-04-08T15:11:03.015Z</time></trkpt><trkpt lat="44.860185" lon="8.9362033"><ele>166.0</ele><time>2026-04-08T15:11:04.015Z</time></trkpt><trkpt lat="44.8602633" lon="8.9362133"><ele>166.0</ele><time>2026-04-08T15:11:05.015Z</time></trkpt><trkpt lat="44.8603383" lon="8.9362117"><ele>166.0</ele><time>2026-04-08T15:11:06.015Z</time></trkpt><trkpt lat="44.86041" lon="8.936205"><ele>166.0</ele><time>2026-04-08T15:11:07.015Z</time></trkpt><trkpt lat="44.8604917" lon="8.9361817"><ele>165.8</ele><time>2026-04-08T15:11:08.016Z</time></trkpt><trkpt lat="44.86058" lon="8.9361617"><ele>165.60000000000002</ele><time>2026-04-08T15:11:09.016Z</time></trkpt><trkpt lat="44.8606767" lon="8.9361367"><ele>165.4</ele><time>2026-04-08T15:11:10.015Z</time></trkpt><trkpt lat="44.8607717" lon="8.9361017"><ele>165.2</ele><time>2026-04-08T15:11:11.016Z</time></trkpt><trkpt lat="44.86087" lon="8.9360467"><ele>165.0</ele><time>2026-04-08T15:11:12.015Z</time></trkpt><trkpt lat="44.8609767" lon="8.9359917"><ele>165.0</ele><time>2026-04-08T15:11:13.015Z</time></trkpt><trkpt lat="44.8610833" lon="8.93594"><ele>165.0</ele><time>2026-04-08T15:11:14.015Z</time></trkpt><trkpt lat="44.8611917" lon="8.93589"><ele>165.0</ele><time>2026-04-08T15:11:15.015Z</time></trkpt><trkpt lat="44.8613067" lon="8.9358417"><ele>165.0</ele><time>2026-04-08T15:11:16.015Z</time></trkpt><trkpt lat="44.8614167" lon="8.9357983"><ele>163.75</ele><time>2026-04-08T15:11:17.015Z</time></trkpt><trkpt lat="44.8615233" lon="8.935755"><ele>162.5</ele><time>2026-04-08T15:11:18.015Z</time></trkpt><trkpt lat="44.8616367" lon="8.9357017"><ele>161.25</ele><time>2026-04-08T15:11:19.016Z</time></trkpt><trkpt lat="44.86175" lon="8.9356617"><ele>160.0</ele><time>2026-04-08T15:11:20.015Z</time></trkpt><trkpt lat="44.8618633" lon="8.9356383"><ele>159.5</ele><time>2026-04-08T15:11:21.015Z</time></trkpt><trkpt lat="44.8619733" lon="8.9356267"><ele>159.0</ele><time>2026-04-08T15:11:22.016Z</time></trkpt><trkpt lat="44.8620917" lon="8.9356233"><ele>158.5</ele><time>2026-04-08T15:11:23.015Z</time></trkpt><trkpt lat="44.86221" lon="8.935625"><ele>158.0</ele><time>2026-04-08T15:11:24.016Z</time></trkpt><trkpt lat="44.8623283" lon="8.9356367"><ele>158.0</ele><time>2026-04-08T15:11:25.016Z</time></trkpt><trkpt lat="44.8624467" lon="8.9356417"><ele>158.0</ele><time>2026-04-08T15:11:26.016Z</time></trkpt><trkpt lat="44.862565" lon="8.9356317"><ele>158.0</ele><time>2026-04-08T15:11:27.015Z</time></trkpt><trkpt lat="44.8626917" lon="8.93561"><ele>158.0</ele><time>2026-04-08T15:11:28.015Z</time></trkpt><trkpt lat="44.8628233" lon="8.9355833"><ele>157.5</ele><time>2026-04-08T15:11:29.015Z</time></trkpt><trkpt lat="44.8629433" lon="8.9355467"><ele>157.0</ele><time>2026-04-08T15:11:30.016Z</time></trkpt><trkpt lat="44.863065" lon="8.9354967"><ele>156.5</ele><time>2026-04-08T15:11:31.015Z</time></trkpt><trkpt lat="44.8631883" lon="8.93542"><ele>156.0</ele><time>2026-04-08T15:11:32.016Z</time></trkpt><trkpt lat="44.8633017" lon="8.9353267"><ele>156.0</ele><time>2026-04-08T15:11:33.016Z</time></trkpt><trkpt lat="44.8634117" lon="8.9352233"><ele>156.0</ele><time>2026-04-08T15:11:34.016Z</time></trkpt><trkpt lat="44.8635167" lon="8.935115"><ele>156.0</ele><time>2026-04-08T15:11:35.016Z</time></trkpt><trkpt lat="44.863635" lon="8.9350017"><ele>156.0</ele><time>2026-04-08T15:11:36.015Z</time></trkpt><trkpt lat="44.863755" lon="8.934885"><ele>155.5</ele><time>2026-04-08T15:11:37.016Z</time></trkpt><trkpt lat="44.8638767" lon="8.93477"><ele>155.0</ele><time>2026-04-08T15:11:38.015Z</time></trkpt><trkpt lat="44.8640033" lon="8.9346533"><ele>154.5</ele><time>2026-04-08T15:11:39.016Z</time></trkpt><trkpt lat="44.8641267" lon="8.9345467"><ele>154.0</ele><time>2026-04-08T15:11:40.015Z</time></trkpt><trkpt lat="44.8642517" lon="8.9344433"><ele>154.25</ele><time>2026-04-08T15:11:41.016Z</time></trkpt><trkpt lat="44.8643817" lon="8.9343517"><ele>154.5</ele><time>2026-04-08T15:11:42.015Z</time></trkpt><trkpt lat="44.864505" lon="8.9342817"><ele>154.75</ele><time>2026-04-08T15:11:43.016Z</time></trkpt><trkpt lat="44.864635" lon="8.9342183"><ele>155.0</ele><time>2026-04-08T15:11:44.015Z</time></trkpt><trkpt lat="44.86477" lon="8.9341767"><ele>155.0</ele><time>2026-04-08T15:11:45.016Z</time></trkpt><trkpt lat="44.8649033" lon="8.9341483"><ele>155.0</ele><time>2026-04-08T15:11:46.015Z</time></trkpt><trkpt lat="44.86504" lon="8.9341483"><ele>155.0</ele><time>2026-04-08T15:11:47.016Z</time></trkpt><trkpt lat="44.8651817" lon="8.9341783"><ele>155.0</ele><time>2026-04-08T15:11:48.015Z</time></trkpt><trkpt lat="44.86534" lon="8.9342083"><ele>155.33333333333331</ele><time>2026-04-08T15:11:49.016Z</time></trkpt><trkpt lat="44.86551" lon="8.934235"><ele>155.66666666666666</ele><time>2026-04-08T15:11:50.015Z</time></trkpt><trkpt lat="44.86567" lon="8.9342583"><ele>156.0</ele><time>2026-04-08T15:11:51.015Z</time></trkpt><trkpt lat="44.865815" lon="8.93429"><ele>156.75</ele><time>2026-04-08T15:11:52.016Z</time></trkpt><trkpt lat="44.8659517" lon="8.9343117"><ele>157.5</ele><time>2026-04-08T15:11:53.016Z</time></trkpt><trkpt lat="44.8660983" lon="8.9343283"><ele>158.25</ele><time>2026-04-08T15:11:54.015Z</time></trkpt><trkpt lat="44.86625" lon="8.934325"><ele>159.0</ele><time>2026-04-08T15:11:55.015Z</time></trkpt><trkpt lat="44.866385" lon="8.9343183"><ele>159.0</ele><time>2026-04-08T15:11:56.015Z</time></trkpt><trkpt lat="44.8665133" lon="8.934305"><ele>159.0</ele><time>2026-04-08T15:11:57.016Z</time></trkpt><trkpt lat="44.8666467" lon="8.9342767"><ele>159.0</ele><time>2026-04-08T15:11:58.016Z</time></trkpt><trkpt lat="44.8667767" lon="8.9342417"><ele>159.0</ele><time>2026-04-08T15:11:59.015Z</time></trkpt><trkpt lat="44.8668983" lon="8.9342017"><ele>157.75</ele><time>2026-04-08T15:12:00.015Z</time></trkpt><trkpt lat="44.8670167" lon="8.9341483"><ele>156.5</ele><time>2026-04-08T15:12:01.015Z</time></trkpt><trkpt lat="44.8671367" lon="8.9340767"><ele>155.25</ele><time>2026-04-08T15:12:02.016Z</time></trkpt><trkpt lat="44.8672433" lon="8.93401"><ele>154.0</ele><time>2026-04-08T15:12:03.015Z</time></trkpt><trkpt lat="44.86734" lon="8.9339433"><ele>154.0</ele><time>2026-04-08T15:12:04.016Z</time></trkpt><trkpt lat="44.8674283" lon="8.933885"><ele>154.0</ele><time>2026-04-08T15:12:05.016Z</time></trkpt><trkpt lat="44.8675217" lon="8.9338217"><ele>154.0</ele><time>2026-04-08T15:12:06.015Z</time></trkpt><trkpt lat="44.8676133" lon="8.93376"><ele>154.0</ele><time>2026-04-08T15:12:07.015Z</time></trkpt><trkpt lat="44.867705" lon="8.933695"><ele>154.0</ele><time>2026-04-08T15:12:08.015Z</time></trkpt><trkpt lat="44.8677967" lon="8.9336283"><ele>154.0</ele><time>2026-04-08T15:12:09.015Z</time></trkpt><trkpt lat="44.8678967" lon="8.9335567"><ele>154.0</ele><time>2026-04-08T15:12:10.015Z</time></trkpt><trkpt lat="44.8679933" lon="8.9334883"><ele>154.0</ele><time>2026-04-08T15:12:11.015Z</time></trkpt><trkpt lat="44.8680733" lon="8.9334333"><ele>154.0</ele><time>2026-04-08T15:12:12.016Z</time></trkpt><trkpt lat="44.8681367" lon="8.9333833"><ele>154.0</ele><time>2026-04-08T15:12:13.016Z</time></trkpt><trkpt lat="44.8682483" lon="8.9333183"><ele>154.0</ele><time>2026-04-08T15:12:15.015Z</time></trkpt><trkpt lat="44.868335" lon="8.9333067"><ele>154.0</ele><time>2026-04-08T15:12:17.015Z</time></trkpt><trkpt lat="44.8684033" lon="8.933395"><ele>154.0</ele><time>2026-04-08T15:12:20.016Z</time></trkpt><trkpt lat="44.8684017" lon="8.9335567"><ele>154.0</ele><time>2026-04-08T15:12:22.016Z</time></trkpt><trkpt lat="44.8683883" lon="8.9336633"><ele>154.0</ele><time>2026-04-08T15:12:23.014Z</time></trkpt><trkpt lat="44.8683717" lon="8.9337817"><ele>154.8</ele><time>2026-04-08T15:12:24.014Z</time></trkpt><trkpt lat="44.8683433" lon="8.9339117"><ele>155.60000000000002</ele><time>2026-04-08T15:12:25.014Z</time></trkpt><trkpt lat="44.8683133" lon="8.9340417"><ele>156.4</ele><time>2026-04-08T15:12:26.014Z</time></trkpt><trkpt lat="44.868265" lon="8.9341733"><ele>157.20000000000002</ele><time>2026-04-08T15:12:27.014Z</time></trkpt><trkpt lat="44.8682183" lon="8.93429"><ele>158.0</ele><time>2026-04-08T15:12:28.015Z</time></trkpt><trkpt lat="44.868185" lon="8.9343883"><ele>159.33333333333331</ele><time>2026-04-08T15:12:29.014Z</time></trkpt><trkpt lat="44.8681633" lon="8.934485"><ele>160.66666666666666</ele><time>2026-04-08T15:12:30.014Z</time></trkpt><trkpt lat="44.8681733" lon="8.9345833"><ele>162.0</ele><time>2026-04-08T15:12:31.015Z</time></trkpt><trkpt lat="44.8681983" lon="8.9346667"><ele>163.33333333333334</ele><time>2026-04-08T15:12:32.014Z</time></trkpt><trkpt lat="44.8682533" lon="8.9347383"><ele>164.66666666666669</ele><time>2026-04-08T15:12:33.015Z</time></trkpt><trkpt lat="44.8683267" lon="8.9347917"><ele>166.0</ele><time>2026-04-08T15:12:34.014Z</time></trkpt><trkpt lat="44.8684083" lon="8.9348367"><ele>165.0</ele><time>2026-04-08T15:12:35.014Z</time></trkpt><trkpt lat="44.8684883" lon="8.9348883"><ele>164.0</ele><time>2026-04-08T15:12:36.014Z</time></trkpt><trkpt lat="44.868575" lon="8.93495"><ele>163.0</ele><time>2026-04-08T15:12:37.014Z</time></trkpt><trkpt lat="44.8686633" lon="8.93501"><ele>162.0</ele><time>2026-04-08T15:12:38.014Z</time></trkpt><trkpt lat="44.86875" lon="8.9350683"><ele>161.0</ele><time>2026-04-08T15:12:39.014Z</time></trkpt><trkpt lat="44.8688217" lon="8.935125"><ele>163.5</ele><time>2026-04-08T15:12:40.014Z</time></trkpt><trkpt lat="44.8688817" lon="8.9351883"><ele>166.0</ele><time>2026-04-08T15:12:41.014Z</time></trkpt><trkpt lat="44.8689217" lon="8.93526"><ele>168.5</ele><time>2026-04-08T15:12:42.015Z</time></trkpt><trkpt lat="44.8689133" lon="8.9354267"><ele>171.0</ele><time>2026-04-08T15:12:44.014Z</time></trkpt><trkpt lat="44.8688683" lon="8.935495"><ele>173.5</ele><time>2026-04-08T15:12:45.014Z</time></trkpt><trkpt lat="44.8687967" lon="8.9355567"><ele>176.0</ele><time>2026-04-08T15:12:46.015Z</time></trkpt><trkpt lat="44.868705" lon="8.93561"><ele>176.0</ele><time>2026-04-08T15:12:47.014Z</time></trkpt><trkpt lat="44.8686" lon="8.9356667"><ele>176.0</ele><time>2026-04-08T15:12:48.015Z</time></trkpt><trkpt lat="44.86849" lon="8.935735"><ele>176.0</ele><time>2026-04-08T15:12:49.014Z</time></trkpt><trkpt lat="44.8683817" lon="8.9358017"><ele>176.0</ele><time>2026-04-08T15:12:50.014Z</time></trkpt><trkpt lat="44.8682767" lon="8.9358667"><ele>177.83333333333331</ele><time>2026-04-08T15:12:51.015Z</time></trkpt><trkpt lat="44.868195" lon="8.9359383"><ele>179.66666666666666</ele><time>2026-04-08T15:12:52.015Z</time></trkpt><trkpt lat="44.868125" lon="8.9360083"><ele>181.5</ele><time>2026-04-08T15:12:53.014Z</time></trkpt><trkpt lat="44.8680667" lon="8.9361"><ele>183.33333333333334</ele><time>2026-04-08T15:12:54.014Z</time></trkpt><trkpt lat="44.8680283" lon="8.9362017"><ele>185.16666666666669</ele><time>2026-04-08T15:12:55.014Z</time></trkpt><trkpt lat="44.8680117" lon="8.9363217"><ele>187.0</ele><time>2026-04-08T15:12:56.015Z</time></trkpt><trkpt lat="44.8680133" lon="8.93644"><ele>187.0</ele><time>2026-04-08T15:12:57.015Z</time></trkpt><trkpt lat="44.868025" lon="8.9365467"><ele>187.0</ele><time>2026-04-08T15:12:58.015Z</time></trkpt><trkpt lat="44.8680417" lon="8.9366433"><ele>187.0</ele><time>2026-04-08T15:12:59.014Z</time></trkpt><trkpt lat="44.868055" lon="8.9367917"><ele>187.0</ele><time>2026-04-08T15:13:01.014Z</time></trkpt><trkpt lat="44.868065" lon="8.9369117"><ele>187.0</ele><time>2026-04-08T15:13:03.015Z</time></trkpt><trkpt lat="44.8680883" lon="8.93705"><ele>187.0</ele><time>2026-04-08T15:13:05.015Z</time></trkpt><trkpt lat="44.8681067" lon="8.9371383"><ele>188.5</ele><time>2026-04-08T15:13:06.014Z</time></trkpt><trkpt lat="44.86812" lon="8.93723"><ele>190.0</ele><time>2026-04-08T15:13:07.014Z</time></trkpt><trkpt lat="44.8681333" lon="8.9373233"><ele>191.5</ele><time>2026-04-08T15:13:08.014Z</time></trkpt><trkpt lat="44.8681533" lon="8.9374217"><ele>193.0</ele><time>2026-04-08T15:13:09.015Z</time></trkpt><trkpt lat="44.8681733" lon="8.93753"><ele>194.49999999999997</ele><time>2026-04-08T15:13:10.015Z</time></trkpt><trkpt lat="44.8681967" lon="8.9376417"><ele>196.0</ele><time>2026-04-08T15:13:11.015Z</time></trkpt><trkpt lat="44.8682233" lon="8.937765"><ele>197.0</ele><time>2026-04-08T15:13:12.014Z</time></trkpt><trkpt lat="44.86825" lon="8.9378983"><ele>198.0</ele><time>2026-04-08T15:13:13.015Z</time></trkpt><trkpt lat="44.8682783" lon="8.9380317"><ele>199.0</ele><time>2026-04-08T15:13:14.014Z</time></trkpt><trkpt lat="44.8683017" lon="8.9381583"><ele>200.0</ele><time>2026-04-08T15:13:15.015Z</time></trkpt><trkpt lat="44.8683283" lon="8.9382867"><ele>201.0</ele><time>2026-04-08T15:13:16.015Z</time></trkpt><trkpt lat="44.8683567" lon="8.93841"><ele>201.60000000000002</ele><time>2026-04-08T15:13:17.014Z</time></trkpt><trkpt lat="44.8683883" lon="8.9385383"><ele>202.2</ele><time>2026-04-08T15:13:18.014Z</time></trkpt><trkpt lat="44.8684117" lon="8.9386783"><ele>202.8</ele><time>2026-04-08T15:13:19.014Z</time></trkpt><trkpt lat="44.8684433" lon="8.93883"><ele>203.39999999999998</ele><time>2026-04-08T15:13:20.015Z</time></trkpt><trkpt lat="44.86848" lon="8.9389917"><ele>204.0</ele><time>2026-04-08T15:13:21.015Z</time></trkpt><trkpt lat="44.8685233" lon="8.9391433"><ele>207.0</ele><time>2026-04-08T15:13:22.014Z</time></trkpt><trkpt lat="44.8685617" lon="8.9392733"><ele>210.0</ele><time>2026-04-08T15:13:23.014Z</time></trkpt><trkpt lat="44.86859" lon="8.9393617"><ele>212.99999999999997</ele><time>2026-04-08T15:13:24.014Z</time></trkpt><trkpt lat="44.8686583" lon="8.939445"><ele>216.0</ele><time>2026-04-08T15:13:26.014Z</time></trkpt><trkpt lat="44.868765" lon="8.939395"><ele>219.0</ele><time>2026-04-08T15:13:28.014Z</time></trkpt><trkpt lat="44.8688483" lon="8.9393533"><ele>219.0</ele><time>2026-04-08T15:13:29.014Z</time></trkpt><trkpt lat="44.8689383" lon="8.9393017"><ele>218.99999999999997</ele><time>2026-04-08T15:13:30.014Z</time></trkpt><trkpt lat="44.86902" lon="8.9392517"><ele>218.99999999999997</ele><time>2026-04-08T15:13:31.015Z</time></trkpt><trkpt lat="44.869085" lon="8.9391967"><ele>219.0</ele><time>2026-04-08T15:13:32.014Z</time></trkpt><trkpt lat="44.8691217" lon="8.9391217"><ele>219.0</ele><time>2026-04-08T15:13:33.014Z</time></trkpt><trkpt lat="44.869105" lon="8.9389367"><ele>218.0</ele><time>2026-04-08T15:13:35.014Z</time></trkpt><trkpt lat="44.869065" lon="8.9388217"><ele>217.0</ele><time>2026-04-08T15:13:36.015Z</time></trkpt><trkpt lat="44.869035" lon="8.9387133"><ele>216.0</ele><time>2026-04-08T15:13:37.015Z</time></trkpt><trkpt lat="44.8690133" lon="8.9386133"><ele>215.0</ele><time>2026-04-08T15:13:38.014Z</time></trkpt><trkpt lat="44.868995" lon="8.9385217"><ele>214.0</ele><time>2026-04-08T15:13:39.015Z</time></trkpt><trkpt lat="44.868975" lon="8.9384183"><ele>213.0</ele><time>2026-04-08T15:13:41.015Z</time></trkpt><trkpt lat="44.8689417" lon="8.9382883"><ele>213.0</ele><time>2026-04-08T15:14:10.015Z</time></trkpt><trkpt lat="44.86898" lon="8.9381483"><ele>213.0</ele><time>2026-04-08T15:14:12.014Z</time></trkpt><trkpt lat="44.8690917" lon="8.9381367"><ele>213.0</ele><time>2026-04-08T15:14:14.015Z</time></trkpt><trkpt lat="44.869175" lon="8.9382133"><ele>213.0</ele><time>2026-04-08T15:14:16.015Z</time></trkpt><trkpt lat="44.8692233" lon="8.9382767"><ele>213.0</ele><time>2026-04-08T15:14:19.014Z</time></trkpt><trkpt lat="44.86923" lon="8.93818"><ele>213.0</ele><time>2026-04-08T15:14:24.014Z</time></trkpt><trkpt lat="44.86918" lon="8.9380867"><ele>213.0</ele><time>2026-04-08T15:14:26.014Z</time></trkpt><trkpt lat="44.86911" lon="8.937955"><ele>213.0</ele><time>2026-04-08T15:14:28.014Z</time></trkpt><trkpt lat="44.8690667" lon="8.93789"><ele>213.0</ele><time>2026-04-08T15:14:29.014Z</time></trkpt><trkpt lat="44.8690083" lon="8.9378167"><ele>213.0</ele><time>2026-04-08T15:14:30.014Z</time></trkpt><trkpt lat="44.8689533" lon="8.937755"><ele>213.0</ele><time>2026-04-08T15:14:31.014Z</time></trkpt><trkpt lat="44.868885" lon="8.937695"><ele>213.0</ele><time>2026-04-08T15:14:32.014Z</time></trkpt><trkpt lat="44.8688267" lon="8.937605"><ele>213.0</ele><time>2026-04-08T15:14:33.014Z</time></trkpt><trkpt lat="44.8687683" lon="8.9375117"><ele>213.0</ele><time>2026-04-08T15:14:34.014Z</time></trkpt><trkpt lat="44.8687067" lon="8.9374183"><ele>213.0</ele><time>2026-04-08T15:14:35.014Z</time></trkpt><trkpt lat="44.8686283" lon="8.9373317"><ele>213.0</ele><time>2026-04-08T15:14:36.014Z</time></trkpt><trkpt lat="44.8685517" lon="8.937245"><ele>211.66666666666666</ele><time>2026-04-08T15:14:37.014Z</time></trkpt><trkpt lat="44.8684783" lon="8.937165"><ele>210.33333333333331</ele><time>2026-04-08T15:14:38.015Z</time></trkpt><trkpt lat="44.8684133" lon="8.937095"><ele>209.0</ele><time>2026-04-08T15:14:39.015Z</time></trkpt><trkpt lat="44.8683567" lon="8.9370333"><ele>207.66666666666666</ele><time>2026-04-08T15:14:40.015Z</time></trkpt><trkpt lat="44.8683033" lon="8.9369633"><ele>206.33333333333331</ele><time>2026-04-08T15:14:41.014Z</time></trkpt><trkpt lat="44.8682367" lon="8.9368633"><ele>205.0</ele><time>2026-04-08T15:14:43.015Z</time></trkpt><trkpt lat="44.8681767" lon="8.9367783"><ele>201.4</ele><time>2026-04-08T15:14:45.015Z</time></trkpt><trkpt lat="44.8681367" lon="8.9367033"><ele>197.8</ele><time>2026-04-08T15:14:47.014Z</time></trkpt><trkpt lat="44.8680883" lon="8.93662"><ele>194.2</ele><time>2026-04-08T15:14:49.014Z</time></trkpt><trkpt lat="44.868055" lon="8.9364933"><ele>190.6</ele><time>2026-04-08T15:14:51.015Z</time></trkpt><trkpt lat="44.8680383" lon="8.936325"><ele>187.0</ele><time>2026-04-08T15:14:53.014Z</time></trkpt><trkpt lat="44.8680567" lon="8.9361383"><ele>187.0</ele><time>2026-04-08T15:14:55.014Z</time></trkpt><trkpt lat="44.868095" lon="8.936055"><ele>187.0</ele><time>2026-04-08T15:14:56.014Z</time></trkpt><trkpt lat="44.8681483" lon="8.93599"><ele>187.0</ele><time>2026-04-08T15:14:57.015Z</time></trkpt><trkpt lat="44.86821" lon="8.93594"><ele>187.0</ele><time>2026-04-08T15:14:58.015Z</time></trkpt><trkpt lat="44.86828" lon="8.9358933"><ele>187.0</ele><time>2026-04-08T15:14:59.015Z</time></trkpt><trkpt lat="44.86836" lon="8.9358433"><ele>187.0</ele><time>2026-04-08T15:15:00.015Z</time></trkpt><trkpt lat="44.868435" lon="8.93579"><ele>185.16666666666669</ele><time>2026-04-08T15:15:01.014Z</time></trkpt><trkpt lat="44.8685117" lon="8.9357417"><ele>183.33333333333334</ele><time>2026-04-08T15:15:02.015Z</time></trkpt><trkpt lat="44.868595" lon="8.9356883"><ele>181.5</ele><time>2026-04-08T15:15:03.014Z</time></trkpt><trkpt lat="44.8686783" lon="8.9356483"><ele>179.66666666666666</ele><time>2026-04-08T15:15:04.015Z</time></trkpt><trkpt lat="44.8687533" lon="8.9355967"><ele>177.83333333333331</ele><time>2026-04-08T15:15:05.014Z</time></trkpt><trkpt lat="44.8688167" lon="8.935555"><ele>176.0</ele><time>2026-04-08T15:15:06.015Z</time></trkpt><trkpt lat="44.8688767" lon="8.9355217"><ele>176.0</ele><time>2026-04-08T15:15:07.014Z</time></trkpt><trkpt lat="44.86894" lon="8.935415"><ele>176.0</ele><time>2026-04-08T15:15:09.015Z</time></trkpt><trkpt lat="44.8689317" lon="8.9352583"><ele>176.0</ele><time>2026-04-08T15:15:11.015Z</time></trkpt><trkpt lat="44.8688917" lon="8.9351817"><ele>176.0</ele><time>2026-04-08T15:15:12.014Z</time></trkpt><trkpt lat="44.868835" lon="8.935115"><ele>176.0</ele><time>2026-04-08T15:15:13.015Z</time></trkpt><trkpt lat="44.8687683" lon="8.935065"><ele>176.0</ele><time>2026-04-08T15:15:14.014Z</time></trkpt><trkpt lat="44.8687" lon="8.9350133"><ele>174.33333333333331</ele><time>2026-04-08T15:15:15.014Z</time></trkpt><trkpt lat="44.868625" lon="8.934975"><ele>172.66666666666666</ele><time>2026-04-08T15:15:16.015Z</time></trkpt><trkpt lat="44.8685467" lon="8.9349333"><ele>171.0</ele><time>2026-04-08T15:15:17.015Z</time></trkpt><trkpt lat="44.86847" lon="8.9348817"><ele>169.33333333333334</ele><time>2026-04-08T15:15:18.015Z</time></trkpt><trkpt lat="44.8684017" lon="8.9348317"><ele>167.66666666666669</ele><time>2026-04-08T15:15:19.014Z</time></trkpt><trkpt lat="44.8683417" lon="8.9347883"><ele>166.0</ele><time>2026-04-08T15:15:20.014Z</time></trkpt><trkpt lat="44.868285" lon="8.9347483"><ele>166.0</ele><time>2026-04-08T15:15:21.014Z</time></trkpt><trkpt lat="44.8681883" lon="8.9346217"><ele>166.0</ele><time>2026-04-08T15:15:23.014Z</time></trkpt><trkpt lat="44.8681833" lon="8.93443"><ele>166.0</ele><time>2026-04-08T15:15:25.014Z</time></trkpt><trkpt lat="44.868265" lon="8.934235"><ele>166.0</ele><time>2026-04-08T15:15:27.015Z</time></trkpt><trkpt lat="44.8683117" lon="8.9341267"><ele>164.4</ele><time>2026-04-08T15:15:28.014Z</time></trkpt><trkpt lat="44.8683433" lon="8.9340117"><ele>162.8</ele><time>2026-04-08T15:15:29.014Z</time></trkpt><trkpt lat="44.8683717" lon="8.933885"><ele>161.20000000000002</ele><time>2026-04-08T15:15:30.015Z</time></trkpt><trkpt lat="44.8683933" lon="8.9337517"><ele>159.60000000000002</ele><time>2026-04-08T15:15:31.014Z</time></trkpt><trkpt lat="44.86841" lon="8.933625"><ele>158.0</ele><time>2026-04-08T15:15:32.015Z</time></trkpt><trkpt lat="44.868425" lon="8.933505"><ele>158.0</ele><time>2026-04-08T15:15:33.014Z</time></trkpt><trkpt lat="44.8684317" lon="8.9334083"><ele>158.0</ele><time>2026-04-08T15:15:34.014Z</time></trkpt><trkpt lat="44.8684617" lon="8.9332883"><ele>158.0</ele><time>2026-04-08T15:15:36.015Z</time></trkpt><trkpt lat="44.8683917" lon="8.933265"><ele>158.0</ele><time>2026-04-08T15:16:32.013Z</time></trkpt><trkpt lat="44.8683883" lon="8.93341"><ele>158.0</ele><time>2026-04-08T15:21:05.012Z</time></trkpt><trkpt lat="44.868395" lon="8.9335683"><ele>158.0</ele><time>2026-04-08T15:21:07.013Z</time></trkpt><trkpt lat="44.868385" lon="8.9336733"><ele>158.0</ele><time>2026-04-08T15:21:08.013Z</time></trkpt><trkpt lat="44.8683667" lon="8.933785"><ele>158.0</ele><time>2026-04-08T15:21:09.012Z</time></trkpt><trkpt lat="44.8683433" lon="8.9339067"><ele>158.0</ele><time>2026-04-08T15:21:10.013Z</time></trkpt><trkpt lat="44.868315" lon="8.9340333"><ele>158.0</ele><time>2026-04-08T15:21:11.013Z</time></trkpt><trkpt lat="44.8682767" lon="8.9341583"><ele>158.0</ele><time>2026-04-08T15:21:12.012Z</time></trkpt><trkpt lat="44.8681867" lon="8.9344083"><ele>158.60000000000002</ele><time>2026-04-08T15:21:14.012Z</time></trkpt><trkpt lat="44.868165" lon="8.934515"><ele>159.20000000000002</ele><time>2026-04-08T15:21:15.013Z</time></trkpt><trkpt lat="44.868175" lon="8.9346083"><ele>159.8</ele><time>2026-04-08T15:21:16.012Z</time></trkpt><trkpt lat="44.8682633" lon="8.9347517"><ele>160.4</ele><time>2026-04-08T15:21:18.013Z</time></trkpt><trkpt lat="44.8683517" lon="8.9348183"><ele>161.0</ele><time>2026-04-08T15:21:19.012Z</time></trkpt><trkpt lat="44.8684833" lon="8.934905"><ele>161.0</ele><time>2026-04-08T15:21:20.013Z</time></trkpt><trkpt lat="44.8686133" lon="8.93499"><ele>161.0</ele><time>2026-04-08T15:21:21.012Z</time></trkpt><trkpt lat="44.8687233" lon="8.93506"><ele>161.0</ele><time>2026-04-08T15:21:22.013Z</time></trkpt><trkpt lat="44.8688033" lon="8.93512"><ele>161.0</ele><time>2026-04-08T15:21:23.013Z</time></trkpt><trkpt lat="44.8688633" lon="8.9351833"><ele>161.0</ele><time>2026-04-08T15:21:24.012Z</time></trkpt><trkpt lat="44.8689117" lon="8.9352583"><ele>163.5</ele><time>2026-04-08T15:21:25.012Z</time></trkpt><trkpt lat="44.8689283" lon="8.93536"><ele>166.0</ele><time>2026-04-08T15:21:26.012Z</time></trkpt><trkpt lat="44.86891" lon="8.93545"><ele>168.5</ele><time>2026-04-08T15:21:27.013Z</time></trkpt><trkpt lat="44.86886" lon="8.93552"><ele>171.0</ele><time>2026-04-08T15:21:28.013Z</time></trkpt><trkpt lat="44.8687933" lon="8.9355667"><ele>173.5</ele><time>2026-04-08T15:21:29.012Z</time></trkpt><trkpt lat="44.868715" lon="8.9356033"><ele>176.0</ele><time>2026-04-08T15:21:30.012Z</time></trkpt><trkpt lat="44.8686267" lon="8.93565"><ele>176.0</ele><time>2026-04-08T15:21:31.012Z</time></trkpt><trkpt lat="44.8685333" lon="8.935705"><ele>176.0</ele><time>2026-04-08T15:21:32.012Z</time></trkpt><trkpt lat="44.8684317" lon="8.9357567"><ele>176.0</ele><time>2026-04-08T15:21:33.013Z</time></trkpt><trkpt lat="44.8683367" lon="8.93581"><ele>176.0</ele><time>2026-04-08T15:21:34.013Z</time></trkpt><trkpt lat="44.8682533" lon="8.9358667"><ele>176.0</ele><time>2026-04-08T15:21:35.012Z</time></trkpt><trkpt lat="44.86818" lon="8.9359317"><ele>177.83333333333331</ele><time>2026-04-08T15:21:36.012Z</time></trkpt><trkpt lat="44.86811" lon="8.9360067"><ele>179.66666666666666</ele><time>2026-04-08T15:21:37.012Z</time></trkpt><trkpt lat="44.8680633" lon="8.93607"><ele>181.5</ele><time>2026-04-08T15:21:38.013Z</time></trkpt><trkpt lat="44.8680283" lon="8.936155"><ele>183.33333333333334</ele><time>2026-04-08T15:21:39.013Z</time></trkpt><trkpt lat="44.8680067" lon="8.9362583"><ele>185.16666666666669</ele><time>2026-04-08T15:21:40.013Z</time></trkpt><trkpt lat="44.8680083" lon="8.9363733"><ele>187.0</ele><time>2026-04-08T15:21:41.013Z</time></trkpt><trkpt lat="44.8680183" lon="8.9365017"><ele>187.0</ele><time>2026-04-08T15:21:42.012Z</time></trkpt><trkpt lat="44.8680317" lon="8.9366317"><ele>187.0</ele><time>2026-04-08T15:21:43.012Z</time></trkpt><trkpt lat="44.8680483" lon="8.936755"><ele>187.0</ele><time>2026-04-08T15:21:44.012Z</time></trkpt><trkpt lat="44.86807" lon="8.9368783"><ele>187.0</ele><time>2026-04-08T15:21:45.012Z</time></trkpt><trkpt lat="44.8680933" lon="8.9370083"><ele>187.0</ele><time>2026-04-08T15:21:46.013Z</time></trkpt><trkpt lat="44.8681167" lon="8.9371467"><ele>189.25</ele><time>2026-04-08T15:21:47.012Z</time></trkpt><trkpt lat="44.8681417" lon="8.9372983"><ele>191.5</ele><time>2026-04-08T15:21:48.013Z</time></trkpt><trkpt lat="44.86818" lon="8.9374783"><ele>193.75</ele><time>2026-04-08T15:21:49.013Z</time></trkpt><trkpt lat="44.8682183" lon="8.9376967"><ele>196.0</ele><time>2026-04-08T15:21:50.013Z</time></trkpt><trkpt lat="44.868265" lon="8.93797"><ele>197.66666666666666</ele><time>2026-04-08T15:21:51.013Z</time></trkpt><trkpt lat="44.8683183" lon="8.93824"><ele>199.33333333333331</ele><time>2026-04-08T15:21:52.013Z</time></trkpt><trkpt lat="44.8683767" lon="8.938495"><ele>201.0</ele><time>2026-04-08T15:21:53.012Z</time></trkpt><trkpt lat="44.868425" lon="8.9387267"><ele>203.75</ele><time>2026-04-08T15:21:54.012Z</time></trkpt><trkpt lat="44.86847" lon="8.938925"><ele>206.5</ele><time>2026-04-08T15:21:55.013Z</time></trkpt><trkpt lat="44.8685133" lon="8.939105"><ele>209.25</ele><time>2026-04-08T15:21:56.013Z</time></trkpt><trkpt lat="44.8685567" lon="8.939255"><ele>212.0</ele><time>2026-04-08T15:21:57.013Z</time></trkpt><trkpt lat="44.8685933" lon="8.9393433"><ele>213.16666666666669</ele><time>2026-04-08T15:21:58.013Z</time></trkpt><trkpt lat="44.8686667" lon="8.9394317"><ele>214.33333333333334</ele><time>2026-04-08T15:22:00.012Z</time></trkpt><trkpt lat="44.86876" lon="8.9394033"><ele>215.5</ele><time>2026-04-08T15:22:02.013Z</time></trkpt><trkpt lat="44.86885" lon="8.9393517"><ele>216.66666666666669</ele><time>2026-04-08T15:22:04.013Z</time></trkpt><trkpt lat="44.868925" lon="8.9392883"><ele>217.83333333333334</ele><time>2026-04-08T15:22:06.012Z</time></trkpt><trkpt lat="44.8689817" lon="8.9392467"><ele>219.0</ele><time>2026-04-08T15:22:08.012Z</time></trkpt><trkpt lat="44.86905" lon="8.9392233"><ele>217.25</ele><time>2026-04-08T15:22:10.013Z</time></trkpt><trkpt lat="44.86911" lon="8.9390983"><ele>215.5</ele><time>2026-04-08T15:22:12.013Z</time></trkpt><trkpt lat="44.8691" lon="8.9389833"><ele>213.75</ele><time>2026-04-08T15:22:13.012Z</time></trkpt><trkpt lat="44.8690567" lon="8.9388017"><ele>212.0</ele><time>2026-04-08T15:22:14.012Z</time></trkpt><trkpt lat="44.8690067" lon="8.9385983"><ele>212.0</ele><time>2026-04-08T15:22:15.012Z</time></trkpt><trkpt lat="44.868965" lon="8.9384417"><ele>212.0</ele><time>2026-04-08T15:22:16.012Z</time></trkpt><trkpt lat="44.8689383" lon="8.9383217"><ele>212.0</ele><time>2026-04-08T15:22:17.012Z</time></trkpt><trkpt lat="44.8689317" lon="8.93822"><ele>212.0</ele><time>2026-04-08T15:22:18.013Z</time></trkpt><trkpt lat="44.86902" lon="8.9381233"><ele>212.0</ele><time>2026-04-08T15:22:20.012Z</time></trkpt><trkpt lat="44.8690867" lon="8.93813"><ele>212.0</ele><time>2026-04-08T15:22:21.013Z</time></trkpt><trkpt lat="44.8691533" lon="8.9381833"><ele>212.0</ele><time>2026-04-08T15:22:22.013Z</time></trkpt><trkpt lat="44.8692133" lon="8.93827"><ele>212.0</ele><time>2026-04-08T15:22:23.013Z</time></trkpt><trkpt lat="44.8692667" lon="8.9383933"><ele>212.0</ele><time>2026-04-08T15:22:24.013Z</time></trkpt><trkpt lat="44.86932" lon="8.9385383"><ele>212.0</ele><time>2026-04-08T15:22:25.012Z</time></trkpt><trkpt lat="44.8693667" lon="8.9386917"><ele>214.0</ele><time>2026-04-08T15:22:26.012Z</time></trkpt><trkpt lat="44.8694167" lon="8.9388533"><ele>216.0</ele><time>2026-04-08T15:22:27.012Z</time></trkpt><trkpt lat="44.869475" lon="8.9390117"><ele>218.0</ele><time>2026-04-08T15:22:28.013Z</time></trkpt><trkpt lat="44.8695433" lon="8.9391567"><ele>220.0</ele><time>2026-04-08T15:22:29.013Z</time></trkpt><trkpt lat="44.8696217" lon="8.9392933"><ele>222.0</ele><time>2026-04-08T15:22:30.013Z</time></trkpt><trkpt lat="44.86972" lon="8.93942"><ele>224.0</ele><time>2026-04-08T15:22:31.012Z</time></trkpt><trkpt lat="44.86983" lon="8.9395433"><ele>226.0</ele><time>2026-04-08T15:22:32.012Z</time></trkpt><trkpt lat="44.86994" lon="8.9396633"><ele>228.0</ele><time>2026-04-08T15:22:33.012Z</time></trkpt><trkpt lat="44.8700183" lon="8.9397567"><ele>228.0</ele><time>2026-04-08T15:22:34.012Z</time></trkpt><trkpt lat="44.870065" lon="8.9398383"><ele>228.0</ele><time>2026-04-08T15:22:35.012Z</time></trkpt><trkpt lat="44.8700833" lon="8.9399317"><ele>228.0</ele><time>2026-04-08T15:22:36.013Z</time></trkpt><trkpt lat="44.8700733" lon="8.9400317"><ele>228.0</ele><time>2026-04-08T15:22:37.012Z</time></trkpt><trkpt lat="44.8700367" lon="8.94013"><ele>228.0</ele><time>2026-04-08T15:22:38.012Z</time></trkpt><trkpt lat="44.8699933" lon="8.94023"><ele>228.0</ele><time>2026-04-08T15:22:39.012Z</time></trkpt><trkpt lat="44.86994" lon="8.9403367"><ele>230.5</ele><time>2026-04-08T15:22:40.012Z</time></trkpt><trkpt lat="44.8698867" lon="8.94044"><ele>233.0</ele><time>2026-04-08T15:22:41.012Z</time></trkpt><trkpt lat="44.8698367" lon="8.9405483"><ele>235.5</ele><time>2026-04-08T15:22:42.013Z</time></trkpt><trkpt lat="44.869785" lon="8.9406467"><ele>238.0</ele><time>2026-04-08T15:22:43.012Z</time></trkpt><trkpt lat="44.869755" lon="8.94075"><ele>240.5</ele><time>2026-04-08T15:22:44.012Z</time></trkpt><trkpt lat="44.869735" lon="8.9408467"><ele>243.0</ele><time>2026-04-08T15:22:45.012Z</time></trkpt><trkpt lat="44.8697267" lon="8.9409517"><ele>246.2</ele><time>2026-04-08T15:22:46.012Z</time></trkpt><trkpt lat="44.86975" lon="8.9410617"><ele>249.4</ele><time>2026-04-08T15:22:47.013Z</time></trkpt><trkpt lat="44.8697917" lon="8.9411717"><ele>252.59999999999997</ele><time>2026-04-08T15:22:48.013Z</time></trkpt><trkpt lat="44.8698433" lon="8.9412883"><ele>255.79999999999998</ele><time>2026-04-08T15:22:49.012Z</time></trkpt><trkpt lat="44.8699067" lon="8.9414067"><ele>259.0</ele><time>2026-04-08T15:22:50.012Z</time></trkpt><trkpt lat="44.8699667" lon="8.9415217"><ele>259.0</ele><time>2026-04-08T15:22:51.013Z</time></trkpt><trkpt lat="44.8700333" lon="8.941625"><ele>259.0</ele><time>2026-04-08T15:22:52.012Z</time></trkpt><trkpt lat="44.87011" lon="8.9417283"><ele>259.0</ele><time>2026-04-08T15:22:53.012Z</time></trkpt><trkpt lat="44.870195" lon="8.9418233"><ele>259.0</ele><time>2026-04-08T15:22:54.013Z</time></trkpt><trkpt lat="44.8702767" lon="8.9419283"><ele>259.0</ele><time>2026-04-08T15:22:55.013Z</time></trkpt><trkpt lat="44.87035" lon="8.9420683"><ele>261.75</ele><time>2026-04-08T15:22:56.013Z</time></trkpt><trkpt lat="44.8704183" lon="8.942215"><ele>264.5</ele><time>2026-04-08T15:22:57.013Z</time></trkpt><trkpt lat="44.8704833" lon="8.9423633"><ele>267.25</ele><time>2026-04-08T15:22:58.013Z</time></trkpt><trkpt lat="44.8705433" lon="8.9425017"><ele>270.0</ele><time>2026-04-08T15:22:59.012Z</time></trkpt><trkpt lat="44.87059" lon="8.9426233"><ele>270.0</ele><time>2026-04-08T15:23:00.012Z</time></trkpt><trkpt lat="44.87062" lon="8.9427317"><ele>270.0</ele><time>2026-04-08T15:23:01.012Z</time></trkpt><trkpt lat="44.87063" lon="8.9428433"><ele>270.0</ele><time>2026-04-08T15:23:02.012Z</time></trkpt><trkpt lat="44.870635" lon="8.9429517"><ele>270.0</ele><time>2026-04-08T15:23:03.013Z</time></trkpt><trkpt lat="44.87062" lon="8.9430633"><ele>270.0</ele><time>2026-04-08T15:23:04.012Z</time></trkpt><trkpt lat="44.8705733" lon="8.9431883"><ele>270.0</ele><time>2026-04-08T15:23:05.012Z</time></trkpt><trkpt lat="44.870505" lon="8.9433267"><ele>266.0</ele><time>2026-04-08T15:23:06.012Z</time></trkpt><trkpt lat="44.870425" lon="8.9434867"><ele>262.0</ele><time>2026-04-08T15:23:07.013Z</time></trkpt><trkpt lat="44.8703383" lon="8.943655"><ele>258.0</ele><time>2026-04-08T15:23:08.013Z</time></trkpt><trkpt lat="44.870245" lon="8.9438133"><ele>254.0</ele><time>2026-04-08T15:23:09.013Z</time></trkpt><trkpt lat="44.8701483" lon="8.9439517"><ele>259.25</ele><time>2026-04-08T15:23:10.013Z</time></trkpt><trkpt lat="44.8700583" lon="8.94408"><ele>264.5</ele><time>2026-04-08T15:23:11.012Z</time></trkpt><trkpt lat="44.869985" lon="8.9441917"><ele>269.75</ele><time>2026-04-08T15:23:12.012Z</time></trkpt><trkpt lat="44.8699333" lon="8.94432"><ele>275.0</ele><time>2026-04-08T15:23:13.013Z</time></trkpt><trkpt lat="44.869905" lon="8.9444767"><ele>275.0</ele><time>2026-04-08T15:23:14.012Z</time></trkpt><trkpt lat="44.86989" lon="8.9446517"><ele>275.0</ele><time>2026-04-08T15:23:15.012Z</time></trkpt><trkpt lat="44.8698683" lon="8.9448183"><ele>275.0</ele><time>2026-04-08T15:23:16.013Z</time></trkpt><trkpt lat="44.8698267" lon="8.9449567"><ele>275.0</ele><time>2026-04-08T15:23:17.012Z</time></trkpt><trkpt lat="44.869805" lon="8.945075"><ele>275.0</ele><time>2026-04-08T15:23:18.012Z</time></trkpt><trkpt lat="44.869815" lon="8.945195"><ele>273.2</ele><time>2026-04-08T15:23:19.012Z</time></trkpt><trkpt lat="44.8698333" lon="8.945325"><ele>271.4</ele><time>2026-04-08T15:23:20.012Z</time></trkpt><trkpt lat="44.8698767" lon="8.94546"><ele>269.6</ele><time>2026-04-08T15:23:21.012Z</time></trkpt><trkpt lat="44.8699483" lon="8.945585"><ele>267.8</ele><time>2026-04-08T15:23:22.013Z</time></trkpt><trkpt lat="44.8700233" lon="8.94568"><ele>266.0</ele><time>2026-04-08T15:23:23.012Z</time></trkpt><trkpt lat="44.8701167" lon="8.945735"><ele>266.0</ele><time>2026-04-08T15:23:24.013Z</time></trkpt><trkpt lat="44.8702283" lon="8.9457667"><ele>266.0</ele><time>2026-04-08T15:23:25.013Z</time></trkpt><trkpt lat="44.870355" lon="8.945795"><ele>266.0</ele><time>2026-04-08T15:23:26.012Z</time></trkpt><trkpt lat="44.8704867" lon="8.9458367"><ele>266.0</ele><time>2026-04-08T15:23:27.013Z</time></trkpt><trkpt lat="44.8706117" lon="8.9459017"><ele>268.25</ele><time>2026-04-08T15:23:28.012Z</time></trkpt><trkpt lat="44.8707133" lon="8.94599"><ele>270.5</ele><time>2026-04-08T15:23:29.012Z</time></trkpt><trkpt lat="44.8708117" lon="8.946075"><ele>272.75</ele><time>2026-04-08T15:23:30.012Z</time></trkpt><trkpt lat="44.8709217" lon="8.94611"><ele>275.0</ele><time>2026-04-08T15:23:31.013Z</time></trkpt><trkpt lat="44.8710333" lon="8.9461017"><ele>275.0</ele><time>2026-04-08T15:23:32.012Z</time></trkpt><trkpt lat="44.8711583" lon="8.9460817"><ele>275.0</ele><time>2026-04-08T15:23:33.013Z</time></trkpt><trkpt lat="44.8712883" lon="8.9460767"><ele>275.0</ele><time>2026-04-08T15:23:34.012Z</time></trkpt><trkpt lat="44.871425" lon="8.9461"><ele>275.0</ele><time>2026-04-08T15:23:35.012Z</time></trkpt><trkpt lat="44.8715517" lon="8.9461517"><ele>275.0</ele><time>2026-04-08T15:23:36.012Z</time></trkpt><trkpt lat="44.87169" lon="8.9462283"><ele>275.0</ele><time>2026-04-08T15:23:37.012Z</time></trkpt><trkpt lat="44.8718317" lon="8.9462967"><ele>275.0</ele><time>2026-04-08T15:23:38.013Z</time></trkpt><trkpt lat="44.8719817" lon="8.9463267"><ele>275.5</ele><time>2026-04-08T15:23:39.013Z</time></trkpt><trkpt lat="44.8721283" lon="8.9463217"><ele>276.0</ele><time>2026-04-08T15:23:40.012Z</time></trkpt><trkpt lat="44.87227" lon="8.9463117"><ele>276.5</ele><time>2026-04-08T15:23:41.012Z</time></trkpt><trkpt lat="44.8723917" lon="8.9463033"><ele>277.0</ele><time>2026-04-08T15:23:42.012Z</time></trkpt><trkpt lat="44.872515" lon="8.9463067"><ele>274.5</ele><time>2026-04-08T15:23:43.013Z</time></trkpt><trkpt lat="44.8726233" lon="8.946345"><ele>272.0</ele><time>2026-04-08T15:23:44.012Z</time></trkpt><trkpt lat="44.87274" lon="8.946415"><ele>269.5</ele><time>2026-04-08T15:23:45.012Z</time></trkpt><trkpt lat="44.8728633" lon="8.946495"><ele>267.0</ele><time>2026-04-08T15:23:46.012Z</time></trkpt><trkpt lat="44.8729817" lon="8.94657"><ele>267.0</ele><time>2026-04-08T15:23:47.013Z</time></trkpt><trkpt lat="44.8731017" lon="8.9466567"><ele>267.0</ele><time>2026-04-08T15:23:48.013Z</time></trkpt><trkpt lat="44.8732317" lon="8.9467517"><ele>267.0</ele><time>2026-04-08T15:23:49.013Z</time></trkpt><trkpt lat="44.8733583" lon="8.94686"><ele>267.0</ele><time>2026-04-08T15:23:50.012Z</time></trkpt><trkpt lat="44.8734817" lon="8.9469767"><ele>269.3333333333333</ele><time>2026-04-08T15:23:51.012Z</time></trkpt><trkpt lat="44.8736" lon="8.9470967"><ele>271.66666666666663</ele><time>2026-04-08T15:23:52.012Z</time></trkpt><trkpt lat="44.8737267" lon="8.9472217"><ele>274.0</ele><time>2026-04-08T15:23:53.012Z</time></trkpt><trkpt lat="44.8738583" lon="8.9473367"><ele>274.0</ele><time>2026-04-08T15:23:54.012Z</time></trkpt><trkpt lat="44.8739817" lon="8.9474433"><ele>274.0</ele><time>2026-04-08T15:23:55.013Z</time></trkpt><trkpt lat="44.87408" lon="8.94754"><ele>274.0</ele><time>2026-04-08T15:23:56.012Z</time></trkpt><trkpt lat="44.8741567" lon="8.94764"><ele>274.0</ele><time>2026-04-08T15:23:57.013Z</time></trkpt><trkpt lat="44.8742067" lon="8.947715"><ele>274.0</ele><time>2026-04-08T15:23:58.012Z</time></trkpt><trkpt lat="44.87424" lon="8.9477983"><ele>273.0</ele><time>2026-04-08T15:24:00.013Z</time></trkpt><trkpt lat="44.8741617" lon="8.947795"><ele>273.0</ele><time>2026-04-08T15:24:05.013Z</time></trkpt><trkpt lat="44.8741617" lon="8.947795"><ele>273.0</ele><time>2026-04-08T15:24:05.013Z</time></trkpt></trkseg></trk></gpx>